﻿<?xml version="1.0" encoding="utf-8"?><gpx creator="Garmin Desktop App" version="1.1" xsi:schemaLocation="http://www.topografix.com/GPX/1/1 http://www.topografix.com/GPX/1/1/gpx.xsd http://www.garmin.com/xmlschemas/WaypointExtension/v1 http://www8.garmin.com/xmlschemas/WaypointExtensionv1.xsd http://www.garmin.com/xmlschemas/TrackPointExtension/v1 http://www.garmin.com/xmlschemas/TrackPointExtensionv1.xsd http://www.garmin.com/xmlschemas/GpxExtensions/v3 http://www8.garmin.com/xmlschemas/GpxExtensionsv3.xsd http://www.garmin.com/xmlschemas/ActivityExtension/v1 http://www8.garmin.com/xmlschemas/ActivityExtensionv1.xsd http://www.garmin.com/xmlschemas/AdventuresExtensions/v1 http://www8.garmin.com/xmlschemas/AdventuresExtensionv1.xsd http://www.garmin.com/xmlschemas/PressureExtension/v1 http://www.garmin.com/xmlschemas/PressureExtensionv1.xsd http://www.garmin.com/xmlschemas/TripExtensions/v1 http://www.garmin.com/xmlschemas/TripExtensionsv1.xsd http://www.garmin.com/xmlschemas/TripMetaDataExtensions/v1 http://www.garmin.com/xmlschemas/TripMetaDataExtensionsv1.xsd http://www.garmin.com/xmlschemas/ViaPointTransportationModeExtensions/v1 http://www.garmin.com/xmlschemas/ViaPointTransportationModeExtensionsv1.xsd http://www.garmin.com/xmlschemas/CreationTimeExtension/v1 http://www.garmin.com/xmlschemas/CreationTimeExtensionsv1.xsd http://www.garmin.com/xmlschemas/AccelerationExtension/v1 http://www.garmin.com/xmlschemas/AccelerationExtensionv1.xsd http://www.garmin.com/xmlschemas/PowerExtension/v1 http://www.garmin.com/xmlschemas/PowerExtensionv1.xsd http://www.garmin.com/xmlschemas/VideoExtension/v1 http://www.garmin.com/xmlschemas/VideoExtensionv1.xsd" xmlns="http://www.topografix.com/GPX/1/1" xmlns:xsi="http://www.w3.org/2001/XMLSchema-instance" xmlns:wptx1="http://www.garmin.com/xmlschemas/WaypointExtension/v1" xmlns:gpxtrx="http://www.garmin.com/xmlschemas/GpxExtensions/v3" xmlns:gpxtpx="http://www.garmin.com/xmlschemas/TrackPointExtension/v1" xmlns:gpxx="http://www.garmin.com/xmlschemas/GpxExtensions/v3" xmlns:trp="http://www.garmin.com/xmlschemas/TripExtensions/v1" xmlns:adv="http://www.garmin.com/xmlschemas/AdventuresExtensions/v1" xmlns:prs="http://www.garmin.com/xmlschemas/PressureExtension/v1" xmlns:tmd="http://www.garmin.com/xmlschemas/TripMetaDataExtensions/v1" xmlns:vptm="http://www.garmin.com/xmlschemas/ViaPointTransportationModeExtensions/v1" xmlns:ctx="http://www.garmin.com/xmlschemas/CreationTimeExtension/v1" xmlns:gpxacc="http://www.garmin.com/xmlschemas/AccelerationExtension/v1" xmlns:gpxpx="http://www.garmin.com/xmlschemas/PowerExtension/v1" xmlns:vidx1="http://www.garmin.com/xmlschemas/VideoExtension/v1">

  <metadata>
    <link href="http://www.garmin.com">
      <text>Garmin International</text>
    </link>
    <time>2026-06-25T22:25:22Z</time>
    <bounds maxlat="52.323089009150863" maxlon="-2.980258008465171" minlat="51.494879024103284" minlon="-6.724089039489627" />
  </metadata>

  <trk>
    <name>260625_Newport_Foulkmills_Track</name>
    <extensions>
      <gpxx:TrackExtension>
        <gpxx:DisplayColor>DarkGray</gpxx:DisplayColor>
      </gpxx:TrackExtension>
    </extensions>
    <trkseg>
      <trkpt lat="51.598354959860444" lon="-2.983930958434939">
        <ele>17.440000000000001</ele>
        <time>2026-06-25T06:43:39Z</time>
      </trkpt>
      <trkpt lat="51.598353032022715" lon="-2.983930036425591">
        <ele>16.960000000000001</ele>
        <time>2026-06-25T06:44:33Z</time>
      </trkpt>
      <trkpt lat="51.598356971517205" lon="-2.98392903059721">
        <ele>16.960000000000001</ele>
        <time>2026-06-25T06:45:08Z</time>
      </trkpt>
      <trkpt lat="51.598356971517205" lon="-2.98392903059721">
        <ele>16.960000000000001</ele>
        <time>2026-06-25T06:45:10Z</time>
      </trkpt>
      <trkpt lat="51.598298968747258" lon="-2.983668018132448">
        <ele>16.48</ele>
        <time>2026-06-25T06:45:12Z</time>
      </trkpt>
      <trkpt lat="51.598298968747258" lon="-2.983668018132448">
        <ele>16.48</ele>
        <time>2026-06-25T06:45:13Z</time>
      </trkpt>
      <trkpt lat="51.598298968747258" lon="-2.983668018132448">
        <ele>16.960000000000001</ele>
        <time>2026-06-25T06:45:26Z</time>
      </trkpt>
      <trkpt lat="51.598298968747258" lon="-2.983668018132448">
        <ele>16.48</ele>
        <time>2026-06-25T06:45:40Z</time>
      </trkpt>
      <trkpt lat="51.598288994282484" lon="-2.983643040060997">
        <ele>16</ele>
        <time>2026-06-25T06:45:41Z</time>
      </trkpt>
      <trkpt lat="51.598286982625723" lon="-2.983525022864342">
        <ele>16</ele>
        <time>2026-06-25T06:45:42Z</time>
      </trkpt>
      <trkpt lat="51.598314978182316" lon="-2.983493003994227">
        <ele>16</ele>
        <time>2026-06-25T06:45:43Z</time>
      </trkpt>
      <trkpt lat="51.59834498539567" lon="-2.98345897346735">
        <ele>15.52</ele>
        <time>2026-06-25T06:45:44Z</time>
      </trkpt>
      <trkpt lat="51.598406005650759" lon="-2.983388984575868">
        <ele>15.52</ele>
        <time>2026-06-25T06:45:45Z</time>
      </trkpt>
      <trkpt lat="51.598420003429055" lon="-2.983387978747487">
        <ele>15.039999999999999</ele>
        <time>2026-06-25T06:45:46Z</time>
      </trkpt>
      <trkpt lat="51.598771037533879" lon="-2.983353026211262">
        <ele>10.23</ele>
        <time>2026-06-25T06:45:59Z</time>
      </trkpt>
      <trkpt lat="51.598771037533879" lon="-2.983314972370863">
        <ele>10.23</ele>
        <time>2026-06-25T06:46:00Z</time>
      </trkpt>
      <trkpt lat="51.598771037533879" lon="-2.983257975429297">
        <ele>9.75</ele>
        <time>2026-06-25T06:46:01Z</time>
      </trkpt>
      <trkpt lat="51.598771037533879" lon="-2.983196033164859">
        <ele>9.75</ele>
        <time>2026-06-25T06:46:02Z</time>
      </trkpt>
      <trkpt lat="51.598771037533879" lon="-2.983144987374544">
        <ele>9.75</ele>
        <time>2026-06-25T06:46:03Z</time>
      </trkpt>
      <trkpt lat="51.598771037533879" lon="-2.983102994039655">
        <ele>9.75</ele>
        <time>2026-06-25T06:46:04Z</time>
      </trkpt>
      <trkpt lat="51.598771037533879" lon="-2.983065024018288">
        <ele>9.75</ele>
        <time>2026-06-25T06:46:05Z</time>
      </trkpt>
      <trkpt lat="51.598771037533879" lon="-2.983030993491411">
        <ele>9.75</ele>
        <time>2026-06-25T06:46:06Z</time>
      </trkpt>
      <trkpt lat="51.598749998956919" lon="-2.982342001050711">
        <ele>10.710000000000001</ele>
        <time>2026-06-25T06:46:15Z</time>
      </trkpt>
      <trkpt lat="51.598742036148906" lon="-2.98214795999229">
        <ele>11.67</ele>
        <time>2026-06-25T06:46:17Z</time>
      </trkpt>
      <trkpt lat="51.598738012835383" lon="-2.982050981372595">
        <ele>11.67</ele>
        <time>2026-06-25T06:46:18Z</time>
      </trkpt>
      <trkpt lat="51.598713034763932" lon="-2.981364000588656">
        <ele>16</ele>
        <time>2026-06-25T06:46:28Z</time>
      </trkpt>
      <trkpt lat="51.598711023107171" lon="-2.981299962848425">
        <ele>17.440000000000001</ele>
        <time>2026-06-25T06:46:54Z</time>
      </trkpt>
      <trkpt lat="51.59871001727879" lon="-2.981262998655438">
        <ele>17.440000000000001</ele>
        <time>2026-06-25T06:46:57Z</time>
      </trkpt>
      <trkpt lat="51.598736001178622" lon="-2.981178006157279">
        <ele>20.32</ele>
        <time>2026-06-25T06:46:58Z</time>
      </trkpt>
      <trkpt lat="51.598773971199989" lon="-2.981177000328898">
        <ele>22.25</ele>
        <time>2026-06-25T06:46:59Z</time>
      </trkpt>
      <trkpt lat="51.598834991455078" lon="-2.981173982843757">
        <ele>24.649999999999999</ele>
        <time>2026-06-25T06:47:00Z</time>
      </trkpt>
      <trkpt lat="51.598905986174941" lon="-2.981171971186996">
        <ele>25.609999999999999</ele>
        <time>2026-06-25T06:47:01Z</time>
      </trkpt>
      <trkpt lat="51.60004198551178" lon="-2.981100976467133">
        <ele>35.229999999999997</ele>
        <time>2026-06-25T06:47:16Z</time>
      </trkpt>
      <trkpt lat="51.600326970219612" lon="-2.981079015880823">
        <ele>36.189999999999998</ele>
        <time>2026-06-25T06:47:20Z</time>
      </trkpt>
      <trkpt lat="51.600999031215906" lon="-2.980942977592349">
        <ele>35.710000000000001</ele>
        <time>2026-06-25T06:47:29Z</time>
      </trkpt>
      <trkpt lat="51.601895978674293" lon="-2.980315005406737">
        <ele>31.379999999999999</ele>
        <time>2026-06-25T06:47:41Z</time>
      </trkpt>
      <trkpt lat="51.601965967565775" lon="-2.980258008465171">
        <ele>30.420000000000002</ele>
        <time>2026-06-25T06:47:42Z</time>
      </trkpt>
      <trkpt lat="51.602117009460926" lon="-2.980275023728609">
        <ele>28.98</ele>
        <time>2026-06-25T06:47:44Z</time>
      </trkpt>
      <trkpt lat="51.602192027494311" lon="-2.980284998193383">
        <ele>28.98</ele>
        <time>2026-06-25T06:47:45Z</time>
      </trkpt>
      <trkpt lat="51.602267967537045" lon="-2.980294972658157">
        <ele>28.98</ele>
        <time>2026-06-25T06:47:46Z</time>
      </trkpt>
      <trkpt lat="51.602343991398811" lon="-2.980305030941963">
        <ele>28.98</ele>
        <time>2026-06-25T06:47:47Z</time>
      </trkpt>
      <trkpt lat="51.602462008595467" lon="-2.98032003454864">
        <ele>28.98</ele>
        <time>2026-06-25T06:47:48Z</time>
      </trkpt>
      <trkpt lat="51.602519005537033" lon="-2.98038499429822">
        <ele>28.98</ele>
        <time>2026-06-25T06:47:49Z</time>
      </trkpt>
      <trkpt lat="51.603334983810782" lon="-2.981428960338235">
        <ele>29.940000000000001</ele>
        <time>2026-06-25T06:47:58Z</time>
      </trkpt>
      <trkpt lat="51.604176023975015" lon="-2.983195027336478">
        <ele>28.5</ele>
        <time>2026-06-25T06:48:08Z</time>
      </trkpt>
      <trkpt lat="51.604556981474161" lon="-2.985235014930368">
        <ele>28.5</ele>
        <time>2026-06-25T06:48:18Z</time>
      </trkpt>
      <trkpt lat="51.604551030322909" lon="-2.987292017787695">
        <ele>27.530000000000001</ele>
        <time>2026-06-25T06:48:27Z</time>
      </trkpt>
      <trkpt lat="51.604131013154984" lon="-2.989496961236">
        <ele>26.09</ele>
        <time>2026-06-25T06:48:36Z</time>
      </trkpt>
      <trkpt lat="51.603885004296899" lon="-2.991195973008871">
        <ele>28.02</ele>
        <time>2026-06-25T06:48:43Z</time>
      </trkpt>
      <trkpt lat="51.603878969326615" lon="-2.991434019058943">
        <ele>28.02</ele>
        <time>2026-06-25T06:48:44Z</time>
      </trkpt>
      <trkpt lat="51.603919034823775" lon="-2.991668963804841">
        <ele>28.02</ele>
        <time>2026-06-25T06:48:45Z</time>
      </trkpt>
      <trkpt lat="51.603967985138297" lon="-2.991892006248236">
        <ele>28.02</ele>
        <time>2026-06-25T06:48:46Z</time>
      </trkpt>
      <trkpt lat="51.60401601344347" lon="-2.992114964872599">
        <ele>28.5</ele>
        <time>2026-06-25T06:48:47Z</time>
      </trkpt>
      <trkpt lat="51.604067981243134" lon="-2.99233297817409">
        <ele>28.5</ele>
        <time>2026-06-25T06:48:48Z</time>
      </trkpt>
      <trkpt lat="51.604132018983364" lon="-2.992539005354047">
        <ele>28.5</ele>
        <time>2026-06-25T06:48:49Z</time>
      </trkpt>
      <trkpt lat="51.604393031448126" lon="-2.993409968912602">
        <ele>29.940000000000001</ele>
        <time>2026-06-25T06:48:55Z</time>
      </trkpt>
      <trkpt lat="51.604393031448126" lon="-2.993557993322611">
        <ele>30.420000000000002</ele>
        <time>2026-06-25T06:48:56Z</time>
      </trkpt>
      <trkpt lat="51.604393031448126" lon="-2.993657989427447">
        <ele>30.420000000000002</ele>
        <time>2026-06-25T06:48:57Z</time>
      </trkpt>
      <trkpt lat="51.604393031448126" lon="-2.993741976097226">
        <ele>30.899999999999999</ele>
        <time>2026-06-25T06:48:58Z</time>
      </trkpt>
      <trkpt lat="51.604393031448126" lon="-2.993839038535953">
        <ele>30.899999999999999</ele>
        <time>2026-06-25T06:48:59Z</time>
      </trkpt>
      <trkpt lat="51.604299992322922" lon="-2.993973987177014">
        <ele>30.899999999999999</ele>
        <time>2026-06-25T06:49:01Z</time>
      </trkpt>
      <trkpt lat="51.604156997054815" lon="-2.994182026013732">
        <ele>30.420000000000002</ele>
        <time>2026-06-25T06:49:02Z</time>
      </trkpt>
      <trkpt lat="51.604156997054815" lon="-2.994182026013732">
        <ele>30.420000000000002</ele>
        <time>2026-06-25T06:49:03Z</time>
      </trkpt>
      <trkpt lat="51.604062030091882" lon="-2.994233993813396">
        <ele>29.940000000000001</ele>
        <time>2026-06-25T06:49:04Z</time>
      </trkpt>
      <trkpt lat="51.603215960785747" lon="-2.994789965450764">
        <ele>28.02</ele>
        <time>2026-06-25T06:49:13Z</time>
      </trkpt>
      <trkpt lat="51.602549012750387" lon="-2.995314002037048">
        <ele>27.050000000000001</ele>
        <time>2026-06-25T06:49:22Z</time>
      </trkpt>
      <trkpt lat="51.602335022762418" lon="-2.995502008125186">
        <ele>26.57</ele>
        <time>2026-06-25T06:49:28Z</time>
      </trkpt>
      <trkpt lat="51.602131007239223" lon="-2.995671993121505">
        <ele>25.609999999999999</ele>
        <time>2026-06-25T06:49:31Z</time>
      </trkpt>
      <trkpt lat="51.602052971720695" lon="-2.995752962306142">
        <ele>25.609999999999999</ele>
        <time>2026-06-25T06:49:32Z</time>
      </trkpt>
      <trkpt lat="51.601132974028587" lon="-2.996712019667029">
        <ele>24.649999999999999</ele>
        <time>2026-06-25T06:49:41Z</time>
      </trkpt>
      <trkpt lat="51.599820032715797" lon="-2.997794961556792">
        <ele>23.210000000000001</ele>
        <time>2026-06-25T06:49:51Z</time>
      </trkpt>
      <trkpt lat="51.598198972642422" lon="-2.998404996469617">
        <ele>24.170000000000002</ele>
        <time>2026-06-25T06:50:02Z</time>
      </trkpt>
      <trkpt lat="51.596916960552335" lon="-2.998142978176475">
        <ele>24.649999999999999</ele>
        <time>2026-06-25T06:50:11Z</time>
      </trkpt>
      <trkpt lat="51.596063012257218" lon="-2.997607039287686">
        <ele>21.289999999999999</ele>
        <time>2026-06-25T06:50:20Z</time>
      </trkpt>
      <trkpt lat="51.595677025616169" lon="-2.997462032362819">
        <ele>19.359999999999999</ele>
        <time>2026-06-25T06:50:25Z</time>
      </trkpt>
      <trkpt lat="51.595563031733036" lon="-2.997429007664323">
        <ele>18.879999999999999</ele>
        <time>2026-06-25T06:50:27Z</time>
      </trkpt>
      <trkpt lat="51.595521038398147" lon="-2.997417021542788">
        <ele>18.879999999999999</ele>
        <time>2026-06-25T06:50:28Z</time>
      </trkpt>
      <trkpt lat="51.59546697512269" lon="-2.99740101210773">
        <ele>18.879999999999999</ele>
        <time>2026-06-25T06:50:29Z</time>
      </trkpt>
      <trkpt lat="51.59546697512269" lon="-2.99740101210773">
        <ele>18.399999999999999</ele>
        <time>2026-06-25T06:50:30Z</time>
      </trkpt>
      <trkpt lat="51.595455994829535" lon="-2.997395982965827">
        <ele>17.920000000000002</ele>
        <time>2026-06-25T06:50:31Z</time>
      </trkpt>
      <trkpt lat="51.595309982076287" lon="-2.997300010174513">
        <ele>17.440000000000001</ele>
        <time>2026-06-25T06:50:38Z</time>
      </trkpt>
      <trkpt lat="51.595252985134721" lon="-2.997222980484366">
        <ele>17.440000000000001</ele>
        <time>2026-06-25T06:50:39Z</time>
      </trkpt>
      <trkpt lat="51.595193976536393" lon="-2.997145028784871">
        <ele>16.960000000000001</ele>
        <time>2026-06-25T06:50:40Z</time>
      </trkpt>
      <trkpt lat="51.59514200873673" lon="-2.997062969952822">
        <ele>17.440000000000001</ele>
        <time>2026-06-25T06:50:41Z</time>
      </trkpt>
      <trkpt lat="51.595110995694995" lon="-2.996949981898069">
        <ele>17.440000000000001</ele>
        <time>2026-06-25T06:50:42Z</time>
      </trkpt>
      <trkpt lat="51.595059027895331" lon="-2.996860966086388">
        <ele>17.440000000000001</ele>
        <time>2026-06-25T06:50:43Z</time>
      </trkpt>
      <trkpt lat="51.595012005418539" lon="-2.996781002730131">
        <ele>17.920000000000002</ele>
        <time>2026-06-25T06:50:44Z</time>
      </trkpt>
      <trkpt lat="51.594917960464954" lon="-2.996725011616945">
        <ele>17.920000000000002</ele>
        <time>2026-06-25T06:50:45Z</time>
      </trkpt>
      <trkpt lat="51.594865992665291" lon="-2.9967359919101">
        <ele>18.399999999999999</ele>
        <time>2026-06-25T06:50:46Z</time>
      </trkpt>
      <trkpt lat="51.594787035137415" lon="-2.996764993295074">
        <ele>18.399999999999999</ele>
        <time>2026-06-25T06:50:47Z</time>
      </trkpt>
      <trkpt lat="51.59471302293241" lon="-2.996792988851667">
        <ele>18.879999999999999</ele>
        <time>2026-06-25T06:50:48Z</time>
      </trkpt>
      <trkpt lat="51.594660971313715" lon="-2.996888961642981">
        <ele>18.879999999999999</ele>
        <time>2026-06-25T06:50:49Z</time>
      </trkpt>
      <trkpt lat="51.594623001292348" lon="-2.99699398688972">
        <ele>18.879999999999999</ele>
        <time>2026-06-25T06:50:50Z</time>
      </trkpt>
      <trkpt lat="51.5945840254426" lon="-2.997099012136459">
        <ele>19.359999999999999</ele>
        <time>2026-06-25T06:50:51Z</time>
      </trkpt>
      <trkpt lat="51.594547983258963" lon="-2.997196996584535">
        <ele>19.359999999999999</ele>
        <time>2026-06-25T06:50:52Z</time>
      </trkpt>
      <trkpt lat="51.594537002965808" lon="-2.997314007952809">
        <ele>19.359999999999999</ele>
        <time>2026-06-25T06:50:53Z</time>
      </trkpt>
      <trkpt lat="51.594523005187511" lon="-2.99740101210773">
        <ele>19.359999999999999</ele>
        <time>2026-06-25T06:50:54Z</time>
      </trkpt>
      <trkpt lat="51.594537002965808" lon="-2.997667975723743">
        <ele>19.359999999999999</ele>
        <time>2026-06-25T06:50:56Z</time>
      </trkpt>
      <trkpt lat="51.594542032107711" lon="-2.997751040384173">
        <ele>19.84</ele>
        <time>2026-06-25T06:50:57Z</time>
      </trkpt>
      <trkpt lat="51.594658037647605" lon="-2.997885989025235">
        <ele>20.32</ele>
        <time>2026-06-25T06:51:03Z</time>
      </trkpt>
      <trkpt lat="51.594658037647605" lon="-2.997885989025235">
        <ele>20.809999999999999</ele>
        <time>2026-06-25T06:51:04Z</time>
      </trkpt>
      <trkpt lat="51.594715034589171" lon="-2.997915996238589">
        <ele>20.809999999999999</ele>
        <time>2026-06-25T06:51:15Z</time>
      </trkpt>
      <trkpt lat="51.5947550162673" lon="-2.997915996238589">
        <ele>21.289999999999999</ele>
        <time>2026-06-25T06:51:16Z</time>
      </trkpt>
      <trkpt lat="51.594803966581821" lon="-2.997915996238589">
        <ele>21.289999999999999</ele>
        <time>2026-06-25T06:51:17Z</time>
      </trkpt>
      <trkpt lat="51.59486398100853" lon="-2.997915996238589">
        <ele>21.77</ele>
        <time>2026-06-25T06:51:18Z</time>
      </trkpt>
      <trkpt lat="51.594908991828561" lon="-2.997915996238589">
        <ele>21.77</ele>
        <time>2026-06-25T06:51:19Z</time>
      </trkpt>
      <trkpt lat="51.595273017883301" lon="-2.997909039258957">
        <ele>21.77</ele>
        <time>2026-06-25T06:51:23Z</time>
      </trkpt>
      <trkpt lat="51.595366979017854" lon="-2.997926976531744">
        <ele>22.25</ele>
        <time>2026-06-25T06:51:24Z</time>
      </trkpt>
      <trkpt lat="51.595474015921354" lon="-2.997981961816549">
        <ele>22.25</ele>
        <time>2026-06-25T06:51:25Z</time>
      </trkpt>
      <trkpt lat="51.596368029713631" lon="-2.99862502142787">
        <ele>26.57</ele>
        <time>2026-06-25T06:51:34Z</time>
      </trkpt>
      <trkpt lat="51.596946967765689" lon="-2.998967003077269">
        <ele>28.02</ele>
        <time>2026-06-25T06:51:40Z</time>
      </trkpt>
      <trkpt lat="51.597994035109878" lon="-2.99980896525085">
        <ele>30.899999999999999</ele>
        <time>2026-06-25T06:51:52Z</time>
      </trkpt>
      <trkpt lat="51.598073998466134" lon="-2.999876020476222">
        <ele>30.899999999999999</ele>
        <time>2026-06-25T06:51:53Z</time>
      </trkpt>
      <trkpt lat="51.5981500223279" lon="-2.999945003539324">
        <ele>31.379999999999999</ele>
        <time>2026-06-25T06:51:54Z</time>
      </trkpt>
      <trkpt lat="51.599191976711154" lon="-3.001059964299202">
        <ele>30.420000000000002</ele>
        <time>2026-06-25T06:52:07Z</time>
      </trkpt>
      <trkpt lat="51.599577963352203" lon="-3.001533038914204">
        <ele>28.02</ele>
        <time>2026-06-25T06:52:12Z</time>
      </trkpt>
      <trkpt lat="51.599852973595262" lon="-3.00197602249682">
        <ele>27.050000000000001</ele>
        <time>2026-06-25T06:52:16Z</time>
      </trkpt>
      <trkpt lat="51.600334011018276" lon="-3.003491973504424">
        <ele>26.57</ele>
        <time>2026-06-25T06:52:27Z</time>
      </trkpt>
      <trkpt lat="51.600468037649989" lon="-3.003919031471014">
        <ele>24.649999999999999</ele>
        <time>2026-06-25T06:52:35Z</time>
      </trkpt>
      <trkpt lat="51.600543977692723" lon="-3.004257995635271">
        <ele>24.170000000000002</ele>
        <time>2026-06-25T06:52:59Z</time>
      </trkpt>
      <trkpt lat="51.600554035976529" lon="-3.004376012831926">
        <ele>24.170000000000002</ele>
        <time>2026-06-25T06:53:00Z</time>
      </trkpt>
      <trkpt lat="51.600566022098064" lon="-3.004502998664975">
        <ele>24.170000000000002</ele>
        <time>2026-06-25T06:53:01Z</time>
      </trkpt>
      <trkpt lat="51.600563004612923" lon="-3.004651023074985">
        <ele>23.690000000000001</ele>
        <time>2026-06-25T06:53:02Z</time>
      </trkpt>
      <trkpt lat="51.600538026541471" lon="-3.004800975322723">
        <ele>23.210000000000001</ele>
        <time>2026-06-25T06:53:03Z</time>
      </trkpt>
      <trkpt lat="51.600388996303082" lon="-3.005646960809827">
        <ele>22.25</ele>
        <time>2026-06-25T06:53:08Z</time>
      </trkpt>
      <trkpt lat="51.60032101906836" lon="-3.005798002704978">
        <ele>22.25</ele>
        <time>2026-06-25T06:53:09Z</time>
      </trkpt>
      <trkpt lat="51.600241977721453" lon="-3.00595298409462">
        <ele>22.25</ele>
        <time>2026-06-25T06:53:10Z</time>
      </trkpt>
      <trkpt lat="51.59939800389111" lon="-3.007643027231097">
        <ele>24.649999999999999</ele>
        <time>2026-06-25T06:53:19Z</time>
      </trkpt>
      <trkpt lat="51.598784029483795" lon="-3.009523004293442">
        <ele>22.25</ele>
        <time>2026-06-25T06:53:28Z</time>
      </trkpt>
      <trkpt lat="51.597982970997691" lon="-3.011877983808518">
        <ele>20.32</ele>
        <time>2026-06-25T06:53:38Z</time>
      </trkpt>
      <trkpt lat="51.597121981903911" lon="-3.014389034360647">
        <ele>18.399999999999999</ele>
        <time>2026-06-25T06:53:50Z</time>
      </trkpt>
      <trkpt lat="51.596364006400108" lon="-3.016636976972222">
        <ele>20.809999999999999</ele>
        <time>2026-06-25T06:54:00Z</time>
      </trkpt>
      <trkpt lat="51.595144020393491" lon="-3.020233986899257">
        <ele>24.649999999999999</ele>
        <time>2026-06-25T06:54:14Z</time>
      </trkpt>
      <trkpt lat="51.593877011910081" lon="-3.02402101457119">
        <ele>28.02</ele>
        <time>2026-06-25T06:54:28Z</time>
      </trkpt>
      <trkpt lat="51.592442030087113" lon="-3.028000993654132">
        <ele>31.379999999999999</ele>
        <time>2026-06-25T06:54:43Z</time>
      </trkpt>
      <trkpt lat="51.591238975524902" lon="-3.029931010678411">
        <ele>36.670000000000002</ele>
        <time>2026-06-25T06:54:52Z</time>
      </trkpt>
      <trkpt lat="51.590062994509935" lon="-3.030966008082032">
        <ele>42.920000000000002</ele>
        <time>2026-06-25T06:55:00Z</time>
      </trkpt>
      <trkpt lat="51.588575961068273" lon="-3.03208096884191">
        <ele>48.200000000000003</ele>
        <time>2026-06-25T06:55:12Z</time>
      </trkpt>
      <trkpt lat="51.587050035595894" lon="-3.033203976228833">
        <ele>56.859999999999999</ele>
        <time>2026-06-25T06:55:25Z</time>
      </trkpt>
      <trkpt lat="51.586129032075405" lon="-3.033885005861521">
        <ele>61.659999999999997</ele>
        <time>2026-06-25T06:55:33Z</time>
      </trkpt>
      <trkpt lat="51.58517399802804" lon="-3.034578021615744">
        <ele>63.579999999999998</ele>
        <time>2026-06-25T06:55:42Z</time>
      </trkpt>
      <trkpt lat="51.585051035508513" lon="-3.034671982750297">
        <ele>63.100000000000001</ele>
        <time>2026-06-25T06:55:43Z</time>
      </trkpt>
      <trkpt lat="51.584497997537255" lon="-3.035075990483165">
        <ele>62.619999999999997</ele>
        <time>2026-06-25T06:55:47Z</time>
      </trkpt>
      <trkpt lat="51.584350978955626" lon="-3.035169029608369">
        <ele>63.100000000000001</ele>
        <time>2026-06-25T06:55:48Z</time>
      </trkpt>
      <trkpt lat="51.583009958267212" lon="-3.035788033157587">
        <ele>63.100000000000001</ele>
        <time>2026-06-25T06:55:56Z</time>
      </trkpt>
      <trkpt lat="51.582661019638181" lon="-3.035779986530542">
        <ele>62.619999999999997</ele>
        <time>2026-06-25T06:55:58Z</time>
      </trkpt>
      <trkpt lat="51.581390993669629" lon="-3.035491984337568">
        <ele>56.859999999999999</ele>
        <time>2026-06-25T06:56:05Z</time>
      </trkpt>
      <trkpt lat="51.580344010144472" lon="-3.034696960821748">
        <ele>51.57</ele>
        <time>2026-06-25T06:56:11Z</time>
      </trkpt>
      <trkpt lat="51.579081024974585" lon="-3.033329034224153">
        <ele>40.990000000000002</ele>
        <time>2026-06-25T06:56:20Z</time>
      </trkpt>
      <trkpt lat="51.5778489690274" lon="-3.032368971034885">
        <ele>35.229999999999997</ele>
        <time>2026-06-25T06:56:28Z</time>
      </trkpt>
      <trkpt lat="51.576992003247142" lon="-3.032119022682309">
        <ele>31.379999999999999</ele>
        <time>2026-06-25T06:56:33Z</time>
      </trkpt>
      <trkpt lat="51.576854959130287" lon="-3.032119022682309">
        <ele>29.940000000000001</ele>
        <time>2026-06-25T06:56:34Z</time>
      </trkpt>
      <trkpt lat="51.57668698579073" lon="-3.032119022682309">
        <ele>28.98</ele>
        <time>2026-06-25T06:56:35Z</time>
      </trkpt>
      <trkpt lat="51.575686018913984" lon="-3.032239973545075">
        <ele>24.170000000000002</ele>
        <time>2026-06-25T06:56:42Z</time>
      </trkpt>
      <trkpt lat="51.575316963717341" lon="-3.032327983528376">
        <ele>22.73</ele>
        <time>2026-06-25T06:56:45Z</time>
      </trkpt>
      <trkpt lat="51.575216967612505" lon="-3.032351033762097">
        <ele>22.25</ele>
        <time>2026-06-25T06:56:46Z</time>
      </trkpt>
      <trkpt lat="51.574708018451929" lon="-3.032479025423527">
        <ele>17.440000000000001</ele>
        <time>2026-06-25T06:56:52Z</time>
      </trkpt>
      <trkpt lat="51.573402034118772" lon="-3.032820001244545">
        <ele>17.440000000000001</ele>
        <time>2026-06-25T06:57:00Z</time>
      </trkpt>
      <trkpt lat="51.571069015190005" lon="-3.033471023663878">
        <ele>20.809999999999999</ele>
        <time>2026-06-25T06:57:13Z</time>
      </trkpt>
      <trkpt lat="51.568620996549726" lon="-3.034557988867164">
        <ele>27.050000000000001</ele>
        <time>2026-06-25T06:57:26Z</time>
      </trkpt>
      <trkpt lat="51.566347992047668" lon="-3.035951983183622">
        <ele>36.670000000000002</ele>
        <time>2026-06-25T06:57:38Z</time>
      </trkpt>
      <trkpt lat="51.564343962818384" lon="-3.037589974701405">
        <ele>40.990000000000002</ele>
        <time>2026-06-25T06:57:47Z</time>
      </trkpt>
      <trkpt lat="51.561535019427538" lon="-3.040625983849168">
        <ele>44.359999999999999</ele>
        <time>2026-06-25T06:58:00Z</time>
      </trkpt>
      <trkpt lat="51.559361005201936" lon="-3.043730976060033">
        <ele>42.920000000000002</ele>
        <time>2026-06-25T06:58:11Z</time>
      </trkpt>
      <trkpt lat="51.557048019021749" lon="-3.047900972887874">
        <ele>44.359999999999999</ele>
        <time>2026-06-25T06:58:24Z</time>
      </trkpt>
      <trkpt lat="51.555126970633864" lon="-3.052388979122043">
        <ele>50.130000000000003</ele>
        <time>2026-06-25T06:58:37Z</time>
      </trkpt>
      <trkpt lat="51.554262964054942" lon="-3.054879996925592">
        <ele>55.890000000000001</ele>
        <time>2026-06-25T06:58:45Z</time>
      </trkpt>
      <trkpt lat="51.553230984136462" lon="-3.058384973555803">
        <ele>66.469999999999999</ele>
        <time>2026-06-25T06:58:56Z</time>
      </trkpt>
      <trkpt lat="51.552184000611305" lon="-3.063013041391969">
        <ele>74.640000000000001</ele>
        <time>2026-06-25T06:59:09Z</time>
      </trkpt>
      <trkpt lat="51.551384031772614" lon="-3.067845962941647">
        <ele>76.560000000000002</ele>
        <time>2026-06-25T06:59:22Z</time>
      </trkpt>
      <trkpt lat="51.550822025164962" lon="-3.07249297387898">
        <ele>71.760000000000005</ele>
        <time>2026-06-25T06:59:34Z</time>
      </trkpt>
      <trkpt lat="51.550355991348624" lon="-3.077384987846017">
        <ele>61.659999999999997</ele>
        <time>2026-06-25T06:59:46Z</time>
      </trkpt>
      <trkpt lat="51.550071006640792" lon="-3.082734989002347">
        <ele>60.219999999999999</ele>
        <time>2026-06-25T06:59:59Z</time>
      </trkpt>
      <trkpt lat="51.549789039418101" lon="-3.08761996217072">
        <ele>65.989999999999995</ele>
        <time>2026-06-25T07:00:11Z</time>
      </trkpt>
      <trkpt lat="51.549376985058188" lon="-3.090869961306453">
        <ele>68.870000000000005</ele>
        <time>2026-06-25T07:00:20Z</time>
      </trkpt>
      <trkpt lat="51.548575004562736" lon="-3.094883970916271">
        <ele>69.349999999999994</ele>
        <time>2026-06-25T07:00:32Z</time>
      </trkpt>
      <trkpt lat="51.547821974381804" lon="-3.097623009234667">
        <ele>66.469999999999999</ele>
        <time>2026-06-25T07:00:39Z</time>
      </trkpt>
      <trkpt lat="51.546194963157177" lon="-3.101796023547649">
        <ele>58.780000000000001</ele>
        <time>2026-06-25T07:00:50Z</time>
      </trkpt>
      <trkpt lat="51.543993037194014" lon="-3.106923988088965">
        <ele>48.200000000000003</ele>
        <time>2026-06-25T07:01:04Z</time>
      </trkpt>
      <trkpt lat="51.542724017053843" lon="-3.110894998535514">
        <ele>37.630000000000003</ele>
        <time>2026-06-25T07:01:14Z</time>
      </trkpt>
      <trkpt lat="51.54183897189796" lon="-3.115092990919948">
        <ele>31.859999999999999</ele>
        <time>2026-06-25T07:01:24Z</time>
      </trkpt>
      <trkpt lat="51.541308984160423" lon="-3.119834968820214">
        <ele>35.710000000000001</ele>
        <time>2026-06-25T07:01:35Z</time>
      </trkpt>
      <trkpt lat="51.541231032460928" lon="-3.12467903830111">
        <ele>49.159999999999997</ele>
        <time>2026-06-25T07:01:46Z</time>
      </trkpt>
      <trkpt lat="51.541577959433198" lon="-3.129109963774681">
        <ele>62.619999999999997</ele>
        <time>2026-06-25T07:01:56Z</time>
      </trkpt>
      <trkpt lat="51.542127979919314" lon="-3.132527014240623">
        <ele>70.790000000000006</ele>
        <time>2026-06-25T07:02:04Z</time>
      </trkpt>
      <trkpt lat="51.543351989239454" lon="-3.1389469653368">
        <ele>78.480000000000004</ele>
        <time>2026-06-25T07:02:19Z</time>
      </trkpt>
      <trkpt lat="51.544456975534558" lon="-3.145388038828969">
        <ele>81.370000000000005</ele>
        <time>2026-06-25T07:02:34Z</time>
      </trkpt>
      <trkpt lat="51.545305978506804" lon="-3.151455027982593">
        <ele>83.769999999999996</ele>
        <time>2026-06-25T07:02:48Z</time>
      </trkpt>
      <trkpt lat="51.546045010909438" lon="-3.158480990678072">
        <ele>86.659999999999997</ele>
        <time>2026-06-25T07:03:04Z</time>
      </trkpt>
      <trkpt lat="51.546461004763842" lon="-3.164675971493125">
        <ele>89.060000000000002</ele>
        <time>2026-06-25T07:03:18Z</time>
      </trkpt>
      <trkpt lat="51.546697039157152" lon="-3.171306978911161">
        <ele>99.150000000000006</ele>
        <time>2026-06-25T07:03:33Z</time>
      </trkpt>
      <trkpt lat="51.546724028885365" lon="-3.178428998216987">
        <ele>107.81</ele>
        <time>2026-06-25T07:03:49Z</time>
      </trkpt>
      <trkpt lat="51.54650199227035" lon="-3.185066040605307">
        <ele>109.25</ele>
        <time>2026-06-25T07:04:04Z</time>
      </trkpt>
      <trkpt lat="51.546165039762855" lon="-3.190319985151291">
        <ele>113.09</ele>
        <time>2026-06-25T07:04:16Z</time>
      </trkpt>
      <trkpt lat="51.545676961541176" lon="-3.195585999637842">
        <ele>121.26000000000001</ele>
        <time>2026-06-25T07:04:28Z</time>
      </trkpt>
      <trkpt lat="51.545155020430684" lon="-3.199072033166885">
        <ele>126.55</ele>
        <time>2026-06-25T07:04:36Z</time>
      </trkpt>
      <trkpt lat="51.543991025537252" lon="-3.203617036342621">
        <ele>126.06999999999999</ele>
        <time>2026-06-25T07:04:47Z</time>
      </trkpt>
      <trkpt lat="51.542469039559364" lon="-3.207351006567478">
        <ele>119.34</ele>
        <time>2026-06-25T07:04:57Z</time>
      </trkpt>
      <trkpt lat="51.540792994201183" lon="-3.210353991016746">
        <ele>110.20999999999999</ele>
        <time>2026-06-25T07:05:06Z</time>
      </trkpt>
      <trkpt lat="51.538632977753878" lon="-3.213138962164521">
        <ele>101.08</ele>
        <time>2026-06-25T07:05:16Z</time>
      </trkpt>
      <trkpt lat="51.535863010212779" lon="-3.21614203043282">
        <ele>90.980000000000004</ele>
        <time>2026-06-25T07:05:28Z</time>
      </trkpt>
      <trkpt lat="51.534396009519696" lon="-3.218795992434025">
        <ele>86.659999999999997</ele>
        <time>2026-06-25T07:05:36Z</time>
      </trkpt>
      <trkpt lat="51.53337299823761" lon="-3.221896961331368">
        <ele>85.209999999999994</ele>
        <time>2026-06-25T07:05:44Z</time>
      </trkpt>
      <trkpt lat="51.532678976655006" lon="-3.225732017308474">
        <ele>87.140000000000001</ele>
        <time>2026-06-25T07:05:53Z</time>
      </trkpt>
      <trkpt lat="51.53206299059093" lon="-3.22819503955543">
        <ele>88.579999999999998</ele>
        <time>2026-06-25T07:05:59Z</time>
      </trkpt>
      <trkpt lat="51.530884997919202" lon="-3.231235994026065">
        <ele>89.060000000000002</ele>
        <time>2026-06-25T07:06:07Z</time>
      </trkpt>
      <trkpt lat="51.529049025848508" lon="-3.234596969559789">
        <ele>85.209999999999994</ele>
        <time>2026-06-25T07:06:17Z</time>
      </trkpt>
      <trkpt lat="51.527569033205509" lon="-3.238346027210355">
        <ele>76.560000000000002</ele>
        <time>2026-06-25T07:06:27Z</time>
      </trkpt>
      <trkpt lat="51.526548033580184" lon="-3.242476964369416">
        <ele>67.430000000000007</ele>
        <time>2026-06-25T07:06:37Z</time>
      </trkpt>
      <trkpt lat="51.5260049700737" lon="-3.246838990598917">
        <ele>57.340000000000003</ele>
        <time>2026-06-25T07:06:47Z</time>
      </trkpt>
      <trkpt lat="51.52559501118958" lon="-3.252573972567916">
        <ele>48.68</ele>
        <time>2026-06-25T07:07:00Z</time>
      </trkpt>
      <trkpt lat="51.525339027866721" lon="-3.256589993834496">
        <ele>52.049999999999997</ele>
        <time>2026-06-25T07:07:10Z</time>
      </trkpt>
      <trkpt lat="51.524877017363906" lon="-3.260627975687385">
        <ele>63.579999999999998</ele>
        <time>2026-06-25T07:07:21Z</time>
      </trkpt>
      <trkpt lat="51.524185007438064" lon="-3.263780996203423">
        <ele>73.680000000000007</ele>
        <time>2026-06-25T07:07:30Z</time>
      </trkpt>
      <trkpt lat="51.523064011707902" lon="-3.267102995887399">
        <ele>79.450000000000003</ele>
        <time>2026-06-25T07:07:40Z</time>
      </trkpt>
      <trkpt lat="51.521518975496292" lon="-3.270311001688242">
        <ele>86.659999999999997</ele>
        <time>2026-06-25T07:07:50Z</time>
      </trkpt>
      <trkpt lat="51.519645033404231" lon="-3.273283978924155">
        <ele>88.579999999999998</ele>
        <time>2026-06-25T07:08:01Z</time>
      </trkpt>
      <trkpt lat="51.518039982765913" lon="-3.276156038045883">
        <ele>86.659999999999997</ele>
        <time>2026-06-25T07:08:10Z</time>
      </trkpt>
      <trkpt lat="51.516832988709211" lon="-3.279149970039725">
        <ele>81.849999999999994</ele>
        <time>2026-06-25T07:08:18Z</time>
      </trkpt>
      <trkpt lat="51.51599102653563" lon="-3.282442968338728">
        <ele>78</ele>
        <time>2026-06-25T07:08:26Z</time>
      </trkpt>
      <trkpt lat="51.514866007491946" lon="-3.287963960319758">
        <ele>73.200000000000003</ele>
        <time>2026-06-25T07:08:39Z</time>
      </trkpt>
      <trkpt lat="51.513583995401859" lon="-3.291887026280165">
        <ele>68.870000000000005</ele>
        <time>2026-06-25T07:08:49Z</time>
      </trkpt>
      <trkpt lat="51.511871991679072" lon="-3.29535897821188">
        <ele>63.579999999999998</ele>
        <time>2026-06-25T07:08:59Z</time>
      </trkpt>
      <trkpt lat="51.511503020301461" lon="-3.296027015894651">
        <ele>62.619999999999997</ele>
        <time>2026-06-25T07:09:01Z</time>
      </trkpt>
      <trkpt lat="51.511319037526846" lon="-3.296353993937373">
        <ele>61.659999999999997</ele>
        <time>2026-06-25T07:09:02Z</time>
      </trkpt>
      <trkpt lat="51.509415004402399" lon="-3.300173040479422">
        <ele>57.82</ele>
        <time>2026-06-25T07:09:13Z</time>
      </trkpt>
      <trkpt lat="51.507970970124006" lon="-3.304465999826789">
        <ele>55.890000000000001</ele>
        <time>2026-06-25T07:09:24Z</time>
      </trkpt>
      <trkpt lat="51.506692981347442" lon="-3.309336975216866">
        <ele>62.140000000000001</ele>
        <time>2026-06-25T07:09:36Z</time>
      </trkpt>
      <trkpt lat="51.50615100748837" lon="-3.312768023461103">
        <ele>64.549999999999997</ele>
        <time>2026-06-25T07:09:44Z</time>
      </trkpt>
      <trkpt lat="51.505927965044975" lon="-3.316782033070922">
        <ele>66.950000000000003</ele>
        <time>2026-06-25T07:09:53Z</time>
      </trkpt>
      <trkpt lat="51.506168022751808" lon="-3.320783972740173">
        <ele>65.989999999999995</ele>
        <time>2026-06-25T07:10:02Z</time>
      </trkpt>
      <trkpt lat="51.506869001314044" lon="-3.324650963768363">
        <ele>62.619999999999997</ele>
        <time>2026-06-25T07:10:11Z</time>
      </trkpt>
      <trkpt lat="51.507815988734365" lon="-3.329322030767798">
        <ele>56.369999999999997</ele>
        <time>2026-06-25T07:10:22Z</time>
      </trkpt>
      <trkpt lat="51.508115977048874" lon="-3.333287006244063">
        <ele>48.68</ele>
        <time>2026-06-25T07:10:31Z</time>
      </trkpt>
      <trkpt lat="51.508168028667569" lon="-3.339054007083178">
        <ele>48.200000000000003</ele>
        <time>2026-06-25T07:10:44Z</time>
      </trkpt>
      <trkpt lat="51.508524008095264" lon="-3.34614903666079">
        <ele>45.32</ele>
        <time>2026-06-25T07:11:00Z</time>
      </trkpt>
      <trkpt lat="51.509093977510929" lon="-3.350934013724327">
        <ele>43.399999999999999</ele>
        <time>2026-06-25T07:11:11Z</time>
      </trkpt>
      <trkpt lat="51.510094022378325" lon="-3.356445031240583">
        <ele>44.840000000000003</ele>
        <time>2026-06-25T07:11:24Z</time>
      </trkpt>
      <trkpt lat="51.511186016723514" lon="-3.360957009717822">
        <ele>49.159999999999997</ele>
        <time>2026-06-25T07:11:35Z</time>
      </trkpt>
      <trkpt lat="51.51261898688972" lon="-3.36621698923409">
        <ele>56.369999999999997</ele>
        <time>2026-06-25T07:11:48Z</time>
      </trkpt>
      <trkpt lat="51.513937963172793" lon="-3.371581993997097">
        <ele>67.430000000000007</ele>
        <time>2026-06-25T07:12:01Z</time>
      </trkpt>
      <trkpt lat="51.514516985043883" lon="-3.374580033123493">
        <ele>71.760000000000005</ele>
        <time>2026-06-25T07:12:09Z</time>
      </trkpt>
      <trkpt lat="51.515122996643186" lon="-3.378314003348351">
        <ele>72.239999999999995</ele>
        <time>2026-06-25T07:12:18Z</time>
      </trkpt>
      <trkpt lat="51.515629012137651" lon="-3.382743000984192">
        <ele>66.950000000000003</ele>
        <time>2026-06-25T07:12:28Z</time>
      </trkpt>
      <trkpt lat="51.515872003510594" lon="-3.386046979576349">
        <ele>65.989999999999995</ele>
        <time>2026-06-25T07:12:36Z</time>
      </trkpt>
      <trkpt lat="51.515988009050488" lon="-3.390840003266931">
        <ele>64.069999999999993</ele>
        <time>2026-06-25T07:12:49Z</time>
      </trkpt>
      <trkpt lat="51.5159079618752" lon="-3.395004970952869">
        <ele>65.989999999999995</ele>
        <time>2026-06-25T07:13:00Z</time>
      </trkpt>
      <trkpt lat="51.515608979389071" lon="-3.399580987170339">
        <ele>67.909999999999997</ele>
        <time>2026-06-25T07:13:12Z</time>
      </trkpt>
      <trkpt lat="51.514983018860221" lon="-3.404833003878593">
        <ele>68.870000000000005</ele>
        <time>2026-06-25T07:13:26Z</time>
      </trkpt>
      <trkpt lat="51.51429696008563" lon="-3.408903004601598">
        <ele>70.310000000000002</ele>
        <time>2026-06-25T07:13:37Z</time>
      </trkpt>
      <trkpt lat="51.513485005125403" lon="-3.413028996437788">
        <ele>74.159999999999997</ele>
        <time>2026-06-25T07:13:48Z</time>
      </trkpt>
      <trkpt lat="51.512857032939792" lon="-3.416042039170861">
        <ele>79.930000000000007</ele>
        <time>2026-06-25T07:13:56Z</time>
      </trkpt>
      <trkpt lat="51.511885989457369" lon="-3.42070103622973">
        <ele>87.620000000000005</ele>
        <time>2026-06-25T07:14:08Z</time>
      </trkpt>
      <trkpt lat="51.510859038680792" lon="-3.425850961357355">
        <ele>98.189999999999998</ele>
        <time>2026-06-25T07:14:21Z</time>
      </trkpt>
      <trkpt lat="51.510337013751268" lon="-3.430601991713047">
        <ele>104.44</ele>
        <time>2026-06-25T07:14:32Z</time>
      </trkpt>
      <trkpt lat="51.510114977136254" lon="-3.436551969498396">
        <ele>102.04000000000001</ele>
        <time>2026-06-25T07:14:45Z</time>
      </trkpt>
      <trkpt lat="51.510267024859786" lon="-3.442074973136187">
        <ele>94.829999999999998</ele>
        <time>2026-06-25T07:14:57Z</time>
      </trkpt>
      <trkpt lat="51.510652005672455" lon="-3.446949971839786">
        <ele>87.140000000000001</ele>
        <time>2026-06-25T07:15:08Z</time>
      </trkpt>
      <trkpt lat="51.511263968423009" lon="-3.451142013072968">
        <ele>81.849999999999994</ele>
        <time>2026-06-25T07:15:18Z</time>
      </trkpt>
      <trkpt lat="51.512279016897082" lon="-3.455280996859074">
        <ele>76.079999999999998</ele>
        <time>2026-06-25T07:15:28Z</time>
      </trkpt>
      <trkpt lat="51.513211000710726" lon="-3.458342989906669">
        <ele>70.790000000000006</ele>
        <time>2026-06-25T07:15:36Z</time>
      </trkpt>
      <trkpt lat="51.513705030083656" lon="-3.459970001131296">
        <ele>67.909999999999997</ele>
        <time>2026-06-25T07:15:42Z</time>
      </trkpt>
      <trkpt lat="51.514110965654254" lon="-3.461480000987649">
        <ele>65.510000000000005</ele>
        <time>2026-06-25T07:15:51Z</time>
      </trkpt>
      <trkpt lat="51.514477003365755" lon="-3.462911965325475">
        <ele>62.619999999999997</ele>
        <time>2026-06-25T07:16:03Z</time>
      </trkpt>
      <trkpt lat="51.514495024457574" lon="-3.463005004450679">
        <ele>62.619999999999997</ele>
        <time>2026-06-25T07:16:04Z</time>
      </trkpt>
      <trkpt lat="51.514512039721012" lon="-3.463092008605599">
        <ele>62.140000000000001</ele>
        <time>2026-06-25T07:16:05Z</time>
      </trkpt>
      <trkpt lat="51.514580016955733" lon="-3.463439019396901">
        <ele>60.700000000000003</ele>
        <time>2026-06-25T07:16:14Z</time>
      </trkpt>
      <trkpt lat="51.514653023332357" lon="-3.463816959410906">
        <ele>61.18</ele>
        <time>2026-06-25T07:16:27Z</time>
      </trkpt>
      <trkpt lat="51.514760982245207" lon="-3.464376032352448">
        <ele>61.18</ele>
        <time>2026-06-25T07:16:40Z</time>
      </trkpt>
      <trkpt lat="51.514822002500296" lon="-3.464691024273634">
        <ele>62.619999999999997</ele>
        <time>2026-06-25T07:16:48Z</time>
      </trkpt>
      <trkpt lat="51.514888973906636" lon="-3.465038035064936">
        <ele>64.069999999999993</ele>
        <time>2026-06-25T07:17:04Z</time>
      </trkpt>
      <trkpt lat="51.514920992776752" lon="-3.465201985090971">
        <ele>64.069999999999993</ele>
        <time>2026-06-25T07:17:19Z</time>
      </trkpt>
      <trkpt lat="51.514998022466898" lon="-3.465642035007477">
        <ele>62.619999999999997</ele>
        <time>2026-06-25T07:17:30Z</time>
      </trkpt>
      <trkpt lat="51.515057031065226" lon="-3.466090969741345">
        <ele>60.219999999999999</ele>
        <time>2026-06-25T07:17:43Z</time>
      </trkpt>
      <trkpt lat="51.515078991651535" lon="-3.466253997758031">
        <ele>60.219999999999999</ele>
        <time>2026-06-25T07:17:52Z</time>
      </trkpt>
      <trkpt lat="51.515146968886256" lon="-3.466771999374032">
        <ele>61.18</ele>
        <time>2026-06-25T07:18:10Z</time>
      </trkpt>
      <trkpt lat="51.515230033546686" lon="-3.467398965731263">
        <ele>59.740000000000002</ele>
        <time>2026-06-25T07:18:19Z</time>
      </trkpt>
      <trkpt lat="51.515258029103279" lon="-3.467612033709884">
        <ele>58.299999999999997</ele>
        <time>2026-06-25T07:18:23Z</time>
      </trkpt>
      <trkpt lat="51.515264986082911" lon="-3.467666013166308">
        <ele>57.82</ele>
        <time>2026-06-25T07:18:24Z</time>
      </trkpt>
      <trkpt lat="51.515307985246181" lon="-3.468151995912194">
        <ele>55.890000000000001</ele>
        <time>2026-06-25T07:18:31Z</time>
      </trkpt>
      <trkpt lat="51.515342015773058" lon="-3.468597996979952">
        <ele>58.299999999999997</ele>
        <time>2026-06-25T07:18:38Z</time>
      </trkpt>
      <trkpt lat="51.51534603908658" lon="-3.468652982264757">
        <ele>58.780000000000001</ele>
        <time>2026-06-25T07:18:39Z</time>
      </trkpt>
      <trkpt lat="51.515352996066213" lon="-3.468736968934536">
        <ele>59.740000000000002</ele>
        <time>2026-06-25T07:18:40Z</time>
      </trkpt>
      <trkpt lat="51.515392977744341" lon="-3.469266034662724">
        <ele>61.18</ele>
        <time>2026-06-25T07:18:45Z</time>
      </trkpt>
      <trkpt lat="51.515399012714624" lon="-3.469339963048697">
        <ele>61.18</ele>
        <time>2026-06-25T07:18:46Z</time>
      </trkpt>
      <trkpt lat="51.515404041856527" lon="-3.469410035759211">
        <ele>61.18</ele>
        <time>2026-06-25T07:18:47Z</time>
      </trkpt>
      <trkpt lat="51.515408987179399" lon="-3.469469966366887">
        <ele>61.18</ele>
        <time>2026-06-25T07:18:48Z</time>
      </trkpt>
      <trkpt lat="51.51541200466454" lon="-3.469519000500441">
        <ele>61.18</ele>
        <time>2026-06-25T07:18:49Z</time>
      </trkpt>
      <trkpt lat="51.51541200466454" lon="-3.469519000500441">
        <ele>60.700000000000003</ele>
        <time>2026-06-25T07:18:56Z</time>
      </trkpt>
      <trkpt lat="51.51543396525085" lon="-3.469804991036654">
        <ele>59.259999999999998</ele>
        <time>2026-06-25T07:19:06Z</time>
      </trkpt>
      <trkpt lat="51.515472019091249" lon="-3.470301032066345">
        <ele>57.82</ele>
        <time>2026-06-25T07:19:13Z</time>
      </trkpt>
      <trkpt lat="51.515478976070881" lon="-3.470457019284368">
        <ele>57.340000000000003</ele>
        <time>2026-06-25T07:19:15Z</time>
      </trkpt>
      <trkpt lat="51.515482999384403" lon="-3.470529019832611">
        <ele>57.340000000000003</ele>
        <time>2026-06-25T07:19:16Z</time>
      </trkpt>
      <trkpt lat="51.515492973849177" lon="-3.470759019255638">
        <ele>57.340000000000003</ele>
        <time>2026-06-25T07:19:19Z</time>
      </trkpt>
      <trkpt lat="51.5154969971627" lon="-3.470838982611895">
        <ele>57.340000000000003</ele>
        <time>2026-06-25T07:19:20Z</time>
      </trkpt>
      <trkpt lat="51.515509989112616" lon="-3.471135031431913">
        <ele>56.859999999999999</ele>
        <time>2026-06-25T07:19:23Z</time>
      </trkpt>
      <trkpt lat="51.515515018254519" lon="-3.471237039193511">
        <ele>56.369999999999997</ele>
        <time>2026-06-25T07:19:24Z</time>
      </trkpt>
      <trkpt lat="51.515522981062531" lon="-3.471422027796507">
        <ele>55.890000000000001</ele>
        <time>2026-06-25T07:19:26Z</time>
      </trkpt>
      <trkpt lat="51.515527004376054" lon="-3.471497967839241">
        <ele>55.409999999999997</ele>
        <time>2026-06-25T07:19:27Z</time>
      </trkpt>
      <trkpt lat="51.515535973012447" lon="-3.471797034144402">
        <ele>54.450000000000003</ele>
        <time>2026-06-25T07:19:33Z</time>
      </trkpt>
      <trkpt lat="51.515535973012447" lon="-3.471870962530375">
        <ele>53.969999999999999</ele>
        <time>2026-06-25T07:19:34Z</time>
      </trkpt>
      <trkpt lat="51.515534967184067" lon="-3.471959978342056">
        <ele>53.969999999999999</ele>
        <time>2026-06-25T07:19:35Z</time>
      </trkpt>
      <trkpt lat="51.515533961355686" lon="-3.472054023295641">
        <ele>53.969999999999999</ele>
        <time>2026-06-25T07:19:36Z</time>
      </trkpt>
      <trkpt lat="51.515533039346337" lon="-3.472158964723349">
        <ele>53.969999999999999</ele>
        <time>2026-06-25T07:19:37Z</time>
      </trkpt>
      <trkpt lat="51.515533039346337" lon="-3.472258960828185">
        <ele>54.450000000000003</ele>
        <time>2026-06-25T07:19:38Z</time>
      </trkpt>
      <trkpt lat="51.515532033517957" lon="-3.472350994125009">
        <ele>54.450000000000003</ele>
        <time>2026-06-25T07:19:39Z</time>
      </trkpt>
      <trkpt lat="51.515531027689576" lon="-3.472424000501633">
        <ele>54.450000000000003</ele>
        <time>2026-06-25T07:19:40Z</time>
      </trkpt>
      <trkpt lat="51.515531027689576" lon="-3.47250203602016">
        <ele>54.450000000000003</ele>
        <time>2026-06-25T07:19:41Z</time>
      </trkpt>
      <trkpt lat="51.515530021861196" lon="-3.4725880343467">
        <ele>54.93</ele>
        <time>2026-06-25T07:19:42Z</time>
      </trkpt>
      <trkpt lat="51.515529016032815" lon="-3.472679983824492">
        <ele>55.409999999999997</ele>
        <time>2026-06-25T07:19:43Z</time>
      </trkpt>
      <trkpt lat="51.515528010204434" lon="-3.472779979929328">
        <ele>55.409999999999997</ele>
        <time>2026-06-25T07:19:44Z</time>
      </trkpt>
      <trkpt lat="51.515527004376054" lon="-3.47288902848959">
        <ele>55.890000000000001</ele>
        <time>2026-06-25T07:19:45Z</time>
      </trkpt>
      <trkpt lat="51.515527004376054" lon="-3.473001010715962">
        <ele>55.890000000000001</ele>
        <time>2026-06-25T07:19:46Z</time>
      </trkpt>
      <trkpt lat="51.515525998547673" lon="-3.473092960193753">
        <ele>55.890000000000001</ele>
        <time>2026-06-25T07:19:47Z</time>
      </trkpt>
      <trkpt lat="51.515524992719293" lon="-3.473176024854183">
        <ele>55.890000000000001</ele>
        <time>2026-06-25T07:19:48Z</time>
      </trkpt>
      <trkpt lat="51.515523986890912" lon="-3.47325598821044">
        <ele>55.890000000000001</ele>
        <time>2026-06-25T07:19:49Z</time>
      </trkpt>
      <trkpt lat="51.515521975234151" lon="-3.473520018160343">
        <ele>56.369999999999997</ele>
        <time>2026-06-25T07:19:52Z</time>
      </trkpt>
      <trkpt lat="51.51552096940577" lon="-3.473619008436799">
        <ele>56.369999999999997</ele>
        <time>2026-06-25T07:19:53Z</time>
      </trkpt>
      <trkpt lat="51.51552096940577" lon="-3.473723027855158">
        <ele>56.369999999999997</ele>
        <time>2026-06-25T07:19:54Z</time>
      </trkpt>
      <trkpt lat="51.51551702991128" lon="-3.474109014496207">
        <ele>56.369999999999997</ele>
        <time>2026-06-25T07:19:58Z</time>
      </trkpt>
      <trkpt lat="51.51551702991128" lon="-3.474216973409057">
        <ele>55.890000000000001</ele>
        <time>2026-06-25T07:19:59Z</time>
      </trkpt>
      <trkpt lat="51.515459027141333" lon="-3.475087014958262">
        <ele>56.369999999999997</ele>
        <time>2026-06-25T07:20:06Z</time>
      </trkpt>
      <trkpt lat="51.515449974685907" lon="-3.475206037983298">
        <ele>56.369999999999997</ele>
        <time>2026-06-25T07:20:07Z</time>
      </trkpt>
      <trkpt lat="51.515401024371386" lon="-3.4758569765836">
        <ele>57.340000000000003</ele>
        <time>2026-06-25T07:20:14Z</time>
      </trkpt>
      <trkpt lat="51.515393983572721" lon="-3.475952027365565">
        <ele>56.859999999999999</ele>
        <time>2026-06-25T07:20:15Z</time>
      </trkpt>
      <trkpt lat="51.515340004116297" lon="-3.476670021191239">
        <ele>57.82</ele>
        <time>2026-06-25T07:20:22Z</time>
      </trkpt>
      <trkpt lat="51.515332963317633" lon="-3.476766999810934">
        <ele>57.82</ele>
        <time>2026-06-25T07:20:23Z</time>
      </trkpt>
      <trkpt lat="51.515326006338" lon="-3.476861966773868">
        <ele>57.82</ele>
        <time>2026-06-25T07:20:24Z</time>
      </trkpt>
      <trkpt lat="51.515317959710956" lon="-3.476959029212594">
        <ele>57.82</ele>
        <time>2026-06-25T07:20:25Z</time>
      </trkpt>
      <trkpt lat="51.515311002731323" lon="-3.477060031145811">
        <ele>58.299999999999997</ele>
        <time>2026-06-25T07:20:26Z</time>
      </trkpt>
      <trkpt lat="51.515289964154363" lon="-3.477332023903728">
        <ele>57.82</ele>
        <time>2026-06-25T07:20:29Z</time>
      </trkpt>
      <trkpt lat="51.515255011618137" lon="-3.477646009996533">
        <ele>56.859999999999999</ele>
        <time>2026-06-25T07:20:32Z</time>
      </trkpt>
      <trkpt lat="51.515165995806456" lon="-3.478276999667287">
        <ele>56.859999999999999</ele>
        <time>2026-06-25T07:20:38Z</time>
      </trkpt>
      <trkpt lat="51.515155015513301" lon="-3.478359980508685">
        <ele>57.340000000000003</ele>
        <time>2026-06-25T07:20:39Z</time>
      </trkpt>
      <trkpt lat="51.515145041048527" lon="-3.478429969400168">
        <ele>57.340000000000003</ele>
        <time>2026-06-25T07:20:40Z</time>
      </trkpt>
      <trkpt lat="51.515032975003123" lon="-3.479224992915988">
        <ele>56.369999999999997</ele>
        <time>2026-06-25T07:20:50Z</time>
      </trkpt>
      <trkpt lat="51.514984024688601" lon="-3.47957300953567">
        <ele>55.409999999999997</ele>
        <time>2026-06-25T07:20:57Z</time>
      </trkpt>
      <trkpt lat="51.514971032738686" lon="-3.479668982326984">
        <ele>55.409999999999997</ele>
        <time>2026-06-25T07:20:58Z</time>
      </trkpt>
      <trkpt lat="51.514781014993787" lon="-3.480807999148965">
        <ele>52.530000000000001</ele>
        <time>2026-06-25T07:21:10Z</time>
      </trkpt>
      <trkpt lat="51.514758970588446" lon="-3.480919981375337">
        <ele>52.530000000000001</ele>
        <time>2026-06-25T07:21:11Z</time>
      </trkpt>
      <trkpt lat="51.514740027487278" lon="-3.481018971651793">
        <ele>51.57</ele>
        <time>2026-06-25T07:21:12Z</time>
      </trkpt>
      <trkpt lat="51.514710020273924" lon="-3.481174036860466">
        <ele>50.609999999999999</ele>
        <time>2026-06-25T07:21:14Z</time>
      </trkpt>
      <trkpt lat="51.514698034152389" lon="-3.481236984953284">
        <ele>50.130000000000003</ele>
        <time>2026-06-25T07:21:15Z</time>
      </trkpt>
      <trkpt lat="51.514686970040202" lon="-3.481293981894851">
        <ele>49.649999999999999</ele>
        <time>2026-06-25T07:21:16Z</time>
      </trkpt>
      <trkpt lat="51.514676995575428" lon="-3.481345027685165">
        <ele>49.649999999999999</ele>
        <time>2026-06-25T07:21:17Z</time>
      </trkpt>
      <trkpt lat="51.514667021110654" lon="-3.481396995484829">
        <ele>49.649999999999999</ele>
        <time>2026-06-25T07:21:18Z</time>
      </trkpt>
      <trkpt lat="51.514656962826848" lon="-3.481450974941254">
        <ele>49.159999999999997</ele>
        <time>2026-06-25T07:21:19Z</time>
      </trkpt>
      <trkpt lat="51.514646988362074" lon="-3.48150503821671">
        <ele>49.159999999999997</ele>
        <time>2026-06-25T07:21:20Z</time>
      </trkpt>
      <trkpt lat="51.514636008068919" lon="-3.481561029329896">
        <ele>49.159999999999997</ele>
        <time>2026-06-25T07:21:21Z</time>
      </trkpt>
      <trkpt lat="51.514624021947384" lon="-3.481622971594334">
        <ele>48.68</ele>
        <time>2026-06-25T07:21:22Z</time>
      </trkpt>
      <trkpt lat="51.514611029997468" lon="-3.481691032648087">
        <ele>49.159999999999997</ele>
        <time>2026-06-25T07:21:23Z</time>
      </trkpt>
      <trkpt lat="51.514559984207153" lon="-3.481955984607339">
        <ele>49.649999999999999</ele>
        <time>2026-06-25T07:21:27Z</time>
      </trkpt>
      <trkpt lat="51.514546992257237" lon="-3.48202002234757">
        <ele>49.649999999999999</ele>
        <time>2026-06-25T07:21:28Z</time>
      </trkpt>
      <trkpt lat="51.514537017792463" lon="-3.482074001803994">
        <ele>50.130000000000003</ele>
        <time>2026-06-25T07:21:29Z</time>
      </trkpt>
      <trkpt lat="51.514491001144052" lon="-3.482310958206654">
        <ele>49.649999999999999</ele>
        <time>2026-06-25T07:21:34Z</time>
      </trkpt>
      <trkpt lat="51.514471974223852" lon="-3.482412965968251">
        <ele>49.649999999999999</ele>
        <time>2026-06-25T07:21:35Z</time>
      </trkpt>
      <trkpt lat="51.514449007809162" lon="-3.482529977336526">
        <ele>49.649999999999999</ele>
        <time>2026-06-25T07:21:36Z</time>
      </trkpt>
      <trkpt lat="51.514307018369436" lon="-3.483196003362536">
        <ele>48.68</ele>
        <time>2026-06-25T07:21:44Z</time>
      </trkpt>
      <trkpt lat="51.514150025323033" lon="-3.483888013288379">
        <ele>49.159999999999997</ele>
        <time>2026-06-25T07:21:54Z</time>
      </trkpt>
      <trkpt lat="51.514136027544737" lon="-3.483950039371848">
        <ele>49.159999999999997</ele>
        <time>2026-06-25T07:21:55Z</time>
      </trkpt>
      <trkpt lat="51.514070983976126" lon="-3.484249021857977">
        <ele>47.719999999999999</ele>
        <time>2026-06-25T07:22:02Z</time>
      </trkpt>
      <trkpt lat="51.514063021168113" lon="-3.484285986050963">
        <ele>47.719999999999999</ele>
        <time>2026-06-25T07:22:03Z</time>
      </trkpt>
      <trkpt lat="51.514053968712687" lon="-3.484324961900711">
        <ele>47.719999999999999</ele>
        <time>2026-06-25T07:22:04Z</time>
      </trkpt>
      <trkpt lat="51.513986997306347" lon="-3.484631991013885">
        <ele>48.200000000000003</ele>
        <time>2026-06-25T07:22:13Z</time>
      </trkpt>
      <trkpt lat="51.513897981494665" lon="-3.485039016231895">
        <ele>50.130000000000003</ele>
        <time>2026-06-25T07:22:28Z</time>
      </trkpt>
      <trkpt lat="51.513761021196842" lon="-3.485667994245887">
        <ele>49.649999999999999</ele>
        <time>2026-06-25T07:22:39Z</time>
      </trkpt>
      <trkpt lat="51.513587012887001" lon="-3.486466035246849">
        <ele>46.759999999999998</ele>
        <time>2026-06-25T07:22:48Z</time>
      </trkpt>
      <trkpt lat="51.513551976531744" lon="-3.486626967787743">
        <ele>46.280000000000001</ele>
        <time>2026-06-25T07:22:50Z</time>
      </trkpt>
      <trkpt lat="51.513534039258957" lon="-3.486710032448173">
        <ele>46.759999999999998</ele>
        <time>2026-06-25T07:22:51Z</time>
      </trkpt>
      <trkpt lat="51.513459021225572" lon="-3.487054025754333">
        <ele>46.759999999999998</ele>
        <time>2026-06-25T07:22:55Z</time>
      </trkpt>
      <trkpt lat="51.513438988476992" lon="-3.487147986888886">
        <ele>46.280000000000001</ele>
        <time>2026-06-25T07:22:56Z</time>
      </trkpt>
      <trkpt lat="51.513417027890682" lon="-3.487246977165341">
        <ele>46.280000000000001</ele>
        <time>2026-06-25T07:22:57Z</time>
      </trkpt>
      <trkpt lat="51.513360030949116" lon="-3.487550988793373">
        <ele>46.280000000000001</ele>
        <time>2026-06-25T07:23:00Z</time>
      </trkpt>
      <trkpt lat="51.5133470389992" lon="-3.487632963806391">
        <ele>46.280000000000001</ele>
        <time>2026-06-25T07:23:01Z</time>
      </trkpt>
      <trkpt lat="51.513314014300704" lon="-3.487833039835095">
        <ele>45.32</ele>
        <time>2026-06-25T07:23:05Z</time>
      </trkpt>
      <trkpt lat="51.513301022350788" lon="-3.48790998570621">
        <ele>45.32</ele>
        <time>2026-06-25T07:23:06Z</time>
      </trkpt>
      <trkpt lat="51.513246959075332" lon="-3.488237969577313">
        <ele>44.840000000000003</ele>
        <time>2026-06-25T07:23:10Z</time>
      </trkpt>
      <trkpt lat="51.513232039287686" lon="-3.488326985388994">
        <ele>44.840000000000003</ele>
        <time>2026-06-25T07:23:11Z</time>
      </trkpt>
      <trkpt lat="51.513049984350801" lon="-3.489433983340859">
        <ele>45.799999999999997</ele>
        <time>2026-06-25T07:23:20Z</time>
      </trkpt>
      <trkpt lat="51.512870024889708" lon="-3.490888997912407">
        <ele>44.840000000000003</ele>
        <time>2026-06-25T07:23:31Z</time>
      </trkpt>
      <trkpt lat="51.512841023504734" lon="-3.491154033690691">
        <ele>42.920000000000002</ele>
        <time>2026-06-25T07:23:38Z</time>
      </trkpt>
      <trkpt lat="51.512832976877689" lon="-3.491227962076664">
        <ele>42.439999999999998</ele>
        <time>2026-06-25T07:23:49Z</time>
      </trkpt>
      <trkpt lat="51.512818979099393" lon="-3.491530967876315">
        <ele>42.920000000000002</ele>
        <time>2026-06-25T07:23:56Z</time>
      </trkpt>
      <trkpt lat="51.512796012684703" lon="-3.492051986977458">
        <ele>44.840000000000003</ele>
        <time>2026-06-25T07:24:05Z</time>
      </trkpt>
      <trkpt lat="51.512772040441632" lon="-3.492585998028517">
        <ele>44.840000000000003</ele>
        <time>2026-06-25T07:24:15Z</time>
      </trkpt>
      <trkpt lat="51.512769022956491" lon="-3.49278599023819">
        <ele>47.240000000000002</ele>
        <time>2026-06-25T07:24:23Z</time>
      </trkpt>
      <trkpt lat="51.512769022956491" lon="-3.49278599023819">
        <ele>47.240000000000002</ele>
        <time>2026-06-25T07:24:41Z</time>
      </trkpt>
      <trkpt lat="51.512769022956491" lon="-3.493160996586084">
        <ele>47.719999999999999</ele>
        <time>2026-06-25T07:24:52Z</time>
      </trkpt>
      <trkpt lat="51.512769022956491" lon="-3.493800032883883">
        <ele>48.68</ele>
        <time>2026-06-25T07:25:01Z</time>
      </trkpt>
      <trkpt lat="51.512769022956491" lon="-3.49390396848321">
        <ele>48.68</ele>
        <time>2026-06-25T07:25:02Z</time>
      </trkpt>
      <trkpt lat="51.512776985764503" lon="-3.494324991479516">
        <ele>48.200000000000003</ele>
        <time>2026-06-25T07:25:06Z</time>
      </trkpt>
      <trkpt lat="51.512820990756154" lon="-3.49504197947681">
        <ele>48.200000000000003</ele>
        <time>2026-06-25T07:25:12Z</time>
      </trkpt>
      <trkpt lat="51.512964991852641" lon="-3.496618028730154">
        <ele>44.359999999999999</ele>
        <time>2026-06-25T07:25:23Z</time>
      </trkpt>
      <trkpt lat="51.513098012655973" lon="-3.497539032250643">
        <ele>39.549999999999997</ele>
        <time>2026-06-25T07:25:33Z</time>
      </trkpt>
      <trkpt lat="51.513098012655973" lon="-3.497539032250643">
        <ele>39.07</ele>
        <time>2026-06-25T07:25:42Z</time>
      </trkpt>
      <trkpt lat="51.512769022956491" lon="-3.49811595864594">
        <ele>39.07</ele>
        <time>2026-06-25T07:25:47Z</time>
      </trkpt>
      <trkpt lat="51.51259602047503" lon="-3.498581992462277">
        <ele>39.07</ele>
        <time>2026-06-25T07:25:50Z</time>
      </trkpt>
      <trkpt lat="51.512527959421277" lon="-3.498760024085641">
        <ele>39.07</ele>
        <time>2026-06-25T07:25:51Z</time>
      </trkpt>
      <trkpt lat="51.511832010000944" lon="-3.500747960060835">
        <ele>38.590000000000003</ele>
        <time>2026-06-25T07:26:00Z</time>
      </trkpt>
      <trkpt lat="51.511482987552881" lon="-3.502098033204675">
        <ele>37.630000000000003</ele>
        <time>2026-06-25T07:26:05Z</time>
      </trkpt>
      <trkpt lat="51.511331023648381" lon="-3.50458100438118">
        <ele>37.630000000000003</ele>
        <time>2026-06-25T07:26:13Z</time>
      </trkpt>
      <trkpt lat="51.511331023648381" lon="-3.506595008075237">
        <ele>35.710000000000001</ele>
        <time>2026-06-25T07:26:21Z</time>
      </trkpt>
      <trkpt lat="51.511331023648381" lon="-3.506713025271893">
        <ele>35.710000000000001</ele>
        <time>2026-06-25T07:26:22Z</time>
      </trkpt>
      <trkpt lat="51.511327000334859" lon="-3.506797011941671">
        <ele>35.710000000000001</ele>
        <time>2026-06-25T07:26:23Z</time>
      </trkpt>
      <trkpt lat="51.511305039748549" lon="-3.50685996003449">
        <ele>36.189999999999998</ele>
        <time>2026-06-25T07:26:24Z</time>
      </trkpt>
      <trkpt lat="51.511248964816332" lon="-3.507016031071544">
        <ele>35.710000000000001</ele>
        <time>2026-06-25T07:26:26Z</time>
      </trkpt>
      <trkpt lat="51.511218035593629" lon="-3.507104963064194">
        <ele>35.710000000000001</ele>
        <time>2026-06-25T07:26:27Z</time>
      </trkpt>
      <trkpt lat="51.511194985359907" lon="-3.507204037159681">
        <ele>35.710000000000001</ele>
        <time>2026-06-25T07:26:28Z</time>
      </trkpt>
      <trkpt lat="51.511176964268088" lon="-3.507329011335969">
        <ele>35.710000000000001</ele>
        <time>2026-06-25T07:26:29Z</time>
      </trkpt>
      <trkpt lat="51.511161038652062" lon="-3.507453985512257">
        <ele>35.710000000000001</ele>
        <time>2026-06-25T07:26:30Z</time>
      </trkpt>
      <trkpt lat="51.511201020330191" lon="-3.507583988830447">
        <ele>35.710000000000001</ele>
        <time>2026-06-25T07:26:31Z</time>
      </trkpt>
      <trkpt lat="51.51124301366508" lon="-3.507722038775682">
        <ele>35.229999999999997</ele>
        <time>2026-06-25T07:26:32Z</time>
      </trkpt>
      <trkpt lat="51.511277966201305" lon="-3.507866961881518">
        <ele>35.229999999999997</ele>
        <time>2026-06-25T07:26:33Z</time>
      </trkpt>
      <trkpt lat="51.511316020041704" lon="-3.508028984069824">
        <ele>35.229999999999997</ele>
        <time>2026-06-25T07:26:34Z</time>
      </trkpt>
      <trkpt lat="51.511331023648381" lon="-3.508207015693188">
        <ele>34.740000000000002</ele>
        <time>2026-06-25T07:26:35Z</time>
      </trkpt>
      <trkpt lat="51.511331023648381" lon="-3.50842502899468">
        <ele>34.259999999999998</ele>
        <time>2026-06-25T07:26:36Z</time>
      </trkpt>
      <trkpt lat="51.511331023648381" lon="-3.50866299122572">
        <ele>33.780000000000001</ele>
        <time>2026-06-25T07:26:37Z</time>
      </trkpt>
      <trkpt lat="51.511284001171589" lon="-3.511150991544128">
        <ele>32.82</ele>
        <time>2026-06-25T07:26:46Z</time>
      </trkpt>
      <trkpt lat="51.510789971798658" lon="-3.514175014570355">
        <ele>32.82</ele>
        <time>2026-06-25T07:26:56Z</time>
      </trkpt>
      <trkpt lat="51.509879026561975" lon="-3.518244009464979">
        <ele>32.82</ele>
        <time>2026-06-25T07:27:10Z</time>
      </trkpt>
      <trkpt lat="51.509076040238142" lon="-3.520978018641472">
        <ele>36.189999999999998</ele>
        <time>2026-06-25T07:27:20Z</time>
      </trkpt>
      <trkpt lat="51.507897041738033" lon="-3.523555034771562">
        <ele>36.670000000000002</ele>
        <time>2026-06-25T07:27:31Z</time>
      </trkpt>
      <trkpt lat="51.506343958899379" lon="-3.526327013969421">
        <ele>33.299999999999997</ele>
        <time>2026-06-25T07:27:43Z</time>
      </trkpt>
      <trkpt lat="51.504414025694132" lon="-3.52946100756526">
        <ele>30.420000000000002</ele>
        <time>2026-06-25T07:27:57Z</time>
      </trkpt>
      <trkpt lat="51.50318599306047" lon="-3.531431006267667">
        <ele>28.02</ele>
        <time>2026-06-25T07:28:08Z</time>
      </trkpt>
      <trkpt lat="51.503087002784014" lon="-3.531606020405889">
        <ele>28.02</ele>
        <time>2026-06-25T07:28:09Z</time>
      </trkpt>
      <trkpt lat="51.502123000100255" lon="-3.533482979983091">
        <ele>27.530000000000001</ele>
        <time>2026-06-25T07:28:20Z</time>
      </trkpt>
      <trkpt lat="51.501741958782077" lon="-3.534167027100921">
        <ele>27.530000000000001</ele>
        <time>2026-06-25T07:28:25Z</time>
      </trkpt>
      <trkpt lat="51.501644980162382" lon="-3.534287977963686">
        <ele>28.02</ele>
        <time>2026-06-25T07:28:26Z</time>
      </trkpt>
      <trkpt lat="51.501540960744023" lon="-3.534389985725284">
        <ele>28.02</ele>
        <time>2026-06-25T07:28:27Z</time>
      </trkpt>
      <trkpt lat="51.501322025433183" lon="-3.534542033448815">
        <ele>28.02</ele>
        <time>2026-06-25T07:28:29Z</time>
      </trkpt>
      <trkpt lat="51.50123200379312" lon="-3.534657033160329">
        <ele>28.02</ele>
        <time>2026-06-25T07:28:30Z</time>
      </trkpt>
      <trkpt lat="51.501151034608483" lon="-3.534799022600055">
        <ele>28.02</ele>
        <time>2026-06-25T07:28:31Z</time>
      </trkpt>
      <trkpt lat="51.501085991039872" lon="-3.53496196679771">
        <ele>28.5</ele>
        <time>2026-06-25T07:28:32Z</time>
      </trkpt>
      <trkpt lat="51.501032011583447" lon="-3.535147961229086">
        <ele>28.5</ele>
        <time>2026-06-25T07:28:33Z</time>
      </trkpt>
      <trkpt lat="51.501008961349726" lon="-3.535351976752281">
        <ele>28.5</ele>
        <time>2026-06-25T07:28:34Z</time>
      </trkpt>
      <trkpt lat="51.500983983278275" lon="-3.53556496091187">
        <ele>28.5</ele>
        <time>2026-06-25T07:28:35Z</time>
      </trkpt>
      <trkpt lat="51.500499006360769" lon="-3.537660017609596">
        <ele>29.940000000000001</ele>
        <time>2026-06-25T07:28:44Z</time>
      </trkpt>
      <trkpt lat="51.499565010890365" lon="-3.540617991238833">
        <ele>28.98</ele>
        <time>2026-06-25T07:28:55Z</time>
      </trkpt>
      <trkpt lat="51.498439991846681" lon="-3.543471023440361">
        <ele>26.57</ele>
        <time>2026-06-25T07:29:06Z</time>
      </trkpt>
      <trkpt lat="51.497117998078465" lon="-3.54608902707696">
        <ele>22.73</ele>
        <time>2026-06-25T07:29:18Z</time>
      </trkpt>
      <trkpt lat="51.496465969830751" lon="-3.548530004918575">
        <ele>22.73</ele>
        <time>2026-06-25T07:29:27Z</time>
      </trkpt>
      <trkpt lat="51.496302019804716" lon="-3.550939969718456">
        <ele>25.609999999999999</ele>
        <time>2026-06-25T07:29:36Z</time>
      </trkpt>
      <trkpt lat="51.496132034808397" lon="-3.554271021857858">
        <ele>25.129999999999999</ele>
        <time>2026-06-25T07:29:49Z</time>
      </trkpt>
      <trkpt lat="51.495755016803741" lon="-3.557127993553877">
        <ele>26.09</ele>
        <time>2026-06-25T07:30:00Z</time>
      </trkpt>
      <trkpt lat="51.495466008782387" lon="-3.558958014473319">
        <ele>26.57</ele>
        <time>2026-06-25T07:30:08Z</time>
      </trkpt>
      <trkpt lat="51.495434995740652" lon="-3.559101009741426">
        <ele>26.57</ele>
        <time>2026-06-25T07:30:09Z</time>
      </trkpt>
      <trkpt lat="51.49538797326386" lon="-3.55917502194643">
        <ele>27.050000000000001</ele>
        <time>2026-06-25T07:30:10Z</time>
      </trkpt>
      <trkpt lat="51.495319996029139" lon="-3.55926102027297">
        <ele>27.530000000000001</ele>
        <time>2026-06-25T07:30:11Z</time>
      </trkpt>
      <trkpt lat="51.495250007137656" lon="-3.559350036084652">
        <ele>27.530000000000001</ele>
        <time>2026-06-25T07:30:12Z</time>
      </trkpt>
      <trkpt lat="51.495195021852851" lon="-3.559420024976134">
        <ele>27.530000000000001</ele>
        <time>2026-06-25T07:30:13Z</time>
      </trkpt>
      <trkpt lat="51.49508697912097" lon="-3.559464029967785">
        <ele>27.050000000000001</ele>
        <time>2026-06-25T07:30:14Z</time>
      </trkpt>
      <trkpt lat="51.495009027421474" lon="-3.55954198166728">
        <ele>27.050000000000001</ele>
        <time>2026-06-25T07:30:15Z</time>
      </trkpt>
      <trkpt lat="51.494943983852863" lon="-3.559662010520697">
        <ele>27.050000000000001</ele>
        <time>2026-06-25T07:30:16Z</time>
      </trkpt>
      <trkpt lat="51.49489302188158" lon="-3.559802994132042">
        <ele>27.050000000000001</ele>
        <time>2026-06-25T07:30:17Z</time>
      </trkpt>
      <trkpt lat="51.494879024103284" lon="-3.559944983571768">
        <ele>26.57</ele>
        <time>2026-06-25T07:30:18Z</time>
      </trkpt>
      <trkpt lat="51.494884975254536" lon="-3.56010097078979">
        <ele>26.57</ele>
        <time>2026-06-25T07:30:19Z</time>
      </trkpt>
      <trkpt lat="51.494901990517974" lon="-3.560245977714658">
        <ele>26.09</ele>
        <time>2026-06-25T07:30:20Z</time>
      </trkpt>
      <trkpt lat="51.494925040751696" lon="-3.560388972982764">
        <ele>25.609999999999999</ele>
        <time>2026-06-25T07:30:21Z</time>
      </trkpt>
      <trkpt lat="51.494970973581076" lon="-3.560505984351039">
        <ele>25.609999999999999</ele>
        <time>2026-06-25T07:30:22Z</time>
      </trkpt>
      <trkpt lat="51.495014978572726" lon="-3.560621989890933">
        <ele>25.609999999999999</ele>
        <time>2026-06-25T07:30:23Z</time>
      </trkpt>
      <trkpt lat="51.495092008262873" lon="-3.560702037066221">
        <ele>26.09</ele>
        <time>2026-06-25T07:30:24Z</time>
      </trkpt>
      <trkpt lat="51.495169037953019" lon="-3.560768002644181">
        <ele>26.09</ele>
        <time>2026-06-25T07:30:25Z</time>
      </trkpt>
      <trkpt lat="51.49525998160243" lon="-3.560784012079239">
        <ele>26.09</ele>
        <time>2026-06-25T07:30:26Z</time>
      </trkpt>
      <trkpt lat="51.495324019342661" lon="-3.560792980715632">
        <ele>26.09</ele>
        <time>2026-06-25T07:30:27Z</time>
      </trkpt>
      <trkpt lat="51.495477994903922" lon="-3.560770014300942">
        <ele>26.09</ele>
        <time>2026-06-25T07:30:28Z</time>
      </trkpt>
      <trkpt lat="51.495564999058843" lon="-3.560846038162708">
        <ele>26.09</ele>
        <time>2026-06-25T07:30:29Z</time>
      </trkpt>
      <trkpt lat="51.495655020698905" lon="-3.560951985418797">
        <ele>26.09</ele>
        <time>2026-06-25T07:30:30Z</time>
      </trkpt>
      <trkpt lat="51.495738001540303" lon="-3.561082994565368">
        <ele>26.09</ele>
        <time>2026-06-25T07:30:31Z</time>
      </trkpt>
      <trkpt lat="51.495810002088547" lon="-3.561224984005094">
        <ele>26.09</ele>
        <time>2026-06-25T07:30:32Z</time>
      </trkpt>
      <trkpt lat="51.496685994789004" lon="-3.562984010204673">
        <ele>28.02</ele>
        <time>2026-06-25T07:30:45Z</time>
      </trkpt>
      <trkpt lat="51.49736300110817" lon="-3.564422009512782">
        <ele>27.530000000000001</ele>
        <time>2026-06-25T07:30:56Z</time>
      </trkpt>
      <trkpt lat="51.49764203466475" lon="-3.56508401222527">
        <ele>27.530000000000001</ele>
        <time>2026-06-25T07:31:04Z</time>
      </trkpt>
      <trkpt lat="51.497670030221343" lon="-3.56514997780323">
        <ele>27.530000000000001</ele>
        <time>2026-06-25T07:31:13Z</time>
      </trkpt>
      <trkpt lat="51.49779299274087" lon="-3.565437979996204">
        <ele>28.02</ele>
        <time>2026-06-25T07:31:38Z</time>
      </trkpt>
      <trkpt lat="51.498284004628658" lon="-3.566536009311676">
        <ele>29.940000000000001</ele>
        <time>2026-06-25T07:31:47Z</time>
      </trkpt>
      <trkpt lat="51.499052038416266" lon="-3.568207025527954">
        <ele>35.229999999999997</ele>
        <time>2026-06-25T07:32:00Z</time>
      </trkpt>
      <trkpt lat="51.499465014785528" lon="-3.569350987672806">
        <ele>40.990000000000002</ele>
        <time>2026-06-25T07:32:08Z</time>
      </trkpt>
      <trkpt lat="51.500162975862622" lon="-3.571115965023637">
        <ele>41.469999999999999</ele>
        <time>2026-06-25T07:32:22Z</time>
      </trkpt>
      <trkpt lat="51.500375960022211" lon="-3.571714013814926">
        <ele>40.030000000000001</ele>
        <time>2026-06-25T07:32:26Z</time>
      </trkpt>
      <trkpt lat="51.500837970525026" lon="-3.572915978729725">
        <ele>38.590000000000003</ele>
        <time>2026-06-25T07:32:36Z</time>
      </trkpt>
      <trkpt lat="51.500849034637213" lon="-3.572943974286318">
        <ele>38.109999999999999</ele>
        <time>2026-06-25T07:32:37Z</time>
      </trkpt>
      <trkpt lat="51.500849034637213" lon="-3.572943974286318">
        <ele>38.109999999999999</ele>
        <time>2026-06-25T07:32:50Z</time>
      </trkpt>
      <trkpt lat="51.500977026298642" lon="-3.573261983692646">
        <ele>39.07</ele>
        <time>2026-06-25T07:33:00Z</time>
      </trkpt>
      <trkpt lat="51.501477006822824" lon="-3.574590012431145">
        <ele>38.590000000000003</ele>
        <time>2026-06-25T07:33:12Z</time>
      </trkpt>
      <trkpt lat="51.501831980422139" lon="-3.575621992349625">
        <ele>38.109999999999999</ele>
        <time>2026-06-25T07:33:22Z</time>
      </trkpt>
      <trkpt lat="51.501881014555693" lon="-3.575764987617731">
        <ele>37.630000000000003</ele>
        <time>2026-06-25T07:33:24Z</time>
      </trkpt>
      <trkpt lat="51.501967012882233" lon="-3.576027005910873">
        <ele>37.630000000000003</ele>
        <time>2026-06-25T07:33:33Z</time>
      </trkpt>
      <trkpt lat="51.501967012882233" lon="-3.576027005910873">
        <ele>37.630000000000003</ele>
        <time>2026-06-25T07:34:11Z</time>
      </trkpt>
      <trkpt lat="51.502006994560361" lon="-3.576153991743922">
        <ele>37.149999999999999</ele>
        <time>2026-06-25T07:34:33Z</time>
      </trkpt>
      <trkpt lat="51.502031972631812" lon="-3.57623303309083">
        <ele>37.149999999999999</ele>
        <time>2026-06-25T07:34:34Z</time>
      </trkpt>
      <trkpt lat="51.502056028693914" lon="-3.576312996447086">
        <ele>37.149999999999999</ele>
        <time>2026-06-25T07:34:35Z</time>
      </trkpt>
      <trkpt lat="51.502132974565029" lon="-3.576349960640073">
        <ele>37.149999999999999</ele>
        <time>2026-06-25T07:34:36Z</time>
      </trkpt>
      <trkpt lat="51.502160970121622" lon="-3.576359013095498">
        <ele>37.149999999999999</ele>
        <time>2026-06-25T07:34:37Z</time>
      </trkpt>
      <trkpt lat="51.502245040610433" lon="-3.576383991166949">
        <ele>37.630000000000003</ele>
        <time>2026-06-25T07:34:46Z</time>
      </trkpt>
      <trkpt lat="51.502773016691208" lon="-3.576547019183636">
        <ele>37.149999999999999</ele>
        <time>2026-06-25T07:34:56Z</time>
      </trkpt>
      <trkpt lat="51.502938978374004" lon="-3.576597981154919">
        <ele>36.670000000000002</ele>
        <time>2026-06-25T07:34:59Z</time>
      </trkpt>
      <trkpt lat="51.502993041649461" lon="-3.576613990589976">
        <ele>36.189999999999998</ele>
        <time>2026-06-25T07:35:00Z</time>
      </trkpt>
      <trkpt lat="51.503031011670828" lon="-3.576624970883131">
        <ele>36.189999999999998</ele>
        <time>2026-06-25T07:35:01Z</time>
      </trkpt>
      <trkpt lat="51.50305699557066" lon="-3.576633017510176">
        <ele>36.670000000000002</ele>
        <time>2026-06-25T07:35:02Z</time>
      </trkpt>
      <trkpt lat="51.50305699557066" lon="-3.576633017510176">
        <ele>36.670000000000002</ele>
        <time>2026-06-25T07:35:11Z</time>
      </trkpt>
      <trkpt lat="51.50329302996397" lon="-3.576703006401658">
        <ele>38.590000000000003</ele>
        <time>2026-06-25T07:35:20Z</time>
      </trkpt>
      <trkpt lat="51.503695026040077" lon="-3.576813982799649">
        <ele>39.07</ele>
        <time>2026-06-25T07:35:30Z</time>
      </trkpt>
      <trkpt lat="51.503726039081812" lon="-3.576822029426694">
        <ele>39.549999999999997</ele>
        <time>2026-06-25T07:35:31Z</time>
      </trkpt>
      <trkpt lat="51.503746993839741" lon="-3.576827980577946">
        <ele>39.07</ele>
        <time>2026-06-25T07:35:32Z</time>
      </trkpt>
      <trkpt lat="51.503759985789657" lon="-3.576830998063088">
        <ele>38.590000000000003</ele>
        <time>2026-06-25T07:35:33Z</time>
      </trkpt>
      <trkpt lat="51.503833997994661" lon="-3.576850024983287">
        <ele>36.670000000000002</ele>
        <time>2026-06-25T07:35:43Z</time>
      </trkpt>
      <trkpt lat="51.504272036254406" lon="-3.576865028589964">
        <ele>34.740000000000002</ele>
        <time>2026-06-25T07:35:54Z</time>
      </trkpt>
      <trkpt lat="51.504547968506813" lon="-3.576969970017672">
        <ele>32.82</ele>
        <time>2026-06-25T07:36:03Z</time>
      </trkpt>
      <trkpt lat="51.504633966833353" lon="-3.577023027464747">
        <ele>32.340000000000003</ele>
        <time>2026-06-25T07:36:06Z</time>
      </trkpt>
      <trkpt lat="51.504679983481765" lon="-3.577033001929522">
        <ele>32.340000000000003</ele>
        <time>2026-06-25T07:36:07Z</time>
      </trkpt>
      <trkpt lat="51.504850974306464" lon="-3.577037025243044">
        <ele>33.299999999999997</ele>
        <time>2026-06-25T07:36:16Z</time>
      </trkpt>
      <trkpt lat="51.504850974306464" lon="-3.577037025243044">
        <ele>33.299999999999997</ele>
        <time>2026-06-25T07:36:17Z</time>
      </trkpt>
      <trkpt lat="51.504850974306464" lon="-3.577037025243044">
        <ele>33.299999999999997</ele>
        <time>2026-06-25T07:36:31Z</time>
      </trkpt>
      <trkpt lat="51.504850974306464" lon="-3.577037025243044">
        <ele>33.299999999999997</ele>
        <time>2026-06-25T07:37:23Z</time>
      </trkpt>
      <trkpt lat="51.504850974306464" lon="-3.577037025243044">
        <ele>33.780000000000001</ele>
        <time>2026-06-25T07:37:57Z</time>
      </trkpt>
      <trkpt lat="51.504998998716474" lon="-3.577011041343212">
        <ele>46.759999999999998</ele>
        <time>2026-06-25T08:25:35Z</time>
      </trkpt>
      <trkpt lat="51.504988018423319" lon="-3.576935017481446">
        <ele>34.740000000000002</ele>
        <time>2026-06-25T08:26:06Z</time>
      </trkpt>
      <trkpt lat="51.504992041736841" lon="-3.576886989176273">
        <ele>40.030000000000001</ele>
        <time>2026-06-25T08:26:47Z</time>
      </trkpt>
      <trkpt lat="51.504963962361217" lon="-3.576849019154906">
        <ele>43.880000000000003</ele>
        <time>2026-06-25T08:27:31Z</time>
      </trkpt>
      <trkpt lat="51.504963040351868" lon="-3.576847007498145">
        <ele>43.880000000000003</ele>
        <time>2026-06-25T08:28:08Z</time>
      </trkpt>
      <trkpt lat="51.504963040351868" lon="-3.576847007498145">
        <ele>43.880000000000003</ele>
        <time>2026-06-25T08:28:17Z</time>
      </trkpt>
      <trkpt lat="51.504836976528168" lon="-3.577037025243044">
        <ele>40.030000000000001</ele>
        <time>2026-06-25T08:28:24Z</time>
      </trkpt>
      <trkpt lat="51.504790959879756" lon="-3.577037025243044">
        <ele>38.590000000000003</ele>
        <time>2026-06-25T08:28:25Z</time>
      </trkpt>
      <trkpt lat="51.50473203510046" lon="-3.577037025243044">
        <ele>37.630000000000003</ele>
        <time>2026-06-25T08:28:26Z</time>
      </trkpt>
      <trkpt lat="51.504522990435362" lon="-3.57694499194622">
        <ele>35.710000000000001</ele>
        <time>2026-06-25T08:28:29Z</time>
      </trkpt>
      <trkpt lat="51.504522990435362" lon="-3.57694499194622">
        <ele>35.229999999999997</ele>
        <time>2026-06-25T08:28:30Z</time>
      </trkpt>
      <trkpt lat="51.504450989887118" lon="-3.576839966699481">
        <ele>35.229999999999997</ele>
        <time>2026-06-25T08:28:32Z</time>
      </trkpt>
      <trkpt lat="51.504486026242375" lon="-3.576714992523193">
        <ele>35.229999999999997</ele>
        <time>2026-06-25T08:28:33Z</time>
      </trkpt>
      <trkpt lat="51.504531037062407" lon="-3.576647015288472">
        <ele>34.740000000000002</ele>
        <time>2026-06-25T08:28:34Z</time>
      </trkpt>
      <trkpt lat="51.50456196628511" lon="-3.576598986983299">
        <ele>34.740000000000002</ele>
        <time>2026-06-25T08:28:35Z</time>
      </trkpt>
      <trkpt lat="51.504592979326844" lon="-3.576552970334888">
        <ele>34.259999999999998</ele>
        <time>2026-06-25T08:28:36Z</time>
      </trkpt>
      <trkpt lat="51.50462600402534" lon="-3.576502008363605">
        <ele>34.259999999999998</ele>
        <time>2026-06-25T08:28:37Z</time>
      </trkpt>
      <trkpt lat="51.504663974046707" lon="-3.576444005593658">
        <ele>34.740000000000002</ele>
        <time>2026-06-25T08:28:38Z</time>
      </trkpt>
      <trkpt lat="51.504887016490102" lon="-3.576103029772639">
        <ele>35.229999999999997</ele>
        <time>2026-06-25T08:28:43Z</time>
      </trkpt>
      <trkpt lat="51.504930015653372" lon="-3.576042009517551">
        <ele>35.710000000000001</ele>
        <time>2026-06-25T08:28:44Z</time>
      </trkpt>
      <trkpt lat="51.505289012566209" lon="-3.575490983203054">
        <ele>35.229999999999997</ele>
        <time>2026-06-25T08:28:52Z</time>
      </trkpt>
      <trkpt lat="51.505394037812948" lon="-3.575301971286535">
        <ele>35.710000000000001</ele>
        <time>2026-06-25T08:28:54Z</time>
      </trkpt>
      <trkpt lat="51.505438964813948" lon="-3.57520398683846">
        <ele>35.710000000000001</ele>
        <time>2026-06-25T08:28:55Z</time>
      </trkpt>
      <trkpt lat="51.505821011960506" lon="-3.574355989694595">
        <ele>43.399999999999999</ele>
        <time>2026-06-25T08:29:05Z</time>
      </trkpt>
      <trkpt lat="51.505858981981874" lon="-3.574268985539675">
        <ele>44.359999999999999</ele>
        <time>2026-06-25T08:29:06Z</time>
      </trkpt>
      <trkpt lat="51.505869962275028" lon="-3.574246019124985">
        <ele>44.840000000000003</ele>
        <time>2026-06-25T08:29:07Z</time>
      </trkpt>
      <trkpt lat="51.505888989195228" lon="-3.574201008304954">
        <ele>45.32</ele>
        <time>2026-06-25T08:29:08Z</time>
      </trkpt>
      <trkpt lat="51.505912039428949" lon="-3.574149962514639">
        <ele>46.280000000000001</ele>
        <time>2026-06-25T08:29:09Z</time>
      </trkpt>
      <trkpt lat="51.505932994186878" lon="-3.574102018028498">
        <ele>47.240000000000002</ele>
        <time>2026-06-25T08:29:10Z</time>
      </trkpt>
      <trkpt lat="51.506007006391883" lon="-3.573932033032179">
        <ele>49.649999999999999</ele>
        <time>2026-06-25T08:29:14Z</time>
      </trkpt>
      <trkpt lat="51.506028966978192" lon="-3.573882998898625">
        <ele>49.649999999999999</ele>
        <time>2026-06-25T08:29:15Z</time>
      </trkpt>
      <trkpt lat="51.5061080083251" lon="-3.573702033609152">
        <ele>50.609999999999999</ele>
        <time>2026-06-25T08:29:18Z</time>
      </trkpt>
      <trkpt lat="51.506131980568171" lon="-3.573648976162076">
        <ele>51.090000000000003</ele>
        <time>2026-06-25T08:29:19Z</time>
      </trkpt>
      <trkpt lat="51.506156036630273" lon="-3.573594996705651">
        <ele>51.090000000000003</ele>
        <time>2026-06-25T08:29:20Z</time>
      </trkpt>
      <trkpt lat="51.506177997216582" lon="-3.573543028905988">
        <ele>51.090000000000003</ele>
        <time>2026-06-25T08:29:21Z</time>
      </trkpt>
      <trkpt lat="51.506292996928096" lon="-3.573432974517345">
        <ele>51.090000000000003</ele>
        <time>2026-06-25T08:29:22Z</time>
      </trkpt>
      <trkpt lat="51.506330966949463" lon="-3.573468010872603">
        <ele>51.090000000000003</ele>
        <time>2026-06-25T08:29:23Z</time>
      </trkpt>
      <trkpt lat="51.506381006911397" lon="-3.573515033349395">
        <ele>51.090000000000003</ele>
        <time>2026-06-25T08:29:24Z</time>
      </trkpt>
      <trkpt lat="51.507022976875305" lon="-3.574034962803125">
        <ele>49.649999999999999</ele>
        <time>2026-06-25T08:29:35Z</time>
      </trkpt>
      <trkpt lat="51.507085002958775" lon="-3.57408600859344">
        <ele>49.649999999999999</ele>
        <time>2026-06-25T08:29:36Z</time>
      </trkpt>
      <trkpt lat="51.507154991850257" lon="-3.574136970564723">
        <ele>49.159999999999997</ele>
        <time>2026-06-25T08:29:37Z</time>
      </trkpt>
      <trkpt lat="51.507983040064573" lon="-3.574668969959021">
        <ele>42.439999999999998</ele>
        <time>2026-06-25T08:29:48Z</time>
      </trkpt>
      <trkpt lat="51.508649988099933" lon="-3.575342958793044">
        <ele>34.740000000000002</ele>
        <time>2026-06-25T08:29:58Z</time>
      </trkpt>
      <trkpt lat="51.50877496227622" lon="-3.575516967102885">
        <ele>31.379999999999999</ele>
        <time>2026-06-25T08:30:05Z</time>
      </trkpt>
      <trkpt lat="51.509121973067522" lon="-3.576001022011042">
        <ele>28.02</ele>
        <time>2026-06-25T08:30:13Z</time>
      </trkpt>
      <trkpt lat="51.509228004142642" lon="-3.576139993965626">
        <ele>28.02</ele>
        <time>2026-06-25T08:30:14Z</time>
      </trkpt>
      <trkpt lat="51.509357001632452" lon="-3.576306961476803">
        <ele>28.02</ele>
        <time>2026-06-25T08:30:16Z</time>
      </trkpt>
      <trkpt lat="51.509407041594386" lon="-3.576250970363617">
        <ele>28.02</ele>
        <time>2026-06-25T08:30:17Z</time>
      </trkpt>
      <trkpt lat="51.509407041594386" lon="-3.576250970363617">
        <ele>28.02</ele>
        <time>2026-06-25T08:30:18Z</time>
      </trkpt>
      <trkpt lat="51.509522963315248" lon="-3.576119961217046">
        <ele>28.02</ele>
        <time>2026-06-25T08:30:19Z</time>
      </trkpt>
      <trkpt lat="51.509522963315248" lon="-3.576119961217046">
        <ele>28.02</ele>
        <time>2026-06-25T08:30:20Z</time>
      </trkpt>
      <trkpt lat="51.50956504046917" lon="-3.576026000082493">
        <ele>28.02</ele>
        <time>2026-06-25T08:30:21Z</time>
      </trkpt>
      <trkpt lat="51.5096549782902" lon="-3.575812010094523">
        <ele>28.02</ele>
        <time>2026-06-25T08:30:22Z</time>
      </trkpt>
      <trkpt lat="51.5096549782902" lon="-3.575812010094523">
        <ele>28.02</ele>
        <time>2026-06-25T08:30:23Z</time>
      </trkpt>
      <trkpt lat="51.509703006595373" lon="-3.575696004554629">
        <ele>27.530000000000001</ele>
        <time>2026-06-25T08:30:24Z</time>
      </trkpt>
      <trkpt lat="51.5098259691149" lon="-3.575460975989699">
        <ele>27.530000000000001</ele>
        <time>2026-06-25T08:30:25Z</time>
      </trkpt>
      <trkpt lat="51.5098259691149" lon="-3.575460975989699">
        <ele>27.530000000000001</ele>
        <time>2026-06-25T08:30:26Z</time>
      </trkpt>
      <trkpt lat="51.509896041825414" lon="-3.575355028733611">
        <ele>27.530000000000001</ele>
        <time>2026-06-25T08:30:27Z</time>
      </trkpt>
      <trkpt lat="51.509978016838431" lon="-3.575253020972014">
        <ele>27.530000000000001</ele>
        <time>2026-06-25T08:30:28Z</time>
      </trkpt>
      <trkpt lat="51.510178009048104" lon="-3.575081024318934">
        <ele>27.530000000000001</ele>
        <time>2026-06-25T08:30:29Z</time>
      </trkpt>
      <trkpt lat="51.510178009048104" lon="-3.575081024318934">
        <ele>27.530000000000001</ele>
        <time>2026-06-25T08:30:30Z</time>
      </trkpt>
      <trkpt lat="51.511256005614996" lon="-3.574302010238171">
        <ele>26.57</ele>
        <time>2026-06-25T08:30:38Z</time>
      </trkpt>
      <trkpt lat="51.512370966374874" lon="-3.572836015373468">
        <ele>30.420000000000002</ele>
        <time>2026-06-25T08:30:45Z</time>
      </trkpt>
      <trkpt lat="51.513601010665298" lon="-3.570535015314817">
        <ele>32.82</ele>
        <time>2026-06-25T08:30:56Z</time>
      </trkpt>
      <trkpt lat="51.514583034440875" lon="-3.569304971024394">
        <ele>35.710000000000001</ele>
        <time>2026-06-25T08:31:04Z</time>
      </trkpt>
      <trkpt lat="51.514902971684933" lon="-3.569061979651451">
        <ele>37.630000000000003</ele>
        <time>2026-06-25T08:31:08Z</time>
      </trkpt>
      <trkpt lat="51.515172030776739" lon="-3.568883026018739">
        <ele>39.07</ele>
        <time>2026-06-25T08:31:10Z</time>
      </trkpt>
      <trkpt lat="51.515254005789757" lon="-3.568883026018739">
        <ele>39.549999999999997</ele>
        <time>2026-06-25T08:31:11Z</time>
      </trkpt>
      <trkpt lat="51.515254005789757" lon="-3.568883026018739">
        <ele>40.030000000000001</ele>
        <time>2026-06-25T08:31:12Z</time>
      </trkpt>
      <trkpt lat="51.515375962480903" lon="-3.568883026018739">
        <ele>40.030000000000001</ele>
        <time>2026-06-25T08:31:13Z</time>
      </trkpt>
      <trkpt lat="51.515375962480903" lon="-3.568883026018739">
        <ele>40.509999999999998</ele>
        <time>2026-06-25T08:31:14Z</time>
      </trkpt>
      <trkpt lat="51.515509989112616" lon="-3.568920996040106">
        <ele>40.990000000000002</ele>
        <time>2026-06-25T08:31:15Z</time>
      </trkpt>
      <trkpt lat="51.515601016581059" lon="-3.569012023508549">
        <ele>41.469999999999999</ele>
        <time>2026-06-25T08:31:16Z</time>
      </trkpt>
      <trkpt lat="51.515680979937315" lon="-3.569012023508549">
        <ele>41.469999999999999</ele>
        <time>2026-06-25T08:31:17Z</time>
      </trkpt>
      <trkpt lat="51.515767984092236" lon="-3.568957038223743">
        <ele>41.950000000000003</ele>
        <time>2026-06-25T08:31:18Z</time>
      </trkpt>
      <trkpt lat="51.515831016004086" lon="-3.568867016583681">
        <ele>41.469999999999999</ele>
        <time>2026-06-25T08:31:19Z</time>
      </trkpt>
      <trkpt lat="51.516007035970688" lon="-3.568706000223756">
        <ele>41.950000000000003</ele>
        <time>2026-06-25T08:31:21Z</time>
      </trkpt>
      <trkpt lat="51.516108959913254" lon="-3.568633999675512">
        <ele>41.950000000000003</ele>
        <time>2026-06-25T08:31:22Z</time>
      </trkpt>
      <trkpt lat="51.516218008473516" lon="-3.568575996905565">
        <ele>41.950000000000003</ele>
        <time>2026-06-25T08:31:23Z</time>
      </trkpt>
      <trkpt lat="51.517489962279797" lon="-3.568348009139299">
        <ele>42.439999999999998</ele>
        <time>2026-06-25T08:31:32Z</time>
      </trkpt>
      <trkpt lat="51.518981019034982" lon="-3.568597035482526">
        <ele>44.359999999999999</ele>
        <time>2026-06-25T08:31:40Z</time>
      </trkpt>
      <trkpt lat="51.520207040011883" lon="-3.569025015458465">
        <ele>49.649999999999999</ele>
        <time>2026-06-25T08:31:48Z</time>
      </trkpt>
      <trkpt lat="51.521304985508323" lon="-3.569035995751619">
        <ele>53.490000000000002</ele>
        <time>2026-06-25T08:31:55Z</time>
      </trkpt>
      <trkpt lat="51.521914014592767" lon="-3.568886965513229">
        <ele>55.409999999999997</ele>
        <time>2026-06-25T08:32:00Z</time>
      </trkpt>
      <trkpt lat="51.521914014592767" lon="-3.568886965513229">
        <ele>55.409999999999997</ele>
        <time>2026-06-25T08:32:01Z</time>
      </trkpt>
      <trkpt lat="51.521989032626152" lon="-3.568869028240442">
        <ele>55.890000000000001</ele>
        <time>2026-06-25T08:32:02Z</time>
      </trkpt>
      <trkpt lat="51.522128004580736" lon="-3.569056028500199">
        <ele>55.890000000000001</ele>
        <time>2026-06-25T08:32:04Z</time>
      </trkpt>
      <trkpt lat="51.522195981815457" lon="-3.569082012400031">
        <ele>55.890000000000001</ele>
        <time>2026-06-25T08:32:05Z</time>
      </trkpt>
      <trkpt lat="51.522275023162365" lon="-3.569111013785005">
        <ele>56.369999999999997</ele>
        <time>2026-06-25T08:32:06Z</time>
      </trkpt>
      <trkpt lat="51.522382982075214" lon="-3.569084024056792">
        <ele>56.859999999999999</ele>
        <time>2026-06-25T08:32:07Z</time>
      </trkpt>
      <trkpt lat="51.522466968744993" lon="-3.568981010466814">
        <ele>57.340000000000003</ele>
        <time>2026-06-25T08:32:08Z</time>
      </trkpt>
      <trkpt lat="51.52256403118372" lon="-3.568879002705216">
        <ele>57.340000000000003</ele>
        <time>2026-06-25T08:32:09Z</time>
      </trkpt>
      <trkpt lat="51.522671990096569" lon="-3.568866010755301">
        <ele>57.82</ele>
        <time>2026-06-25T08:32:10Z</time>
      </trkpt>
      <trkpt lat="51.522792018949986" lon="-3.568851007148624">
        <ele>58.299999999999997</ele>
        <time>2026-06-25T08:32:11Z</time>
      </trkpt>
      <trkpt lat="51.523893987759948" lon="-3.568976987153292">
        <ele>65.030000000000001</ele>
        <time>2026-06-25T08:32:18Z</time>
      </trkpt>
      <trkpt lat="51.524074031040072" lon="-3.569058040156961">
        <ele>65.989999999999995</ele>
        <time>2026-06-25T08:32:19Z</time>
      </trkpt>
      <trkpt lat="51.524252984672785" lon="-3.569154012948275">
        <ele>66.469999999999999</ele>
        <time>2026-06-25T08:32:20Z</time>
      </trkpt>
      <trkpt lat="51.525486968457699" lon="-3.57032798230648">
        <ele>74.159999999999997</ele>
        <time>2026-06-25T08:32:28Z</time>
      </trkpt>
      <trkpt lat="51.526261959224939" lon="-3.571971002966166">
        <ele>81.370000000000005</ele>
        <time>2026-06-25T08:32:35Z</time>
      </trkpt>
      <trkpt lat="51.526403026655316" lon="-3.572398982942104">
        <ele>82.810000000000002</ele>
        <time>2026-06-25T08:32:37Z</time>
      </trkpt>
      <trkpt lat="51.526452982798219" lon="-3.572581959888339">
        <ele>83.290000000000006</ele>
        <time>2026-06-25T08:32:38Z</time>
      </trkpt>
      <trkpt lat="51.526483995839953" lon="-3.572743982076645">
        <ele>83.290000000000006</ele>
        <time>2026-06-25T08:32:39Z</time>
      </trkpt>
      <trkpt lat="51.526491036638618" lon="-3.572888989001513">
        <ele>83.290000000000006</ele>
        <time>2026-06-25T08:32:40Z</time>
      </trkpt>
      <trkpt lat="51.52649799361825" lon="-3.573022009804845">
        <ele>83.290000000000006</ele>
        <time>2026-06-25T08:32:41Z</time>
      </trkpt>
      <trkpt lat="51.526461029425263" lon="-3.57316299341619">
        <ele>83.290000000000006</ele>
        <time>2026-06-25T08:32:42Z</time>
      </trkpt>
      <trkpt lat="51.526393974199891" lon="-3.57344102114439">
        <ele>82.810000000000002</ele>
        <time>2026-06-25T08:32:43Z</time>
      </trkpt>
      <trkpt lat="51.526416018605232" lon="-3.573574963957071">
        <ele>82.329999999999998</ele>
        <time>2026-06-25T08:32:44Z</time>
      </trkpt>
      <trkpt lat="51.526448959484696" lon="-3.573694992810488">
        <ele>82.329999999999998</ele>
        <time>2026-06-25T08:32:45Z</time>
      </trkpt>
      <trkpt lat="51.52649899944663" lon="-3.573772022500634">
        <ele>82.810000000000002</ele>
        <time>2026-06-25T08:32:46Z</time>
      </trkpt>
      <trkpt lat="51.526566976681352" lon="-3.573839999735355">
        <ele>82.810000000000002</ele>
        <time>2026-06-25T08:32:47Z</time>
      </trkpt>
      <trkpt lat="51.526633026078343" lon="-3.573851985856891">
        <ele>83.290000000000006</ele>
        <time>2026-06-25T08:32:48Z</time>
      </trkpt>
      <trkpt lat="51.526694968342781" lon="-3.573839999735355">
        <ele>83.769999999999996</ele>
        <time>2026-06-25T08:32:49Z</time>
      </trkpt>
      <trkpt lat="51.526785995811224" lon="-3.573714019730687">
        <ele>85.209999999999994</ele>
        <time>2026-06-25T08:32:50Z</time>
      </trkpt>
      <trkpt lat="51.526889009401202" lon="-3.573588961735368">
        <ele>85.689999999999998</ele>
        <time>2026-06-25T08:32:51Z</time>
      </trkpt>
      <trkpt lat="51.526998979970813" lon="-3.573516039177775">
        <ele>86.659999999999997</ele>
        <time>2026-06-25T08:32:52Z</time>
      </trkpt>
      <trkpt lat="51.527114985510707" lon="-3.573443032801151">
        <ele>87.140000000000001</ele>
        <time>2026-06-25T08:32:53Z</time>
      </trkpt>
      <trkpt lat="51.527239037677646" lon="-3.573370026424527">
        <ele>88.099999999999994</ele>
        <time>2026-06-25T08:32:54Z</time>
      </trkpt>
      <trkpt lat="51.527369040995836" lon="-3.573299031704664">
        <ele>88.579999999999998</ele>
        <time>2026-06-25T08:32:55Z</time>
      </trkpt>
      <trkpt lat="51.527502983808517" lon="-3.573235999792814">
        <ele>90.019999999999996</ele>
        <time>2026-06-25T08:32:56Z</time>
      </trkpt>
      <trkpt lat="51.527647990733385" lon="-3.573201969265938">
        <ele>90.980000000000004</ele>
        <time>2026-06-25T08:32:57Z</time>
      </trkpt>
      <trkpt lat="51.527799032628536" lon="-3.573168022558093">
        <ele>91.939999999999998</ele>
        <time>2026-06-25T08:32:58Z</time>
      </trkpt>
      <trkpt lat="51.52879798784852" lon="-3.57305696234107">
        <ele>95.790000000000006</ele>
        <time>2026-06-25T08:33:05Z</time>
      </trkpt>
      <trkpt lat="51.52903201058507" lon="-3.573062997311354">
        <ele>96.269999999999996</ele>
        <time>2026-06-25T08:33:08Z</time>
      </trkpt>
      <trkpt lat="51.529127983376384" lon="-3.573088981211186">
        <ele>96.269999999999996</ele>
        <time>2026-06-25T08:33:10Z</time>
      </trkpt>
      <trkpt lat="51.52920501306653" lon="-3.573110019788146">
        <ele>96.269999999999996</ele>
        <time>2026-06-25T08:33:11Z</time>
      </trkpt>
      <trkpt lat="51.529322024434805" lon="-3.573303977027535">
        <ele>95.790000000000006</ele>
        <time>2026-06-25T08:33:13Z</time>
      </trkpt>
      <trkpt lat="51.529410034418106" lon="-3.573367008939385">
        <ele>95.790000000000006</ele>
        <time>2026-06-25T08:33:14Z</time>
      </trkpt>
      <trkpt lat="51.529501983895898" lon="-3.573382012546063">
        <ele>95.310000000000002</ele>
        <time>2026-06-25T08:33:15Z</time>
      </trkpt>
      <trkpt lat="51.529581025242805" lon="-3.573373965919018">
        <ele>95.310000000000002</ele>
        <time>2026-06-25T08:33:16Z</time>
      </trkpt>
      <trkpt lat="51.529670041054487" lon="-3.573314035311341">
        <ele>95.310000000000002</ele>
        <time>2026-06-25T08:33:17Z</time>
      </trkpt>
      <trkpt lat="51.529731983318925" lon="-3.573212027549744">
        <ele>95.790000000000006</ele>
        <time>2026-06-25T08:33:18Z</time>
      </trkpt>
      <trkpt lat="51.529785040766001" lon="-3.573088981211186">
        <ele>95.790000000000006</ele>
        <time>2026-06-25T08:33:19Z</time>
      </trkpt>
      <trkpt lat="51.529824016615748" lon="-3.572916984558106">
        <ele>95.790000000000006</ele>
        <time>2026-06-25T08:33:20Z</time>
      </trkpt>
      <trkpt lat="51.529909009113908" lon="-3.572814976796508">
        <ele>95.790000000000006</ele>
        <time>2026-06-25T08:33:21Z</time>
      </trkpt>
      <trkpt lat="51.5300009585917" lon="-3.572705006226897">
        <ele>95.790000000000006</ele>
        <time>2026-06-25T08:33:22Z</time>
      </trkpt>
      <trkpt lat="51.530100032687187" lon="-3.572585983201861">
        <ele>95.790000000000006</ele>
        <time>2026-06-25T08:33:23Z</time>
      </trkpt>
      <trkpt lat="51.53021402657032" lon="-3.572483975440264">
        <ele>95.790000000000006</ele>
        <time>2026-06-25T08:33:24Z</time>
      </trkpt>
      <trkpt lat="51.530334977433085" lon="-3.572385990992189">
        <ele>95.310000000000002</ele>
        <time>2026-06-25T08:33:25Z</time>
      </trkpt>
      <trkpt lat="51.530586015433073" lon="-3.572185998782516">
        <ele>94.829999999999998</ele>
        <time>2026-06-25T08:33:27Z</time>
      </trkpt>
      <trkpt lat="51.531323036178946" lon="-3.571690963581204">
        <ele>94.829999999999998</ele>
        <time>2026-06-25T08:33:33Z</time>
      </trkpt>
      <trkpt lat="51.531450022011995" lon="-3.571656011044979">
        <ele>94.349999999999994</ele>
        <time>2026-06-25T08:33:34Z</time>
      </trkpt>
      <trkpt lat="51.531556975096464" lon="-3.57163798995316">
        <ele>94.349999999999994</ele>
        <time>2026-06-25T08:33:35Z</time>
      </trkpt>
      <trkpt lat="51.531556975096464" lon="-3.57163798995316">
        <ele>93.870000000000005</ele>
        <time>2026-06-25T08:33:36Z</time>
      </trkpt>
      <trkpt lat="51.531726960092783" lon="-3.571630027145147">
        <ele>93.390000000000001</ele>
        <time>2026-06-25T08:33:37Z</time>
      </trkpt>
      <trkpt lat="51.531977998092771" lon="-3.571685012429953">
        <ele>91.459999999999994</ele>
        <time>2026-06-25T08:33:44Z</time>
      </trkpt>
      <trkpt lat="51.532068019732833" lon="-3.57172298245132">
        <ele>91.459999999999994</ele>
        <time>2026-06-25T08:33:52Z</time>
      </trkpt>
      <trkpt lat="51.532133985310793" lon="-3.571775034070015">
        <ele>91.459999999999994</ele>
        <time>2026-06-25T08:33:53Z</time>
      </trkpt>
      <trkpt lat="51.532180001959205" lon="-3.571831025183201">
        <ele>91.459999999999994</ele>
        <time>2026-06-25T08:33:54Z</time>
      </trkpt>
      <trkpt lat="51.532226018607616" lon="-3.571888022124767">
        <ele>91.459999999999994</ele>
        <time>2026-06-25T08:33:55Z</time>
      </trkpt>
      <trkpt lat="51.532301036641002" lon="-3.572005033493042">
        <ele>91.459999999999994</ele>
        <time>2026-06-25T08:33:56Z</time>
      </trkpt>
      <trkpt lat="51.532321991398931" lon="-3.57213101349771">
        <ele>91.459999999999994</ele>
        <time>2026-06-25T08:33:57Z</time>
      </trkpt>
      <trkpt lat="51.532342024147511" lon="-3.57223603874445">
        <ele>91.459999999999994</ele>
        <time>2026-06-25T08:33:58Z</time>
      </trkpt>
      <trkpt lat="51.532405978068709" lon="-3.572337040677667">
        <ele>91.459999999999994</ele>
        <time>2026-06-25T08:33:59Z</time>
      </trkpt>
      <trkpt lat="51.532472027465701" lon="-3.572439970448613">
        <ele>91.459999999999994</ele>
        <time>2026-06-25T08:34:00Z</time>
      </trkpt>
      <trkpt lat="51.532576968893409" lon="-3.572513982653618">
        <ele>91.459999999999994</ele>
        <time>2026-06-25T08:34:01Z</time>
      </trkpt>
      <trkpt lat="51.532643018290401" lon="-3.57264700345695">
        <ele>91.459999999999994</ele>
        <time>2026-06-25T08:34:02Z</time>
      </trkpt>
      <trkpt lat="51.532703032717109" lon="-3.572767032310367">
        <ele>91.459999999999994</ele>
        <time>2026-06-25T08:34:03Z</time>
      </trkpt>
      <trkpt lat="51.53275097720325" lon="-3.572976998984814">
        <ele>91.459999999999994</ele>
        <time>2026-06-25T08:34:04Z</time>
      </trkpt>
      <trkpt lat="51.532796993851662" lon="-3.573179002851248">
        <ele>90.980000000000004</ele>
        <time>2026-06-25T08:34:05Z</time>
      </trkpt>
      <trkpt lat="51.53311500325799" lon="-3.575104996562004">
        <ele>81.849999999999994</ele>
        <time>2026-06-25T08:34:12Z</time>
      </trkpt>
      <trkpt lat="51.533400993794203" lon="-3.578257011249661">
        <ele>69.349999999999994</ele>
        <time>2026-06-25T08:34:21Z</time>
      </trkpt>
      <trkpt lat="51.533539965748787" lon="-3.582231961190701">
        <ele>58.299999999999997</ele>
        <time>2026-06-25T08:34:31Z</time>
      </trkpt>
      <trkpt lat="51.533489003777504" lon="-3.585498975589871">
        <ele>50.609999999999999</ele>
        <time>2026-06-25T08:34:39Z</time>
      </trkpt>
      <trkpt lat="51.5333959646523" lon="-3.590251011773944">
        <ele>48.200000000000003</ele>
        <time>2026-06-25T08:34:49Z</time>
      </trkpt>
      <trkpt lat="51.533300997689366" lon="-3.595041017979384">
        <ele>58.780000000000001</ele>
        <time>2026-06-25T08:35:00Z</time>
      </trkpt>
      <trkpt lat="51.533227991312742" lon="-3.598102005198598">
        <ele>68.870000000000005</ele>
        <time>2026-06-25T08:35:07Z</time>
      </trkpt>
      <trkpt lat="51.53290101327002" lon="-3.603408001363277">
        <ele>84.25</ele>
        <time>2026-06-25T08:35:19Z</time>
      </trkpt>
      <trkpt lat="51.532230963930488" lon="-3.609146000817418">
        <ele>99.150000000000006</ele>
        <time>2026-06-25T08:35:32Z</time>
      </trkpt>
      <trkpt lat="51.531435018405318" lon="-3.613935001194477">
        <ele>108.77</ele>
        <time>2026-06-25T08:35:44Z</time>
      </trkpt>
      <trkpt lat="51.529941027984023" lon="-3.620296027511358">
        <ele>111.17</ele>
        <time>2026-06-25T08:35:58Z</time>
      </trkpt>
      <trkpt lat="51.528340000659227" lon="-3.625591965392232">
        <ele>103</ele>
        <time>2026-06-25T08:36:11Z</time>
      </trkpt>
      <trkpt lat="51.526177972555161" lon="-3.631424009799957">
        <ele>84.730000000000004</ele>
        <time>2026-06-25T08:36:26Z</time>
      </trkpt>
      <trkpt lat="51.524454988539219" lon="-3.636060040444136">
        <ele>70.310000000000002</ele>
        <time>2026-06-25T08:36:38Z</time>
      </trkpt>
      <trkpt lat="51.522574005648494" lon="-3.641044003888965">
        <ele>64.069999999999993</ele>
        <time>2026-06-25T08:36:52Z</time>
      </trkpt>
      <trkpt lat="51.521582007408142" lon="-3.643661001697183">
        <ele>63.579999999999998</ele>
        <time>2026-06-25T08:37:00Z</time>
      </trkpt>
      <trkpt lat="51.519393995404243" lon="-3.649473013356328">
        <ele>70.310000000000002</ele>
        <time>2026-06-25T08:37:18Z</time>
      </trkpt>
      <trkpt lat="51.518155988305807" lon="-3.653363976627588">
        <ele>78.969999999999999</ele>
        <time>2026-06-25T08:37:30Z</time>
      </trkpt>
      <trkpt lat="51.51725702919066" lon="-3.656829977408052">
        <ele>88.099999999999994</ele>
        <time>2026-06-25T08:37:39Z</time>
      </trkpt>
      <trkpt lat="51.516326973214746" lon="-3.661545971408486">
        <ele>93.870000000000005</ele>
        <time>2026-06-25T08:37:50Z</time>
      </trkpt>
      <trkpt lat="51.515724984928966" lon="-3.666427005082369">
        <ele>94.349999999999994</ele>
        <time>2026-06-25T08:38:01Z</time>
      </trkpt>
      <trkpt lat="51.515407981351018" lon="-3.672257959842682">
        <ele>85.689999999999998</ele>
        <time>2026-06-25T08:38:14Z</time>
      </trkpt>
      <trkpt lat="51.515482999384403" lon="-3.676752001047134">
        <ele>80.409999999999997</ele>
        <time>2026-06-25T08:38:24Z</time>
      </trkpt>
      <trkpt lat="51.515771001577377" lon="-3.682584967464209">
        <ele>71.760000000000005</ele>
        <time>2026-06-25T08:38:38Z</time>
      </trkpt>
      <trkpt lat="51.5162050165236" lon="-3.690162962302566">
        <ele>55.409999999999997</ele>
        <time>2026-06-25T08:38:54Z</time>
      </trkpt>
      <trkpt lat="51.516634002327919" lon="-3.69818301871419">
        <ele>38.109999999999999</ele>
        <time>2026-06-25T08:39:12Z</time>
      </trkpt>
      <trkpt lat="51.516952011734247" lon="-3.703956976532936">
        <ele>33.299999999999997</ele>
        <time>2026-06-25T08:39:25Z</time>
      </trkpt>
      <trkpt lat="51.517425002530217" lon="-3.707391964271665">
        <ele>34.259999999999998</ele>
        <time>2026-06-25T08:39:33Z</time>
      </trkpt>
      <trkpt lat="51.518228994682431" lon="-3.710235022008419">
        <ele>35.229999999999997</ele>
        <time>2026-06-25T08:39:40Z</time>
      </trkpt>
      <trkpt lat="51.518660997971892" lon="-3.711368003860116">
        <ele>35.229999999999997</ele>
        <time>2026-06-25T08:39:43Z</time>
      </trkpt>
      <trkpt lat="51.520078964531422" lon="-3.714101007208228">
        <ele>34.259999999999998</ele>
        <time>2026-06-25T08:39:51Z</time>
      </trkpt>
      <trkpt lat="51.522178966552019" lon="-3.717066021636128">
        <ele>31.859999999999999</ele>
        <time>2026-06-25T08:40:01Z</time>
      </trkpt>
      <trkpt lat="51.524515002965927" lon="-3.719565002247691">
        <ele>30.899999999999999</ele>
        <time>2026-06-25T08:40:12Z</time>
      </trkpt>
      <trkpt lat="51.527469959110022" lon="-3.722130032256246">
        <ele>30.420000000000002</ele>
        <time>2026-06-25T08:40:23Z</time>
      </trkpt>
      <trkpt lat="51.530240010470152" lon="-3.724212013185024">
        <ele>28.5</ele>
        <time>2026-06-25T08:40:34Z</time>
      </trkpt>
      <trkpt lat="51.533852024003863" lon="-3.726531034335494">
        <ele>26.57</ele>
        <time>2026-06-25T08:40:49Z</time>
      </trkpt>
      <trkpt lat="51.538126040250063" lon="-3.728719968348742">
        <ele>24.170000000000002</ele>
        <time>2026-06-25T08:41:05Z</time>
      </trkpt>
      <trkpt lat="51.542436014860868" lon="-3.730586031451821">
        <ele>21.77</ele>
        <time>2026-06-25T08:41:21Z</time>
      </trkpt>
      <trkpt lat="51.546512972563505" lon="-3.732086978852749">
        <ele>17.440000000000001</ele>
        <time>2026-06-25T08:41:36Z</time>
      </trkpt>
      <trkpt lat="51.550870975479484" lon="-3.733408972620964">
        <ele>16.960000000000001</ele>
        <time>2026-06-25T08:41:52Z</time>
      </trkpt>
      <trkpt lat="51.5544050373137" lon="-3.734571961686015">
        <ele>18.399999999999999</ele>
        <time>2026-06-25T08:42:05Z</time>
      </trkpt>
      <trkpt lat="51.556787006556988" lon="-3.735909964889288">
        <ele>19.84</ele>
        <time>2026-06-25T08:42:14Z</time>
      </trkpt>
      <trkpt lat="51.560622984543443" lon="-3.738649003207684">
        <ele>17.920000000000002</ele>
        <time>2026-06-25T08:42:29Z</time>
      </trkpt>
      <trkpt lat="51.562628019601107" lon="-3.740243995562196">
        <ele>15.039999999999999</ele>
        <time>2026-06-25T08:42:37Z</time>
      </trkpt>
      <trkpt lat="51.56624598428607" lon="-3.743515033274889">
        <ele>15.52</ele>
        <time>2026-06-25T08:42:51Z</time>
      </trkpt>
      <trkpt lat="51.568321008235216" lon="-3.745759958401322">
        <ele>20.32</ele>
        <time>2026-06-25T08:43:00Z</time>
      </trkpt>
      <trkpt lat="51.570012979209423" lon="-3.747241962701082">
        <ele>27.050000000000001</ele>
        <time>2026-06-25T08:43:07Z</time>
      </trkpt>
      <trkpt lat="51.572488993406296" lon="-3.749243980273604">
        <ele>32.82</ele>
        <time>2026-06-25T08:43:17Z</time>
      </trkpt>
      <trkpt lat="51.574476007372141" lon="-3.751659980043769">
        <ele>38.590000000000003</ele>
        <time>2026-06-25T08:43:26Z</time>
      </trkpt>
      <trkpt lat="51.577018992975354" lon="-3.755190018564463">
        <ele>43.399999999999999</ele>
        <time>2026-06-25T08:43:38Z</time>
      </trkpt>
      <trkpt lat="51.579353017732501" lon="-3.758392995223403">
        <ele>41.469999999999999</ele>
        <time>2026-06-25T08:43:49Z</time>
      </trkpt>
      <trkpt lat="51.581616969779134" lon="-3.761731004342437">
        <ele>39.07</ele>
        <time>2026-06-25T08:44:00Z</time>
      </trkpt>
      <trkpt lat="51.583417989313602" lon="-3.764513963833451">
        <ele>36.189999999999998</ele>
        <time>2026-06-25T08:44:09Z</time>
      </trkpt>
      <trkpt lat="51.584919020533562" lon="-3.765649041160941">
        <ele>34.740000000000002</ele>
        <time>2026-06-25T08:44:15Z</time>
      </trkpt>
      <trkpt lat="51.586835039779544" lon="-3.766777999699116">
        <ele>30.899999999999999</ele>
        <time>2026-06-25T08:44:23Z</time>
      </trkpt>
      <trkpt lat="51.588054019957781" lon="-3.767945012077689">
        <ele>27.530000000000001</ele>
        <time>2026-06-25T08:44:31Z</time>
      </trkpt>
      <trkpt lat="51.588977035135031" lon="-3.76900096423924">
        <ele>26.57</ele>
        <time>2026-06-25T08:44:38Z</time>
      </trkpt>
      <trkpt lat="51.591209974139929" lon="-3.770754961296916">
        <ele>27.050000000000001</ele>
        <time>2026-06-25T08:44:50Z</time>
      </trkpt>
      <trkpt lat="51.592466002330184" lon="-3.772184997797012">
        <ele>25.609999999999999</ele>
        <time>2026-06-25T08:44:58Z</time>
      </trkpt>
      <trkpt lat="51.593206962570548" lon="-3.773173978552222">
        <ele>22.73</ele>
        <time>2026-06-25T08:45:03Z</time>
      </trkpt>
      <trkpt lat="51.59490798600018" lon="-3.774503013119102">
        <ele>19.84</ele>
        <time>2026-06-25T08:45:13Z</time>
      </trkpt>
      <trkpt lat="51.59664697945118" lon="-3.775799022987485">
        <ele>18.879999999999999</ele>
        <time>2026-06-25T08:45:23Z</time>
      </trkpt>
      <trkpt lat="51.59677698276937" lon="-3.776016030460596">
        <ele>17.920000000000002</ele>
        <time>2026-06-25T08:45:24Z</time>
      </trkpt>
      <trkpt lat="51.596908997744322" lon="-3.776234965771437">
        <ele>17.440000000000001</ele>
        <time>2026-06-25T08:45:25Z</time>
      </trkpt>
      <trkpt lat="51.597042018547654" lon="-3.776457002386451">
        <ele>16.960000000000001</ele>
        <time>2026-06-25T08:45:26Z</time>
      </trkpt>
      <trkpt lat="51.597172021865845" lon="-3.776687001809478">
        <ele>16.960000000000001</ele>
        <time>2026-06-25T08:45:27Z</time>
      </trkpt>
      <trkpt lat="51.597264977172017" lon="-3.776953965425491">
        <ele>16.48</ele>
        <time>2026-06-25T08:45:28Z</time>
      </trkpt>
      <trkpt lat="51.597359022125602" lon="-3.777223024517298">
        <ele>16.48</ele>
        <time>2026-06-25T08:45:29Z</time>
      </trkpt>
      <trkpt lat="51.597454994916916" lon="-3.777496023103595">
        <ele>16.960000000000001</ele>
        <time>2026-06-25T08:45:30Z</time>
      </trkpt>
      <trkpt lat="51.598317995667458" lon="-3.781250026077032">
        <ele>19.359999999999999</ele>
        <time>2026-06-25T08:45:43Z</time>
      </trkpt>
      <trkpt lat="51.598552018404007" lon="-3.784632962197065">
        <ele>20.809999999999999</ele>
        <time>2026-06-25T08:45:54Z</time>
      </trkpt>
      <trkpt lat="51.59881797619164" lon="-3.787695961073041">
        <ele>17.920000000000002</ele>
        <time>2026-06-25T08:46:04Z</time>
      </trkpt>
      <trkpt lat="51.598961977288127" lon="-3.788257967680693">
        <ele>16.48</ele>
        <time>2026-06-25T08:46:06Z</time>
      </trkpt>
      <trkpt lat="51.599966967478395" lon="-3.790906984359026">
        <ele>13.119999999999999</ele>
        <time>2026-06-25T08:46:16Z</time>
      </trkpt>
      <trkpt lat="51.601709984242916" lon="-3.795305974781513">
        <ele>8.789999999999999</ele>
        <time>2026-06-25T08:46:33Z</time>
      </trkpt>
      <trkpt lat="51.602976992726326" lon="-3.798394035547972">
        <ele>11.19</ele>
        <time>2026-06-25T08:46:45Z</time>
      </trkpt>
      <trkpt lat="51.604376016184688" lon="-3.800510969012976">
        <ele>6.39</ele>
        <time>2026-06-25T08:46:55Z</time>
      </trkpt>
      <trkpt lat="51.605901019647717" lon="-3.801899012178183">
        <ele>4.46</ele>
        <time>2026-06-25T08:47:04Z</time>
      </trkpt>
      <trkpt lat="51.608297992497683" lon="-3.804080989211798">
        <ele>5.91</ele>
        <time>2026-06-25T08:47:18Z</time>
      </trkpt>
      <trkpt lat="51.610141005367041" lon="-3.805928025394678">
        <ele>6.39</ele>
        <time>2026-06-25T08:47:29Z</time>
      </trkpt>
      <trkpt lat="51.61276001483202" lon="-3.808688018471003">
        <ele>5.91</ele>
        <time>2026-06-25T08:47:45Z</time>
      </trkpt>
      <trkpt lat="51.614554999396205" lon="-3.810579981654882">
        <ele>3.98</ele>
        <time>2026-06-25T08:47:56Z</time>
      </trkpt>
      <trkpt lat="51.616561040282249" lon="-3.812691969797015">
        <ele>5.42</ele>
        <time>2026-06-25T08:48:09Z</time>
      </trkpt>
      <trkpt lat="51.618552999570966" lon="-3.814779985696077">
        <ele>5.91</ele>
        <time>2026-06-25T08:48:21Z</time>
      </trkpt>
      <trkpt lat="51.620872020721436" lon="-3.817242002114654">
        <ele>7.83</ele>
        <time>2026-06-25T08:48:35Z</time>
      </trkpt>
      <trkpt lat="51.623684987425804" lon="-3.820169968530536">
        <ele>15.039999999999999</ele>
        <time>2026-06-25T08:48:52Z</time>
      </trkpt>
      <trkpt lat="51.625768980011344" lon="-3.821985991671681">
        <ele>21.289999999999999</ele>
        <time>2026-06-25T08:49:04Z</time>
      </trkpt>
      <trkpt lat="51.627724980935454" lon="-3.823499009013176">
        <ele>26.57</ele>
        <time>2026-06-25T08:49:15Z</time>
      </trkpt>
      <trkpt lat="51.628858968615532" lon="-3.825243031606078">
        <ele>30.420000000000002</ele>
        <time>2026-06-25T08:49:23Z</time>
      </trkpt>
      <trkpt lat="51.629590038210154" lon="-3.827508995309472">
        <ele>34.259999999999998</ele>
        <time>2026-06-25T08:49:31Z</time>
      </trkpt>
      <trkpt lat="51.629954986274242" lon="-3.831003997474909">
        <ele>39.549999999999997</ele>
        <time>2026-06-25T08:49:42Z</time>
      </trkpt>
      <trkpt lat="51.630424959585071" lon="-3.835090007632971">
        <ele>41.469999999999999</ele>
        <time>2026-06-25T08:49:55Z</time>
      </trkpt>
      <trkpt lat="51.631036000326276" lon="-3.837080039083958">
        <ele>40.990000000000002</ele>
        <time>2026-06-25T08:50:02Z</time>
      </trkpt>
      <trkpt lat="51.632217010483146" lon="-3.838785002008081">
        <ele>40.030000000000001</ele>
        <time>2026-06-25T08:50:10Z</time>
      </trkpt>
      <trkpt lat="51.633481001481414" lon="-3.839716985821724">
        <ele>38.109999999999999</ele>
        <time>2026-06-25T08:50:17Z</time>
      </trkpt>
      <trkpt lat="51.635043974965811" lon="-3.839982021600008">
        <ele>34.740000000000002</ele>
        <time>2026-06-25T08:50:25Z</time>
      </trkpt>
      <trkpt lat="51.637220000848174" lon="-3.839659988880158">
        <ele>28.5</ele>
        <time>2026-06-25T08:50:36Z</time>
      </trkpt>
      <trkpt lat="51.638794960454106" lon="-3.840148989111185">
        <ele>21.77</ele>
        <time>2026-06-25T08:50:44Z</time>
      </trkpt>
      <trkpt lat="51.640530014410615" lon="-3.841650020331144">
        <ele>16.960000000000001</ele>
        <time>2026-06-25T08:50:54Z</time>
      </trkpt>
      <trkpt lat="51.643109964206815" lon="-3.843989996239543">
        <ele>18.879999999999999</ele>
        <time>2026-06-25T08:51:09Z</time>
      </trkpt>
      <trkpt lat="51.644880976527929" lon="-3.845812976360321">
        <ele>21.77</ele>
        <time>2026-06-25T08:51:19Z</time>
      </trkpt>
      <trkpt lat="51.645423034206033" lon="-3.846510015428066">
        <ele>24.170000000000002</ele>
        <time>2026-06-25T08:51:28Z</time>
      </trkpt>
      <trkpt lat="51.648196019232273" lon="-3.849481986835599">
        <ele>29.940000000000001</ele>
        <time>2026-06-25T08:51:35Z</time>
      </trkpt>
      <trkpt lat="51.650046994909644" lon="-3.850281033664942">
        <ele>35.710000000000001</ele>
        <time>2026-06-25T08:51:42Z</time>
      </trkpt>
      <trkpt lat="51.654616976156831" lon="-3.851863034069538">
        <ele>46.759999999999998</ele>
        <time>2026-06-25T08:51:59Z</time>
      </trkpt>
      <trkpt lat="51.656060004606843" lon="-3.853109003975987">
        <ele>50.609999999999999</ele>
        <time>2026-06-25T08:52:05Z</time>
      </trkpt>
      <trkpt lat="51.656816974282265" lon="-3.854387998580933">
        <ele>53.009999999999998</ele>
        <time>2026-06-25T08:52:09Z</time>
      </trkpt>
      <trkpt lat="51.657546032220125" lon="-3.856743983924389">
        <ele>55.890000000000001</ele>
        <time>2026-06-25T08:52:15Z</time>
      </trkpt>
      <trkpt lat="51.657864041626453" lon="-3.860273016616702">
        <ele>57.82</ele>
        <time>2026-06-25T08:52:23Z</time>
      </trkpt>
      <trkpt lat="51.6582449991256" lon="-3.865135023370385">
        <ele>56.859999999999999</ele>
        <time>2026-06-25T08:52:34Z</time>
      </trkpt>
      <trkpt lat="51.658942038193345" lon="-3.871244005858898">
        <ele>56.369999999999997</ele>
        <time>2026-06-25T08:52:48Z</time>
      </trkpt>
      <trkpt lat="51.659494992345572" lon="-3.873727982863784">
        <ele>55.890000000000001</ele>
        <time>2026-06-25T08:52:54Z</time>
      </trkpt>
      <trkpt lat="51.660496965050697" lon="-3.875829996541143">
        <ele>55.890000000000001</ele>
        <time>2026-06-25T08:53:00Z</time>
      </trkpt>
      <trkpt lat="51.662064967676997" lon="-3.877648031339049">
        <ele>51.090000000000003</ele>
        <time>2026-06-25T08:53:07Z</time>
      </trkpt>
      <trkpt lat="51.663917033001781" lon="-3.879591040313244">
        <ele>41.950000000000003</ele>
        <time>2026-06-25T08:53:15Z</time>
      </trkpt>
      <trkpt lat="51.665500961244106" lon="-3.88205599039793">
        <ele>35.710000000000001</ele>
        <time>2026-06-25T08:53:23Z</time>
      </trkpt>
      <trkpt lat="51.666683983057737" lon="-3.885053023695946">
        <ele>27.530000000000001</ele>
        <time>2026-06-25T08:53:31Z</time>
      </trkpt>
      <trkpt lat="51.667772959917784" lon="-3.887592991814017">
        <ele>21.289999999999999</ele>
        <time>2026-06-25T08:53:38Z</time>
      </trkpt>
      <trkpt lat="51.669357977807522" lon="-3.88998300768435">
        <ele>18.879999999999999</ele>
        <time>2026-06-25T08:53:46Z</time>
      </trkpt>
      <trkpt lat="51.671484969556332" lon="-3.892017966136336">
        <ele>17.920000000000002</ele>
        <time>2026-06-25T08:53:55Z</time>
      </trkpt>
      <trkpt lat="51.673200996592641" lon="-3.894245959818363">
        <ele>16.960000000000001</ele>
        <time>2026-06-25T08:54:03Z</time>
      </trkpt>
      <trkpt lat="51.67457202449441" lon="-3.897017017006874">
        <ele>15.039999999999999</ele>
        <time>2026-06-25T08:54:11Z</time>
      </trkpt>
      <trkpt lat="51.675532003864646" lon="-3.900199038907886">
        <ele>14.56</ele>
        <time>2026-06-25T08:54:19Z</time>
      </trkpt>
      <trkpt lat="51.676327027380466" lon="-3.904418991878629">
        <ele>16</ele>
        <time>2026-06-25T08:54:29Z</time>
      </trkpt>
      <trkpt lat="51.677449028939009" lon="-3.910341979935765">
        <ele>19.359999999999999</ele>
        <time>2026-06-25T08:54:43Z</time>
      </trkpt>
      <trkpt lat="51.6781419608742" lon="-3.913942007347941">
        <ele>23.690000000000001</ele>
        <time>2026-06-25T08:54:52Z</time>
      </trkpt>
      <trkpt lat="51.678903037682176" lon="-3.918062970042229">
        <ele>30.899999999999999</ele>
        <time>2026-06-25T08:55:05Z</time>
      </trkpt>
      <trkpt lat="51.67955900542438" lon="-3.922566985711455">
        <ele>42.920000000000002</ele>
        <time>2026-06-25T08:55:19Z</time>
      </trkpt>
      <trkpt lat="51.679980028420687" lon="-3.927146019414067">
        <ele>56.859999999999999</ele>
        <time>2026-06-25T08:55:33Z</time>
      </trkpt>
      <trkpt lat="51.680002994835377" lon="-3.927471991628408">
        <ele>57.82</ele>
        <time>2026-06-25T08:55:34Z</time>
      </trkpt>
      <trkpt lat="51.680021015927196" lon="-3.927790001034737">
        <ele>58.780000000000001</ele>
        <time>2026-06-25T08:55:35Z</time>
      </trkpt>
      <trkpt lat="51.680108020082116" lon="-3.932314971461892">
        <ele>70.310000000000002</ele>
        <time>2026-06-25T08:55:49Z</time>
      </trkpt>
      <trkpt lat="51.679995032027364" lon="-3.935577962547541">
        <ele>76.079999999999998</ele>
        <time>2026-06-25T08:55:59Z</time>
      </trkpt>
      <trkpt lat="51.679466972127557" lon="-3.939382005482912">
        <ele>81.370000000000005</ele>
        <time>2026-06-25T08:56:11Z</time>
      </trkpt>
      <trkpt lat="51.678609000518918" lon="-3.942701993510127">
        <ele>84.25</ele>
        <time>2026-06-25T08:56:22Z</time>
      </trkpt>
      <trkpt lat="51.677383985370398" lon="-3.946477035060525">
        <ele>87.620000000000005</ele>
        <time>2026-06-25T08:56:35Z</time>
      </trkpt>
      <trkpt lat="51.676440015435219" lon="-3.950097011402249">
        <ele>89.540000000000006</ele>
        <time>2026-06-25T08:56:47Z</time>
      </trkpt>
      <trkpt lat="51.675696959719062" lon="-3.954476974904537">
        <ele>87.620000000000005</ele>
        <time>2026-06-25T08:57:01Z</time>
      </trkpt>
      <trkpt lat="51.675533009693027" lon="-3.957398990169168">
        <ele>84.25</ele>
        <time>2026-06-25T08:57:10Z</time>
      </trkpt>
      <trkpt lat="51.675275014713407" lon="-3.962605996057391">
        <ele>77.519999999999996</ele>
        <time>2026-06-25T08:57:26Z</time>
      </trkpt>
      <trkpt lat="51.674784002825618" lon="-3.96741502918303">
        <ele>66.469999999999999</ele>
        <time>2026-06-25T08:57:41Z</time>
      </trkpt>
      <trkpt lat="51.674473034217954" lon="-3.971113041043282">
        <ele>65.989999999999995</ele>
        <time>2026-06-25T08:57:52Z</time>
      </trkpt>
      <trkpt lat="51.674521984532475" lon="-3.975008027628064">
        <ele>69.829999999999998</ele>
        <time>2026-06-25T08:58:02Z</time>
      </trkpt>
      <trkpt lat="51.674998998641968" lon="-3.979004016146064">
        <ele>75.599999999999994</ele>
        <time>2026-06-25T08:58:12Z</time>
      </trkpt>
      <trkpt lat="51.675602998584509" lon="-3.983627976849675">
        <ele>81.849999999999994</ele>
        <time>2026-06-25T08:58:24Z</time>
      </trkpt>
      <trkpt lat="51.676119994372129" lon="-3.988326033577323">
        <ele>77.519999999999996</ele>
        <time>2026-06-25T08:58:35Z</time>
      </trkpt>
      <trkpt lat="51.67652802541852" lon="-3.995429025962949">
        <ele>81.370000000000005</ele>
        <time>2026-06-25T08:58:51Z</time>
      </trkpt>
      <trkpt lat="51.676871012896299" lon="-4.000318022444844">
        <ele>81.849999999999994</ele>
        <time>2026-06-25T08:59:02Z</time>
      </trkpt>
      <trkpt lat="51.677624965086579" lon="-4.005584958940744">
        <ele>72.719999999999999</ele>
        <time>2026-06-25T08:59:14Z</time>
      </trkpt>
      <trkpt lat="51.678829025477171" lon="-4.010672019794583">
        <ele>57.82</ele>
        <time>2026-06-25T08:59:26Z</time>
      </trkpt>
      <trkpt lat="51.680354028940201" lon="-4.014991968870163">
        <ele>42.920000000000002</ele>
        <time>2026-06-25T08:59:37Z</time>
      </trkpt>
      <trkpt lat="51.682393010705709" lon="-4.018696015700698">
        <ele>33.299999999999997</ele>
        <time>2026-06-25T08:59:48Z</time>
      </trkpt>
      <trkpt lat="51.684574987739325" lon="-4.021527003496885">
        <ele>32.340000000000003</ele>
        <time>2026-06-25T08:59:58Z</time>
      </trkpt>
      <trkpt lat="51.687028035521507" lon="-4.023650977760553">
        <ele>34.740000000000002</ele>
        <time>2026-06-25T09:00:08Z</time>
      </trkpt>
      <trkpt lat="51.689691971987486" lon="-4.025105992332101">
        <ele>36.670000000000002</ele>
        <time>2026-06-25T09:00:18Z</time>
      </trkpt>
      <trkpt lat="51.693022018298507" lon="-4.026138978078961">
        <ele>40.030000000000001</ele>
        <time>2026-06-25T09:00:30Z</time>
      </trkpt>
      <trkpt lat="51.695746975019574" lon="-4.027387965470552">
        <ele>40.990000000000002</ele>
        <time>2026-06-25T09:00:40Z</time>
      </trkpt>
      <trkpt lat="51.698304964229465" lon="-4.029319994151592">
        <ele>43.880000000000003</ele>
        <time>2026-06-25T09:00:50Z</time>
      </trkpt>
      <trkpt lat="51.700371019542217" lon="-4.031682014465332">
        <ele>45.799999999999997</ele>
        <time>2026-06-25T09:00:59Z</time>
      </trkpt>
      <trkpt lat="51.702518966048956" lon="-4.035342978313565">
        <ele>40.509999999999998</ele>
        <time>2026-06-25T09:01:10Z</time>
      </trkpt>
      <trkpt lat="51.703882031142712" lon="-4.038813002407551">
        <ele>28.02</ele>
        <time>2026-06-25T09:01:19Z</time>
      </trkpt>
      <trkpt lat="51.704808985814452" lon="-4.042616039514542">
        <ele>14.08</ele>
        <time>2026-06-25T09:01:28Z</time>
      </trkpt>
      <trkpt lat="51.705358000472188" lon="-4.047029027715325">
        <ele>11.19</ele>
        <time>2026-06-25T09:01:38Z</time>
      </trkpt>
      <trkpt lat="51.705903997644782" lon="-4.051437992602587">
        <ele>13.6</ele>
        <time>2026-06-25T09:01:48Z</time>
      </trkpt>
      <trkpt lat="51.70676096342504" lon="-4.054768960922957">
        <ele>16.48</ele>
        <time>2026-06-25T09:01:56Z</time>
      </trkpt>
      <trkpt lat="51.708360984921455" lon="-4.058436965569854">
        <ele>20.809999999999999</ele>
        <time>2026-06-25T09:02:06Z</time>
      </trkpt>
      <trkpt lat="51.71015303581953" lon="-4.061259990558028">
        <ele>28.02</ele>
        <time>2026-06-25T09:02:15Z</time>
      </trkpt>
      <trkpt lat="51.712426962330937" lon="-4.063895009458065">
        <ele>37.149999999999999</ele>
        <time>2026-06-25T09:02:25Z</time>
      </trkpt>
      <trkpt lat="51.714957961812615" lon="-4.065897027030587">
        <ele>43.880000000000003</ele>
        <time>2026-06-25T09:02:35Z</time>
      </trkpt>
      <trkpt lat="51.717419978231192" lon="-4.066964965313673">
        <ele>46.759999999999998</ele>
        <time>2026-06-25T09:02:44Z</time>
      </trkpt>
      <trkpt lat="51.719931028783321" lon="-4.067312981933355">
        <ele>48.68</ele>
        <time>2026-06-25T09:02:53Z</time>
      </trkpt>
      <trkpt lat="51.722488012164831" lon="-4.067054986953735">
        <ele>44.359999999999999</ele>
        <time>2026-06-25T09:03:02Z</time>
      </trkpt>
      <trkpt lat="51.724639981985092" lon="-4.066924983635545">
        <ele>39.549999999999997</ele>
        <time>2026-06-25T09:03:10Z</time>
      </trkpt>
      <trkpt lat="51.726864958181977" lon="-4.067423036321998">
        <ele>38.590000000000003</ele>
        <time>2026-06-25T09:03:18Z</time>
      </trkpt>
      <trkpt lat="51.729226978495717" lon="-4.068729020655155">
        <ele>43.880000000000003</ele>
        <time>2026-06-25T09:03:27Z</time>
      </trkpt>
      <trkpt lat="51.7315090354532" lon="-4.069889998063445">
        <ele>51.090000000000003</ele>
        <time>2026-06-25T09:03:36Z</time>
      </trkpt>
      <trkpt lat="51.733613982796669" lon="-4.070233991369605">
        <ele>56.859999999999999</ele>
        <time>2026-06-25T09:03:44Z</time>
      </trkpt>
      <trkpt lat="51.736183036118746" lon="-4.069845993071795">
        <ele>58.780000000000001</ele>
        <time>2026-06-25T09:03:54Z</time>
      </trkpt>
      <trkpt lat="51.739350976422429" lon="-4.068551994860172">
        <ele>55.409999999999997</ele>
        <time>2026-06-25T09:04:07Z</time>
      </trkpt>
      <trkpt lat="51.740607004612684" lon="-4.067907007411122">
        <ele>53.490000000000002</ele>
        <time>2026-06-25T09:04:13Z</time>
      </trkpt>
      <trkpt lat="51.742747994139791" lon="-4.066696995869279">
        <ele>46.759999999999998</ele>
        <time>2026-06-25T09:04:26Z</time>
      </trkpt>
      <trkpt lat="51.744461003690958" lon="-4.065683959051967">
        <ele>45.799999999999997</ele>
        <time>2026-06-25T09:04:36Z</time>
      </trkpt>
      <trkpt lat="51.745090987533331" lon="-4.06536502763629">
        <ele>46.759999999999998</ele>
        <time>2026-06-25T09:04:42Z</time>
      </trkpt>
      <trkpt lat="51.745176985859871" lon="-4.065349018201232">
        <ele>47.240000000000002</ele>
        <time>2026-06-25T09:04:43Z</time>
      </trkpt>
      <trkpt lat="51.745176985859871" lon="-4.065349018201232">
        <ele>47.240000000000002</ele>
        <time>2026-06-25T09:04:44Z</time>
      </trkpt>
      <trkpt lat="51.745253009721637" lon="-4.065386988222599">
        <ele>47.719999999999999</ele>
        <time>2026-06-25T09:04:45Z</time>
      </trkpt>
      <trkpt lat="51.74532501026988" lon="-4.065423030406237">
        <ele>48.200000000000003</ele>
        <time>2026-06-25T09:04:46Z</time>
      </trkpt>
      <trkpt lat="51.745468005537987" lon="-4.065525038167834">
        <ele>48.68</ele>
        <time>2026-06-25T09:04:48Z</time>
      </trkpt>
      <trkpt lat="51.745551992207766" lon="-4.065572982653976">
        <ele>48.68</ele>
        <time>2026-06-25T09:04:49Z</time>
      </trkpt>
      <trkpt lat="51.745636984705925" lon="-4.065597038716078">
        <ele>48.200000000000003</ele>
        <time>2026-06-25T09:04:50Z</time>
      </trkpt>
      <trkpt lat="51.745724994689226" lon="-4.065594021230936">
        <ele>48.200000000000003</ele>
        <time>2026-06-25T09:04:51Z</time>
      </trkpt>
      <trkpt lat="51.745814010500908" lon="-4.065574994310737">
        <ele>48.200000000000003</ele>
        <time>2026-06-25T09:04:52Z</time>
      </trkpt>
      <trkpt lat="51.745902020484209" lon="-4.065553033724427">
        <ele>47.719999999999999</ele>
        <time>2026-06-25T09:04:53Z</time>
      </trkpt>
      <trkpt lat="51.745961029082537" lon="-4.06545496545732">
        <ele>47.719999999999999</ele>
        <time>2026-06-25T09:04:54Z</time>
      </trkpt>
      <trkpt lat="51.746036969125271" lon="-4.065370978787541">
        <ele>48.200000000000003</ele>
        <time>2026-06-25T09:04:55Z</time>
      </trkpt>
      <trkpt lat="51.746087009087205" lon="-4.065271988511086">
        <ele>48.200000000000003</ele>
        <time>2026-06-25T09:04:56Z</time>
      </trkpt>
      <trkpt lat="51.74614098854363" lon="-4.065132010728121">
        <ele>48.68</ele>
        <time>2026-06-25T09:04:57Z</time>
      </trkpt>
      <trkpt lat="51.746194968000054" lon="-4.064993038773537">
        <ele>48.68</ele>
        <time>2026-06-25T09:04:58Z</time>
      </trkpt>
      <trkpt lat="51.746228998526931" lon="-4.064835961908102">
        <ele>49.159999999999997</ele>
        <time>2026-06-25T09:04:59Z</time>
      </trkpt>
      <trkpt lat="51.746281972154975" lon="-4.064683998003602">
        <ele>49.649999999999999</ele>
        <time>2026-06-25T09:05:00Z</time>
      </trkpt>
      <trkpt lat="51.746336035430431" lon="-4.064530022442341">
        <ele>49.649999999999999</ele>
        <time>2026-06-25T09:05:01Z</time>
      </trkpt>
      <trkpt lat="51.746409963816404" lon="-4.064387027174234">
        <ele>49.649999999999999</ele>
        <time>2026-06-25T09:05:02Z</time>
      </trkpt>
      <trkpt lat="51.746491016820073" lon="-4.064259035512805">
        <ele>49.649999999999999</ele>
        <time>2026-06-25T09:05:03Z</time>
      </trkpt>
      <trkpt lat="51.746605010703206" lon="-4.064192986115813">
        <ele>49.159999999999997</ele>
        <time>2026-06-25T09:05:04Z</time>
      </trkpt>
      <trkpt lat="51.746726967394352" lon="-4.064144035801292">
        <ele>49.649999999999999</ele>
        <time>2026-06-25T09:05:05Z</time>
      </trkpt>
      <trkpt lat="51.748237973079085" lon="-4.063573982566595">
        <ele>53.490000000000002</ele>
        <time>2026-06-25T09:05:15Z</time>
      </trkpt>
      <trkpt lat="51.750098001211882" lon="-4.0633699670434">
        <ele>65.510000000000005</ele>
        <time>2026-06-25T09:05:25Z</time>
      </trkpt>
      <trkpt lat="51.752034975215793" lon="-4.063696023076773">
        <ele>71.269999999999996</ele>
        <time>2026-06-25T09:05:34Z</time>
      </trkpt>
      <trkpt lat="51.75372401252389" lon="-4.064415022730827">
        <ele>74.640000000000001</ele>
        <time>2026-06-25T09:05:43Z</time>
      </trkpt>
      <trkpt lat="51.756242020055652" lon="-4.066137000918388">
        <ele>73.200000000000003</ele>
        <time>2026-06-25T09:05:57Z</time>
      </trkpt>
      <trkpt lat="51.758444029837847" lon="-4.068227028474212">
        <ele>73.200000000000003</ele>
        <time>2026-06-25T09:06:10Z</time>
      </trkpt>
      <trkpt lat="51.760240020230412" lon="-4.069553967565298">
        <ele>76.079999999999998</ele>
        <time>2026-06-25T09:06:20Z</time>
      </trkpt>
      <trkpt lat="51.762361982837319" lon="-4.070258969441056">
        <ele>80.890000000000001</ele>
        <time>2026-06-25T09:06:31Z</time>
      </trkpt>
      <trkpt lat="51.764492997899652" lon="-4.070726009085774">
        <ele>87.620000000000005</ele>
        <time>2026-06-25T09:06:41Z</time>
      </trkpt>
      <trkpt lat="51.767362039536238" lon="-4.071312993764877">
        <ele>97.230000000000004</ele>
        <time>2026-06-25T09:06:53Z</time>
      </trkpt>
      <trkpt lat="51.770445993170142" lon="-4.072270039469004">
        <ele>108.77</ele>
        <time>2026-06-25T09:07:05Z</time>
      </trkpt>
      <trkpt lat="51.773924985900521" lon="-4.073213003575802">
        <ele>119.81999999999999</ele>
        <time>2026-06-25T09:07:18Z</time>
      </trkpt>
      <trkpt lat="51.776182986795902" lon="-4.073554985225201">
        <ele>125.59</ele>
        <time>2026-06-25T09:07:27Z</time>
      </trkpt>
      <trkpt lat="51.778190033510327" lon="-4.073589015752077">
        <ele>126.06999999999999</ele>
        <time>2026-06-25T09:07:36Z</time>
      </trkpt>
      <trkpt lat="51.780249970033765" lon="-4.07368197105825">
        <ele>124.15000000000001</ele>
        <time>2026-06-25T09:07:45Z</time>
      </trkpt>
      <trkpt lat="51.783436015248299" lon="-4.074002997949719">
        <ele>121.73999999999999</ele>
        <time>2026-06-25T09:07:57Z</time>
      </trkpt>
      <trkpt lat="51.786795984953642" lon="-4.074633987620473">
        <ele>129.43000000000001</ele>
        <time>2026-06-25T09:08:10Z</time>
      </trkpt>
      <trkpt lat="51.789184994995594" lon="-4.075396992266178">
        <ele>137.13</ele>
        <time>2026-06-25T09:08:20Z</time>
      </trkpt>
      <trkpt lat="51.79166603833437" lon="-4.07705501653254">
        <ele>146.74000000000001</ele>
        <time>2026-06-25T09:08:31Z</time>
      </trkpt>
      <trkpt lat="51.793308975175023" lon="-4.078854024410248">
        <ele>152.50999999999999</ele>
        <time>2026-06-25T09:08:39Z</time>
      </trkpt>
      <trkpt lat="51.794686038047075" lon="-4.080727966502309">
        <ele>154.91</ele>
        <time>2026-06-25T09:08:46Z</time>
      </trkpt>
      <trkpt lat="51.795512996613979" lon="-4.081863965839148">
        <ele>154.91</ele>
        <time>2026-06-25T09:08:54Z</time>
      </trkpt>
      <trkpt lat="51.796314977109432" lon="-4.082963000983">
        <ele>156.34999999999999</ele>
        <time>2026-06-25T09:09:02Z</time>
      </trkpt>
      <trkpt lat="51.796359987929463" lon="-4.083079006522894">
        <ele>156.34999999999999</ele>
        <time>2026-06-25T09:09:03Z</time>
      </trkpt>
      <trkpt lat="51.796377003192902" lon="-4.083219990134239">
        <ele>156.34999999999999</ele>
        <time>2026-06-25T09:09:04Z</time>
      </trkpt>
      <trkpt lat="51.796377003192902" lon="-4.083219990134239">
        <ele>155.87</ele>
        <time>2026-06-25T09:09:05Z</time>
      </trkpt>
      <trkpt lat="51.796396030113101" lon="-4.083531964570284">
        <ele>155.87</ele>
        <time>2026-06-25T09:09:06Z</time>
      </trkpt>
      <trkpt lat="51.796421008184552" lon="-4.083688035607338">
        <ele>155.38999999999999</ele>
        <time>2026-06-25T09:09:07Z</time>
      </trkpt>
      <trkpt lat="51.796455960720778" lon="-4.083842011168599">
        <ele>155.38999999999999</ele>
        <time>2026-06-25T09:09:08Z</time>
      </trkpt>
      <trkpt lat="51.796532990410924" lon="-4.083938989788294">
        <ele>154.91</ele>
        <time>2026-06-25T09:09:09Z</time>
      </trkpt>
      <trkpt lat="51.796622006222606" lon="-4.084028005599976">
        <ele>154.43000000000001</ele>
        <time>2026-06-25T09:09:10Z</time>
      </trkpt>
      <trkpt lat="51.796697024255991" lon="-4.084103023633361">
        <ele>154.43000000000001</ele>
        <time>2026-06-25T09:09:11Z</time>
      </trkpt>
      <trkpt lat="51.796829039230943" lon="-4.084150968119502">
        <ele>153.94999999999999</ele>
        <time>2026-06-25T09:09:12Z</time>
      </trkpt>
      <trkpt lat="51.796829039230943" lon="-4.084149962291122">
        <ele>153.94999999999999</ele>
        <time>2026-06-25T09:09:13Z</time>
      </trkpt>
      <trkpt lat="51.798051036894321" lon="-4.084761003032327">
        <ele>154.43000000000001</ele>
        <time>2026-06-25T09:09:21Z</time>
      </trkpt>
      <trkpt lat="51.799472020938993" lon="-4.085146989673376">
        <ele>157.78999999999999</ele>
        <time>2026-06-25T09:09:28Z</time>
      </trkpt>
      <trkpt lat="51.802018024027348" lon="-4.085339019075036">
        <ele>162.59999999999999</ele>
        <time>2026-06-25T09:09:38Z</time>
      </trkpt>
      <trkpt lat="51.804261021316051" lon="-4.086046032607555">
        <ele>174.62</ele>
        <time>2026-06-25T09:09:47Z</time>
      </trkpt>
      <trkpt lat="51.80627703666687" lon="-4.087514961138368">
        <ele>187.11000000000001</ele>
        <time>2026-06-25T09:09:56Z</time>
      </trkpt>
      <trkpt lat="51.807734984904528" lon="-4.089316986501217">
        <ele>192.88</ele>
        <time>2026-06-25T09:10:03Z</time>
      </trkpt>
      <trkpt lat="51.809134008362889" lon="-4.091993998736143">
        <ele>194.80000000000001</ele>
        <time>2026-06-25T09:10:11Z</time>
      </trkpt>
      <trkpt lat="51.810177974402905" lon="-4.09529697149992">
        <ele>190.47999999999999</ele>
        <time>2026-06-25T09:10:19Z</time>
      </trkpt>
      <trkpt lat="51.811229987069964" lon="-4.099479960277677">
        <ele>178.94</ele>
        <time>2026-06-25T09:10:29Z</time>
      </trkpt>
      <trkpt lat="51.812513004988432" lon="-4.10419000312686">
        <ele>165.47999999999999</ele>
        <time>2026-06-25T09:10:41Z</time>
      </trkpt>
      <trkpt lat="51.814204975962639" lon="-4.109725998714566">
        <ele>160.19999999999999</ele>
        <time>2026-06-25T09:10:56Z</time>
      </trkpt>
      <trkpt lat="51.815693015232682" lon="-4.114114008843899">
        <ele>158.27000000000001</ele>
        <time>2026-06-25T09:11:09Z</time>
      </trkpt>
      <trkpt lat="51.816330039873719" lon="-4.115740014240146">
        <ele>156.34999999999999</ele>
        <time>2026-06-25T09:11:15Z</time>
      </trkpt>
      <trkpt lat="51.816391982138157" lon="-4.115889966487885">
        <ele>155.87</ele>
        <time>2026-06-25T09:11:16Z</time>
      </trkpt>
      <trkpt lat="51.816436992958188" lon="-4.115997003391385">
        <ele>155.87</ele>
        <time>2026-06-25T09:11:17Z</time>
      </trkpt>
      <trkpt lat="51.816467000171542" lon="-4.116069003939629">
        <ele>155.38999999999999</ele>
        <time>2026-06-25T09:11:18Z</time>
      </trkpt>
      <trkpt lat="51.816436992958188" lon="-4.116306966170669">
        <ele>154.91</ele>
        <time>2026-06-25T09:11:19Z</time>
      </trkpt>
      <trkpt lat="51.816384019330144" lon="-4.116371003910899">
        <ele>154.91</ele>
        <time>2026-06-25T09:11:20Z</time>
      </trkpt>
      <trkpt lat="51.816307995468378" lon="-4.116461025550962">
        <ele>155.38999999999999</ele>
        <time>2026-06-25T09:11:21Z</time>
      </trkpt>
      <trkpt lat="51.815556976944208" lon="-4.11744698882103">
        <ele>162.59999999999999</ele>
        <time>2026-06-25T09:11:28Z</time>
      </trkpt>
      <trkpt lat="51.815255982801318" lon="-4.117945963516831">
        <ele>165.47999999999999</ele>
        <time>2026-06-25T09:11:32Z</time>
      </trkpt>
      <trkpt lat="51.815198985859752" lon="-4.118039002642036">
        <ele>165.96000000000001</ele>
        <time>2026-06-25T09:11:33Z</time>
      </trkpt>
      <trkpt lat="51.815062025561929" lon="-4.118154002353549">
        <ele>167.88999999999999</ele>
        <time>2026-06-25T09:11:39Z</time>
      </trkpt>
      <trkpt lat="51.815038975328207" lon="-4.118173029273748">
        <ele>168.37</ele>
        <time>2026-06-25T09:11:44Z</time>
      </trkpt>
      <trkpt lat="51.814998993650079" lon="-4.118278976529837">
        <ele>168.37</ele>
        <time>2026-06-25T09:11:45Z</time>
      </trkpt>
      <trkpt lat="51.815026989206672" lon="-4.118360029533505">
        <ele>168.37</ele>
        <time>2026-06-25T09:11:46Z</time>
      </trkpt>
      <trkpt lat="51.8150669708848" lon="-4.1184760350734">
        <ele>167.88999999999999</ele>
        <time>2026-06-25T09:11:47Z</time>
      </trkpt>
      <trkpt lat="51.815118016675115" lon="-4.118625987321138">
        <ele>167.41</ele>
        <time>2026-06-25T09:11:48Z</time>
      </trkpt>
      <trkpt lat="51.815639035776258" lon="-4.12013397552073">
        <ele>162.59999999999999</ele>
        <time>2026-06-25T09:11:55Z</time>
      </trkpt>
      <trkpt lat="51.815835004672408" lon="-4.120714003220201">
        <ele>159.72</ele>
        <time>2026-06-25T09:11:58Z</time>
      </trkpt>
      <trkpt lat="51.816120995208621" lon="-4.121631989255548">
        <ele>156.34999999999999</ele>
        <time>2026-06-25T09:12:04Z</time>
      </trkpt>
      <trkpt lat="51.816159971058369" lon="-4.121700972318649">
        <ele>155.87</ele>
        <time>2026-06-25T09:12:05Z</time>
      </trkpt>
      <trkpt lat="51.816192995756865" lon="-4.121759980916977">
        <ele>155.38999999999999</ele>
        <time>2026-06-25T09:12:06Z</time>
      </trkpt>
      <trkpt lat="51.816216967999935" lon="-4.121803985908628">
        <ele>154.91</ele>
        <time>2026-06-25T09:12:07Z</time>
      </trkpt>
      <trkpt lat="51.816135998815298" lon="-4.121965002268553">
        <ele>154.43000000000001</ele>
        <time>2026-06-25T09:12:08Z</time>
      </trkpt>
      <trkpt lat="51.816100040450692" lon="-4.121985035017133">
        <ele>153.94999999999999</ele>
        <time>2026-06-25T09:12:09Z</time>
      </trkpt>
      <trkpt lat="51.816059974953532" lon="-4.122008001431823">
        <ele>153.47</ele>
        <time>2026-06-25T09:12:10Z</time>
      </trkpt>
      <trkpt lat="51.816020999103785" lon="-4.122029962018132">
        <ele>152.99000000000001</ele>
        <time>2026-06-25T09:12:11Z</time>
      </trkpt>
      <trkpt lat="51.81598998606205" lon="-4.122047983109951">
        <ele>152.99000000000001</ele>
        <time>2026-06-25T09:12:12Z</time>
      </trkpt>
      <trkpt lat="51.815971964970231" lon="-4.122058041393757">
        <ele>152.50999999999999</ele>
        <time>2026-06-25T09:12:27Z</time>
      </trkpt>
      <trkpt lat="51.815971964970231" lon="-4.122058041393757">
        <ele>152.50999999999999</ele>
        <time>2026-06-25T09:13:17Z</time>
      </trkpt>
      <trkpt lat="51.815971964970231" lon="-4.122058041393757">
        <ele>152.03</ele>
        <time>2026-06-25T09:14:08Z</time>
      </trkpt>
      <trkpt lat="51.815971964970231" lon="-4.122058041393757">
        <ele>151.53999999999999</ele>
        <time>2026-06-25T09:14:55Z</time>
      </trkpt>
      <trkpt lat="51.815971964970231" lon="-4.122058041393757">
        <ele>151.53999999999999</ele>
        <time>2026-06-25T09:15:40Z</time>
      </trkpt>
      <trkpt lat="51.815971964970231" lon="-4.122058041393757">
        <ele>151.53999999999999</ele>
        <time>2026-06-25T09:16:33Z</time>
      </trkpt>
      <trkpt lat="51.815971964970231" lon="-4.122058041393757">
        <ele>152.03</ele>
        <time>2026-06-25T09:17:27Z</time>
      </trkpt>
      <trkpt lat="51.815971964970231" lon="-4.122058041393757">
        <ele>152.03</ele>
        <time>2026-06-25T09:18:01Z</time>
      </trkpt>
      <trkpt lat="51.815971964970231" lon="-4.122058041393757">
        <ele>152.50999999999999</ele>
        <time>2026-06-25T09:18:16Z</time>
      </trkpt>
      <trkpt lat="51.815971964970231" lon="-4.122058041393757">
        <ele>152.50999999999999</ele>
        <time>2026-06-25T09:18:17Z</time>
      </trkpt>
      <trkpt lat="51.816002978011966" lon="-4.122041026130319">
        <ele>152.03</ele>
        <time>2026-06-25T09:18:20Z</time>
      </trkpt>
      <trkpt lat="51.816025022417307" lon="-4.122028034180403">
        <ele>152.03</ele>
        <time>2026-06-25T09:18:21Z</time>
      </trkpt>
      <trkpt lat="51.816048994660378" lon="-4.122014958411455">
        <ele>152.03</ele>
        <time>2026-06-25T09:18:22Z</time>
      </trkpt>
      <trkpt lat="51.816077996045351" lon="-4.121998026967049">
        <ele>152.03</ele>
        <time>2026-06-25T09:18:23Z</time>
      </trkpt>
      <trkpt lat="51.816178997978568" lon="-4.121940024197102">
        <ele>152.03</ele>
        <time>2026-06-25T09:18:26Z</time>
      </trkpt>
      <trkpt lat="51.81629198603332" lon="-4.121920997276902">
        <ele>152.03</ele>
        <time>2026-06-25T09:18:27Z</time>
      </trkpt>
      <trkpt lat="51.816821973770857" lon="-4.122413014993072">
        <ele>152.03</ele>
        <time>2026-06-25T09:18:33Z</time>
      </trkpt>
      <trkpt lat="51.81764398701489" lon="-4.123607017099857">
        <ele>151.53999999999999</ele>
        <time>2026-06-25T09:18:41Z</time>
      </trkpt>
      <trkpt lat="51.818113960325718" lon="-4.124476974830031">
        <ele>150.09999999999999</ele>
        <time>2026-06-25T09:18:46Z</time>
      </trkpt>
      <trkpt lat="51.818229965865612" lon="-4.124607983976603">
        <ele>149.13999999999999</ele>
        <time>2026-06-25T09:18:47Z</time>
      </trkpt>
      <trkpt lat="51.818446973338723" lon="-4.124856004491448">
        <ele>148.18000000000001</ele>
        <time>2026-06-25T09:18:49Z</time>
      </trkpt>
      <trkpt lat="51.818663980811834" lon="-4.125103019177914">
        <ele>146.25999999999999</ele>
        <time>2026-06-25T09:18:51Z</time>
      </trkpt>
      <trkpt lat="51.818774035200477" lon="-4.125228999182582">
        <ele>144.81999999999999</ele>
        <time>2026-06-25T09:18:52Z</time>
      </trkpt>
      <trkpt lat="51.818856010213494" lon="-4.125402001664043">
        <ele>143.84999999999999</ele>
        <time>2026-06-25T09:18:53Z</time>
      </trkpt>
      <trkpt lat="51.818916024640203" lon="-4.125607023015618">
        <ele>142.88999999999999</ele>
        <time>2026-06-25T09:18:54Z</time>
      </trkpt>
      <trkpt lat="51.81897796690464" lon="-4.125815983861685">
        <ele>141.93000000000001</ele>
        <time>2026-06-25T09:18:55Z</time>
      </trkpt>
      <trkpt lat="51.819004034623504" lon="-4.126288974657655">
        <ele>140.49000000000001</ele>
        <time>2026-06-25T09:18:57Z</time>
      </trkpt>
      <trkpt lat="51.819006968289614" lon="-4.126546969637275">
        <ele>139.53</ele>
        <time>2026-06-25T09:18:58Z</time>
      </trkpt>
      <trkpt lat="51.818560967221856" lon="-4.128615036606789">
        <ele>130.88</ele>
        <time>2026-06-25T09:19:07Z</time>
      </trkpt>
      <trkpt lat="51.81854797527194" lon="-4.128832966089249">
        <ele>129.91999999999999</ele>
        <time>2026-06-25T09:19:08Z</time>
      </trkpt>
      <trkpt lat="51.818548981100321" lon="-4.129053996875882">
        <ele>129.43000000000001</ele>
        <time>2026-06-25T09:19:09Z</time>
      </trkpt>
      <trkpt lat="51.818924993276596" lon="-4.131753975525498">
        <ele>124.15000000000001</ele>
        <time>2026-06-25T09:19:21Z</time>
      </trkpt>
      <trkpt lat="51.819333024322987" lon="-4.134566020220518">
        <ele>120.3</ele>
        <time>2026-06-25T09:19:33Z</time>
      </trkpt>
      <trkpt lat="51.819660002365708" lon="-4.137246971949935">
        <ele>109.25</ele>
        <time>2026-06-25T09:19:41Z</time>
      </trkpt>
      <trkpt lat="51.820017993450165" lon="-4.140047030523419">
        <ele>96.75</ele>
        <time>2026-06-25T09:19:50Z</time>
      </trkpt>
      <trkpt lat="51.820633979514241" lon="-4.14249999448657">
        <ele>82.329999999999998</ele>
        <time>2026-06-25T09:19:59Z</time>
      </trkpt>
      <trkpt lat="51.821392038837075" lon="-4.144858997315168">
        <ele>69.349999999999994</ele>
        <time>2026-06-25T09:20:07Z</time>
      </trkpt>
      <trkpt lat="51.821777019649744" lon="-4.146476034075022">
        <ele>61.659999999999997</ele>
        <time>2026-06-25T09:20:16Z</time>
      </trkpt>
      <trkpt lat="51.822212040424347" lon="-4.148387024179101">
        <ele>61.659999999999997</ele>
        <time>2026-06-25T09:20:28Z</time>
      </trkpt>
      <trkpt lat="51.822408009320498" lon="-4.1491589974612">
        <ele>60.700000000000003</ele>
        <time>2026-06-25T09:20:35Z</time>
      </trkpt>
      <trkpt lat="51.822422007098794" lon="-4.149195039644837">
        <ele>60.700000000000003</ele>
        <time>2026-06-25T09:20:43Z</time>
      </trkpt>
      <trkpt lat="51.822437010705471" lon="-4.149233009666205">
        <ele>60.700000000000003</ele>
        <time>2026-06-25T09:20:45Z</time>
      </trkpt>
      <trkpt lat="51.82249803096056" lon="-4.1492660343647">
        <ele>60.700000000000003</ele>
        <time>2026-06-25T09:20:46Z</time>
      </trkpt>
      <trkpt lat="51.822539018467069" lon="-4.14920300245285">
        <ele>61.18</ele>
        <time>2026-06-25T09:20:47Z</time>
      </trkpt>
      <trkpt lat="51.822590986266732" lon="-4.149123039096594">
        <ele>60.700000000000003</ele>
        <time>2026-06-25T09:20:48Z</time>
      </trkpt>
      <trkpt lat="51.822648989036679" lon="-4.149034023284912">
        <ele>60.700000000000003</ele>
        <time>2026-06-25T09:20:49Z</time>
      </trkpt>
      <trkpt lat="51.82271302677691" lon="-4.148934027180076">
        <ele>61.18</ele>
        <time>2026-06-25T09:20:50Z</time>
      </trkpt>
      <trkpt lat="51.822783015668392" lon="-4.148826990276575">
        <ele>61.18</ele>
        <time>2026-06-25T09:20:51Z</time>
      </trkpt>
      <trkpt lat="51.82293196208775" lon="-4.148596990853548">
        <ele>61.18</ele>
        <time>2026-06-25T09:20:53Z</time>
      </trkpt>
      <trkpt lat="51.823458010330796" lon="-4.147838009521365">
        <ele>62.619999999999997</ele>
        <time>2026-06-25T09:21:00Z</time>
      </trkpt>
      <trkpt lat="51.823522970080376" lon="-4.147744970396161">
        <ele>62.619999999999997</ele>
        <time>2026-06-25T09:21:01Z</time>
      </trkpt>
      <trkpt lat="51.823587007820606" lon="-4.147652015089989">
        <ele>63.100000000000001</ele>
        <time>2026-06-25T09:21:02Z</time>
      </trkpt>
      <trkpt lat="51.823664959520102" lon="-4.147576997056603">
        <ele>63.579999999999998</ele>
        <time>2026-06-25T09:21:03Z</time>
      </trkpt>
      <trkpt lat="51.823749030008912" lon="-4.147535003721714">
        <ele>64.069999999999993</ele>
        <time>2026-06-25T09:21:04Z</time>
      </trkpt>
      <trkpt lat="51.824713032692671" lon="-4.147052960470319">
        <ele>64.069999999999993</ele>
        <time>2026-06-25T09:21:15Z</time>
      </trkpt>
      <trkpt lat="51.825324995443225" lon="-4.146759007126093">
        <ele>65.510000000000005</ele>
        <time>2026-06-25T09:21:22Z</time>
      </trkpt>
      <trkpt lat="51.825404036790133" lon="-4.146752972155809">
        <ele>65.510000000000005</ele>
        <time>2026-06-25T09:21:23Z</time>
      </trkpt>
      <trkpt lat="51.825479976832867" lon="-4.146746015176177">
        <ele>65.989999999999995</ele>
        <time>2026-06-25T09:21:24Z</time>
      </trkpt>
      <trkpt lat="51.826577000319958" lon="-4.146941984072328">
        <ele>68.390000000000001</ele>
        <time>2026-06-25T09:21:37Z</time>
      </trkpt>
      <trkpt lat="51.827703025192022" lon="-4.147260999307036">
        <ele>67.430000000000007</ele>
        <time>2026-06-25T09:21:49Z</time>
      </trkpt>
      <trkpt lat="51.828157994896173" lon="-4.14741899818182">
        <ele>65.989999999999995</ele>
        <time>2026-06-25T09:21:53Z</time>
      </trkpt>
      <trkpt lat="51.828279029577971" lon="-4.147472977638245">
        <ele>65.030000000000001</ele>
        <time>2026-06-25T09:21:54Z</time>
      </trkpt>
      <trkpt lat="51.829228028655052" lon="-4.147668024525046">
        <ele>63.100000000000001</ele>
        <time>2026-06-25T09:22:00Z</time>
      </trkpt>
      <trkpt lat="51.830314993858337" lon="-4.147574985399842">
        <ele>65.030000000000001</ele>
        <time>2026-06-25T09:22:07Z</time>
      </trkpt>
      <trkpt lat="51.830452037975192" lon="-4.147559981793165">
        <ele>65.030000000000001</ele>
        <time>2026-06-25T09:22:08Z</time>
      </trkpt>
      <trkpt lat="51.83079301379621" lon="-4.147639023140073">
        <ele>65.030000000000001</ele>
        <time>2026-06-25T09:22:11Z</time>
      </trkpt>
      <trkpt lat="51.830871971324086" lon="-4.147699037566781">
        <ele>65.030000000000001</ele>
        <time>2026-06-25T09:22:12Z</time>
      </trkpt>
      <trkpt lat="51.830937014892697" lon="-4.147746982052922">
        <ele>65.030000000000001</ele>
        <time>2026-06-25T09:22:13Z</time>
      </trkpt>
      <trkpt lat="51.831028964370489" lon="-4.147940017282963">
        <ele>65.030000000000001</ele>
        <time>2026-06-25T09:22:14Z</time>
      </trkpt>
      <trkpt lat="51.831028964370489" lon="-4.147940017282963">
        <ele>65.030000000000001</ele>
        <time>2026-06-25T09:22:15Z</time>
      </trkpt>
      <trkpt lat="51.83107003569603" lon="-4.148022998124361">
        <ele>65.030000000000001</ele>
        <time>2026-06-25T09:22:16Z</time>
      </trkpt>
      <trkpt lat="51.831145975738764" lon="-4.148086030036211">
        <ele>65.030000000000001</ele>
        <time>2026-06-25T09:22:17Z</time>
      </trkpt>
      <trkpt lat="51.831248989328742" lon="-4.147963989526033">
        <ele>65.510000000000005</ele>
        <time>2026-06-25T09:22:18Z</time>
      </trkpt>
      <trkpt lat="51.831329958513379" lon="-4.148000031709671">
        <ele>65.510000000000005</ele>
        <time>2026-06-25T09:22:19Z</time>
      </trkpt>
      <trkpt lat="51.83141796849668" lon="-4.148040013387799">
        <ele>65.989999999999995</ele>
        <time>2026-06-25T09:22:20Z</time>
      </trkpt>
      <trkpt lat="51.831517964601517" lon="-4.14808502420783">
        <ele>65.510000000000005</ele>
        <time>2026-06-25T09:22:21Z</time>
      </trkpt>
      <trkpt lat="51.831741007044911" lon="-4.148203041404486">
        <ele>65.510000000000005</ele>
        <time>2026-06-25T09:22:23Z</time>
      </trkpt>
      <trkpt lat="51.832180973142385" lon="-4.148633033037186">
        <ele>65.030000000000001</ele>
        <time>2026-06-25T09:22:27Z</time>
      </trkpt>
      <trkpt lat="51.832292033359408" lon="-4.148774016648531">
        <ele>64.549999999999997</ele>
        <time>2026-06-25T09:22:28Z</time>
      </trkpt>
      <trkpt lat="51.832408038899302" lon="-4.14892204105854">
        <ele>64.549999999999997</ele>
        <time>2026-06-25T09:22:29Z</time>
      </trkpt>
      <trkpt lat="51.832527983933687" lon="-4.149075010791421">
        <ele>64.549999999999997</ele>
        <time>2026-06-25T09:22:30Z</time>
      </trkpt>
      <trkpt lat="51.832650024443865" lon="-4.149229992181063">
        <ele>64.549999999999997</ele>
        <time>2026-06-25T09:22:31Z</time>
      </trkpt>
      <trkpt lat="51.833616960793734" lon="-4.151089014485478">
        <ele>65.510000000000005</ele>
        <time>2026-06-25T09:22:40Z</time>
      </trkpt>
      <trkpt lat="51.833840003237128" lon="-4.151523029431701">
        <ele>65.510000000000005</ele>
        <time>2026-06-25T09:22:42Z</time>
      </trkpt>
      <trkpt lat="51.833975035697222" lon="-4.1516940202564">
        <ele>65.989999999999995</ele>
        <time>2026-06-25T09:22:43Z</time>
      </trkpt>
      <trkpt lat="51.834115013480186" lon="-4.151870040223002">
        <ele>65.989999999999995</ele>
        <time>2026-06-25T09:22:44Z</time>
      </trkpt>
      <trkpt lat="51.834254991263151" lon="-4.152042958885431">
        <ele>65.989999999999995</ele>
        <time>2026-06-25T09:22:45Z</time>
      </trkpt>
      <trkpt lat="51.83442497625947" lon="-4.152156030759215">
        <ele>65.989999999999995</ele>
        <time>2026-06-25T09:22:46Z</time>
      </trkpt>
      <trkpt lat="51.83459403924644" lon="-4.152261978015304">
        <ele>66.469999999999999</ele>
        <time>2026-06-25T09:22:47Z</time>
      </trkpt>
      <trkpt lat="51.834767041727901" lon="-4.152327021583915">
        <ele>66.469999999999999</ele>
        <time>2026-06-25T09:22:48Z</time>
      </trkpt>
      <trkpt lat="51.834939960390329" lon="-4.152383012697101">
        <ele>66.950000000000003</ele>
        <time>2026-06-25T09:22:49Z</time>
      </trkpt>
      <trkpt lat="51.835121009498835" lon="-4.152392987161875">
        <ele>66.950000000000003</ele>
        <time>2026-06-25T09:22:50Z</time>
      </trkpt>
      <trkpt lat="51.835299041122198" lon="-4.152402961626649">
        <ele>66.950000000000003</ele>
        <time>2026-06-25T09:22:51Z</time>
      </trkpt>
      <trkpt lat="51.835472965613008" lon="-4.152348982170224">
        <ele>66.950000000000003</ele>
        <time>2026-06-25T09:22:52Z</time>
      </trkpt>
      <trkpt lat="51.83678800240159" lon="-4.151937011629343">
        <ele>68.390000000000001</ele>
        <time>2026-06-25T09:23:01Z</time>
      </trkpt>
      <trkpt lat="51.837043985724449" lon="-4.151856964454055">
        <ele>68.390000000000001</ele>
        <time>2026-06-25T09:23:03Z</time>
      </trkpt>
      <trkpt lat="51.837153034284711" lon="-4.15184497833252">
        <ele>68.870000000000005</ele>
        <time>2026-06-25T09:23:04Z</time>
      </trkpt>
      <trkpt lat="51.837255964055657" lon="-4.15184497833252">
        <ele>69.349999999999994</ele>
        <time>2026-06-25T09:23:05Z</time>
      </trkpt>
      <trkpt lat="51.837351014837623" lon="-4.15184497833252">
        <ele>69.349999999999994</ele>
        <time>2026-06-25T09:23:06Z</time>
      </trkpt>
      <trkpt lat="51.837509013712406" lon="-4.15193097665906">
        <ele>69.349999999999994</ele>
        <time>2026-06-25T09:23:07Z</time>
      </trkpt>
      <trkpt lat="51.837526028975844" lon="-4.151936005800962">
        <ele>69.829999999999998</ele>
        <time>2026-06-25T09:23:08Z</time>
      </trkpt>
      <trkpt lat="51.837618984282017" lon="-4.152057962492108">
        <ele>69.829999999999998</ele>
        <time>2026-06-25T09:23:09Z</time>
      </trkpt>
      <trkpt lat="51.837682016193867" lon="-4.152203975245357">
        <ele>69.829999999999998</ele>
        <time>2026-06-25T09:23:10Z</time>
      </trkpt>
      <trkpt lat="51.837748987600207" lon="-4.152365997433662">
        <ele>70.310000000000002</ele>
        <time>2026-06-25T09:23:11Z</time>
      </trkpt>
      <trkpt lat="51.837816964834929" lon="-4.15253397077322">
        <ele>70.310000000000002</ele>
        <time>2026-06-25T09:23:12Z</time>
      </trkpt>
      <trkpt lat="51.837887037545443" lon="-4.15270496159792">
        <ele>70.790000000000006</ele>
        <time>2026-06-25T09:23:13Z</time>
      </trkpt>
      <trkpt lat="51.83794897980988" lon="-4.152888022363186">
        <ele>70.790000000000006</ele>
        <time>2026-06-25T09:23:14Z</time>
      </trkpt>
      <trkpt lat="51.837980998679996" lon="-4.15309295989573">
        <ele>70.790000000000006</ele>
        <time>2026-06-25T09:23:15Z</time>
      </trkpt>
      <trkpt lat="51.837980998679996" lon="-4.153299992904067">
        <ele>71.269999999999996</ele>
        <time>2026-06-25T09:23:16Z</time>
      </trkpt>
      <trkpt lat="51.837971024215221" lon="-4.153506020084024">
        <ele>71.760000000000005</ele>
        <time>2026-06-25T09:23:17Z</time>
      </trkpt>
      <trkpt lat="51.837954008951783" lon="-4.153726967051625">
        <ele>72.239999999999995</ele>
        <time>2026-06-25T09:23:18Z</time>
      </trkpt>
      <trkpt lat="51.837935987859964" lon="-4.153953026980162">
        <ele>72.239999999999995</ele>
        <time>2026-06-25T09:23:19Z</time>
      </trkpt>
      <trkpt lat="51.837919978424907" lon="-4.154168022796512">
        <ele>72.239999999999995</ele>
        <time>2026-06-25T09:23:20Z</time>
      </trkpt>
      <trkpt lat="51.837945962324739" lon="-4.15435996837914">
        <ele>72.239999999999995</ele>
        <time>2026-06-25T09:23:21Z</time>
      </trkpt>
      <trkpt lat="51.837979992851615" lon="-4.154540011659265">
        <ele>72.239999999999995</ele>
        <time>2026-06-25T09:23:22Z</time>
      </trkpt>
      <trkpt lat="51.838075965642929" lon="-4.154635984450579">
        <ele>72.719999999999999</ele>
        <time>2026-06-25T09:23:23Z</time>
      </trkpt>
      <trkpt lat="51.838177973404527" lon="-4.154730029404163">
        <ele>73.200000000000003</ele>
        <time>2026-06-25T09:23:24Z</time>
      </trkpt>
      <trkpt lat="51.83828903362155" lon="-4.154805969446898">
        <ele>73.680000000000007</ele>
        <time>2026-06-25T09:23:25Z</time>
      </trkpt>
      <trkpt lat="51.838424988090992" lon="-4.154805969446898">
        <ele>74.159999999999997</ele>
        <time>2026-06-25T09:23:26Z</time>
      </trkpt>
      <trkpt lat="51.838568989187479" lon="-4.154805969446898">
        <ele>74.159999999999997</ele>
        <time>2026-06-25T09:23:27Z</time>
      </trkpt>
      <trkpt lat="51.838717013597488" lon="-4.154805969446898">
        <ele>74.640000000000001</ele>
        <time>2026-06-25T09:23:28Z</time>
      </trkpt>
      <trkpt lat="51.838839976117015" lon="-4.154805969446898">
        <ele>74.640000000000001</ele>
        <time>2026-06-25T09:23:29Z</time>
      </trkpt>
      <trkpt lat="51.838982971385121" lon="-4.154884004965425">
        <ele>74.640000000000001</ele>
        <time>2026-06-25T09:23:30Z</time>
      </trkpt>
      <trkpt lat="51.839094031602144" lon="-4.154964974150062">
        <ele>74.640000000000001</ele>
        <time>2026-06-25T09:23:31Z</time>
      </trkpt>
      <trkpt lat="51.83919201605022" lon="-4.155120039358735">
        <ele>75.120000000000005</ele>
        <time>2026-06-25T09:23:32Z</time>
      </trkpt>
      <trkpt lat="51.839509019628167" lon="-4.155680034309626">
        <ele>74.640000000000001</ele>
        <time>2026-06-25T09:23:35Z</time>
      </trkpt>
      <trkpt lat="51.839800961315632" lon="-4.156390987336636">
        <ele>74.640000000000001</ele>
        <time>2026-06-25T09:23:38Z</time>
      </trkpt>
      <trkpt lat="51.839896012097597" lon="-4.156622998416424">
        <ele>74.640000000000001</ele>
        <time>2026-06-25T09:23:39Z</time>
      </trkpt>
      <trkpt lat="51.841218005865812" lon="-4.158911006525159">
        <ele>78.969999999999999</ele>
        <time>2026-06-25T09:23:50Z</time>
      </trkpt>
      <trkpt lat="51.842998992651701" lon="-4.161926982924342">
        <ele>97.230000000000004</ele>
        <time>2026-06-25T09:24:03Z</time>
      </trkpt>
      <trkpt lat="51.844068020582199" lon="-4.163734959438443">
        <ele>107.31999999999999</ele>
        <time>2026-06-25T09:24:11Z</time>
      </trkpt>
      <trkpt lat="51.844200035557151" lon="-4.163899999111891">
        <ele>108.29000000000001</ele>
        <time>2026-06-25T09:24:12Z</time>
      </trkpt>
      <trkpt lat="51.844343030825257" lon="-4.164042994379997">
        <ele>109.73</ele>
        <time>2026-06-25T09:24:13Z</time>
      </trkpt>
      <trkpt lat="51.845504008233547" lon="-4.165343027561903">
        <ele>118.38</ele>
        <time>2026-06-25T09:24:21Z</time>
      </trkpt>
      <trkpt lat="51.84660698287189" lon="-4.166921004652977">
        <ele>122.22</ele>
        <time>2026-06-25T09:24:29Z</time>
      </trkpt>
      <trkpt lat="51.846754001453519" lon="-4.167097024619579">
        <ele>121.73999999999999</ele>
        <time>2026-06-25T09:24:30Z</time>
      </trkpt>
      <trkpt lat="51.84690797701478" lon="-4.167251000180841">
        <ele>120.78</ele>
        <time>2026-06-25T09:24:31Z</time>
      </trkpt>
      <trkpt lat="51.847083996981382" lon="-4.167340015992522">
        <ele>119.81999999999999</ele>
        <time>2026-06-25T09:24:32Z</time>
      </trkpt>
      <trkpt lat="51.847263034433126" lon="-4.167429031804204">
        <ele>119.34</ele>
        <time>2026-06-25T09:24:33Z</time>
      </trkpt>
      <trkpt lat="51.84759302996099" lon="-4.167612008750439">
        <ele>117.42</ele>
        <time>2026-06-25T09:24:35Z</time>
      </trkpt>
      <trkpt lat="51.847742982208729" lon="-4.167750980705023">
        <ele>116.45999999999999</ele>
        <time>2026-06-25T09:24:36Z</time>
      </trkpt>
      <trkpt lat="51.847887989133596" lon="-4.167907973751426">
        <ele>115.01000000000001</ele>
        <time>2026-06-25T09:24:37Z</time>
      </trkpt>
      <trkpt lat="51.848010029643774" lon="-4.168095979839563">
        <ele>114.05</ele>
        <time>2026-06-25T09:24:38Z</time>
      </trkpt>
      <trkpt lat="51.848106002435088" lon="-4.168287003412843">
        <ele>113.09</ele>
        <time>2026-06-25T09:24:39Z</time>
      </trkpt>
      <trkpt lat="51.848166016861796" lon="-4.168512979522348">
        <ele>112.13</ele>
        <time>2026-06-25T09:24:40Z</time>
      </trkpt>
      <trkpt lat="51.848228964954615" lon="-4.16875496506691">
        <ele>111.65000000000001</ele>
        <time>2026-06-25T09:24:41Z</time>
      </trkpt>
      <trkpt lat="51.848296020179987" lon="-4.16901002638042">
        <ele>111.65000000000001</ele>
        <time>2026-06-25T09:24:42Z</time>
      </trkpt>
      <trkpt lat="51.848976965993643" lon="-4.171815030276775">
        <ele>115.98</ele>
        <time>2026-06-25T09:24:52Z</time>
      </trkpt>
      <trkpt lat="51.849031029269099" lon="-4.172032959759235">
        <ele>116.94</ele>
        <time>2026-06-25T09:24:53Z</time>
      </trkpt>
      <trkpt lat="51.849080985412002" lon="-4.172230018302798">
        <ele>117.90000000000001</ele>
        <time>2026-06-25T09:24:54Z</time>
      </trkpt>
      <trkpt lat="51.849122978746891" lon="-4.172387011349201">
        <ele>118.86</ele>
        <time>2026-06-25T09:24:55Z</time>
      </trkpt>
      <trkpt lat="51.84920797124505" lon="-4.172508968040347">
        <ele>120.3</ele>
        <time>2026-06-25T09:24:56Z</time>
      </trkpt>
      <trkpt lat="51.849305033683777" lon="-4.172621034085751">
        <ele>121.73999999999999</ele>
        <time>2026-06-25T09:24:57Z</time>
      </trkpt>
      <trkpt lat="51.849430007860065" lon="-4.172711977735162">
        <ele>122.70999999999999</ele>
        <time>2026-06-25T09:24:58Z</time>
      </trkpt>
      <trkpt lat="51.85010802000761" lon="-4.173202989622951">
        <ele>125.11</ele>
        <time>2026-06-25T09:25:03Z</time>
      </trkpt>
      <trkpt lat="51.850224025547504" lon="-4.173363000154495">
        <ele>124.15000000000001</ele>
        <time>2026-06-25T09:25:04Z</time>
      </trkpt>
      <trkpt lat="51.851147962734103" lon="-4.175137029960752">
        <ele>120.3</ele>
        <time>2026-06-25T09:25:12Z</time>
      </trkpt>
      <trkpt lat="51.851849025115371" lon="-4.177017007023096">
        <ele>113.56999999999999</ele>
        <time>2026-06-25T09:25:19Z</time>
      </trkpt>
      <trkpt lat="51.852040970697999" lon="-4.177489997819066">
        <ele>112.61</ele>
        <time>2026-06-25T09:25:21Z</time>
      </trkpt>
      <trkpt lat="51.852142978459597" lon="-4.177723014727235">
        <ele>112.13</ele>
        <time>2026-06-25T09:25:22Z</time>
      </trkpt>
      <trkpt lat="51.852266024798155" lon="-4.177871961146593">
        <ele>111.17</ele>
        <time>2026-06-25T09:25:23Z</time>
      </trkpt>
      <trkpt lat="51.8528370000422" lon="-4.178565982729197">
        <ele>108.29000000000001</ele>
        <time>2026-06-25T09:25:27Z</time>
      </trkpt>
      <trkpt lat="51.852985024452209" lon="-4.178745020180941">
        <ele>106.84</ele>
        <time>2026-06-25T09:25:28Z</time>
      </trkpt>
      <trkpt lat="51.853112010285258" lon="-4.178973007947207">
        <ele>105.88</ele>
        <time>2026-06-25T09:25:29Z</time>
      </trkpt>
      <trkpt lat="51.853220975026488" lon="-4.179223962128162">
        <ele>104.44</ele>
        <time>2026-06-25T09:25:30Z</time>
      </trkpt>
      <trkpt lat="51.853312002494931" lon="-4.179502995684743">
        <ele>103.48</ele>
        <time>2026-06-25T09:25:31Z</time>
      </trkpt>
      <trkpt lat="51.853472013026476" lon="-4.180083023384213">
        <ele>101.56</ele>
        <time>2026-06-25T09:25:33Z</time>
      </trkpt>
      <trkpt lat="51.853574020788074" lon="-4.180704038590193">
        <ele>99.629999999999995</ele>
        <time>2026-06-25T09:25:35Z</time>
      </trkpt>
      <trkpt lat="51.853819023817778" lon="-4.183576013892889">
        <ele>92.420000000000002</ele>
        <time>2026-06-25T09:25:44Z</time>
      </trkpt>
      <trkpt lat="51.854523019865155" lon="-4.185913978144527">
        <ele>80.409999999999997</ele>
        <time>2026-06-25T09:25:52Z</time>
      </trkpt>
      <trkpt lat="51.854747990146279" lon="-4.186366014182568">
        <ele>78</ele>
        <time>2026-06-25T09:25:54Z</time>
      </trkpt>
      <trkpt lat="51.854867013171315" lon="-4.186561983078718">
        <ele>76.560000000000002</ele>
        <time>2026-06-25T09:25:55Z</time>
      </trkpt>
      <trkpt lat="51.855130037292838" lon="-4.186825007200241">
        <ele>73.680000000000007</ele>
        <time>2026-06-25T09:25:57Z</time>
      </trkpt>
      <trkpt lat="51.855275966227055" lon="-4.186899019405246">
        <ele>72.239999999999995</ele>
        <time>2026-06-25T09:25:58Z</time>
      </trkpt>
      <trkpt lat="51.855420973151922" lon="-4.186962973326445">
        <ele>70.790000000000006</ele>
        <time>2026-06-25T09:25:59Z</time>
      </trkpt>
      <trkpt lat="51.85571601614356" lon="-4.187090964987874">
        <ele>67.430000000000007</ele>
        <time>2026-06-25T09:26:01Z</time>
      </trkpt>
      <trkpt lat="51.85672502964735" lon="-4.187498996034265">
        <ele>56.859999999999999</ele>
        <time>2026-06-25T09:26:07Z</time>
      </trkpt>
      <trkpt lat="51.856879005208611" lon="-4.187589017674327">
        <ele>55.409999999999997</ele>
        <time>2026-06-25T09:26:08Z</time>
      </trkpt>
      <trkpt lat="51.857014037668705" lon="-4.187719020992518">
        <ele>53.969999999999999</ele>
        <time>2026-06-25T09:26:09Z</time>
      </trkpt>
      <trkpt lat="51.857131971046329" lon="-4.187891017645598">
        <ele>52.530000000000001</ele>
        <time>2026-06-25T09:26:10Z</time>
      </trkpt>
      <trkpt lat="51.857248982414603" lon="-4.188085980713368">
        <ele>50.609999999999999</ele>
        <time>2026-06-25T09:26:11Z</time>
      </trkpt>
      <trkpt lat="51.85799497179687" lon="-4.189414009451866">
        <ele>41.469999999999999</ele>
        <time>2026-06-25T09:26:18Z</time>
      </trkpt>
      <trkpt lat="51.858068984001875" lon="-4.189545018598437">
        <ele>40.990000000000002</ele>
        <time>2026-06-25T09:26:19Z</time>
      </trkpt>
      <trkpt lat="51.858128998428583" lon="-4.189651971682906">
        <ele>40.990000000000002</ele>
        <time>2026-06-25T09:26:20Z</time>
      </trkpt>
      <trkpt lat="51.858280040323734" lon="-4.189738975837827">
        <ele>39.549999999999997</ele>
        <time>2026-06-25T09:26:24Z</time>
      </trkpt>
      <trkpt lat="51.858280040323734" lon="-4.189738975837827">
        <ele>39.549999999999997</ele>
        <time>2026-06-25T09:26:25Z</time>
      </trkpt>
      <trkpt lat="51.858451031148434" lon="-4.18993603438139">
        <ele>39.549999999999997</ele>
        <time>2026-06-25T09:26:26Z</time>
      </trkpt>
      <trkpt lat="51.858450025320053" lon="-4.1900650318712">
        <ele>40.030000000000001</ele>
        <time>2026-06-25T09:26:27Z</time>
      </trkpt>
      <trkpt lat="51.858448013663292" lon="-4.190395027399063">
        <ele>40.990000000000002</ele>
        <time>2026-06-25T09:26:28Z</time>
      </trkpt>
      <trkpt lat="51.858448013663292" lon="-4.190395027399063">
        <ele>40.990000000000002</ele>
        <time>2026-06-25T09:26:29Z</time>
      </trkpt>
      <trkpt lat="51.858448013663292" lon="-4.190576998516917">
        <ele>41.469999999999999</ele>
        <time>2026-06-25T09:26:30Z</time>
      </trkpt>
      <trkpt lat="51.858447007834911" lon="-4.190773973241448">
        <ele>41.950000000000003</ele>
        <time>2026-06-25T09:26:31Z</time>
      </trkpt>
      <trkpt lat="51.858438039198518" lon="-4.192415988072753">
        <ele>43.399999999999999</ele>
        <time>2026-06-25T09:26:38Z</time>
      </trkpt>
      <trkpt lat="51.858437033370137" lon="-4.192681023851037">
        <ele>43.399999999999999</ele>
        <time>2026-06-25T09:26:39Z</time>
      </trkpt>
      <trkpt lat="51.858435021713376" lon="-4.192948993295431">
        <ele>43.880000000000003</ele>
        <time>2026-06-25T09:26:40Z</time>
      </trkpt>
      <trkpt lat="51.858434015884995" lon="-4.193216962739825">
        <ele>43.880000000000003</ele>
        <time>2026-06-25T09:26:41Z</time>
      </trkpt>
      <trkpt lat="51.858433010056615" lon="-4.193492978811264">
        <ele>44.359999999999999</ele>
        <time>2026-06-25T09:26:42Z</time>
      </trkpt>
      <trkpt lat="51.858441978693008" lon="-4.194032019004226">
        <ele>44.840000000000003</ele>
        <time>2026-06-25T09:26:44Z</time>
      </trkpt>
      <trkpt lat="51.858769040554762" lon="-4.196455981582403">
        <ele>44.840000000000003</ele>
        <time>2026-06-25T09:26:53Z</time>
      </trkpt>
      <trkpt lat="51.859116973355412" lon="-4.199411021545529">
        <ele>52.530000000000001</ele>
        <time>2026-06-25T09:27:03Z</time>
      </trkpt>
      <trkpt lat="51.859249994158745" lon="-4.201919976621866">
        <ele>49.649999999999999</ele>
        <time>2026-06-25T09:27:13Z</time>
      </trkpt>
      <trkpt lat="51.859280001372099" lon="-4.202489024028182">
        <ele>47.719999999999999</ele>
        <time>2026-06-25T09:27:15Z</time>
      </trkpt>
      <trkpt lat="51.859216969460249" lon="-4.204947017133236">
        <ele>40.990000000000002</ele>
        <time>2026-06-25T09:27:23Z</time>
      </trkpt>
      <trkpt lat="51.859255023300648" lon="-4.20833196491003">
        <ele>40.030000000000001</ele>
        <time>2026-06-25T09:27:34Z</time>
      </trkpt>
      <trkpt lat="51.859436994418502" lon="-4.210234992206097">
        <ele>38.590000000000003</ele>
        <time>2026-06-25T09:27:41Z</time>
      </trkpt>
      <trkpt lat="51.85956196859479" lon="-4.21172596514225">
        <ele>37.630000000000003</ele>
        <time>2026-06-25T09:27:52Z</time>
      </trkpt>
      <trkpt lat="51.859644027426839" lon="-4.213712979108095">
        <ele>37.149999999999999</ele>
        <time>2026-06-25T09:28:06Z</time>
      </trkpt>
      <trkpt lat="51.859717033803463" lon="-4.215651964768767">
        <ele>38.109999999999999</ele>
        <time>2026-06-25T09:28:19Z</time>
      </trkpt>
      <trkpt lat="51.859997995197773" lon="-4.217107985168695">
        <ele>35.229999999999997</ele>
        <time>2026-06-25T09:28:28Z</time>
      </trkpt>
      <trkpt lat="51.860303012654185" lon="-4.219264984130859">
        <ele>29.940000000000001</ele>
        <time>2026-06-25T09:28:38Z</time>
      </trkpt>
      <trkpt lat="51.860554972663522" lon="-4.221131969243288">
        <ele>25.129999999999999</ele>
        <time>2026-06-25T09:28:47Z</time>
      </trkpt>
      <trkpt lat="51.860824031755328" lon="-4.223174974322319">
        <ele>21.77</ele>
        <time>2026-06-25T09:28:55Z</time>
      </trkpt>
      <trkpt lat="51.861070040613413" lon="-4.225054029375315">
        <ele>19.84</ele>
        <time>2026-06-25T09:29:02Z</time>
      </trkpt>
      <trkpt lat="51.861027963459492" lon="-4.227960035204887">
        <ele>18.399999999999999</ele>
        <time>2026-06-25T09:29:12Z</time>
      </trkpt>
      <trkpt lat="51.860907012596726" lon="-4.230541996657848">
        <ele>24.170000000000002</ele>
        <time>2026-06-25T09:29:21Z</time>
      </trkpt>
      <trkpt lat="51.860381970182061" lon="-4.23280100338161">
        <ele>22.25</ele>
        <time>2026-06-25T09:29:29Z</time>
      </trkpt>
      <trkpt lat="51.859488962218165" lon="-4.235911024734378">
        <ele>15.039999999999999</ele>
        <time>2026-06-25T09:29:40Z</time>
      </trkpt>
      <trkpt lat="51.85902301222086" lon="-4.238561969250441">
        <ele>14.08</ele>
        <time>2026-06-25T09:29:49Z</time>
      </trkpt>
      <trkpt lat="51.858754958957434" lon="-4.241613987833262">
        <ele>18.399999999999999</ele>
        <time>2026-06-25T09:29:59Z</time>
      </trkpt>
      <trkpt lat="51.858502998948097" lon="-4.244400970637798">
        <ele>20.809999999999999</ele>
        <time>2026-06-25T09:30:08Z</time>
      </trkpt>
      <trkpt lat="51.857922971248627" lon="-4.247401021420956">
        <ele>15.039999999999999</ele>
        <time>2026-06-25T09:30:18Z</time>
      </trkpt>
      <trkpt lat="51.857894975692034" lon="-4.247703021392226">
        <ele>14.56</ele>
        <time>2026-06-25T09:30:19Z</time>
      </trkpt>
      <trkpt lat="51.857867985963821" lon="-4.248000998049974">
        <ele>13.6</ele>
        <time>2026-06-25T09:30:20Z</time>
      </trkpt>
      <trkpt lat="51.858084993436933" lon="-4.250403000041843">
        <ele>11.67</ele>
        <time>2026-06-25T09:30:28Z</time>
      </trkpt>
      <trkpt lat="51.85825003311038" lon="-4.250971963629127">
        <ele>12.15</ele>
        <time>2026-06-25T09:30:30Z</time>
      </trkpt>
      <trkpt lat="51.858818996697664" lon="-4.252207037061453">
        <ele>12.15</ele>
        <time>2026-06-25T09:30:35Z</time>
      </trkpt>
      <trkpt lat="51.858925027772784" lon="-4.252466959878802">
        <ele>11.67</ele>
        <time>2026-06-25T09:30:36Z</time>
      </trkpt>
      <trkpt lat="51.85902401804924" lon="-4.252734007313848">
        <ele>11.67</ele>
        <time>2026-06-25T09:30:37Z</time>
      </trkpt>
      <trkpt lat="51.859240019693971" lon="-4.253247985616326">
        <ele>10.23</ele>
        <time>2026-06-25T09:30:39Z</time>
      </trkpt>
      <trkpt lat="51.859629023820162" lon="-4.253824995830655">
        <ele>8.310000000000001</ele>
        <time>2026-06-25T09:30:42Z</time>
      </trkpt>
      <trkpt lat="51.859747963026166" lon="-4.253979977220297">
        <ele>7.83</ele>
        <time>2026-06-25T09:30:43Z</time>
      </trkpt>
      <trkpt lat="51.859832033514977" lon="-4.254163037985563">
        <ele>7.35</ele>
        <time>2026-06-25T09:30:44Z</time>
      </trkpt>
      <trkpt lat="51.859885007143021" lon="-4.254378033801913">
        <ele>6.87</ele>
        <time>2026-06-25T09:30:45Z</time>
      </trkpt>
      <trkpt lat="51.859910991042852" lon="-4.254583977162838">
        <ele>6.39</ele>
        <time>2026-06-25T09:30:46Z</time>
      </trkpt>
      <trkpt lat="51.859922977164388" lon="-4.254867034032941">
        <ele>6.39</ele>
        <time>2026-06-25T09:30:47Z</time>
      </trkpt>
      <trkpt lat="51.859709993004799" lon="-4.257765999063849">
        <ele>8.310000000000001</ele>
        <time>2026-06-25T09:30:57Z</time>
      </trkpt>
      <trkpt lat="51.859689960256219" lon="-4.258693037554622">
        <ele>9.75</ele>
        <time>2026-06-25T09:31:00Z</time>
      </trkpt>
      <trkpt lat="51.85960496775806" lon="-4.261228982359171">
        <ele>7.83</ele>
        <time>2026-06-25T09:31:07Z</time>
      </trkpt>
      <trkpt lat="51.859335992485285" lon="-4.26333099603653">
        <ele>3.5</ele>
        <time>2026-06-25T09:31:15Z</time>
      </trkpt>
      <trkpt lat="51.858944976702332" lon="-4.265196975320578">
        <ele>1.58</ele>
        <time>2026-06-25T09:31:22Z</time>
      </trkpt>
      <trkpt lat="51.858821008354425" lon="-4.265644988045096">
        <ele>2.06</ele>
        <time>2026-06-25T09:31:24Z</time>
      </trkpt>
      <trkpt lat="51.858746996149421" lon="-4.265865013003349">
        <ele>2.06</ele>
        <time>2026-06-25T09:31:25Z</time>
      </trkpt>
      <trkpt lat="51.858674995601177" lon="-4.266083026304841">
        <ele>2.54</ele>
        <time>2026-06-25T09:31:26Z</time>
      </trkpt>
      <trkpt lat="51.85853099450469" lon="-4.266515029594302">
        <ele>2.06</ele>
        <time>2026-06-25T09:31:28Z</time>
      </trkpt>
      <trkpt lat="51.85846796259284" lon="-4.26672600209713">
        <ele>2.06</ele>
        <time>2026-06-25T09:31:29Z</time>
      </trkpt>
      <trkpt lat="51.858406020328403" lon="-4.267215002328157">
        <ele>1.58</ele>
        <time>2026-06-25T09:31:31Z</time>
      </trkpt>
      <trkpt lat="51.858374001458287" lon="-4.267464028671384">
        <ele>1.58</ele>
        <time>2026-06-25T09:31:32Z</time>
      </trkpt>
      <trkpt lat="51.858341982588172" lon="-4.267713977023959">
        <ele>1.1</ele>
        <time>2026-06-25T09:31:33Z</time>
      </trkpt>
      <trkpt lat="51.857986003160477" lon="-4.269754970446229">
        <ele>-1.3</ele>
        <time>2026-06-25T09:31:41Z</time>
      </trkpt>
      <trkpt lat="51.85765097849071" lon="-4.271419029682875">
        <ele>-3.71</ele>
        <time>2026-06-25T09:31:48Z</time>
      </trkpt>
      <trkpt lat="51.857497002929449" lon="-4.272330980747938">
        <ele>1.58</ele>
        <time>2026-06-25T09:31:52Z</time>
      </trkpt>
      <trkpt lat="51.857460960745811" lon="-4.27254899404943">
        <ele>2.54</ele>
        <time>2026-06-25T09:31:53Z</time>
      </trkpt>
      <trkpt lat="51.857423996552825" lon="-4.272771030664444">
        <ele>3.98</ele>
        <time>2026-06-25T09:31:54Z</time>
      </trkpt>
      <trkpt lat="51.857042033225298" lon="-4.27454799413681">
        <ele>5.91</ele>
        <time>2026-06-25T09:32:02Z</time>
      </trkpt>
      <trkpt lat="51.85653199441731" lon="-4.276515981182456">
        <ele>5.42</ele>
        <time>2026-06-25T09:32:10Z</time>
      </trkpt>
      <trkpt lat="51.855503031983972" lon="-4.279693979769945">
        <ele>15.039999999999999</ele>
        <time>2026-06-25T09:32:23Z</time>
      </trkpt>
      <trkpt lat="51.85498402453959" lon="-4.28219597786665">
        <ele>19.84</ele>
        <time>2026-06-25T09:32:33Z</time>
      </trkpt>
      <trkpt lat="51.854391004890203" lon="-4.284748015925288">
        <ele>19.84</ele>
        <time>2026-06-25T09:32:44Z</time>
      </trkpt>
      <trkpt lat="51.853991020470858" lon="-4.286440992727876">
        <ele>17.920000000000002</ele>
        <time>2026-06-25T09:32:53Z</time>
      </trkpt>
      <trkpt lat="51.853831009939313" lon="-4.287795005366206">
        <ele>18.399999999999999</ele>
        <time>2026-06-25T09:33:01Z</time>
      </trkpt>
      <trkpt lat="51.853790022432804" lon="-4.287965996190906">
        <ele>18.399999999999999</ele>
        <time>2026-06-25T09:33:02Z</time>
      </trkpt>
      <trkpt lat="51.853752974420786" lon="-4.288122989237309">
        <ele>18.879999999999999</ele>
        <time>2026-06-25T09:33:03Z</time>
      </trkpt>
      <trkpt lat="51.853262968361378" lon="-4.289402989670634">
        <ele>20.809999999999999</ele>
        <time>2026-06-25T09:33:11Z</time>
      </trkpt>
      <trkpt lat="51.85315802693367" lon="-4.289699038490653">
        <ele>21.289999999999999</ele>
        <time>2026-06-25T09:33:13Z</time>
      </trkpt>
      <trkpt lat="51.853111004456878" lon="-4.289829963818193">
        <ele>21.77</ele>
        <time>2026-06-25T09:33:14Z</time>
      </trkpt>
      <trkpt lat="51.853074040263891" lon="-4.289933983236551">
        <ele>21.77</ele>
        <time>2026-06-25T09:33:15Z</time>
      </trkpt>
      <trkpt lat="51.853045038878918" lon="-4.29001403041184">
        <ele>22.25</ele>
        <time>2026-06-25T09:33:16Z</time>
      </trkpt>
      <trkpt lat="51.853022994473577" lon="-4.290074966847897">
        <ele>22.73</ele>
        <time>2026-06-25T09:33:17Z</time>
      </trkpt>
      <trkpt lat="51.853003967553377" lon="-4.29010396823287">
        <ele>23.690000000000001</ele>
        <time>2026-06-25T09:33:26Z</time>
      </trkpt>
      <trkpt lat="51.852985024452209" lon="-4.290131963789463">
        <ele>24.170000000000002</ele>
        <time>2026-06-25T09:33:27Z</time>
      </trkpt>
      <trkpt lat="51.852946970611811" lon="-4.29018996655941">
        <ele>24.649999999999999</ele>
        <time>2026-06-25T09:33:28Z</time>
      </trkpt>
      <trkpt lat="51.852893996983767" lon="-4.290331033989787">
        <ele>24.649999999999999</ele>
        <time>2026-06-25T09:33:29Z</time>
      </trkpt>
      <trkpt lat="51.852893996983767" lon="-4.290479980409145">
        <ele>24.170000000000002</ele>
        <time>2026-06-25T09:33:30Z</time>
      </trkpt>
      <trkpt lat="51.852893996983767" lon="-4.290654994547367">
        <ele>24.170000000000002</ele>
        <time>2026-06-25T09:33:31Z</time>
      </trkpt>
      <trkpt lat="51.852893996983767" lon="-4.290851969271898">
        <ele>23.210000000000001</ele>
        <time>2026-06-25T09:33:32Z</time>
      </trkpt>
      <trkpt lat="51.852913023903966" lon="-4.291056990623474">
        <ele>22.25</ele>
        <time>2026-06-25T09:33:33Z</time>
      </trkpt>
      <trkpt lat="51.853214018046856" lon="-4.293199991807342">
        <ele>15.039999999999999</ele>
        <time>2026-06-25T09:33:44Z</time>
      </trkpt>
      <trkpt lat="51.853604028001428" lon="-4.295486994087696">
        <ele>13.6</ele>
        <time>2026-06-25T09:33:57Z</time>
      </trkpt>
      <trkpt lat="51.853634035214782" lon="-4.295657984912396">
        <ele>13.6</ele>
        <time>2026-06-25T09:33:58Z</time>
      </trkpt>
      <trkpt lat="51.853635963052511" lon="-4.295840039849281">
        <ele>13.6</ele>
        <time>2026-06-25T09:33:59Z</time>
      </trkpt>
      <trkpt lat="51.853620959445834" lon="-4.296022010967135">
        <ele>13.6</ele>
        <time>2026-06-25T09:34:00Z</time>
      </trkpt>
      <trkpt lat="51.853606039658189" lon="-4.296213034540415">
        <ele>13.6</ele>
        <time>2026-06-25T09:34:01Z</time>
      </trkpt>
      <trkpt lat="51.853573014959693" lon="-4.296613018959761">
        <ele>13.119999999999999</ele>
        <time>2026-06-25T09:34:03Z</time>
      </trkpt>
      <trkpt lat="51.853557005524635" lon="-4.296819968149066">
        <ele>12.630000000000001</ele>
        <time>2026-06-25T09:34:04Z</time>
      </trkpt>
      <trkpt lat="51.853539990261197" lon="-4.297033036127687">
        <ele>12.630000000000001</ele>
        <time>2026-06-25T09:34:05Z</time>
      </trkpt>
      <trkpt lat="51.853553988039494" lon="-4.297238979488611">
        <ele>12.15</ele>
        <time>2026-06-25T09:34:06Z</time>
      </trkpt>
      <trkpt lat="51.853571003302932" lon="-4.297447018325329">
        <ele>12.15</ele>
        <time>2026-06-25T09:34:07Z</time>
      </trkpt>
      <trkpt lat="51.85358801856637" lon="-4.297651033848524">
        <ele>11.67</ele>
        <time>2026-06-25T09:34:08Z</time>
      </trkpt>
      <trkpt lat="51.853657001629472" lon="-4.298412026837468">
        <ele>11.67</ele>
        <time>2026-06-25T09:34:12Z</time>
      </trkpt>
      <trkpt lat="51.853709975257516" lon="-4.299350967630744">
        <ele>12.630000000000001</ele>
        <time>2026-06-25T09:34:17Z</time>
      </trkpt>
      <trkpt lat="51.853677034378052" lon="-4.300261996686459">
        <ele>14.08</ele>
        <time>2026-06-25T09:34:22Z</time>
      </trkpt>
      <trkpt lat="51.853578966110945" lon="-4.300592998042703">
        <ele>14.08</ele>
        <time>2026-06-25T09:34:25Z</time>
      </trkpt>
      <trkpt lat="51.853538984432817" lon="-4.300682013854384">
        <ele>13.6</ele>
        <time>2026-06-25T09:34:26Z</time>
      </trkpt>
      <trkpt lat="51.853494979441166" lon="-4.300778992474079">
        <ele>13.6</ele>
        <time>2026-06-25T09:34:27Z</time>
      </trkpt>
      <trkpt lat="51.853328011929989" lon="-4.300892986357212">
        <ele>13.119999999999999</ele>
        <time>2026-06-25T09:34:29Z</time>
      </trkpt>
      <trkpt lat="51.853259028866887" lon="-4.300990970805287">
        <ele>13.119999999999999</ele>
        <time>2026-06-25T09:34:30Z</time>
      </trkpt>
      <trkpt lat="51.853187028318644" lon="-4.301128014922142">
        <ele>12.630000000000001</ele>
        <time>2026-06-25T09:34:31Z</time>
      </trkpt>
      <trkpt lat="51.85316096059978" lon="-4.301271010190249">
        <ele>12.630000000000001</ele>
        <time>2026-06-25T09:34:32Z</time>
      </trkpt>
      <trkpt lat="51.853169007226825" lon="-4.301420040428639">
        <ele>12.630000000000001</ele>
        <time>2026-06-25T09:34:33Z</time>
      </trkpt>
      <trkpt lat="51.853192979469895" lon="-4.301566975191236">
        <ele>12.630000000000001</ele>
        <time>2026-06-25T09:34:34Z</time>
      </trkpt>
      <trkpt lat="51.853237990289927" lon="-4.30168398655951">
        <ele>12.630000000000001</ele>
        <time>2026-06-25T09:34:35Z</time>
      </trkpt>
      <trkpt lat="51.853247964754701" lon="-4.301884984597564">
        <ele>12.630000000000001</ele>
        <time>2026-06-25T09:34:36Z</time>
      </trkpt>
      <trkpt lat="51.853256011381745" lon="-4.302057987079024">
        <ele>12.630000000000001</ele>
        <time>2026-06-25T09:34:37Z</time>
      </trkpt>
      <trkpt lat="51.853251988068223" lon="-4.302226966246963">
        <ele>12.630000000000001</ele>
        <time>2026-06-25T09:34:38Z</time>
      </trkpt>
      <trkpt lat="51.853185016661882" lon="-4.303304040804505">
        <ele>11.67</ele>
        <time>2026-06-25T09:34:45Z</time>
      </trkpt>
      <trkpt lat="51.853169007226825" lon="-4.303609980270267">
        <ele>10.710000000000001</ele>
        <time>2026-06-25T09:34:47Z</time>
      </trkpt>
      <trkpt lat="51.853162972256541" lon="-4.303741995245218">
        <ele>10.710000000000001</ele>
        <time>2026-06-25T09:34:48Z</time>
      </trkpt>
      <trkpt lat="51.853145034983754" lon="-4.303979035466909">
        <ele>10.23</ele>
        <time>2026-06-25T09:34:50Z</time>
      </trkpt>
      <trkpt lat="51.853114021942019" lon="-4.304071990773082">
        <ele>10.23</ele>
        <time>2026-06-25T09:34:51Z</time>
      </trkpt>
      <trkpt lat="51.853116033598781" lon="-4.304215991869569">
        <ele>10.23</ele>
        <time>2026-06-25T09:34:52Z</time>
      </trkpt>
      <trkpt lat="51.853148974478245" lon="-4.304290004074574">
        <ele>9.75</ele>
        <time>2026-06-25T09:34:53Z</time>
      </trkpt>
      <trkpt lat="51.853227009996772" lon="-4.304336020722985">
        <ele>9.75</ele>
        <time>2026-06-25T09:34:54Z</time>
      </trkpt>
      <trkpt lat="51.853302028030157" lon="-4.304323028773069">
        <ele>9.75</ele>
        <time>2026-06-25T09:34:55Z</time>
      </trkpt>
      <trkpt lat="51.853370005264878" lon="-4.304311964660883">
        <ele>9.75</ele>
        <time>2026-06-25T09:34:56Z</time>
      </trkpt>
      <trkpt lat="51.854095039889216" lon="-4.304268965497613">
        <ele>13.6</ele>
        <time>2026-06-25T09:35:06Z</time>
      </trkpt>
      <trkpt lat="51.854117000475526" lon="-4.304271982982755">
        <ele>14.08</ele>
        <time>2026-06-25T09:35:17Z</time>
      </trkpt>
      <trkpt lat="51.854117000475526" lon="-4.304271982982755">
        <ele>14.08</ele>
        <time>2026-06-25T09:36:05Z</time>
      </trkpt>
      <trkpt lat="51.854301989078522" lon="-4.304334009066224">
        <ele>14.56</ele>
        <time>2026-06-25T09:36:21Z</time>
      </trkpt>
      <trkpt lat="51.85438203625381" lon="-4.30436996743083">
        <ele>15.039999999999999</ele>
        <time>2026-06-25T09:36:24Z</time>
      </trkpt>
      <trkpt lat="51.854431992396712" lon="-4.304394023492932">
        <ele>15.039999999999999</ele>
        <time>2026-06-25T09:36:25Z</time>
      </trkpt>
      <trkpt lat="51.854919986799359" lon="-4.304621005430818">
        <ele>12.15</ele>
        <time>2026-06-25T09:36:33Z</time>
      </trkpt>
      <trkpt lat="51.854966003447771" lon="-4.304641960188747">
        <ele>11.67</ele>
        <time>2026-06-25T09:36:34Z</time>
      </trkpt>
      <trkpt lat="51.855023000389338" lon="-4.304680014029145">
        <ele>11.19</ele>
        <time>2026-06-25T09:36:35Z</time>
      </trkpt>
      <trkpt lat="51.855047978460789" lon="-4.304753020405769">
        <ele>10.710000000000001</ele>
        <time>2026-06-25T09:36:36Z</time>
      </trkpt>
      <trkpt lat="51.85507396236062" lon="-4.304832983762026">
        <ele>10.23</ele>
        <time>2026-06-25T09:36:37Z</time>
      </trkpt>
      <trkpt lat="51.855095000937581" lon="-4.304927028715611">
        <ele>10.23</ele>
        <time>2026-06-25T09:36:38Z</time>
      </trkpt>
      <trkpt lat="51.85511402785778" lon="-4.305031970143318">
        <ele>9.75</ele>
        <time>2026-06-25T09:36:39Z</time>
      </trkpt>
      <trkpt lat="51.855125008150935" lon="-4.305146969854832">
        <ele>9.27</ele>
        <time>2026-06-25T09:36:40Z</time>
      </trkpt>
      <trkpt lat="51.855125008150935" lon="-4.305146969854832">
        <ele>9.27</ele>
        <time>2026-06-25T09:36:41Z</time>
      </trkpt>
      <trkpt lat="51.855120984837413" lon="-4.305359032005072">
        <ele>8.789999999999999</ele>
        <time>2026-06-25T09:36:42Z</time>
      </trkpt>
      <trkpt lat="51.855117967352271" lon="-4.305463973432779">
        <ele>8.789999999999999</ele>
        <time>2026-06-25T09:36:43Z</time>
      </trkpt>
      <trkpt lat="51.855117967352271" lon="-4.305463973432779">
        <ele>8.789999999999999</ele>
        <time>2026-06-25T09:36:44Z</time>
      </trkpt>
      <trkpt lat="51.855111010372639" lon="-4.305806960910559">
        <ele>9.27</ele>
        <time>2026-06-25T09:36:47Z</time>
      </trkpt>
      <trkpt lat="51.855108998715878" lon="-4.305925983935595">
        <ele>9.27</ele>
        <time>2026-06-25T09:36:48Z</time>
      </trkpt>
      <trkpt lat="51.855029035359621" lon="-4.307491974905133">
        <ele>11.19</ele>
        <time>2026-06-25T09:36:59Z</time>
      </trkpt>
      <trkpt lat="51.855011014267802" lon="-4.307604962959886">
        <ele>11.19</ele>
        <time>2026-06-25T09:37:00Z</time>
      </trkpt>
      <trkpt lat="51.85494102537632" lon="-4.307997990399599">
        <ele>10.23</ele>
        <time>2026-06-25T09:37:07Z</time>
      </trkpt>
      <trkpt lat="51.854932978749275" lon="-4.308024980127811">
        <ele>10.23</ele>
        <time>2026-06-25T09:37:11Z</time>
      </trkpt>
      <trkpt lat="51.854915041476488" lon="-4.308090023696423">
        <ele>10.23</ele>
        <time>2026-06-25T09:37:12Z</time>
      </trkpt>
      <trkpt lat="51.854846980422735" lon="-4.308336032554507">
        <ele>9.75</ele>
        <time>2026-06-25T09:37:15Z</time>
      </trkpt>
      <trkpt lat="51.854795012623072" lon="-4.308412978425622">
        <ele>10.710000000000001</ele>
        <time>2026-06-25T09:37:16Z</time>
      </trkpt>
      <trkpt lat="51.854800041764975" lon="-4.308580029755831">
        <ele>10.710000000000001</ele>
        <time>2026-06-25T09:37:17Z</time>
      </trkpt>
      <trkpt lat="51.854826025664806" lon="-4.308614982292056">
        <ele>10.23</ele>
        <time>2026-06-25T09:37:18Z</time>
      </trkpt>
      <trkpt lat="51.854954017326236" lon="-4.308524960651994">
        <ele>10.23</ele>
        <time>2026-06-25T09:37:19Z</time>
      </trkpt>
      <trkpt lat="51.855061976239085" lon="-4.308614982292056">
        <ele>9.75</ele>
        <time>2026-06-25T09:37:20Z</time>
      </trkpt>
      <trkpt lat="51.85507396236062" lon="-4.308615988120437">
        <ele>9.75</ele>
        <time>2026-06-25T09:37:21Z</time>
      </trkpt>
      <trkpt lat="51.855255011469126" lon="-4.308593021705747">
        <ele>9.27</ele>
        <time>2026-06-25T09:37:24Z</time>
      </trkpt>
      <trkpt lat="51.855674022808671" lon="-4.308187002316117">
        <ele>8.310000000000001</ele>
        <time>2026-06-25T09:37:33Z</time>
      </trkpt>
      <trkpt lat="51.855718027800322" lon="-4.308147020637989">
        <ele>8.310000000000001</ele>
        <time>2026-06-25T09:37:34Z</time>
      </trkpt>
      <trkpt lat="51.855762032791972" lon="-4.308107038959861">
        <ele>8.789999999999999</ele>
        <time>2026-06-25T09:37:35Z</time>
      </trkpt>
      <trkpt lat="51.855807965621352" lon="-4.30808499455452">
        <ele>9.27</ele>
        <time>2026-06-25T09:37:36Z</time>
      </trkpt>
      <trkpt lat="51.855854988098145" lon="-4.30806596763432">
        <ele>9.75</ele>
        <time>2026-06-25T09:37:37Z</time>
      </trkpt>
      <trkpt lat="51.855896981433034" lon="-4.308056998997927">
        <ele>10.23</ele>
        <time>2026-06-25T09:37:38Z</time>
      </trkpt>
      <trkpt lat="51.855946015566587" lon="-4.308056998997927">
        <ele>10.710000000000001</ele>
        <time>2026-06-25T09:37:39Z</time>
      </trkpt>
      <trkpt lat="51.855989014729857" lon="-4.30806303396821">
        <ele>11.67</ele>
        <time>2026-06-25T09:37:40Z</time>
      </trkpt>
      <trkpt lat="51.856026984751225" lon="-4.308072002604604">
        <ele>12.15</ele>
        <time>2026-06-25T09:37:41Z</time>
      </trkpt>
      <trkpt lat="51.856127986684442" lon="-4.308094969019294">
        <ele>14.56</ele>
        <time>2026-06-25T09:37:49Z</time>
      </trkpt>
      <trkpt lat="51.856162017211318" lon="-4.308103015646339">
        <ele>16.48</ele>
        <time>2026-06-25T09:37:57Z</time>
      </trkpt>
      <trkpt lat="51.856214990839362" lon="-4.308115001767874">
        <ele>16.960000000000001</ele>
        <time>2026-06-25T09:37:58Z</time>
      </trkpt>
      <trkpt lat="51.856279028579593" lon="-4.3081050273031">
        <ele>17.920000000000002</ele>
        <time>2026-06-25T09:37:59Z</time>
      </trkpt>
      <trkpt lat="51.856325967237353" lon="-4.30808499455452">
        <ele>18.399999999999999</ele>
        <time>2026-06-25T09:38:00Z</time>
      </trkpt>
      <trkpt lat="51.856364021077752" lon="-4.308068985119462">
        <ele>19.359999999999999</ele>
        <time>2026-06-25T09:38:01Z</time>
      </trkpt>
      <trkpt lat="51.856395034119487" lon="-4.308124976232648">
        <ele>19.84</ele>
        <time>2026-06-25T09:38:02Z</time>
      </trkpt>
      <trkpt lat="51.856400985270739" lon="-4.308294961228967">
        <ele>20.809999999999999</ele>
        <time>2026-06-25T09:38:03Z</time>
      </trkpt>
      <trkpt lat="51.85640400275588" lon="-4.308370985090733">
        <ele>21.289999999999999</ele>
        <time>2026-06-25T09:38:04Z</time>
      </trkpt>
      <trkpt lat="51.85640400275588" lon="-4.308370985090733">
        <ele>21.77</ele>
        <time>2026-06-25T09:38:05Z</time>
      </trkpt>
      <trkpt lat="51.856406014412642" lon="-4.308439968153834">
        <ele>22.25</ele>
        <time>2026-06-25T09:38:06Z</time>
      </trkpt>
      <trkpt lat="51.856411965563893" lon="-4.308588998392224">
        <ele>22.25</ele>
        <time>2026-06-25T09:38:07Z</time>
      </trkpt>
      <trkpt lat="51.856411965563893" lon="-4.308588998392224">
        <ele>22.25</ele>
        <time>2026-06-25T09:38:08Z</time>
      </trkpt>
      <trkpt lat="51.856412971392274" lon="-4.308662004768848">
        <ele>22.25</ele>
        <time>2026-06-25T09:38:09Z</time>
      </trkpt>
      <trkpt lat="51.856420012190938" lon="-4.308852022513747">
        <ele>23.210000000000001</ele>
        <time>2026-06-25T09:38:12Z</time>
      </trkpt>
      <trkpt lat="51.85642302967608" lon="-4.308915976434946">
        <ele>23.690000000000001</ele>
        <time>2026-06-25T09:38:13Z</time>
      </trkpt>
      <trkpt lat="51.856438033282757" lon="-4.309167014434934">
        <ele>23.690000000000001</ele>
        <time>2026-06-25T09:38:16Z</time>
      </trkpt>
      <trkpt lat="51.856442978605628" lon="-4.309248989447951">
        <ele>23.210000000000001</ele>
        <time>2026-06-25T09:38:17Z</time>
      </trkpt>
      <trkpt lat="51.85644700191915" lon="-4.309329958632588">
        <ele>23.690000000000001</ele>
        <time>2026-06-25T09:38:18Z</time>
      </trkpt>
      <trkpt lat="51.856486983597279" lon="-4.310069996863604">
        <ele>24.170000000000002</ele>
        <time>2026-06-25T09:38:26Z</time>
      </trkpt>
      <trkpt lat="51.85649000108242" lon="-4.31014702655375">
        <ele>24.170000000000002</ele>
        <time>2026-06-25T09:38:27Z</time>
      </trkpt>
      <trkpt lat="51.856497963890433" lon="-4.310313994064927">
        <ele>24.649999999999999</ele>
        <time>2026-06-25T09:38:29Z</time>
      </trkpt>
      <trkpt lat="51.856521014124155" lon="-4.310566959902644">
        <ele>26.57</ele>
        <time>2026-06-25T09:38:33Z</time>
      </trkpt>
      <trkpt lat="51.856566024944186" lon="-4.310624040663242">
        <ele>27.050000000000001</ele>
        <time>2026-06-25T09:38:34Z</time>
      </trkpt>
      <trkpt lat="51.856861989945173" lon="-4.310997035354376">
        <ele>29.940000000000001</ele>
        <time>2026-06-25T09:38:40Z</time>
      </trkpt>
      <trkpt lat="51.856902977451682" lon="-4.31105000898242">
        <ele>29.940000000000001</ele>
        <time>2026-06-25T09:38:41Z</time>
      </trkpt>
      <trkpt lat="51.856944970786572" lon="-4.311100970953703">
        <ele>30.420000000000002</ele>
        <time>2026-06-25T09:38:42Z</time>
      </trkpt>
      <trkpt lat="51.856985036283731" lon="-4.311152016744018">
        <ele>30.899999999999999</ele>
        <time>2026-06-25T09:38:43Z</time>
      </trkpt>
      <trkpt lat="51.85702501796186" lon="-4.311202978715301">
        <ele>30.899999999999999</ele>
        <time>2026-06-25T09:38:44Z</time>
      </trkpt>
      <trkpt lat="51.857064999639988" lon="-4.311253018677235">
        <ele>30.899999999999999</ele>
        <time>2026-06-25T09:38:45Z</time>
      </trkpt>
      <trkpt lat="51.857101041823626" lon="-4.311298029497266">
        <ele>30.899999999999999</ele>
        <time>2026-06-25T09:38:46Z</time>
      </trkpt>
      <trkpt lat="51.857137000188231" lon="-4.311343962326646">
        <ele>30.899999999999999</ele>
        <time>2026-06-25T09:38:47Z</time>
      </trkpt>
      <trkpt lat="51.85717698186636" lon="-4.31139400228858">
        <ele>30.899999999999999</ele>
        <time>2026-06-25T09:38:48Z</time>
      </trkpt>
      <trkpt lat="51.857216963544488" lon="-4.311443958431482">
        <ele>30.899999999999999</ele>
        <time>2026-06-25T09:38:49Z</time>
      </trkpt>
      <trkpt lat="51.857257029041648" lon="-4.311495004221797">
        <ele>30.899999999999999</ele>
        <time>2026-06-25T09:38:50Z</time>
      </trkpt>
      <trkpt lat="51.857296004891396" lon="-4.311544038355351">
        <ele>30.899999999999999</ele>
        <time>2026-06-25T09:38:51Z</time>
      </trkpt>
      <trkpt lat="51.857328023761511" lon="-4.311585025861859">
        <ele>30.899999999999999</ele>
        <time>2026-06-25T09:38:52Z</time>
      </trkpt>
      <trkpt lat="51.857371022924781" lon="-4.311637999489904">
        <ele>31.379999999999999</ele>
        <time>2026-06-25T09:38:54Z</time>
      </trkpt>
      <trkpt lat="51.857379991561174" lon="-4.311649985611439">
        <ele>31.379999999999999</ele>
        <time>2026-06-25T09:39:01Z</time>
      </trkpt>
      <trkpt lat="51.857401030138135" lon="-4.311675969511271">
        <ele>31.379999999999999</ele>
        <time>2026-06-25T09:39:02Z</time>
      </trkpt>
      <trkpt lat="51.857422990724444" lon="-4.311703965067864">
        <ele>31.379999999999999</ele>
        <time>2026-06-25T09:39:03Z</time>
      </trkpt>
      <trkpt lat="51.857834961265326" lon="-4.312206041067839">
        <ele>29.460000000000001</ele>
        <time>2026-06-25T09:39:10Z</time>
      </trkpt>
      <trkpt lat="51.858418006449938" lon="-4.313032999634743">
        <ele>32.340000000000003</ele>
        <time>2026-06-25T09:39:21Z</time>
      </trkpt>
      <trkpt lat="51.858418006449938" lon="-4.313032999634743">
        <ele>32.82</ele>
        <time>2026-06-25T09:39:22Z</time>
      </trkpt>
      <trkpt lat="51.858463017269969" lon="-4.313102988526225">
        <ele>33.299999999999997</ele>
        <time>2026-06-25T09:39:23Z</time>
      </trkpt>
      <trkpt lat="51.858515990898013" lon="-4.313184963539243">
        <ele>33.780000000000001</ele>
        <time>2026-06-25T09:39:24Z</time>
      </trkpt>
      <trkpt lat="51.858558990061283" lon="-4.313255958259106">
        <ele>34.259999999999998</ele>
        <time>2026-06-25T09:39:25Z</time>
      </trkpt>
      <trkpt lat="51.858985964208841" lon="-4.314006976783276">
        <ele>35.229999999999997</ele>
        <time>2026-06-25T09:39:34Z</time>
      </trkpt>
      <trkpt lat="51.859032986685634" lon="-4.314087023958564">
        <ele>34.740000000000002</ele>
        <time>2026-06-25T09:39:35Z</time>
      </trkpt>
      <trkpt lat="51.859137006103992" lon="-4.314262038096786">
        <ele>34.740000000000002</ele>
        <time>2026-06-25T09:39:36Z</time>
      </trkpt>
      <trkpt lat="51.859246976673603" lon="-4.314459012821317">
        <ele>34.740000000000002</ele>
        <time>2026-06-25T09:39:38Z</time>
      </trkpt>
      <trkpt lat="51.859923982992768" lon="-4.315680004656315">
        <ele>36.189999999999998</ele>
        <time>2026-06-25T09:39:50Z</time>
      </trkpt>
      <trkpt lat="51.860047029331326" lon="-4.31592701934278">
        <ele>37.149999999999999</ele>
        <time>2026-06-25T09:39:52Z</time>
      </trkpt>
      <trkpt lat="51.860075024887919" lon="-4.316080994904041">
        <ele>37.630000000000003</ele>
        <time>2026-06-25T09:39:53Z</time>
      </trkpt>
      <trkpt lat="51.860247021540999" lon="-4.31685296818614">
        <ele>38.109999999999999</ele>
        <time>2026-06-25T09:39:58Z</time>
      </trkpt>
      <trkpt lat="51.860293038189411" lon="-4.31700199842453">
        <ele>38.109999999999999</ele>
        <time>2026-06-25T09:39:59Z</time>
      </trkpt>
      <trkpt lat="51.860338971018791" lon="-4.317150022834539">
        <ele>38.109999999999999</ele>
        <time>2026-06-25T09:40:00Z</time>
      </trkpt>
      <trkpt lat="51.860383981838822" lon="-4.317297963425517">
        <ele>38.590000000000003</ele>
        <time>2026-06-25T09:40:01Z</time>
      </trkpt>
      <trkpt lat="51.860429998487234" lon="-4.317440036684275">
        <ele>38.590000000000003</ele>
        <time>2026-06-25T09:40:02Z</time>
      </trkpt>
      <trkpt lat="51.860492024570704" lon="-4.317553024739027">
        <ele>38.590000000000003</ele>
        <time>2026-06-25T09:40:03Z</time>
      </trkpt>
      <trkpt lat="51.86087298206985" lon="-4.318215027451515">
        <ele>41.469999999999999</ele>
        <time>2026-06-25T09:40:11Z</time>
      </trkpt>
      <trkpt lat="51.86132401227951" lon="-4.318979037925601">
        <ele>44.840000000000003</ele>
        <time>2026-06-25T09:40:18Z</time>
      </trkpt>
      <trkpt lat="51.862367978319526" lon="-4.320120988413692">
        <ele>45.32</ele>
        <time>2026-06-25T09:40:31Z</time>
      </trkpt>
      <trkpt lat="51.862786989659071" lon="-4.320547040551901">
        <ele>43.880000000000003</ele>
        <time>2026-06-25T09:40:36Z</time>
      </trkpt>
      <trkpt lat="51.863663988187909" lon="-4.321026988327503">
        <ele>42.439999999999998</ele>
        <time>2026-06-25T09:40:45Z</time>
      </trkpt>
      <trkpt lat="51.864472003653646" lon="-4.32097896002233">
        <ele>45.799999999999997</ele>
        <time>2026-06-25T09:40:53Z</time>
      </trkpt>
      <trkpt lat="51.864775009453297" lon="-4.32097502052784">
        <ele>47.719999999999999</ele>
        <time>2026-06-25T09:40:56Z</time>
      </trkpt>
      <trkpt lat="51.864979024976492" lon="-4.321010978892446">
        <ele>49.159999999999997</ele>
        <time>2026-06-25T09:40:58Z</time>
      </trkpt>
      <trkpt lat="51.86527599580586" lon="-4.32106202468276">
        <ele>51.57</ele>
        <time>2026-06-25T09:41:01Z</time>
      </trkpt>
      <trkpt lat="51.86564396135509" lon="-4.321094965562224">
        <ele>54.93</ele>
        <time>2026-06-25T09:41:05Z</time>
      </trkpt>
      <trkpt lat="51.866525989025831" lon="-4.321173001080751">
        <ele>53.490000000000002</ele>
        <time>2026-06-25T09:41:13Z</time>
      </trkpt>
      <trkpt lat="51.86738102696836" lon="-4.321248019114137">
        <ele>45.32</ele>
        <time>2026-06-25T09:41:20Z</time>
      </trkpt>
      <trkpt lat="51.867851000279188" lon="-4.321214994415641">
        <ele>42.439999999999998</ele>
        <time>2026-06-25T09:41:24Z</time>
      </trkpt>
      <trkpt lat="51.867965999990702" lon="-4.321174006909132">
        <ele>41.469999999999999</ele>
        <time>2026-06-25T09:41:25Z</time>
      </trkpt>
      <trkpt lat="51.868078988045454" lon="-4.321135031059384">
        <ele>40.030000000000001</ele>
        <time>2026-06-25T09:41:26Z</time>
      </trkpt>
      <trkpt lat="51.868190970271826" lon="-4.321028999984264">
        <ele>39.07</ele>
        <time>2026-06-25T09:41:27Z</time>
      </trkpt>
      <trkpt lat="51.868278980255127" lon="-4.320930009707809">
        <ele>38.590000000000003</ele>
        <time>2026-06-25T09:41:28Z</time>
      </trkpt>
      <trkpt lat="51.868534041568637" lon="-4.320637984201312">
        <ele>37.149999999999999</ele>
        <time>2026-06-25T09:41:31Z</time>
      </trkpt>
      <trkpt lat="51.868615010753274" lon="-4.320579981431365">
        <ele>37.149999999999999</ele>
        <time>2026-06-25T09:41:32Z</time>
      </trkpt>
      <trkpt lat="51.868706038221717" lon="-4.320530025288463">
        <ele>37.149999999999999</ele>
        <time>2026-06-25T09:41:33Z</time>
      </trkpt>
      <trkpt lat="51.868793964385986" lon="-4.32048300281167">
        <ele>37.630000000000003</ele>
        <time>2026-06-25T09:41:34Z</time>
      </trkpt>
      <trkpt lat="51.868879040703177" lon="-4.320480991154909">
        <ele>38.109999999999999</ele>
        <time>2026-06-25T09:41:35Z</time>
      </trkpt>
      <trkpt lat="51.868977025151253" lon="-4.320531031116843">
        <ele>38.590000000000003</ele>
        <time>2026-06-25T09:41:36Z</time>
      </trkpt>
      <trkpt lat="51.869080038741231" lon="-4.320582998916507">
        <ele>38.590000000000003</ele>
        <time>2026-06-25T09:41:37Z</time>
      </trkpt>
      <trkpt lat="51.870072958990932" lon="-4.321091026067734">
        <ele>36.189999999999998</ele>
        <time>2026-06-25T09:41:47Z</time>
      </trkpt>
      <trkpt lat="51.871207030490041" lon="-4.321718998253346">
        <ele>35.229999999999997</ele>
        <time>2026-06-25T09:41:58Z</time>
      </trkpt>
      <trkpt lat="51.871845982968807" lon="-4.322149995714426">
        <ele>36.670000000000002</ele>
        <time>2026-06-25T09:42:05Z</time>
      </trkpt>
      <trkpt lat="51.871928963810205" lon="-4.322248985990882">
        <ele>37.149999999999999</ele>
        <time>2026-06-25T09:42:06Z</time>
      </trkpt>
      <trkpt lat="51.871996019035578" lon="-4.322359040379524">
        <ele>37.630000000000003</ele>
        <time>2026-06-25T09:42:07Z</time>
      </trkpt>
      <trkpt lat="51.872314028441906" lon="-4.322883998975158">
        <ele>41.469999999999999</ele>
        <time>2026-06-25T09:42:12Z</time>
      </trkpt>
      <trkpt lat="51.872393991798162" lon="-4.322964968159795">
        <ele>41.950000000000003</ele>
        <time>2026-06-25T09:42:13Z</time>
      </trkpt>
      <trkpt lat="51.872728010639548" lon="-4.323208965361118">
        <ele>47.240000000000002</ele>
        <time>2026-06-25T09:42:17Z</time>
      </trkpt>
      <trkpt lat="51.873172000050545" lon="-4.323452962562442">
        <ele>55.890000000000001</ele>
        <time>2026-06-25T09:42:22Z</time>
      </trkpt>
      <trkpt lat="51.873260010033846" lon="-4.323500990867615">
        <ele>57.340000000000003</ele>
        <time>2026-06-25T09:42:23Z</time>
      </trkpt>
      <trkpt lat="51.873436030000448" lon="-4.323610961437225">
        <ele>60.219999999999999</ele>
        <time>2026-06-25T09:42:25Z</time>
      </trkpt>
      <trkpt lat="51.874115969985723" lon="-4.324244968593121">
        <ele>70.790000000000006</ele>
        <time>2026-06-25T09:42:33Z</time>
      </trkpt>
      <trkpt lat="51.874194005504251" lon="-4.324332978576422">
        <ele>72.239999999999995</ele>
        <time>2026-06-25T09:42:34Z</time>
      </trkpt>
      <trkpt lat="51.874249996617436" lon="-4.324445966631174">
        <ele>73.200000000000003</ele>
        <time>2026-06-25T09:42:35Z</time>
      </trkpt>
      <trkpt lat="51.874295007437468" lon="-4.32458502240479">
        <ele>75.120000000000005</ele>
        <time>2026-06-25T09:42:36Z</time>
      </trkpt>
      <trkpt lat="51.874344041571021" lon="-4.324737992137671">
        <ele>76.560000000000002</ele>
        <time>2026-06-25T09:42:37Z</time>
      </trkpt>
      <trkpt lat="51.874395003542304" lon="-4.324893979355693">
        <ele>77.519999999999996</ele>
        <time>2026-06-25T09:42:38Z</time>
      </trkpt>
      <trkpt lat="51.874441020190716" lon="-4.325036974623799">
        <ele>78.969999999999999</ele>
        <time>2026-06-25T09:42:39Z</time>
      </trkpt>
      <trkpt lat="51.874499022960663" lon="-4.325171001255512">
        <ele>80.409999999999997</ele>
        <time>2026-06-25T09:42:40Z</time>
      </trkpt>
      <trkpt lat="51.874573035165668" lon="-4.325223974883556">
        <ele>81.370000000000005</ele>
        <time>2026-06-25T09:42:41Z</time>
      </trkpt>
      <trkpt lat="51.874640006572008" lon="-4.325264962390065">
        <ele>82.329999999999998</ele>
        <time>2026-06-25T09:42:42Z</time>
      </trkpt>
      <trkpt lat="51.874713012948632" lon="-4.325251970440149">
        <ele>82.810000000000002</ele>
        <time>2026-06-25T09:42:43Z</time>
      </trkpt>
      <trkpt lat="51.874781996011734" lon="-4.325181981548667">
        <ele>83.290000000000006</ele>
        <time>2026-06-25T09:42:44Z</time>
      </trkpt>
      <trkpt lat="51.874827006831765" lon="-4.325057007372379">
        <ele>83.290000000000006</ele>
        <time>2026-06-25T09:42:45Z</time>
      </trkpt>
      <trkpt lat="51.874874029308558" lon="-4.324914012104273">
        <ele>83.290000000000006</ele>
        <time>2026-06-25T09:42:46Z</time>
      </trkpt>
      <trkpt lat="51.875250041484833" lon="-4.323252970352769">
        <ele>87.140000000000001</ele>
        <time>2026-06-25T09:42:54Z</time>
      </trkpt>
      <trkpt lat="51.875424971804023" lon="-4.322579987347126">
        <ele>90.019999999999996</ele>
        <time>2026-06-25T09:42:57Z</time>
      </trkpt>
      <trkpt lat="51.875497978180647" lon="-4.322428023442626">
        <ele>91.459999999999994</ele>
        <time>2026-06-25T09:42:58Z</time>
      </trkpt>
      <trkpt lat="51.875658994540572" lon="-4.322095010429621">
        <ele>95.790000000000006</ele>
        <time>2026-06-25T09:43:01Z</time>
      </trkpt>
      <trkpt lat="51.875730995088816" lon="-4.322059974074364">
        <ele>97.709999999999994</ele>
        <time>2026-06-25T09:43:02Z</time>
      </trkpt>
      <trkpt lat="51.875792015343904" lon="-4.322033990174532">
        <ele>99.150000000000006</ele>
        <time>2026-06-25T09:43:03Z</time>
      </trkpt>
      <trkpt lat="51.87591296620667" lon="-4.322086963802576">
        <ele>102.04000000000001</ele>
        <time>2026-06-25T09:43:05Z</time>
      </trkpt>
      <trkpt lat="51.875935010612011" lon="-4.322173967957497">
        <ele>103.48</ele>
        <time>2026-06-25T09:43:06Z</time>
      </trkpt>
      <trkpt lat="51.876153023913503" lon="-4.323371993377805">
        <ele>113.09</ele>
        <time>2026-06-25T09:43:14Z</time>
      </trkpt>
      <trkpt lat="51.876541022211313" lon="-4.325801990926266">
        <ele>124.63</ele>
        <time>2026-06-25T09:43:24Z</time>
      </trkpt>
      <trkpt lat="51.876653004437685" lon="-4.326788960024715">
        <ele>130.40000000000001</ele>
        <time>2026-06-25T09:43:28Z</time>
      </trkpt>
      <trkpt lat="51.876688040792942" lon="-4.326991969719529">
        <ele>131.84</ele>
        <time>2026-06-25T09:43:29Z</time>
      </trkpt>
      <trkpt lat="51.876759035512805" lon="-4.327190034091473">
        <ele>133.28</ele>
        <time>2026-06-25T09:43:30Z</time>
      </trkpt>
      <trkpt lat="51.876832041889429" lon="-4.327394971624017">
        <ele>134.24000000000001</ele>
        <time>2026-06-25T09:43:31Z</time>
      </trkpt>
      <trkpt lat="51.876917034387589" lon="-4.327599992975593">
        <ele>135.19999999999999</ele>
        <time>2026-06-25T09:43:32Z</time>
      </trkpt>
      <trkpt lat="51.877023987472057" lon="-4.327791016548872">
        <ele>135.19999999999999</ele>
        <time>2026-06-25T09:43:33Z</time>
      </trkpt>
      <trkpt lat="51.877753967419267" lon="-4.329106975346804">
        <ele>132.31999999999999</ele>
        <time>2026-06-25T09:43:40Z</time>
      </trkpt>
      <trkpt lat="51.877834014594555" lon="-4.32924997061491">
        <ele>131.36000000000001</ele>
        <time>2026-06-25T09:43:41Z</time>
      </trkpt>
      <trkpt lat="51.877881037071347" lon="-4.329405035823584">
        <ele>129.91999999999999</ele>
        <time>2026-06-25T09:43:42Z</time>
      </trkpt>
      <trkpt lat="51.877925964072347" lon="-4.329584995284677">
        <ele>128.94999999999999</ele>
        <time>2026-06-25T09:43:43Z</time>
      </trkpt>
      <trkpt lat="51.877972986549139" lon="-4.329773001372814">
        <ele>127.98999999999999</ele>
        <time>2026-06-25T09:43:44Z</time>
      </trkpt>
      <trkpt lat="51.878024032339454" lon="-4.329973999410868">
        <ele>126.55</ele>
        <time>2026-06-25T09:43:45Z</time>
      </trkpt>
      <trkpt lat="51.878071976825595" lon="-4.330389993265271">
        <ele>124.15000000000001</ele>
        <time>2026-06-25T09:43:47Z</time>
      </trkpt>
      <trkpt lat="51.878089997917414" lon="-4.330599959939718">
        <ele>123.67</ele>
        <time>2026-06-25T09:43:48Z</time>
      </trkpt>
      <trkpt lat="51.878107013180852" lon="-4.330804981291294">
        <ele>122.70999999999999</ele>
        <time>2026-06-25T09:43:49Z</time>
      </trkpt>
      <trkpt lat="51.87812302261591" lon="-4.330999022349715">
        <ele>122.22</ele>
        <time>2026-06-25T09:43:50Z</time>
      </trkpt>
      <trkpt lat="51.878175996243954" lon="-4.331169007346034">
        <ele>121.73999999999999</ele>
        <time>2026-06-25T09:43:51Z</time>
      </trkpt>
      <trkpt lat="51.878240033984184" lon="-4.331320971250534">
        <ele>121.26000000000001</ele>
        <time>2026-06-25T09:43:52Z</time>
      </trkpt>
      <trkpt lat="51.878324020653963" lon="-4.331458015367389">
        <ele>120.78</ele>
        <time>2026-06-25T09:43:53Z</time>
      </trkpt>
      <trkpt lat="51.878417981788516" lon="-4.331597993150353">
        <ele>120.3</ele>
        <time>2026-06-25T09:43:54Z</time>
      </trkpt>
      <trkpt lat="51.878515966236591" lon="-4.331741994246841">
        <ele>119.81999999999999</ele>
        <time>2026-06-25T09:43:55Z</time>
      </trkpt>
      <trkpt lat="51.878614034503698" lon="-4.331887001171708">
        <ele>119.81999999999999</ele>
        <time>2026-06-25T09:43:56Z</time>
      </trkpt>
      <trkpt lat="51.878712018951774" lon="-4.332032008096576">
        <ele>120.3</ele>
        <time>2026-06-25T09:43:57Z</time>
      </trkpt>
      <trkpt lat="51.878793993964791" lon="-4.332201993092895">
        <ele>121.26000000000001</ele>
        <time>2026-06-25T09:43:58Z</time>
      </trkpt>
      <trkpt lat="51.879228008911014" lon="-4.333851970732212">
        <ele>125.11</ele>
        <time>2026-06-25T09:44:06Z</time>
      </trkpt>
      <trkpt lat="51.879305960610509" lon="-4.334557978436351">
        <ele>124.15000000000001</ele>
        <time>2026-06-25T09:44:09Z</time>
      </trkpt>
      <trkpt lat="51.879330016672611" lon="-4.335060976445675">
        <ele>123.19</ele>
        <time>2026-06-25T09:44:11Z</time>
      </trkpt>
      <trkpt lat="51.879330016672611" lon="-4.335326012223959">
        <ele>122.70999999999999</ele>
        <time>2026-06-25T09:44:12Z</time>
      </trkpt>
      <trkpt lat="51.879330016672611" lon="-4.335599010810256">
        <ele>122.22</ele>
        <time>2026-06-25T09:44:13Z</time>
      </trkpt>
      <trkpt lat="51.879330016672611" lon="-4.335872009396553">
        <ele>121.73999999999999</ele>
        <time>2026-06-25T09:44:14Z</time>
      </trkpt>
      <trkpt lat="51.879330016672611" lon="-4.336137967184186">
        <ele>121.26000000000001</ele>
        <time>2026-06-25T09:44:15Z</time>
      </trkpt>
      <trkpt lat="51.879330016672611" lon="-4.336395962163806">
        <ele>121.26000000000001</ele>
        <time>2026-06-25T09:44:16Z</time>
      </trkpt>
      <trkpt lat="51.879357006400824" lon="-4.336892003193498">
        <ele>121.73999999999999</ele>
        <time>2026-06-25T09:44:18Z</time>
      </trkpt>
      <trkpt lat="51.879415009170771" lon="-4.337115967646241">
        <ele>121.26000000000001</ele>
        <time>2026-06-25T09:44:19Z</time>
      </trkpt>
      <trkpt lat="51.879469994455576" lon="-4.33732601813972">
        <ele>121.73999999999999</ele>
        <time>2026-06-25T09:44:20Z</time>
      </trkpt>
      <trkpt lat="51.879588011652231" lon="-4.337617959827185">
        <ele>121.73999999999999</ele>
        <time>2026-06-25T09:44:22Z</time>
      </trkpt>
      <trkpt lat="51.879659006372094" lon="-4.337710998952389">
        <ele>121.73999999999999</ele>
        <time>2026-06-25T09:44:23Z</time>
      </trkpt>
      <trkpt lat="51.879759002476931" lon="-4.337796997278929">
        <ele>121.73999999999999</ele>
        <time>2026-06-25T09:44:24Z</time>
      </trkpt>
      <trkpt lat="51.88023098744452" lon="-4.337999001145363">
        <ele>121.73999999999999</ele>
        <time>2026-06-25T09:44:30Z</time>
      </trkpt>
      <trkpt lat="51.880283961072564" lon="-4.338021967560053">
        <ele>121.73999999999999</ele>
        <time>2026-06-25T09:44:31Z</time>
      </trkpt>
      <trkpt lat="51.880440032109618" lon="-4.338089022785425">
        <ele>122.22</ele>
        <time>2026-06-25T09:44:38Z</time>
      </trkpt>
      <trkpt lat="51.880485964938998" lon="-4.338167980313301">
        <ele>122.22</ele>
        <time>2026-06-25T09:44:54Z</time>
      </trkpt>
      <trkpt lat="51.880470039322972" lon="-4.338199999183416">
        <ele>121.73999999999999</ele>
        <time>2026-06-25T09:44:55Z</time>
      </trkpt>
      <trkpt lat="51.88044598326087" lon="-4.33824903331697">
        <ele>121.73999999999999</ele>
        <time>2026-06-25T09:44:56Z</time>
      </trkpt>
      <trkpt lat="51.880419999361038" lon="-4.338301001116633">
        <ele>121.73999999999999</ele>
        <time>2026-06-25T09:44:57Z</time>
      </trkpt>
      <trkpt lat="51.880382029339671" lon="-4.338377024978399">
        <ele>121.73999999999999</ele>
        <time>2026-06-25T09:44:58Z</time>
      </trkpt>
      <trkpt lat="51.880354033783078" lon="-4.338405020534992">
        <ele>121.26000000000001</ele>
        <time>2026-06-25T09:44:59Z</time>
      </trkpt>
      <trkpt lat="51.880313968285918" lon="-4.338446008041501">
        <ele>121.26000000000001</ele>
        <time>2026-06-25T09:45:00Z</time>
      </trkpt>
      <trkpt lat="51.880173990502954" lon="-4.338590009137988">
        <ele>121.26000000000001</ele>
        <time>2026-06-25T09:45:03Z</time>
      </trkpt>
      <trkpt lat="51.880123028531671" lon="-4.338641976937652">
        <ele>121.73999999999999</ele>
        <time>2026-06-25T09:45:04Z</time>
      </trkpt>
      <trkpt lat="51.879947008565068" lon="-4.338823026046157">
        <ele>122.22</ele>
        <time>2026-06-25T09:45:07Z</time>
      </trkpt>
      <trkpt lat="51.879894034937024" lon="-4.338877005502582">
        <ele>122.22</ele>
        <time>2026-06-25T09:45:08Z</time>
      </trkpt>
      <trkpt lat="51.879738969728351" lon="-4.339036010205746">
        <ele>123.19</ele>
        <time>2026-06-25T09:45:11Z</time>
      </trkpt>
      <trkpt lat="51.879693036898971" lon="-4.339083032682538">
        <ele>123.67</ele>
        <time>2026-06-25T09:45:12Z</time>
      </trkpt>
      <trkpt lat="51.879648026078939" lon="-4.339129971340299">
        <ele>123.67</ele>
        <time>2026-06-25T09:45:13Z</time>
      </trkpt>
      <trkpt lat="51.87956596724689" lon="-4.339213036000729">
        <ele>124.15000000000001</ele>
        <time>2026-06-25T09:45:14Z</time>
      </trkpt>
      <trkpt lat="51.879544006660581" lon="-4.33928101323545">
        <ele>124.15000000000001</ele>
        <time>2026-06-25T09:45:15Z</time>
      </trkpt>
      <trkpt lat="51.879512993618846" lon="-4.339377991855145">
        <ele>124.15000000000001</ele>
        <time>2026-06-25T09:45:16Z</time>
      </trkpt>
      <trkpt lat="51.879478963091969" lon="-4.339483017101884">
        <ele>124.63</ele>
        <time>2026-06-25T09:45:17Z</time>
      </trkpt>
      <trkpt lat="51.879445016384125" lon="-4.339589970186353">
        <ele>124.63</ele>
        <time>2026-06-25T09:45:18Z</time>
      </trkpt>
      <trkpt lat="51.879246030002832" lon="-4.340091040357947">
        <ele>127.98999999999999</ele>
        <time>2026-06-25T09:45:23Z</time>
      </trkpt>
      <trkpt lat="51.879041008651257" lon="-4.340499993413687">
        <ele>132.80000000000001</ele>
        <time>2026-06-25T09:45:28Z</time>
      </trkpt>
      <trkpt lat="51.878987029194832" lon="-4.340608036145568">
        <ele>133.28</ele>
        <time>2026-06-25T09:45:29Z</time>
      </trkpt>
      <trkpt lat="51.878950987011194" lon="-4.34063502587378">
        <ele>134.24000000000001</ele>
        <time>2026-06-25T09:45:30Z</time>
      </trkpt>
      <trkpt lat="51.878874041140079" lon="-4.340672995895147">
        <ele>134.72</ele>
        <time>2026-06-25T09:45:31Z</time>
      </trkpt>
      <trkpt lat="51.878798017278314" lon="-4.340672995895147">
        <ele>135.68000000000001</ele>
        <time>2026-06-25T09:45:32Z</time>
      </trkpt>
      <trkpt lat="51.878369031473994" lon="-4.340672995895147">
        <ele>140.00999999999999</ele>
        <time>2026-06-25T09:45:38Z</time>
      </trkpt>
      <trkpt lat="51.878308011218905" lon="-4.340672995895147">
        <ele>140.97</ele>
        <time>2026-06-25T09:45:39Z</time>
      </trkpt>
      <trkpt lat="51.878130985423923" lon="-4.340672995895147">
        <ele>142.41</ele>
        <time>2026-06-25T09:45:42Z</time>
      </trkpt>
      <trkpt lat="51.87808002345264" lon="-4.340672995895147">
        <ele>142.88999999999999</ele>
        <time>2026-06-25T09:45:43Z</time>
      </trkpt>
      <trkpt lat="51.878023026511073" lon="-4.340672995895147">
        <ele>142.88999999999999</ele>
        <time>2026-06-25T09:45:44Z</time>
      </trkpt>
      <trkpt lat="51.877969969063997" lon="-4.34074399061501">
        <ele>143.37</ele>
        <time>2026-06-25T09:45:45Z</time>
      </trkpt>
      <trkpt lat="51.877902997657657" lon="-4.340839963406324">
        <ele>143.84999999999999</ele>
        <time>2026-06-25T09:45:46Z</time>
      </trkpt>
      <trkpt lat="51.877442998811603" lon="-4.341488974168897">
        <ele>147.22</ele>
        <time>2026-06-25T09:45:54Z</time>
      </trkpt>
      <trkpt lat="51.877393964678049" lon="-4.341558963060379">
        <ele>147.69999999999999</ele>
        <time>2026-06-25T09:45:55Z</time>
      </trkpt>
      <trkpt lat="51.877348031848669" lon="-4.34162400662899">
        <ele>148.18000000000001</ele>
        <time>2026-06-25T09:45:56Z</time>
      </trkpt>
      <trkpt lat="51.877292040735483" lon="-4.341705981642008">
        <ele>148.66</ele>
        <time>2026-06-25T09:45:57Z</time>
      </trkpt>
      <trkpt lat="51.877269996330142" lon="-4.341941010206938">
        <ele>149.13999999999999</ele>
        <time>2026-06-25T09:45:59Z</time>
      </trkpt>
      <trkpt lat="51.877164971083403" lon="-4.34323500841856">
        <ele>149.62</ele>
        <time>2026-06-25T09:46:07Z</time>
      </trkpt>
      <trkpt lat="51.87709397636354" lon="-4.345397958531976">
        <ele>147.69999999999999</ele>
        <time>2026-06-25T09:46:21Z</time>
      </trkpt>
      <trkpt lat="51.877033961936831" lon="-4.345888970419765">
        <ele>146.74000000000001</ele>
        <time>2026-06-25T09:46:25Z</time>
      </trkpt>
      <trkpt lat="51.87700898386538" lon="-4.345987038686872">
        <ele>146.25999999999999</ele>
        <time>2026-06-25T09:46:26Z</time>
      </trkpt>
      <trkpt lat="51.876880992203951" lon="-4.346293983981013">
        <ele>145.78</ele>
        <time>2026-06-25T09:46:29Z</time>
      </trkpt>
      <trkpt lat="51.876841010525823" lon="-4.346379982307553">
        <ele>145.30000000000001</ele>
        <time>2026-06-25T09:46:30Z</time>
      </trkpt>
      <trkpt lat="51.876627020537853" lon="-4.348074970766902">
        <ele>142.88999999999999</ele>
        <time>2026-06-25T09:46:41Z</time>
      </trkpt>
      <trkpt lat="51.87655501998961" lon="-4.348880974575877">
        <ele>141.44999999999999</ele>
        <time>2026-06-25T09:46:47Z</time>
      </trkpt>
      <trkpt lat="51.876544039696455" lon="-4.349007038399577">
        <ele>140.49000000000001</ele>
        <time>2026-06-25T09:46:48Z</time>
      </trkpt>
      <trkpt lat="51.87651596032083" lon="-4.349131006747484">
        <ele>140.00999999999999</ele>
        <time>2026-06-25T09:46:49Z</time>
      </trkpt>
      <trkpt lat="51.876279003918171" lon="-4.350008005276322">
        <ele>137.13</ele>
        <time>2026-06-25T09:46:57Z</time>
      </trkpt>
      <trkpt lat="51.875877007842064" lon="-4.351096982136369">
        <ele>128.94999999999999</ele>
        <time>2026-06-25T09:47:07Z</time>
      </trkpt>
      <trkpt lat="51.875579031184316" lon="-4.352172967046499">
        <ele>119.81999999999999</ele>
        <time>2026-06-25T09:47:16Z</time>
      </trkpt>
      <trkpt lat="51.875549023970962" lon="-4.352290984243155">
        <ele>118.86</ele>
        <time>2026-06-25T09:47:17Z</time>
      </trkpt>
      <trkpt lat="51.875471994280815" lon="-4.352587033063173">
        <ele>116.94</ele>
        <time>2026-06-25T09:47:25Z</time>
      </trkpt>
      <trkpt lat="51.875471994280815" lon="-4.352585021406412">
        <ele>116.94</ele>
        <time>2026-06-25T09:47:26Z</time>
      </trkpt>
      <trkpt lat="51.87548297457397" lon="-4.352652998641133">
        <ele>116.94</ele>
        <time>2026-06-25T09:47:27Z</time>
      </trkpt>
      <trkpt lat="51.875512981787324" lon="-4.35275299474597">
        <ele>116.94</ele>
        <time>2026-06-25T09:47:28Z</time>
      </trkpt>
      <trkpt lat="51.875549023970962" lon="-4.352870006114245">
        <ele>116.94</ele>
        <time>2026-06-25T09:47:29Z</time>
      </trkpt>
      <trkpt lat="51.875587999820709" lon="-4.352997997775674">
        <ele>116.94</ele>
        <time>2026-06-25T09:47:30Z</time>
      </trkpt>
      <trkpt lat="51.875628987327218" lon="-4.353135041892529">
        <ele>117.42</ele>
        <time>2026-06-25T09:47:31Z</time>
      </trkpt>
      <trkpt lat="51.875695958733559" lon="-4.353437963873148">
        <ele>118.86</ele>
        <time>2026-06-25T09:47:33Z</time>
      </trkpt>
      <trkpt lat="51.875802995637059" lon="-4.35442803427577">
        <ele>125.11</ele>
        <time>2026-06-25T09:47:39Z</time>
      </trkpt>
      <trkpt lat="51.875705011188984" lon="-4.356408007442951">
        <ele>136.63999999999999</ele>
        <time>2026-06-25T09:47:50Z</time>
      </trkpt>
      <trkpt lat="51.875656982883811" lon="-4.356606993824244">
        <ele>137.13</ele>
        <time>2026-06-25T09:47:51Z</time>
      </trkpt>
      <trkpt lat="51.874956004321575" lon="-4.359273025766015">
        <ele>144.34</ele>
        <time>2026-06-25T09:48:04Z</time>
      </trkpt>
      <trkpt lat="51.874697003513575" lon="-4.36007802374661">
        <ele>146.74000000000001</ele>
        <time>2026-06-25T09:48:08Z</time>
      </trkpt>
      <trkpt lat="51.87417296692729" lon="-4.361178986728191">
        <ele>152.50999999999999</ele>
        <time>2026-06-25T09:48:15Z</time>
      </trkpt>
      <trkpt lat="51.873815981671214" lon="-4.362409031018615">
        <ele>158.27000000000001</ele>
        <time>2026-06-25T09:48:21Z</time>
      </trkpt>
      <trkpt lat="51.873799972236156" lon="-4.362569963559508">
        <ele>159.24000000000001</ele>
        <time>2026-06-25T09:48:22Z</time>
      </trkpt>
      <trkpt lat="51.873510964214802" lon="-4.364341981709003">
        <ele>169.33000000000001</ele>
        <time>2026-06-25T09:48:32Z</time>
      </trkpt>
      <trkpt lat="51.873112991452217" lon="-4.366090027615428">
        <ele>173.16999999999999</ele>
        <time>2026-06-25T09:48:43Z</time>
      </trkpt>
      <trkpt lat="51.872535981237888" lon="-4.368036976084113">
        <ele>168.37</ele>
        <time>2026-06-25T09:48:54Z</time>
      </trkpt>
      <trkpt lat="51.872125016525388" lon="-4.369735987856984">
        <ele>163.08000000000001</ele>
        <time>2026-06-25T09:49:03Z</time>
      </trkpt>
      <trkpt lat="51.871984032914042" lon="-4.370077969506383">
        <ele>162.12</ele>
        <time>2026-06-25T09:49:05Z</time>
      </trkpt>
      <trkpt lat="51.871771970763803" lon="-4.370320960879326">
        <ele>161.16</ele>
        <time>2026-06-25T09:49:07Z</time>
      </trkpt>
      <trkpt lat="51.871555969119072" lon="-4.370566969737411">
        <ele>161.16</ele>
        <time>2026-06-25T09:49:09Z</time>
      </trkpt>
      <trkpt lat="51.871395036578178" lon="-4.370936024934053">
        <ele>160.68000000000001</ele>
        <time>2026-06-25T09:49:11Z</time>
      </trkpt>
      <trkpt lat="51.870737979188561" lon="-4.372448036447167">
        <ele>161.63999999999999</ele>
        <time>2026-06-25T09:49:20Z</time>
      </trkpt>
      <trkpt lat="51.869285982102156" lon="-4.374493975192308">
        <ele>165.96000000000001</ele>
        <time>2026-06-25T09:49:36Z</time>
      </trkpt>
      <trkpt lat="51.868829000741243" lon="-4.375272989273071">
        <ele>162.59999999999999</ele>
        <time>2026-06-25T09:49:42Z</time>
      </trkpt>
      <trkpt lat="51.868382999673486" lon="-4.376867981627584">
        <ele>154.43000000000001</ele>
        <time>2026-06-25T09:49:51Z</time>
      </trkpt>
      <trkpt lat="51.868007993325591" lon="-4.378313021734357">
        <ele>155.87</ele>
        <time>2026-06-25T09:49:59Z</time>
      </trkpt>
      <trkpt lat="51.867566015571356" lon="-4.380524000152946">
        <ele>159.24000000000001</ele>
        <time>2026-06-25T09:50:09Z</time>
      </trkpt>
      <trkpt lat="51.867348002269864" lon="-4.382454017177224">
        <ele>161.16</ele>
        <time>2026-06-25T09:50:19Z</time>
      </trkpt>
      <trkpt lat="51.86686797067523" lon="-4.385073026642203">
        <ele>151.53999999999999</ele>
        <time>2026-06-25T09:50:31Z</time>
      </trkpt>
      <trkpt lat="51.866717012599111" lon="-4.387873001396656">
        <ele>140.00999999999999</ele>
        <time>2026-06-25T09:50:44Z</time>
      </trkpt>
      <trkpt lat="51.866545015946031" lon="-4.390094038099051">
        <ele>133.28</ele>
        <time>2026-06-25T09:50:56Z</time>
      </trkpt>
      <trkpt lat="51.866515008732677" lon="-4.390252036973834">
        <ele>133.28</ele>
        <time>2026-06-25T09:50:57Z</time>
      </trkpt>
      <trkpt lat="51.866479972377419" lon="-4.390410035848618">
        <ele>132.80000000000001</ele>
        <time>2026-06-25T09:50:58Z</time>
      </trkpt>
      <trkpt lat="51.866440996527672" lon="-4.390572980046272">
        <ele>132.31999999999999</ele>
        <time>2026-06-25T09:50:59Z</time>
      </trkpt>
      <trkpt lat="51.866391040384769" lon="-4.390755034983158">
        <ele>131.84</ele>
        <time>2026-06-25T09:51:00Z</time>
      </trkpt>
      <trkpt lat="51.866324990987778" lon="-4.390883026644588">
        <ele>131.36000000000001</ele>
        <time>2026-06-25T09:51:01Z</time>
      </trkpt>
      <trkpt lat="51.865928024053574" lon="-4.391647037118673">
        <ele>129.43000000000001</ele>
        <time>2026-06-25T09:51:07Z</time>
      </trkpt>
      <trkpt lat="51.865888964384794" lon="-4.391721971333027">
        <ele>128.94999999999999</ele>
        <time>2026-06-25T09:51:08Z</time>
      </trkpt>
      <trkpt lat="51.865827022120357" lon="-4.391842000186443">
        <ele>128.47</ele>
        <time>2026-06-25T09:51:10Z</time>
      </trkpt>
      <trkpt lat="51.865798020735383" lon="-4.391897991299629">
        <ele>127.98999999999999</ele>
        <time>2026-06-25T09:51:11Z</time>
      </trkpt>
      <trkpt lat="51.865763990208507" lon="-4.391964040696621">
        <ele>127.51000000000001</ele>
        <time>2026-06-25T09:51:12Z</time>
      </trkpt>
      <trkpt lat="51.865364005789161" lon="-4.392732996493578">
        <ele>126.55</ele>
        <time>2026-06-25T09:51:19Z</time>
      </trkpt>
      <trkpt lat="51.864935019984841" lon="-4.393560960888863">
        <ele>125.11</ele>
        <time>2026-06-25T09:51:25Z</time>
      </trkpt>
      <trkpt lat="51.864880034700036" lon="-4.393738992512226">
        <ele>124.63</ele>
        <time>2026-06-25T09:51:26Z</time>
      </trkpt>
      <trkpt lat="51.864829994738102" lon="-4.393906965851784">
        <ele>124.15000000000001</ele>
        <time>2026-06-25T09:51:27Z</time>
      </trkpt>
      <trkpt lat="51.86476000584662" lon="-4.394246013835073">
        <ele>123.67</ele>
        <time>2026-06-25T09:51:29Z</time>
      </trkpt>
      <trkpt lat="51.864731004461646" lon="-4.394415998831391">
        <ele>123.67</ele>
        <time>2026-06-25T09:51:30Z</time>
      </trkpt>
      <trkpt lat="51.864556996151805" lon="-4.395842012017965">
        <ele>127.98999999999999</ele>
        <time>2026-06-25T09:51:37Z</time>
      </trkpt>
      <trkpt lat="51.864537969231606" lon="-4.39600202254951">
        <ele>130.40000000000001</ele>
        <time>2026-06-25T09:51:39Z</time>
      </trkpt>
      <trkpt lat="51.864347029477358" lon="-4.397675972431898">
        <ele>138.56999999999999</ele>
        <time>2026-06-25T09:51:47Z</time>
      </trkpt>
      <trkpt lat="51.8643310200423" lon="-4.39791502431035">
        <ele>139.53</ele>
        <time>2026-06-25T09:51:49Z</time>
      </trkpt>
      <trkpt lat="51.864392040297389" lon="-4.400209989398718">
        <ele>138.56999999999999</ele>
        <time>2026-06-25T09:52:00Z</time>
      </trkpt>
      <trkpt lat="51.86469697393477" lon="-4.401714960113168">
        <ele>135.68000000000001</ele>
        <time>2026-06-25T09:52:07Z</time>
      </trkpt>
      <trkpt lat="51.864872993901372" lon="-4.402230028063059">
        <ele>136.63999999999999</ele>
        <time>2026-06-25T09:52:11Z</time>
      </trkpt>
      <trkpt lat="51.865002997219563" lon="-4.402511995285749">
        <ele>137.61000000000001</ele>
        <time>2026-06-25T09:52:13Z</time>
      </trkpt>
      <trkpt lat="51.865058988332748" lon="-4.402634035795927">
        <ele>137.61000000000001</ele>
        <time>2026-06-25T09:52:14Z</time>
      </trkpt>
      <trkpt lat="51.865090001374483" lon="-4.402776025235653">
        <ele>138.56999999999999</ele>
        <time>2026-06-25T09:52:15Z</time>
      </trkpt>
      <trkpt lat="51.865098970010877" lon="-4.403104009106755">
        <ele>139.53</ele>
        <time>2026-06-25T09:52:17Z</time>
      </trkpt>
      <trkpt lat="51.865001991391182" lon="-4.404692966490984">
        <ele>136.16</ele>
        <time>2026-06-25T09:52:25Z</time>
      </trkpt>
      <trkpt lat="51.864848015829921" lon="-4.405557978898287">
        <ele>131.84</ele>
        <time>2026-06-25T09:52:31Z</time>
      </trkpt>
      <trkpt lat="51.86482303775847" lon="-4.405723018571734">
        <ele>129.91999999999999</ele>
        <time>2026-06-25T09:52:37Z</time>
      </trkpt>
      <trkpt lat="51.86482303775847" lon="-4.405723018571734">
        <ele>129.43000000000001</ele>
        <time>2026-06-25T09:53:23Z</time>
      </trkpt>
      <trkpt lat="51.86482303775847" lon="-4.405722012743354">
        <ele>128.47</ele>
        <time>2026-06-25T09:53:52Z</time>
      </trkpt>
      <trkpt lat="51.864775009453297" lon="-4.406491974368691">
        <ele>125.11</ele>
        <time>2026-06-25T09:53:58Z</time>
      </trkpt>
      <trkpt lat="51.864781966432929" lon="-4.408775037154555">
        <ele>115.98</ele>
        <time>2026-06-25T09:54:07Z</time>
      </trkpt>
      <trkpt lat="51.864777021110058" lon="-4.40898098051548">
        <ele>113.56999999999999</ele>
        <time>2026-06-25T09:54:09Z</time>
      </trkpt>
      <trkpt lat="51.864770986139774" lon="-4.409183990210295">
        <ele>112.61</ele>
        <time>2026-06-25T09:54:10Z</time>
      </trkpt>
      <trkpt lat="51.864766040816903" lon="-4.409382976591587">
        <ele>111.17</ele>
        <time>2026-06-25T09:54:11Z</time>
      </trkpt>
      <trkpt lat="51.864719018340111" lon="-4.411273011937738">
        <ele>98.670000000000002</ele>
        <time>2026-06-25T09:54:21Z</time>
      </trkpt>
      <trkpt lat="51.864723041653633" lon="-4.4114959705621">
        <ele>96.75</ele>
        <time>2026-06-25T09:54:26Z</time>
      </trkpt>
      <trkpt lat="51.864723041653633" lon="-4.4114959705621">
        <ele>96.75</ele>
        <time>2026-06-25T09:54:58Z</time>
      </trkpt>
      <trkpt lat="51.864723041653633" lon="-4.411512985825539">
        <ele>95.790000000000006</ele>
        <time>2026-06-25T09:55:02Z</time>
      </trkpt>
      <trkpt lat="51.864738967269659" lon="-4.412312032654882">
        <ele>92.900000000000006</ele>
        <time>2026-06-25T09:55:08Z</time>
      </trkpt>
      <trkpt lat="51.864746008068323" lon="-4.412659965455532">
        <ele>90.980000000000004</ele>
        <time>2026-06-25T09:55:10Z</time>
      </trkpt>
      <trkpt lat="51.864759000018239" lon="-4.413378965109587">
        <ele>86.659999999999997</ele>
        <time>2026-06-25T09:55:15Z</time>
      </trkpt>
      <trkpt lat="51.864742990583181" lon="-4.413473010063171">
        <ele>85.689999999999998</ele>
        <time>2026-06-25T09:55:16Z</time>
      </trkpt>
      <trkpt lat="51.864702003076673" lon="-4.413559008389711">
        <ele>84.730000000000004</ele>
        <time>2026-06-25T09:55:17Z</time>
      </trkpt>
      <trkpt lat="51.864123987033963" lon="-4.414776982739568">
        <ele>80.890000000000001</ele>
        <time>2026-06-25T09:55:26Z</time>
      </trkpt>
      <trkpt lat="51.863614032045007" lon="-4.415852967649698">
        <ele>71.269999999999996</ele>
        <time>2026-06-25T09:55:36Z</time>
      </trkpt>
      <trkpt lat="51.863597016781569" lon="-4.415937960147858">
        <ele>70.310000000000002</ele>
        <time>2026-06-25T09:55:37Z</time>
      </trkpt>
      <trkpt lat="51.863634986802936" lon="-4.415967967361212">
        <ele>69.349999999999994</ele>
        <time>2026-06-25T09:55:38Z</time>
      </trkpt>
      <trkpt lat="51.863683015108109" lon="-4.416007027029991">
        <ele>68.390000000000001</ele>
        <time>2026-06-25T09:55:39Z</time>
      </trkpt>
      <trkpt lat="51.863746969029307" lon="-4.416020018979907">
        <ele>67.430000000000007</ele>
        <time>2026-06-25T09:55:40Z</time>
      </trkpt>
      <trkpt lat="51.863832967355847" lon="-4.416035022586584">
        <ele>66.950000000000003</ele>
        <time>2026-06-25T09:55:41Z</time>
      </trkpt>
      <trkpt lat="51.863926006481051" lon="-4.416050026193261">
        <ele>65.510000000000005</ele>
        <time>2026-06-25T09:55:42Z</time>
      </trkpt>
      <trkpt lat="51.864018039777875" lon="-4.416028987616301">
        <ele>64.549999999999997</ele>
        <time>2026-06-25T09:55:43Z</time>
      </trkpt>
      <trkpt lat="51.864208979532123" lon="-4.415966039523482">
        <ele>63.100000000000001</ele>
        <time>2026-06-25T09:55:45Z</time>
      </trkpt>
      <trkpt lat="51.865065023303032" lon="-4.415498999878764">
        <ele>55.890000000000001</ele>
        <time>2026-06-25T09:55:53Z</time>
      </trkpt>
      <trkpt lat="51.865501971915364" lon="-4.415298001840711">
        <ele>52.530000000000001</ele>
        <time>2026-06-25T09:55:57Z</time>
      </trkpt>
      <trkpt lat="51.865586964413524" lon="-4.415259025990963">
        <ele>52.049999999999997</ele>
        <time>2026-06-25T09:55:58Z</time>
      </trkpt>
      <trkpt lat="51.865667011588812" lon="-4.415221977978945">
        <ele>51.090000000000003</ele>
        <time>2026-06-25T09:55:59Z</time>
      </trkpt>
      <trkpt lat="51.865740017965436" lon="-4.415204962715507">
        <ele>50.130000000000003</ele>
        <time>2026-06-25T09:56:00Z</time>
      </trkpt>
      <trkpt lat="51.865784022957087" lon="-4.415237987414002">
        <ele>49.159999999999997</ele>
        <time>2026-06-25T09:56:01Z</time>
      </trkpt>
      <trkpt lat="51.865804977715015" lon="-4.415303030982614">
        <ele>48.68</ele>
        <time>2026-06-25T09:56:02Z</time>
      </trkpt>
      <trkpt lat="51.86579299159348" lon="-4.415387017652392">
        <ele>47.240000000000002</ele>
        <time>2026-06-25T09:56:03Z</time>
      </trkpt>
      <trkpt lat="51.865776982158422" lon="-4.415492964908481">
        <ele>46.280000000000001</ele>
        <time>2026-06-25T09:56:04Z</time>
      </trkpt>
      <trkpt lat="51.865758039057255" lon="-4.415621962398291">
        <ele>44.840000000000003</ele>
        <time>2026-06-25T09:56:05Z</time>
      </trkpt>
      <trkpt lat="51.865737000480294" lon="-4.415768980979919">
        <ele>44.359999999999999</ele>
        <time>2026-06-25T09:56:06Z</time>
      </trkpt>
      <trkpt lat="51.865681009367108" lon="-4.416455961763859">
        <ele>41.469999999999999</ele>
        <time>2026-06-25T09:56:10Z</time>
      </trkpt>
      <trkpt lat="51.865668017417192" lon="-4.416639022529125">
        <ele>41.469999999999999</ele>
        <time>2026-06-25T09:56:11Z</time>
      </trkpt>
      <trkpt lat="51.865594005212188" lon="-4.416988966986537">
        <ele>40.990000000000002</ele>
        <time>2026-06-25T09:56:13Z</time>
      </trkpt>
      <trkpt lat="51.865556035190821" lon="-4.417142020538449">
        <ele>40.990000000000002</ele>
        <time>2026-06-25T09:56:14Z</time>
      </trkpt>
      <trkpt lat="51.865523010492325" lon="-4.41727202385664">
        <ele>40.990000000000002</ele>
        <time>2026-06-25T09:56:15Z</time>
      </trkpt>
      <trkpt lat="51.865496020764112" lon="-4.417379982769489">
        <ele>40.990000000000002</ele>
        <time>2026-06-25T09:56:16Z</time>
      </trkpt>
      <trkpt lat="51.86547196470201" lon="-4.417477967217565">
        <ele>40.509999999999998</ele>
        <time>2026-06-25T09:56:17Z</time>
      </trkpt>
      <trkpt lat="51.865446986630559" lon="-4.417577041313052">
        <ele>40.509999999999998</ele>
        <time>2026-06-25T09:56:18Z</time>
      </trkpt>
      <trkpt lat="51.865398036316037" lon="-4.417674019932747">
        <ele>40.509999999999998</ele>
        <time>2026-06-25T09:56:19Z</time>
      </trkpt>
      <trkpt lat="51.865347996354103" lon="-4.417775021865964">
        <ele>40.509999999999998</ele>
        <time>2026-06-25T09:56:20Z</time>
      </trkpt>
      <trkpt lat="51.865298040211201" lon="-4.41787401214242">
        <ele>40.030000000000001</ele>
        <time>2026-06-25T09:56:21Z</time>
      </trkpt>
      <trkpt lat="51.865293011069298" lon="-4.418006027117372">
        <ele>40.030000000000001</ele>
        <time>2026-06-25T09:56:22Z</time>
      </trkpt>
      <trkpt lat="51.865278007462621" lon="-4.418435012921691">
        <ele>40.030000000000001</ele>
        <time>2026-06-25T09:56:26Z</time>
      </trkpt>
      <trkpt lat="51.865293011069298" lon="-4.41853903234005">
        <ele>40.030000000000001</ele>
        <time>2026-06-25T09:56:27Z</time>
      </trkpt>
      <trkpt lat="51.86572602018714" lon="-4.41952901892364">
        <ele>42.920000000000002</ele>
        <time>2026-06-25T09:56:34Z</time>
      </trkpt>
      <trkpt lat="51.865818975493312" lon="-4.419664973393083">
        <ele>43.399999999999999</ele>
        <time>2026-06-25T09:56:36Z</time>
      </trkpt>
      <trkpt lat="51.866839975118637" lon="-4.421287961304188">
        <ele>43.880000000000003</ele>
        <time>2026-06-25T09:56:48Z</time>
      </trkpt>
      <trkpt lat="51.867068968713284" lon="-4.42167503759265">
        <ele>43.880000000000003</ele>
        <time>2026-06-25T09:56:51Z</time>
      </trkpt>
      <trkpt lat="51.867140969261527" lon="-4.421798000112176">
        <ele>43.880000000000003</ele>
        <time>2026-06-25T09:56:52Z</time>
      </trkpt>
      <trkpt lat="51.86721196398139" lon="-4.421918028965592">
        <ele>43.880000000000003</ele>
        <time>2026-06-25T09:56:53Z</time>
      </trkpt>
      <trkpt lat="51.867270972579718" lon="-4.422019030898809">
        <ele>43.880000000000003</ele>
        <time>2026-06-25T09:56:54Z</time>
      </trkpt>
      <trkpt lat="51.867292011156678" lon="-4.422135036438704">
        <ele>43.880000000000003</ele>
        <time>2026-06-25T09:56:55Z</time>
      </trkpt>
      <trkpt lat="51.867311960086226" lon="-4.422247018665075">
        <ele>43.880000000000003</ele>
        <time>2026-06-25T09:56:56Z</time>
      </trkpt>
      <trkpt lat="51.86744699254632" lon="-4.422995019704104">
        <ele>43.880000000000003</ele>
        <time>2026-06-25T09:57:01Z</time>
      </trkpt>
      <trkpt lat="51.867906991392374" lon="-4.424371998757124">
        <ele>44.359999999999999</ele>
        <time>2026-06-25T09:57:09Z</time>
      </trkpt>
      <trkpt lat="51.868001958355308" lon="-4.424595041200519">
        <ele>44.359999999999999</ele>
        <time>2026-06-25T09:57:12Z</time>
      </trkpt>
      <trkpt lat="51.868045041337609" lon="-4.424696965143085">
        <ele>44.359999999999999</ele>
        <time>2026-06-25T09:57:13Z</time>
      </trkpt>
      <trkpt lat="51.868067001923919" lon="-4.42481598816812">
        <ele>44.359999999999999</ele>
        <time>2026-06-25T09:57:14Z</time>
      </trkpt>
      <trkpt lat="51.868077982217073" lon="-4.425209015607834">
        <ele>42.920000000000002</ele>
        <time>2026-06-25T09:57:17Z</time>
      </trkpt>
      <trkpt lat="51.868082005530596" lon="-4.425333989784122">
        <ele>41.950000000000003</ele>
        <time>2026-06-25T09:57:18Z</time>
      </trkpt>
      <trkpt lat="51.868016961961985" lon="-4.425535993650556">
        <ele>40.990000000000002</ele>
        <time>2026-06-25T09:57:20Z</time>
      </trkpt>
      <trkpt lat="51.867943033576012" lon="-4.425579998642206">
        <ele>40.990000000000002</ele>
        <time>2026-06-25T09:57:21Z</time>
      </trkpt>
      <trkpt lat="51.867857035249472" lon="-4.425630960613489">
        <ele>40.509999999999998</ele>
        <time>2026-06-25T09:57:22Z</time>
      </trkpt>
      <trkpt lat="51.867771036922932" lon="-4.425682006403804">
        <ele>40.030000000000001</ele>
        <time>2026-06-25T09:57:23Z</time>
      </trkpt>
      <trkpt lat="51.867685038596392" lon="-4.425732968375087">
        <ele>40.030000000000001</ele>
        <time>2026-06-25T09:57:24Z</time>
      </trkpt>
      <trkpt lat="51.867601973935962" lon="-4.42578200250864">
        <ele>40.030000000000001</ele>
        <time>2026-06-25T09:57:25Z</time>
      </trkpt>
      <trkpt lat="51.867521004751325" lon="-4.425830030813813">
        <ele>40.030000000000001</ele>
        <time>2026-06-25T09:57:26Z</time>
      </trkpt>
      <trkpt lat="51.867447998374701" lon="-4.425906976684928">
        <ele>40.990000000000002</ele>
        <time>2026-06-25T09:57:27Z</time>
      </trkpt>
      <trkpt lat="51.867382032796741" lon="-4.425984006375074">
        <ele>41.469999999999999</ele>
        <time>2026-06-25T09:57:28Z</time>
      </trkpt>
      <trkpt lat="51.867264015600085" lon="-4.426202019676566">
        <ele>42.920000000000002</ele>
        <time>2026-06-25T09:57:31Z</time>
      </trkpt>
      <trkpt lat="51.86723199672997" lon="-4.426263961941004">
        <ele>43.399999999999999</ele>
        <time>2026-06-25T09:57:32Z</time>
      </trkpt>
      <trkpt lat="51.867161002010107" lon="-4.4265750143677">
        <ele>43.399999999999999</ele>
        <time>2026-06-25T09:57:35Z</time>
      </trkpt>
      <trkpt lat="51.867144992575049" lon="-4.426664030179381">
        <ele>43.399999999999999</ele>
        <time>2026-06-25T09:57:36Z</time>
      </trkpt>
      <trkpt lat="51.86712303198874" lon="-4.426806019619107">
        <ele>43.399999999999999</ele>
        <time>2026-06-25T09:57:37Z</time>
      </trkpt>
      <trkpt lat="51.867156978696585" lon="-4.426839966326952">
        <ele>43.399999999999999</ele>
        <time>2026-06-25T09:57:38Z</time>
      </trkpt>
      <trkpt lat="51.867204001173377" lon="-4.426885982975364">
        <ele>43.399999999999999</ele>
        <time>2026-06-25T09:57:39Z</time>
      </trkpt>
      <trkpt lat="51.867259992286563" lon="-4.42694297991693">
        <ele>43.880000000000003</ele>
        <time>2026-06-25T09:57:40Z</time>
      </trkpt>
      <trkpt lat="51.867324030026793" lon="-4.427007017657161">
        <ele>44.840000000000003</ele>
        <time>2026-06-25T09:57:41Z</time>
      </trkpt>
      <trkpt lat="51.867379015311599" lon="-4.427080024033785">
        <ele>45.799999999999997</ele>
        <time>2026-06-25T09:57:42Z</time>
      </trkpt>
      <trkpt lat="51.867481023073196" lon="-4.427266018465161">
        <ele>47.719999999999999</ele>
        <time>2026-06-25T09:57:44Z</time>
      </trkpt>
      <trkpt lat="51.868056021630764" lon="-4.428502013906837">
        <ele>61.18</ele>
        <time>2026-06-25T09:57:54Z</time>
      </trkpt>
      <trkpt lat="51.868850961327553" lon="-4.429776985198259">
        <ele>79.930000000000007</ele>
        <time>2026-06-25T09:58:04Z</time>
      </trkpt>
      <trkpt lat="51.868910975754261" lon="-4.429875975474715">
        <ele>81.370000000000005</ele>
        <time>2026-06-25T09:58:05Z</time>
      </trkpt>
      <trkpt lat="51.868955986574292" lon="-4.429997010156512">
        <ele>83.290000000000006</ele>
        <time>2026-06-25T09:58:06Z</time>
      </trkpt>
      <trkpt lat="51.869000997394323" lon="-4.430119972676039">
        <ele>84.25</ele>
        <time>2026-06-25T09:58:07Z</time>
      </trkpt>
      <trkpt lat="51.869048019871116" lon="-4.430247964337468">
        <ele>85.689999999999998</ele>
        <time>2026-06-25T09:58:08Z</time>
      </trkpt>
      <trkpt lat="51.869066040962934" lon="-4.430405963212252">
        <ele>87.620000000000005</ele>
        <time>2026-06-25T09:58:09Z</time>
      </trkpt>
      <trkpt lat="51.869082972407341" lon="-4.430580977350473">
        <ele>89.060000000000002</ele>
        <time>2026-06-25T09:58:10Z</time>
      </trkpt>
      <trkpt lat="51.869090013206005" lon="-4.430774012580514">
        <ele>90.980000000000004</ele>
        <time>2026-06-25T09:58:11Z</time>
      </trkpt>
      <trkpt lat="51.869074003770947" lon="-4.430983979254961">
        <ele>92.900000000000006</ele>
        <time>2026-06-25T09:58:12Z</time>
      </trkpt>
      <trkpt lat="51.868936037644744" lon="-4.433014998212457">
        <ele>105.88</ele>
        <time>2026-06-25T09:58:22Z</time>
      </trkpt>
      <trkpt lat="51.868969984352589" lon="-4.433221025392413">
        <ele>106.84</ele>
        <time>2026-06-25T09:58:23Z</time>
      </trkpt>
      <trkpt lat="51.869263015687466" lon="-4.43497896194458">
        <ele>115.98</ele>
        <time>2026-06-25T09:58:31Z</time>
      </trkpt>
      <trkpt lat="51.869406010955572" lon="-4.436413021758199">
        <ele>123.67</ele>
        <time>2026-06-25T09:58:38Z</time>
      </trkpt>
      <trkpt lat="51.869426965713501" lon="-4.436618965119124">
        <ele>125.11</ele>
        <time>2026-06-25T09:58:39Z</time>
      </trkpt>
      <trkpt lat="51.869467031210661" lon="-4.436819963157177">
        <ele>126.55</ele>
        <time>2026-06-25T09:58:40Z</time>
      </trkpt>
      <trkpt lat="51.86951195821166" lon="-4.437007969245315">
        <ele>127.98999999999999</ele>
        <time>2026-06-25T09:58:41Z</time>
      </trkpt>
      <trkpt lat="51.869557974860072" lon="-4.437184995040298">
        <ele>128.94999999999999</ele>
        <time>2026-06-25T09:58:42Z</time>
      </trkpt>
      <trkpt lat="51.869601979851723" lon="-4.437353974208236">
        <ele>129.91999999999999</ele>
        <time>2026-06-25T09:58:43Z</time>
      </trkpt>
      <trkpt lat="51.869652019813657" lon="-4.437521025538445">
        <ele>130.88</ele>
        <time>2026-06-25T09:58:44Z</time>
      </trkpt>
      <trkpt lat="51.870020991191268" lon="-4.438450997695327">
        <ele>132.31999999999999</ele>
        <time>2026-06-25T09:58:50Z</time>
      </trkpt>
      <trkpt lat="51.87004798091948" lon="-4.438604973256588">
        <ele>131.36000000000001</ele>
        <time>2026-06-25T09:58:51Z</time>
      </trkpt>
      <trkpt lat="51.870069019496441" lon="-4.438876966014504">
        <ele>130.40000000000001</ele>
        <time>2026-06-25T09:58:53Z</time>
      </trkpt>
      <trkpt lat="51.870078993961215" lon="-4.439002024009824">
        <ele>129.43000000000001</ele>
        <time>2026-06-25T09:58:54Z</time>
      </trkpt>
      <trkpt lat="51.870121993124485" lon="-4.439106965437532">
        <ele>128.94999999999999</ele>
        <time>2026-06-25T09:58:55Z</time>
      </trkpt>
      <trkpt lat="51.870629014447331" lon="-4.439995028078556">
        <ele>127.51000000000001</ele>
        <time>2026-06-25T09:59:03Z</time>
      </trkpt>
      <trkpt lat="51.871882025152445" lon="-4.4416160043329">
        <ele>134.72</ele>
        <time>2026-06-25T09:59:17Z</time>
      </trkpt>
      <trkpt lat="51.872944012284279" lon="-4.442960964515805">
        <ele>136.63999999999999</ele>
        <time>2026-06-25T09:59:28Z</time>
      </trkpt>
      <trkpt lat="51.873976998031139" lon="-4.444135017693043">
        <ele>134.24000000000001</ele>
        <time>2026-06-25T09:59:38Z</time>
      </trkpt>
      <trkpt lat="51.875013001263142" lon="-4.445649962872267">
        <ele>139.05000000000001</ele>
        <time>2026-06-25T09:59:49Z</time>
      </trkpt>
      <trkpt lat="51.875707022845745" lon="-4.446439035236836">
        <ele>144.34</ele>
        <time>2026-06-25T09:59:57Z</time>
      </trkpt>
      <trkpt lat="51.875959988683462" lon="-4.446678003296256">
        <ele>145.30000000000001</ele>
        <time>2026-06-25T10:00:01Z</time>
      </trkpt>
      <trkpt lat="51.876026038080454" lon="-4.446863997727633">
        <ele>145.30000000000001</ele>
        <time>2026-06-25T10:00:03Z</time>
      </trkpt>
      <trkpt lat="51.876008016988635" lon="-4.446953013539314">
        <ele>145.30000000000001</ele>
        <time>2026-06-25T10:00:04Z</time>
      </trkpt>
      <trkpt lat="51.875773994252086" lon="-4.448150033131242">
        <ele>140.49000000000001</ele>
        <time>2026-06-25T10:00:11Z</time>
      </trkpt>
      <trkpt lat="51.875595962628722" lon="-4.450027998536825">
        <ele>124.15000000000001</ele>
        <time>2026-06-25T10:00:20Z</time>
      </trkpt>
      <trkpt lat="51.87558900564909" lon="-4.450783962383866">
        <ele>118.38</ele>
        <time>2026-06-25T10:00:24Z</time>
      </trkpt>
      <trkpt lat="51.875578025355935" lon="-4.451874028891325">
        <ele>110.69</ele>
        <time>2026-06-25T10:00:30Z</time>
      </trkpt>
      <trkpt lat="51.875576013699174" lon="-4.452039990574122">
        <ele>109.25</ele>
        <time>2026-06-25T10:00:31Z</time>
      </trkpt>
      <trkpt lat="51.875574002042413" lon="-4.45220896974206">
        <ele>108.29000000000001</ele>
        <time>2026-06-25T10:00:32Z</time>
      </trkpt>
      <trkpt lat="51.875572996214032" lon="-4.45238197222352">
        <ele>107.31999999999999</ele>
        <time>2026-06-25T10:00:33Z</time>
      </trkpt>
      <trkpt lat="51.875570984557271" lon="-4.452552041038871">
        <ele>105.88</ele>
        <time>2026-06-25T10:00:35Z</time>
      </trkpt>
      <trkpt lat="51.875552963465452" lon="-4.45422800257802">
        <ele>106.84</ele>
        <time>2026-06-25T10:00:45Z</time>
      </trkpt>
      <trkpt lat="51.875361017882824" lon="-4.455903964117169">
        <ele>109.73</ele>
        <time>2026-06-25T10:00:54Z</time>
      </trkpt>
      <trkpt lat="51.875347020104527" lon="-4.456963017582893">
        <ele>110.20999999999999</ele>
        <time>2026-06-25T10:00:59Z</time>
      </trkpt>
      <trkpt lat="51.875206958502531" lon="-4.458392970263958">
        <ele>107.31999999999999</ele>
        <time>2026-06-25T10:01:08Z</time>
      </trkpt>
      <trkpt lat="51.875126995146275" lon="-4.459186987951398">
        <ele>103.95999999999999</ele>
        <time>2026-06-25T10:01:15Z</time>
      </trkpt>
      <trkpt lat="51.8751170206815" lon="-4.459284972399473">
        <ele>103.48</ele>
        <time>2026-06-25T10:01:16Z</time>
      </trkpt>
      <trkpt lat="51.875079972669482" lon="-4.459418999031186">
        <ele>103</ele>
        <time>2026-06-25T10:01:17Z</time>
      </trkpt>
      <trkpt lat="51.875033034011722" lon="-4.459418999031186">
        <ele>102.52</ele>
        <time>2026-06-25T10:01:18Z</time>
      </trkpt>
      <trkpt lat="51.874972013756633" lon="-4.459418999031186">
        <ele>102.04000000000001</ele>
        <time>2026-06-25T10:01:19Z</time>
      </trkpt>
      <trkpt lat="51.874900013208389" lon="-4.459431990981102">
        <ele>101.08</ele>
        <time>2026-06-25T10:01:20Z</time>
      </trkpt>
      <trkpt lat="51.874846033751965" lon="-4.459504997357726">
        <ele>100.59999999999999</ele>
        <time>2026-06-25T10:01:21Z</time>
      </trkpt>
      <trkpt lat="51.874834969639778" lon="-4.459615973755717">
        <ele>99.629999999999995</ele>
        <time>2026-06-25T10:01:22Z</time>
      </trkpt>
      <trkpt lat="51.874821977689862" lon="-4.459744971245527">
        <ele>98.670000000000002</ele>
        <time>2026-06-25T10:01:23Z</time>
      </trkpt>
      <trkpt lat="51.874704966321588" lon="-4.460896980017424">
        <ele>93.870000000000005</ele>
        <time>2026-06-25T10:01:30Z</time>
      </trkpt>
      <trkpt lat="51.874353010207415" lon="-4.462692970409989">
        <ele>85.689999999999998</ele>
        <time>2026-06-25T10:01:41Z</time>
      </trkpt>
      <trkpt lat="51.874230969697237" lon="-4.463157998397946">
        <ele>84.25</ele>
        <time>2026-06-25T10:01:44Z</time>
      </trkpt>
      <trkpt lat="51.874190988019109" lon="-4.463297976180911">
        <ele>83.769999999999996</ele>
        <time>2026-06-25T10:01:45Z</time>
      </trkpt>
      <trkpt lat="51.874159974977374" lon="-4.463425967842341">
        <ele>82.810000000000002</ele>
        <time>2026-06-25T10:01:46Z</time>
      </trkpt>
      <trkpt lat="51.874165004119277" lon="-4.463564017787576">
        <ele>82.329999999999998</ele>
        <time>2026-06-25T10:01:47Z</time>
      </trkpt>
      <trkpt lat="51.874171039089561" lon="-4.46370399557054">
        <ele>81.370000000000005</ele>
        <time>2026-06-25T10:01:48Z</time>
      </trkpt>
      <trkpt lat="51.874175984412432" lon="-4.463838022202253">
        <ele>80.890000000000001</ele>
        <time>2026-06-25T10:01:49Z</time>
      </trkpt>
      <trkpt lat="51.874199034646153" lon="-4.464381001889706">
        <ele>78.969999999999999</ele>
        <time>2026-06-25T10:01:55Z</time>
      </trkpt>
      <trkpt lat="51.874171039089561" lon="-4.46447697468102">
        <ele>78.480000000000004</ele>
        <time>2026-06-25T10:01:59Z</time>
      </trkpt>
      <trkpt lat="51.874125022441149" lon="-4.464500024914742">
        <ele>78.480000000000004</ele>
        <time>2026-06-25T10:02:00Z</time>
      </trkpt>
      <trkpt lat="51.874057967215776" lon="-4.464533971622586">
        <ele>78</ele>
        <time>2026-06-25T10:02:01Z</time>
      </trkpt>
      <trkpt lat="51.874057967215776" lon="-4.464533971622586">
        <ele>77.519999999999996</ele>
        <time>2026-06-25T10:02:02Z</time>
      </trkpt>
      <trkpt lat="51.873910026624799" lon="-4.464607983827591">
        <ele>77.519999999999996</ele>
        <time>2026-06-25T10:02:03Z</time>
      </trkpt>
      <trkpt lat="51.873815981671214" lon="-4.464655006304383">
        <ele>77.519999999999996</ele>
        <time>2026-06-25T10:02:04Z</time>
      </trkpt>
      <trkpt lat="51.873741969466209" lon="-4.464661041274667">
        <ele>77.519999999999996</ele>
        <time>2026-06-25T10:02:05Z</time>
      </trkpt>
      <trkpt lat="51.873023975640535" lon="-4.464717032387853">
        <ele>74.640000000000001</ele>
        <time>2026-06-25T10:02:13Z</time>
      </trkpt>
      <trkpt lat="51.872779978439212" lon="-4.46473597548902">
        <ele>72.239999999999995</ele>
        <time>2026-06-25T10:02:16Z</time>
      </trkpt>
      <trkpt lat="51.872705966234207" lon="-4.4647560082376">
        <ele>71.760000000000005</ele>
        <time>2026-06-25T10:02:17Z</time>
      </trkpt>
      <trkpt lat="51.872633965685964" lon="-4.464828008785844">
        <ele>71.269999999999996</ele>
        <time>2026-06-25T10:02:18Z</time>
      </trkpt>
      <trkpt lat="51.872560037299991" lon="-4.464911995455623">
        <ele>70.790000000000006</ele>
        <time>2026-06-25T10:02:19Z</time>
      </trkpt>
      <trkpt lat="51.872560037299991" lon="-4.464911995455623">
        <ele>70.310000000000002</ele>
        <time>2026-06-25T10:02:20Z</time>
      </trkpt>
      <trkpt lat="51.872406983748078" lon="-4.465244002640247">
        <ele>69.349999999999994</ele>
        <time>2026-06-25T10:02:22Z</time>
      </trkpt>
      <trkpt lat="51.872373959049582" lon="-4.465370988473296">
        <ele>68.870000000000005</ele>
        <time>2026-06-25T10:02:23Z</time>
      </trkpt>
      <trkpt lat="51.871874984353781" lon="-4.466559961438179">
        <ele>64.549999999999997</ele>
        <time>2026-06-25T10:02:34Z</time>
      </trkpt>
      <trkpt lat="51.871771970763803" lon="-4.466705974191427">
        <ele>63.100000000000001</ele>
        <time>2026-06-25T10:02:36Z</time>
      </trkpt>
      <trkpt lat="51.8717220146209" lon="-4.466740004718304">
        <ele>62.140000000000001</ele>
        <time>2026-06-25T10:02:37Z</time>
      </trkpt>
      <trkpt lat="51.871691001579165" lon="-4.466692982241511">
        <ele>61.18</ele>
        <time>2026-06-25T10:02:38Z</time>
      </trkpt>
      <trkpt lat="51.871669963002205" lon="-4.466610001400113">
        <ele>60.700000000000003</ele>
        <time>2026-06-25T10:02:39Z</time>
      </trkpt>
      <trkpt lat="51.871643979102373" lon="-4.466504976153374">
        <ele>60.219999999999999</ele>
        <time>2026-06-25T10:02:40Z</time>
      </trkpt>
      <trkpt lat="51.871580025181174" lon="-4.466248992830515">
        <ele>58.780000000000001</ele>
        <time>2026-06-25T10:02:42Z</time>
      </trkpt>
      <trkpt lat="51.871536020189524" lon="-4.466145979240537">
        <ele>58.299999999999997</ele>
        <time>2026-06-25T10:02:43Z</time>
      </trkpt>
      <trkpt lat="51.871454967185855" lon="-4.466050006449223">
        <ele>57.340000000000003</ele>
        <time>2026-06-25T10:02:44Z</time>
      </trkpt>
      <trkpt lat="51.871395958587527" lon="-4.466050006449223">
        <ele>56.859999999999999</ele>
        <time>2026-06-25T10:02:45Z</time>
      </trkpt>
      <trkpt lat="51.871322030201554" lon="-4.466159977018833">
        <ele>56.369999999999997</ele>
        <time>2026-06-25T10:02:46Z</time>
      </trkpt>
      <trkpt lat="51.871261009946465" lon="-4.466257961466909">
        <ele>55.890000000000001</ele>
        <time>2026-06-25T10:02:47Z</time>
      </trkpt>
      <trkpt lat="51.871191021054983" lon="-4.466369021683931">
        <ele>55.409999999999997</ele>
        <time>2026-06-25T10:02:48Z</time>
      </trkpt>
      <trkpt lat="51.871031010523438" lon="-4.466586029157043">
        <ele>55.409999999999997</ele>
        <time>2026-06-25T10:02:50Z</time>
      </trkpt>
      <trkpt lat="51.870935959741473" lon="-4.466641014441848">
        <ele>55.409999999999997</ele>
        <time>2026-06-25T10:02:51Z</time>
      </trkpt>
      <trkpt lat="51.870838981121778" lon="-4.466695999726653">
        <ele>55.890000000000001</ele>
        <time>2026-06-25T10:02:52Z</time>
      </trkpt>
      <trkpt lat="51.870739990845323" lon="-4.466744028031826">
        <ele>55.890000000000001</ele>
        <time>2026-06-25T10:02:53Z</time>
      </trkpt>
      <trkpt lat="51.870633959770203" lon="-4.466772023588419">
        <ele>56.369999999999997</ele>
        <time>2026-06-25T10:02:54Z</time>
      </trkpt>
      <trkpt lat="51.870314022526145" lon="-4.466785015538335">
        <ele>57.340000000000003</ele>
        <time>2026-06-25T10:02:57Z</time>
      </trkpt>
      <trkpt lat="51.870206985622644" lon="-4.4667540024966">
        <ele>57.340000000000003</ele>
        <time>2026-06-25T10:02:58Z</time>
      </trkpt>
      <trkpt lat="51.869287993758917" lon="-4.466497013345361">
        <ele>60.219999999999999</ele>
        <time>2026-06-25T10:03:08Z</time>
      </trkpt>
      <trkpt lat="51.868681982159615" lon="-4.466404980048537">
        <ele>62.140000000000001</ele>
        <time>2026-06-25T10:03:15Z</time>
      </trkpt>
      <trkpt lat="51.868300018832088" lon="-4.46628000587225">
        <ele>62.140000000000001</ele>
        <time>2026-06-25T10:03:20Z</time>
      </trkpt>
      <trkpt lat="51.868232963606715" lon="-4.466241030022502">
        <ele>62.140000000000001</ele>
        <time>2026-06-25T10:03:21Z</time>
      </trkpt>
      <trkpt lat="51.868031965568662" lon="-4.466058975085616">
        <ele>61.659999999999997</ele>
        <time>2026-06-25T10:03:25Z</time>
      </trkpt>
      <trkpt lat="51.867973040789366" lon="-4.466041959822178">
        <ele>61.659999999999997</ele>
        <time>2026-06-25T10:03:26Z</time>
      </trkpt>
      <trkpt lat="51.867892993614078" lon="-4.466027962043881">
        <ele>61.659999999999997</ele>
        <time>2026-06-25T10:03:27Z</time>
      </trkpt>
      <trkpt lat="51.867837002500892" lon="-4.4660459831357">
        <ele>61.659999999999997</ele>
        <time>2026-06-25T10:03:28Z</time>
      </trkpt>
      <trkpt lat="51.867837002500892" lon="-4.4660459831357">
        <ele>62.140000000000001</ele>
        <time>2026-06-25T10:03:29Z</time>
      </trkpt>
      <trkpt lat="51.867669029161334" lon="-4.466097028926015">
        <ele>62.140000000000001</ele>
        <time>2026-06-25T10:03:30Z</time>
      </trkpt>
      <trkpt lat="51.867580013349652" lon="-4.466160982847214">
        <ele>62.140000000000001</ele>
        <time>2026-06-25T10:03:31Z</time>
      </trkpt>
      <trkpt lat="51.86751295812428" lon="-4.466252010315657">
        <ele>62.140000000000001</ele>
        <time>2026-06-25T10:03:32Z</time>
      </trkpt>
      <trkpt lat="51.867449004203081" lon="-4.466340020298958">
        <ele>61.659999999999997</ele>
        <time>2026-06-25T10:03:33Z</time>
      </trkpt>
      <trkpt lat="51.867447998374701" lon="-4.466340020298958">
        <ele>61.659999999999997</ele>
        <time>2026-06-25T10:03:34Z</time>
      </trkpt>
      <trkpt lat="51.866721035912633" lon="-4.467239985242486">
        <ele>59.259999999999998</ele>
        <time>2026-06-25T10:03:43Z</time>
      </trkpt>
      <trkpt lat="51.866391040384769" lon="-4.467619014903903">
        <ele>59.259999999999998</ele>
        <time>2026-06-25T10:03:48Z</time>
      </trkpt>
      <trkpt lat="51.866262964904308" lon="-4.467766033485532">
        <ele>59.740000000000002</ele>
        <time>2026-06-25T10:03:51Z</time>
      </trkpt>
      <trkpt lat="51.866201022639871" lon="-4.467940963804722">
        <ele>59.740000000000002</ele>
        <time>2026-06-25T10:03:52Z</time>
      </trkpt>
      <trkpt lat="51.86615701764822" lon="-4.468066021800041">
        <ele>59.740000000000002</ele>
        <time>2026-06-25T10:03:53Z</time>
      </trkpt>
      <trkpt lat="51.865941016003489" lon="-4.468674967065454">
        <ele>56.859999999999999</ele>
        <time>2026-06-25T10:03:58Z</time>
      </trkpt>
      <trkpt lat="51.865888964384794" lon="-4.468809999525547">
        <ele>56.369999999999997</ele>
        <time>2026-06-25T10:03:59Z</time>
      </trkpt>
      <trkpt lat="51.865825010463595" lon="-4.468912007287145">
        <ele>56.369999999999997</ele>
        <time>2026-06-25T10:04:00Z</time>
      </trkpt>
      <trkpt lat="51.865762984380126" lon="-4.46900999173522">
        <ele>56.369999999999997</ele>
        <time>2026-06-25T10:04:01Z</time>
      </trkpt>
      <trkpt lat="51.865702969953418" lon="-4.469105964526534">
        <ele>55.890000000000001</ele>
        <time>2026-06-25T10:04:02Z</time>
      </trkpt>
      <trkpt lat="51.865648990496993" lon="-4.469191962853074">
        <ele>55.890000000000001</ele>
        <time>2026-06-25T10:04:03Z</time>
      </trkpt>
      <trkpt lat="51.865543965250254" lon="-4.469359014183283">
        <ele>55.890000000000001</ele>
        <time>2026-06-25T10:04:05Z</time>
      </trkpt>
      <trkpt lat="51.86549099162221" lon="-4.469443000853062">
        <ele>55.890000000000001</ele>
        <time>2026-06-25T10:04:06Z</time>
      </trkpt>
      <trkpt lat="51.865439023822546" lon="-4.469524975866079">
        <ele>55.890000000000001</ele>
        <time>2026-06-25T10:04:07Z</time>
      </trkpt>
      <trkpt lat="51.865386972203851" lon="-4.469608040526509">
        <ele>55.890000000000001</ele>
        <time>2026-06-25T10:04:08Z</time>
      </trkpt>
      <trkpt lat="51.865337016060948" lon="-4.469688003882766">
        <ele>55.890000000000001</ele>
        <time>2026-06-25T10:04:09Z</time>
      </trkpt>
      <trkpt lat="51.86516803689301" lon="-4.46995597332716">
        <ele>56.369999999999997</ele>
        <time>2026-06-25T10:04:12Z</time>
      </trkpt>
      <trkpt lat="51.864564958959818" lon="-4.470863984897733">
        <ele>61.659999999999997</ele>
        <time>2026-06-25T10:04:22Z</time>
      </trkpt>
      <trkpt lat="51.864357003942132" lon="-4.471129020676017">
        <ele>64.549999999999997</ele>
        <time>2026-06-25T10:04:25Z</time>
      </trkpt>
      <trkpt lat="51.864151982590556" lon="-4.471553983166814">
        <ele>65.030000000000001</ele>
        <time>2026-06-25T10:04:30Z</time>
      </trkpt>
      <trkpt lat="51.86409498564899" lon="-4.471672000363469">
        <ele>64.549999999999997</ele>
        <time>2026-06-25T10:04:31Z</time>
      </trkpt>
      <trkpt lat="51.86398996040225" lon="-4.47182497009635">
        <ele>64.069999999999993</ele>
        <time>2026-06-25T10:04:32Z</time>
      </trkpt>
      <trkpt lat="51.86398996040225" lon="-4.47182497009635">
        <ele>63.579999999999998</ele>
        <time>2026-06-25T10:04:33Z</time>
      </trkpt>
      <trkpt lat="51.863930029794574" lon="-4.47191197425127">
        <ele>62.619999999999997</ele>
        <time>2026-06-25T10:04:34Z</time>
      </trkpt>
      <trkpt lat="51.863826010376215" lon="-4.472168041393161">
        <ele>62.140000000000001</ele>
        <time>2026-06-25T10:04:35Z</time>
      </trkpt>
      <trkpt lat="51.863826010376215" lon="-4.472168041393161">
        <ele>61.18</ele>
        <time>2026-06-25T10:04:36Z</time>
      </trkpt>
      <trkpt lat="51.86379499733448" lon="-4.472314976155758">
        <ele>60.219999999999999</ele>
        <time>2026-06-25T10:04:37Z</time>
      </trkpt>
      <trkpt lat="51.863763984292746" lon="-4.472484039142728">
        <ele>59.259999999999998</ele>
        <time>2026-06-25T10:04:38Z</time>
      </trkpt>
      <trkpt lat="51.863601040095091" lon="-4.473337987437844">
        <ele>55.409999999999997</ele>
        <time>2026-06-25T10:04:44Z</time>
      </trkpt>
      <trkpt lat="51.863543959334493" lon="-4.473537979647517">
        <ele>53.969999999999999</ele>
        <time>2026-06-25T10:04:46Z</time>
      </trkpt>
      <trkpt lat="51.86349400319159" lon="-4.47358500212431">
        <ele>53.009999999999998</ele>
        <time>2026-06-25T10:04:47Z</time>
      </trkpt>
      <trkpt lat="51.863426025956869" lon="-4.473623977974057">
        <ele>52.530000000000001</ele>
        <time>2026-06-25T10:04:48Z</time>
      </trkpt>
      <trkpt lat="51.863348996266723" lon="-4.473668988794088">
        <ele>51.57</ele>
        <time>2026-06-25T10:04:49Z</time>
      </trkpt>
      <trkpt lat="51.863268027082086" lon="-4.473716011270881">
        <ele>50.609999999999999</ele>
        <time>2026-06-25T10:04:50Z</time>
      </trkpt>
      <trkpt lat="51.86312997713685" lon="-4.473795974627137">
        <ele>48.200000000000003</ele>
        <time>2026-06-25T10:04:52Z</time>
      </trkpt>
      <trkpt lat="51.863037021830678" lon="-4.473888007923961">
        <ele>47.240000000000002</ele>
        <time>2026-06-25T10:04:53Z</time>
      </trkpt>
      <trkpt lat="51.862968038767576" lon="-4.473957996815443">
        <ele>46.759999999999998</ele>
        <time>2026-06-25T10:04:54Z</time>
      </trkpt>
      <trkpt lat="51.862908024340868" lon="-4.474061010405421">
        <ele>46.280000000000001</ele>
        <time>2026-06-25T10:04:55Z</time>
      </trkpt>
      <trkpt lat="51.86278497800231" lon="-4.47429402731359">
        <ele>45.799999999999997</ele>
        <time>2026-06-25T10:04:56Z</time>
      </trkpt>
      <trkpt lat="51.862743990495801" lon="-4.474434005096555">
        <ele>45.799999999999997</ele>
        <time>2026-06-25T10:04:57Z</time>
      </trkpt>
      <trkpt lat="51.862743990495801" lon="-4.474434005096555">
        <ele>46.759999999999998</ele>
        <time>2026-06-25T10:04:58Z</time>
      </trkpt>
      <trkpt lat="51.862662015482783" lon="-4.474714966490865">
        <ele>47.719999999999999</ele>
        <time>2026-06-25T10:04:59Z</time>
      </trkpt>
      <trkpt lat="51.862662015482783" lon="-4.474714966490865">
        <ele>48.200000000000003</ele>
        <time>2026-06-25T10:05:00Z</time>
      </trkpt>
      <trkpt lat="51.862576017156243" lon="-4.475011015310884">
        <ele>49.159999999999997</ele>
        <time>2026-06-25T10:05:01Z</time>
      </trkpt>
      <trkpt lat="51.862577022984624" lon="-4.475009003654122">
        <ele>49.649999999999999</ele>
        <time>2026-06-25T10:05:02Z</time>
      </trkpt>
      <trkpt lat="51.862535029649734" lon="-4.475149987265468">
        <ele>50.609999999999999</ele>
        <time>2026-06-25T10:05:03Z</time>
      </trkpt>
      <trkpt lat="51.862465962767601" lon="-4.475448969751597">
        <ele>52.049999999999997</ele>
        <time>2026-06-25T10:05:05Z</time>
      </trkpt>
      <trkpt lat="51.862316010519862" lon="-4.476402997970581">
        <ele>54.93</ele>
        <time>2026-06-25T10:05:11Z</time>
      </trkpt>
      <trkpt lat="51.862240992486477" lon="-4.476884035393596">
        <ele>54.93</ele>
        <time>2026-06-25T10:05:13Z</time>
      </trkpt>
      <trkpt lat="51.862240992486477" lon="-4.476884035393596">
        <ele>55.409999999999997</ele>
        <time>2026-06-25T10:05:14Z</time>
      </trkpt>
      <trkpt lat="51.862176032736897" lon="-4.477203972637653">
        <ele>54.93</ele>
        <time>2026-06-25T10:05:16Z</time>
      </trkpt>
      <trkpt lat="51.862129010260105" lon="-4.477360965684056">
        <ele>54.93</ele>
        <time>2026-06-25T10:05:17Z</time>
      </trkpt>
      <trkpt lat="51.862080981954932" lon="-4.47751896455884">
        <ele>54.450000000000003</ele>
        <time>2026-06-25T10:05:18Z</time>
      </trkpt>
      <trkpt lat="51.861356031149626" lon="-4.478810029104352">
        <ele>53.009999999999998</ele>
        <time>2026-06-25T10:05:27Z</time>
      </trkpt>
      <trkpt lat="51.861131982877851" lon="-4.479208001866937">
        <ele>52.049999999999997</ele>
        <time>2026-06-25T10:05:30Z</time>
      </trkpt>
      <trkpt lat="51.86033402569592" lon="-4.480480961501598">
        <ele>54.93</ele>
        <time>2026-06-25T10:05:40Z</time>
      </trkpt>
      <trkpt lat="51.860268982127309" lon="-4.480582969263196">
        <ele>54.93</ele>
        <time>2026-06-25T10:05:41Z</time>
      </trkpt>
      <trkpt lat="51.860028002411127" lon="-4.480888992547989">
        <ele>52.530000000000001</ele>
        <time>2026-06-25T10:05:46Z</time>
      </trkpt>
      <trkpt lat="51.859995983541012" lon="-4.480920005589724">
        <ele>51.090000000000003</ele>
        <time>2026-06-25T10:05:52Z</time>
      </trkpt>
      <trkpt lat="51.859950972720981" lon="-4.48102000169456">
        <ele>50.609999999999999</ele>
        <time>2026-06-25T10:05:53Z</time>
      </trkpt>
      <trkpt lat="51.859945021569729" lon="-4.481133995577693">
        <ele>50.130000000000003</ele>
        <time>2026-06-25T10:05:54Z</time>
      </trkpt>
      <trkpt lat="51.859937980771065" lon="-4.481271961703897">
        <ele>49.159999999999997</ele>
        <time>2026-06-25T10:05:55Z</time>
      </trkpt>
      <trkpt lat="51.859929012134671" lon="-4.481433983892202">
        <ele>49.159999999999997</ele>
        <time>2026-06-25T10:05:56Z</time>
      </trkpt>
      <trkpt lat="51.859919959679246" lon="-4.481611009687185">
        <ele>48.68</ele>
        <time>2026-06-25T10:05:57Z</time>
      </trkpt>
      <trkpt lat="51.859910991042852" lon="-4.481777977198362">
        <ele>48.200000000000003</ele>
        <time>2026-06-25T10:05:58Z</time>
      </trkpt>
      <trkpt lat="51.859788028523326" lon="-4.482609964907169">
        <ele>47.719999999999999</ele>
        <time>2026-06-25T10:06:05Z</time>
      </trkpt>
      <trkpt lat="51.859769001603127" lon="-4.482872989028692">
        <ele>47.719999999999999</ele>
        <time>2026-06-25T10:06:07Z</time>
      </trkpt>
      <trkpt lat="51.859761960804462" lon="-4.482993017882109">
        <ele>47.240000000000002</ele>
        <time>2026-06-25T10:06:08Z</time>
      </trkpt>
      <trkpt lat="51.859776964411139" lon="-4.483123021200299">
        <ele>46.759999999999998</ele>
        <time>2026-06-25T10:06:09Z</time>
      </trkpt>
      <trkpt lat="51.859833961352706" lon="-4.48364001698792">
        <ele>42.439999999999998</ele>
        <time>2026-06-25T10:06:13Z</time>
      </trkpt>
      <trkpt lat="51.859846031293273" lon="-4.483743030577898">
        <ele>40.990000000000002</ele>
        <time>2026-06-25T10:06:15Z</time>
      </trkpt>
      <trkpt lat="51.859837984666228" lon="-4.483851995319128">
        <ele>40.509999999999998</ele>
        <time>2026-06-25T10:06:16Z</time>
      </trkpt>
      <trkpt lat="51.859827004373074" lon="-4.483975041657686">
        <ele>40.030000000000001</ele>
        <time>2026-06-25T10:06:17Z</time>
      </trkpt>
      <trkpt lat="51.859816024079919" lon="-4.484109990298748">
        <ele>40.030000000000001</ele>
        <time>2026-06-25T10:06:18Z</time>
      </trkpt>
      <trkpt lat="51.859718039631844" lon="-4.485223023220897">
        <ele>40.509999999999998</ele>
        <time>2026-06-25T10:06:26Z</time>
      </trkpt>
      <trkpt lat="51.859644027426839" lon="-4.485609009861946">
        <ele>40.509999999999998</ele>
        <time>2026-06-25T10:06:29Z</time>
      </trkpt>
      <trkpt lat="51.859584013000131" lon="-4.485710011795163">
        <ele>40.509999999999998</ele>
        <time>2026-06-25T10:06:30Z</time>
      </trkpt>
      <trkpt lat="51.859525004401803" lon="-4.485769020393491">
        <ele>40.509999999999998</ele>
        <time>2026-06-25T10:06:31Z</time>
      </trkpt>
      <trkpt lat="51.859459038823843" lon="-4.485769020393491">
        <ele>40.990000000000002</ele>
        <time>2026-06-25T10:06:32Z</time>
      </trkpt>
      <trkpt lat="51.859391983598471" lon="-4.485743036493659">
        <ele>40.990000000000002</ele>
        <time>2026-06-25T10:06:33Z</time>
      </trkpt>
      <trkpt lat="51.859245970845222" lon="-4.485598029568791">
        <ele>40.509999999999998</ele>
        <time>2026-06-25T10:06:35Z</time>
      </trkpt>
      <trkpt lat="51.859159972518682" lon="-4.485512031242251">
        <ele>40.990000000000002</ele>
        <time>2026-06-25T10:06:36Z</time>
      </trkpt>
      <trkpt lat="51.859084032475948" lon="-4.485512031242251">
        <ele>40.990000000000002</ele>
        <time>2026-06-25T10:06:37Z</time>
      </trkpt>
      <trkpt lat="51.858991999179125" lon="-4.485512031242251">
        <ele>41.469999999999999</ele>
        <time>2026-06-25T10:06:38Z</time>
      </trkpt>
      <trkpt lat="51.858898038044572" lon="-4.485512031242251">
        <ele>41.469999999999999</ele>
        <time>2026-06-25T10:06:39Z</time>
      </trkpt>
      <trkpt lat="51.858806004747748" lon="-4.485512031242251">
        <ele>41.469999999999999</ele>
        <time>2026-06-25T10:06:40Z</time>
      </trkpt>
      <trkpt lat="51.858710031956434" lon="-4.485519994050264">
        <ele>41.469999999999999</ele>
        <time>2026-06-25T10:06:41Z</time>
      </trkpt>
      <trkpt lat="51.858609030023217" lon="-4.485561987385154">
        <ele>41.469999999999999</ele>
        <time>2026-06-25T10:06:42Z</time>
      </trkpt>
      <trkpt lat="51.858205022290349" lon="-4.485788969323039">
        <ele>42.439999999999998</ele>
        <time>2026-06-25T10:06:47Z</time>
      </trkpt>
      <trkpt lat="51.857444029301405" lon="-4.48639003559947">
        <ele>38.590000000000003</ele>
        <time>2026-06-25T10:06:55Z</time>
      </trkpt>
      <trkpt lat="51.857236996293068" lon="-4.486553985625505">
        <ele>37.630000000000003</ele>
        <time>2026-06-25T10:06:57Z</time>
      </trkpt>
      <trkpt lat="51.857144040986896" lon="-4.48662699200213">
        <ele>36.670000000000002</ele>
        <time>2026-06-25T10:06:58Z</time>
      </trkpt>
      <trkpt lat="51.857073968276381" lon="-4.486726988106966">
        <ele>36.189999999999998</ele>
        <time>2026-06-25T10:06:59Z</time>
      </trkpt>
      <trkpt lat="51.857006996870041" lon="-4.486824972555041">
        <ele>35.710000000000001</ele>
        <time>2026-06-25T10:07:00Z</time>
      </trkpt>
      <trkpt lat="51.85694295912981" lon="-4.486920023337007">
        <ele>35.229999999999997</ele>
        <time>2026-06-25T10:07:01Z</time>
      </trkpt>
      <trkpt lat="51.856894008815289" lon="-4.487025970593095">
        <ele>34.259999999999998</ele>
        <time>2026-06-25T10:07:02Z</time>
      </trkpt>
      <trkpt lat="51.85685402713716" lon="-4.487112974748015">
        <ele>33.780000000000001</ele>
        <time>2026-06-25T10:07:03Z</time>
      </trkpt>
      <trkpt lat="51.856823014095426" lon="-4.487179024145007">
        <ele>33.299999999999997</ele>
        <time>2026-06-25T10:07:04Z</time>
      </trkpt>
      <trkpt lat="51.856799963861704" lon="-4.487227974459529">
        <ele>33.299999999999997</ele>
        <time>2026-06-25T10:07:05Z</time>
      </trkpt>
      <trkpt lat="51.856711031869054" lon="-4.487340040504932">
        <ele>33.780000000000001</ele>
        <time>2026-06-25T10:07:10Z</time>
      </trkpt>
      <trkpt lat="51.856627967208624" lon="-4.487442970275879">
        <ele>34.259999999999998</ele>
        <time>2026-06-25T10:07:11Z</time>
      </trkpt>
      <trkpt lat="51.856627967208624" lon="-4.487442970275879">
        <ele>34.259999999999998</ele>
        <time>2026-06-25T10:07:12Z</time>
      </trkpt>
      <trkpt lat="51.856741039082408" lon="-4.487426960840821">
        <ele>34.259999999999998</ele>
        <time>2026-06-25T10:07:13Z</time>
      </trkpt>
      <trkpt lat="51.856799963861704" lon="-4.487227974459529">
        <ele>34.740000000000002</ele>
        <time>2026-06-25T10:07:15Z</time>
      </trkpt>
      <trkpt lat="51.856756964698434" lon="-4.487282037734985">
        <ele>35.229999999999997</ele>
        <time>2026-06-25T10:07:16Z</time>
      </trkpt>
      <trkpt lat="51.856799963861704" lon="-4.487227974459529">
        <ele>35.710000000000001</ele>
        <time>2026-06-25T10:07:17Z</time>
      </trkpt>
      <trkpt lat="51.856859978288412" lon="-4.4870999827981">
        <ele>35.710000000000001</ele>
        <time>2026-06-25T10:07:18Z</time>
      </trkpt>
      <trkpt lat="51.856924016028643" lon="-4.486963022500277">
        <ele>36.189999999999998</ele>
        <time>2026-06-25T10:07:19Z</time>
      </trkpt>
      <trkpt lat="51.857011020183563" lon="-4.486818015575409">
        <ele>36.189999999999998</ele>
        <time>2026-06-25T10:07:20Z</time>
      </trkpt>
      <trkpt lat="51.857103975489736" lon="-4.486684994772077">
        <ele>36.189999999999998</ele>
        <time>2026-06-25T10:07:21Z</time>
      </trkpt>
      <trkpt lat="51.857207994908094" lon="-4.486577035859227">
        <ele>36.189999999999998</ele>
        <time>2026-06-25T10:07:22Z</time>
      </trkpt>
      <trkpt lat="51.85730698518455" lon="-4.48649799451232">
        <ele>36.670000000000002</ele>
        <time>2026-06-25T10:07:23Z</time>
      </trkpt>
      <trkpt lat="51.857398012652993" lon="-4.486425993964076">
        <ele>36.670000000000002</ele>
        <time>2026-06-25T10:07:24Z</time>
      </trkpt>
      <trkpt lat="51.857858011499047" lon="-4.486062973737717">
        <ele>42.439999999999998</ele>
        <time>2026-06-25T10:07:29Z</time>
      </trkpt>
      <trkpt lat="51.857959013432264" lon="-4.48598301038146">
        <ele>42.920000000000002</ele>
        <time>2026-06-25T10:07:30Z</time>
      </trkpt>
      <trkpt lat="51.85816302895546" lon="-4.485822999849916">
        <ele>43.880000000000003</ele>
        <time>2026-06-25T10:07:32Z</time>
      </trkpt>
      <trkpt lat="51.858259001746774" lon="-4.48574697598815">
        <ele>44.359999999999999</ele>
        <time>2026-06-25T10:07:33Z</time>
      </trkpt>
      <trkpt lat="51.85868295840919" lon="-4.4855319801718">
        <ele>46.759999999999998</ele>
        <time>2026-06-25T10:07:37Z</time>
      </trkpt>
      <trkpt lat="51.858806004747748" lon="-4.485512031242251">
        <ele>47.240000000000002</ele>
        <time>2026-06-25T10:07:38Z</time>
      </trkpt>
      <trkpt lat="51.859030975028872" lon="-4.485512031242251">
        <ele>48.200000000000003</ele>
        <time>2026-06-25T10:07:40Z</time>
      </trkpt>
      <trkpt lat="51.859124014154077" lon="-4.485512031242251">
        <ele>48.200000000000003</ele>
        <time>2026-06-25T10:07:41Z</time>
      </trkpt>
      <trkpt lat="51.859186962246895" lon="-4.485539020970464">
        <ele>48.200000000000003</ele>
        <time>2026-06-25T10:07:42Z</time>
      </trkpt>
      <trkpt lat="51.859256029129028" lon="-4.485608004033566">
        <ele>47.719999999999999</ele>
        <time>2026-06-25T10:07:43Z</time>
      </trkpt>
      <trkpt lat="51.85932501219213" lon="-4.485676987096667">
        <ele>47.240000000000002</ele>
        <time>2026-06-25T10:07:44Z</time>
      </trkpt>
      <trkpt lat="51.85938997194171" lon="-4.485742030665278">
        <ele>46.759999999999998</ele>
        <time>2026-06-25T10:07:45Z</time>
      </trkpt>
      <trkpt lat="51.859459960833192" lon="-4.485769020393491">
        <ele>45.799999999999997</ele>
        <time>2026-06-25T10:07:46Z</time>
      </trkpt>
      <trkpt lat="51.8595199752599" lon="-4.485769020393491">
        <ele>44.840000000000003</ele>
        <time>2026-06-25T10:07:47Z</time>
      </trkpt>
      <trkpt lat="51.859564986079931" lon="-4.485729038715363">
        <ele>44.359999999999999</ele>
        <time>2026-06-25T10:07:48Z</time>
      </trkpt>
      <trkpt lat="51.859608991071582" lon="-4.485686039552093">
        <ele>43.399999999999999</ele>
        <time>2026-06-25T10:07:49Z</time>
      </trkpt>
      <trkpt lat="51.859642015770078" lon="-4.48561898432672">
        <ele>42.439999999999998</ele>
        <time>2026-06-25T10:07:50Z</time>
      </trkpt>
      <trkpt lat="51.859658025205135" lon="-4.485543966293335">
        <ele>41.950000000000003</ele>
        <time>2026-06-25T10:07:51Z</time>
      </trkpt>
      <trkpt lat="51.859667999669909" lon="-4.485499039292336">
        <ele>41.469999999999999</ele>
        <time>2026-06-25T10:07:52Z</time>
      </trkpt>
      <trkpt lat="51.859675040468574" lon="-4.485469032078981">
        <ele>40.990000000000002</ele>
        <time>2026-06-25T10:07:53Z</time>
      </trkpt>
      <trkpt lat="51.859679985791445" lon="-4.485444976016879">
        <ele>40.509999999999998</ele>
        <time>2026-06-25T10:07:54Z</time>
      </trkpt>
      <trkpt lat="51.859679985791445" lon="-4.485444976016879">
        <ele>40.030000000000001</ele>
        <time>2026-06-25T10:07:55Z</time>
      </trkpt>
      <trkpt lat="51.859679985791445" lon="-4.485444976016879">
        <ele>40.030000000000001</ele>
        <time>2026-06-25T10:07:56Z</time>
      </trkpt>
      <trkpt lat="51.859679985791445" lon="-4.485444976016879">
        <ele>40.030000000000001</ele>
        <time>2026-06-25T10:07:57Z</time>
      </trkpt>
      <trkpt lat="51.859709993004799" lon="-4.485451010987163">
        <ele>39.07</ele>
        <time>2026-06-25T10:07:59Z</time>
      </trkpt>
      <trkpt lat="51.859708987176418" lon="-4.485475989058614">
        <ele>39.07</ele>
        <time>2026-06-25T10:08:00Z</time>
      </trkpt>
      <trkpt lat="51.859707981348038" lon="-4.485515970736742">
        <ele>39.07</ele>
        <time>2026-06-25T10:08:01Z</time>
      </trkpt>
      <trkpt lat="51.859704963862896" lon="-4.485584031790495">
        <ele>39.549999999999997</ele>
        <time>2026-06-25T10:08:02Z</time>
      </trkpt>
      <trkpt lat="51.859700018540025" lon="-4.485685033723712">
        <ele>39.549999999999997</ele>
        <time>2026-06-25T10:08:03Z</time>
      </trkpt>
      <trkpt lat="51.859748968854547" lon="-4.486649036407471">
        <ele>43.880000000000003</ele>
        <time>2026-06-25T10:08:09Z</time>
      </trkpt>
      <trkpt lat="51.859758021309972" lon="-4.486791025847197">
        <ele>45.32</ele>
        <time>2026-06-25T10:08:10Z</time>
      </trkpt>
      <trkpt lat="51.85986396856606" lon="-4.48701499029994">
        <ele>46.759999999999998</ele>
        <time>2026-06-25T10:08:11Z</time>
      </trkpt>
      <trkpt lat="51.859914008527994" lon="-4.487096965312958">
        <ele>48.200000000000003</ele>
        <time>2026-06-25T10:08:12Z</time>
      </trkpt>
      <trkpt lat="51.859956001862884" lon="-4.487172989174724">
        <ele>49.159999999999997</ele>
        <time>2026-06-25T10:08:13Z</time>
      </trkpt>
      <trkpt lat="51.859987014904618" lon="-4.487286983057857">
        <ele>51.090000000000003</ele>
        <time>2026-06-25T10:08:14Z</time>
      </trkpt>
      <trkpt lat="51.860018027946353" lon="-4.487431989982724">
        <ele>53.969999999999999</ele>
        <time>2026-06-25T10:08:16Z</time>
      </trkpt>
      <trkpt lat="51.85999003238976" lon="-4.489131001755595">
        <ele>61.659999999999997</ele>
        <time>2026-06-25T10:08:26Z</time>
      </trkpt>
      <trkpt lat="51.860084999352694" lon="-4.491136036813259">
        <ele>72.239999999999995</ele>
        <time>2026-06-25T10:08:38Z</time>
      </trkpt>
      <trkpt lat="51.860310975462198" lon="-4.493263028562069">
        <ele>80.409999999999997</ele>
        <time>2026-06-25T10:08:49Z</time>
      </trkpt>
      <trkpt lat="51.86057198792696" lon="-4.495436036959291">
        <ele>86.659999999999997</ele>
        <time>2026-06-25T10:08:58Z</time>
      </trkpt>
      <trkpt lat="51.860754964873195" lon="-4.49692097492516">
        <ele>88.099999999999994</ele>
        <time>2026-06-25T10:09:05Z</time>
      </trkpt>
      <trkpt lat="51.861017988994718" lon="-4.498971020802856">
        <ele>90.019999999999996</ele>
        <time>2026-06-25T10:09:15Z</time>
      </trkpt>
      <trkpt lat="51.861068028956652" lon="-4.499181993305683">
        <ele>90.5</ele>
        <time>2026-06-25T10:09:16Z</time>
      </trkpt>
      <trkpt lat="51.861115973442793" lon="-4.499383997172117">
        <ele>90.5</ele>
        <time>2026-06-25T10:09:17Z</time>
      </trkpt>
      <trkpt lat="51.861172970384359" lon="-4.499565968289971">
        <ele>90.980000000000004</ele>
        <time>2026-06-25T10:09:18Z</time>
      </trkpt>
      <trkpt lat="51.861306997016072" lon="-4.499931000173092">
        <ele>91.459999999999994</ele>
        <time>2026-06-25T10:09:20Z</time>
      </trkpt>
      <trkpt lat="51.861372040584683" lon="-4.500110037624836">
        <ele>91.939999999999998</ele>
        <time>2026-06-25T10:09:21Z</time>
      </trkpt>
      <trkpt lat="51.861438006162643" lon="-4.50029100291431">
        <ele>92.420000000000002</ele>
        <time>2026-06-25T10:09:22Z</time>
      </trkpt>
      <trkpt lat="51.862174021080136" lon="-4.503017971292138">
        <ele>105.88</ele>
        <time>2026-06-25T10:09:35Z</time>
      </trkpt>
      <trkpt lat="51.862221965566278" lon="-4.503158032894135">
        <ele>107.81</ele>
        <time>2026-06-25T10:09:37Z</time>
      </trkpt>
      <trkpt lat="51.862267982214689" lon="-4.503289964050055">
        <ele>108.29000000000001</ele>
        <time>2026-06-25T10:09:38Z</time>
      </trkpt>
      <trkpt lat="51.862324979156256" lon="-4.503391971811652">
        <ele>108.77</ele>
        <time>2026-06-25T10:09:39Z</time>
      </trkpt>
      <trkpt lat="51.862379964441061" lon="-4.503487022593617">
        <ele>109.25</ele>
        <time>2026-06-25T10:09:40Z</time>
      </trkpt>
      <trkpt lat="51.86244098469615" lon="-4.503572015091777">
        <ele>109.73</ele>
        <time>2026-06-25T10:09:41Z</time>
      </trkpt>
      <trkpt lat="51.86250502243638" lon="-4.503620965406299">
        <ele>110.20999999999999</ele>
        <time>2026-06-25T10:09:42Z</time>
      </trkpt>
      <trkpt lat="51.862537963315845" lon="-4.503731019794941">
        <ele>110.69</ele>
        <time>2026-06-25T10:09:43Z</time>
      </trkpt>
      <trkpt lat="51.86287097632885" lon="-4.504903983324766">
        <ele>114.05</ele>
        <time>2026-06-25T10:09:50Z</time>
      </trkpt>
      <trkpt lat="51.863567009568214" lon="-4.50697498396039">
        <ele>113.09</ele>
        <time>2026-06-25T10:10:01Z</time>
      </trkpt>
      <trkpt lat="51.863756021484733" lon="-4.507530033588409">
        <ele>113.09</ele>
        <time>2026-06-25T10:10:04Z</time>
      </trkpt>
      <trkpt lat="51.864103032276034" lon="-4.509252011775971">
        <ele>107.31999999999999</ele>
        <time>2026-06-25T10:10:13Z</time>
      </trkpt>
      <trkpt lat="51.864123987033963" lon="-4.509438006207347">
        <ele>105.40000000000001</ele>
        <time>2026-06-25T10:10:14Z</time>
      </trkpt>
      <trkpt lat="51.864145025610924" lon="-4.509621988981962">
        <ele>103</ele>
        <time>2026-06-25T10:10:15Z</time>
      </trkpt>
      <trkpt lat="51.864276034757495" lon="-4.510775003582239">
        <ele>92.420000000000002</ele>
        <time>2026-06-25T10:10:21Z</time>
      </trkpt>
      <trkpt lat="51.864296989515424" lon="-4.510957980528474">
        <ele>91.459999999999994</ele>
        <time>2026-06-25T10:10:22Z</time>
      </trkpt>
      <trkpt lat="51.864307969808578" lon="-4.511141963303089">
        <ele>90.019999999999996</ele>
        <time>2026-06-25T10:10:23Z</time>
      </trkpt>
      <trkpt lat="51.864273017272353" lon="-4.512200010940433">
        <ele>84.25</ele>
        <time>2026-06-25T10:10:28Z</time>
      </trkpt>
      <trkpt lat="51.864260025322437" lon="-4.512411989271641">
        <ele>83.290000000000006</ele>
        <time>2026-06-25T10:10:29Z</time>
      </trkpt>
      <trkpt lat="51.864220965653658" lon="-4.512596977874637">
        <ele>82.329999999999998</ele>
        <time>2026-06-25T10:10:30Z</time>
      </trkpt>
      <trkpt lat="51.864186013117433" lon="-4.512766040861607">
        <ele>81.370000000000005</ele>
        <time>2026-06-25T10:10:31Z</time>
      </trkpt>
      <trkpt lat="51.864148965105414" lon="-4.512939965352416">
        <ele>79.930000000000007</ele>
        <time>2026-06-25T10:10:32Z</time>
      </trkpt>
      <trkpt lat="51.864112000912428" lon="-4.513115985319018">
        <ele>78.969999999999999</ele>
        <time>2026-06-25T10:10:33Z</time>
      </trkpt>
      <trkpt lat="51.864078976213932" lon="-4.513460984453559">
        <ele>75.599999999999994</ele>
        <time>2026-06-25T10:10:35Z</time>
      </trkpt>
      <trkpt lat="51.864090040326118" lon="-4.513824004679918">
        <ele>72.719999999999999</ele>
        <time>2026-06-25T10:10:37Z</time>
      </trkpt>
      <trkpt lat="51.864093979820609" lon="-4.514030031859875">
        <ele>71.269999999999996</ele>
        <time>2026-06-25T10:10:38Z</time>
      </trkpt>
      <trkpt lat="51.864059027284384" lon="-4.514648029580712">
        <ele>66.950000000000003</ele>
        <time>2026-06-25T10:10:41Z</time>
      </trkpt>
      <trkpt lat="51.864077970385551" lon="-4.515015995129943">
        <ele>64.069999999999993</ele>
        <time>2026-06-25T10:10:43Z</time>
      </trkpt>
      <trkpt lat="51.864093979820609" lon="-4.515174999833107">
        <ele>62.140000000000001</ele>
        <time>2026-06-25T10:10:44Z</time>
      </trkpt>
      <trkpt lat="51.864133039489388" lon="-4.515319000929594">
        <ele>60.219999999999999</ele>
        <time>2026-06-25T10:10:45Z</time>
      </trkpt>
      <trkpt lat="51.86418098397553" lon="-4.515487980097532">
        <ele>58.299999999999997</ele>
        <time>2026-06-25T10:10:46Z</time>
      </trkpt>
      <trkpt lat="51.864248961210251" lon="-4.515609014779329">
        <ele>55.890000000000001</ele>
        <time>2026-06-25T10:10:47Z</time>
      </trkpt>
      <trkpt lat="51.864443002268672" lon="-4.515953008085489">
        <ele>49.159999999999997</ele>
        <time>2026-06-25T10:10:50Z</time>
      </trkpt>
      <trkpt lat="51.86450301669538" lon="-4.516059961169958">
        <ele>47.719999999999999</ele>
        <time>2026-06-25T10:10:51Z</time>
      </trkpt>
      <trkpt lat="51.864566970616579" lon="-4.516174960881472">
        <ele>46.280000000000001</ele>
        <time>2026-06-25T10:10:52Z</time>
      </trkpt>
      <trkpt lat="51.864681970328093" lon="-4.516884991899133">
        <ele>37.630000000000003</ele>
        <time>2026-06-25T10:10:56Z</time>
      </trkpt>
      <trkpt lat="51.864705020561814" lon="-4.517078027129173">
        <ele>35.710000000000001</ele>
        <time>2026-06-25T10:10:57Z</time>
      </trkpt>
      <trkpt lat="51.864797975867987" lon="-4.517433000728488">
        <ele>32.82</ele>
        <time>2026-06-25T10:10:59Z</time>
      </trkpt>
      <trkpt lat="51.865015989169478" lon="-4.518111012876034">
        <ele>30.420000000000002</ele>
        <time>2026-06-25T10:11:04Z</time>
      </trkpt>
      <trkpt lat="51.865049013867974" lon="-4.518216960132122">
        <ele>30.420000000000002</ele>
        <time>2026-06-25T10:11:05Z</time>
      </trkpt>
      <trkpt lat="51.86506099998951" lon="-4.518716018646956">
        <ele>30.899999999999999</ele>
        <time>2026-06-25T10:11:08Z</time>
      </trkpt>
      <trkpt lat="51.86506099998951" lon="-4.519473994150758">
        <ele>34.740000000000002</ele>
        <time>2026-06-25T10:11:14Z</time>
      </trkpt>
      <trkpt lat="51.86508497223258" lon="-4.519644984975457">
        <ele>35.229999999999997</ele>
        <time>2026-06-25T10:11:15Z</time>
      </trkpt>
      <trkpt lat="51.865157978609204" lon="-4.519961988553405">
        <ele>36.189999999999998</ele>
        <time>2026-06-25T10:11:17Z</time>
      </trkpt>
      <trkpt lat="51.865188991650939" lon="-4.520095009356737">
        <ele>36.670000000000002</ele>
        <time>2026-06-25T10:11:18Z</time>
      </trkpt>
      <trkpt lat="51.86529602855444" lon="-4.520555008202791">
        <ele>38.590000000000003</ele>
        <time>2026-06-25T10:11:22Z</time>
      </trkpt>
      <trkpt lat="51.865324024111032" lon="-4.520675037056208">
        <ele>38.590000000000003</ele>
        <time>2026-06-25T10:11:23Z</time>
      </trkpt>
      <trkpt lat="51.86538496054709" lon="-4.521178035065532">
        <ele>39.549999999999997</ele>
        <time>2026-06-25T10:11:27Z</time>
      </trkpt>
      <trkpt lat="51.865400969982147" lon="-4.521324969828129">
        <ele>40.030000000000001</ele>
        <time>2026-06-25T10:11:28Z</time>
      </trkpt>
      <trkpt lat="51.865416979417205" lon="-4.521474000066519">
        <ele>40.030000000000001</ele>
        <time>2026-06-25T10:11:29Z</time>
      </trkpt>
      <trkpt lat="51.86542795971036" lon="-4.521630993112922">
        <ele>40.030000000000001</ele>
        <time>2026-06-25T10:11:30Z</time>
      </trkpt>
      <trkpt lat="51.865433994680643" lon="-4.521793015301228">
        <ele>40.030000000000001</ele>
        <time>2026-06-25T10:11:31Z</time>
      </trkpt>
      <trkpt lat="51.865440029650927" lon="-4.521957971155644">
        <ele>40.509999999999998</ele>
        <time>2026-06-25T10:11:32Z</time>
      </trkpt>
      <trkpt lat="51.865461990237236" lon="-4.522530036047101">
        <ele>42.439999999999998</ele>
        <time>2026-06-25T10:11:36Z</time>
      </trkpt>
      <trkpt lat="51.865465007722378" lon="-4.522629026323557">
        <ele>43.399999999999999</ele>
        <time>2026-06-25T10:11:37Z</time>
      </trkpt>
      <trkpt lat="51.865467019379139" lon="-4.522688034921885">
        <ele>43.880000000000003</ele>
        <time>2026-06-25T10:11:38Z</time>
      </trkpt>
      <trkpt lat="51.8654690310359" lon="-4.522717958316207">
        <ele>49.159999999999997</ele>
        <time>2026-06-25T10:11:51Z</time>
      </trkpt>
      <trkpt lat="51.865470036864281" lon="-4.522760035470128">
        <ele>52.049999999999997</ele>
        <time>2026-06-25T10:12:08Z</time>
      </trkpt>
      <trkpt lat="51.865470036864281" lon="-4.522760035470128">
        <ele>52.049999999999997</ele>
        <time>2026-06-25T10:12:31Z</time>
      </trkpt>
      <trkpt lat="51.865470036864281" lon="-4.522760035470128">
        <ele>53.009999999999998</ele>
        <time>2026-06-25T10:13:10Z</time>
      </trkpt>
      <trkpt lat="51.865470036864281" lon="-4.522760035470128">
        <ele>53.490000000000002</ele>
        <time>2026-06-25T10:14:01Z</time>
      </trkpt>
      <trkpt lat="51.865470036864281" lon="-4.522760035470128">
        <ele>53.969999999999999</ele>
        <time>2026-06-25T10:14:48Z</time>
      </trkpt>
      <trkpt lat="51.865470036864281" lon="-4.522760035470128">
        <ele>53.969999999999999</ele>
        <time>2026-06-25T10:15:30Z</time>
      </trkpt>
      <trkpt lat="51.865470036864281" lon="-4.522760035470128">
        <ele>54.450000000000003</ele>
        <time>2026-06-25T10:16:16Z</time>
      </trkpt>
      <trkpt lat="51.865470036864281" lon="-4.522760035470128">
        <ele>53.969999999999999</ele>
        <time>2026-06-25T10:17:04Z</time>
      </trkpt>
      <trkpt lat="51.865470036864281" lon="-4.522760035470128">
        <ele>53.969999999999999</ele>
        <time>2026-06-25T10:17:57Z</time>
      </trkpt>
      <trkpt lat="51.865470036864281" lon="-4.522760035470128">
        <ele>53.969999999999999</ele>
        <time>2026-06-25T10:18:51Z</time>
      </trkpt>
      <trkpt lat="51.865470036864281" lon="-4.522760035470128">
        <ele>53.969999999999999</ele>
        <time>2026-06-25T10:19:40Z</time>
      </trkpt>
      <trkpt lat="51.865652007982135" lon="-4.522619973868132">
        <ele>43.399999999999999</ele>
        <time>2026-06-25T10:25:15Z</time>
      </trkpt>
      <trkpt lat="51.865473976358771" lon="-4.522799011319876">
        <ele>53.969999999999999</ele>
        <time>2026-06-25T10:25:48Z</time>
      </trkpt>
      <trkpt lat="51.865498032420874" lon="-4.522802028805018">
        <ele>56.369999999999997</ele>
        <time>2026-06-25T10:26:27Z</time>
      </trkpt>
      <trkpt lat="51.865472970530391" lon="-4.522848967462778">
        <ele>56.369999999999997</ele>
        <time>2026-06-25T10:26:30Z</time>
      </trkpt>
      <trkpt lat="51.865495014935732" lon="-4.523344002664089">
        <ele>54.93</ele>
        <time>2026-06-25T10:26:36Z</time>
      </trkpt>
      <trkpt lat="51.865501971915364" lon="-4.523423966020346">
        <ele>54.450000000000003</ele>
        <time>2026-06-25T10:26:37Z</time>
      </trkpt>
      <trkpt lat="51.86551102437079" lon="-4.523515999317169">
        <ele>54.450000000000003</ele>
        <time>2026-06-25T10:26:38Z</time>
      </trkpt>
      <trkpt lat="51.865522004663944" lon="-4.523622030392289">
        <ele>53.969999999999999</ele>
        <time>2026-06-25T10:26:39Z</time>
      </trkpt>
      <trkpt lat="51.865531979128718" lon="-4.523726971819997">
        <ele>54.450000000000003</ele>
        <time>2026-06-25T10:26:40Z</time>
      </trkpt>
      <trkpt lat="51.865551006048918" lon="-4.52392503619194">
        <ele>55.890000000000001</ele>
        <time>2026-06-25T10:26:42Z</time>
      </trkpt>
      <trkpt lat="51.865560980513692" lon="-4.524024026468396">
        <ele>56.369999999999997</ele>
        <time>2026-06-25T10:26:43Z</time>
      </trkpt>
      <trkpt lat="51.865571038797498" lon="-4.524128967896104">
        <ele>57.340000000000003</ele>
        <time>2026-06-25T10:26:44Z</time>
      </trkpt>
      <trkpt lat="51.865581013262272" lon="-4.524242039769888">
        <ele>57.82</ele>
        <time>2026-06-25T10:26:45Z</time>
      </trkpt>
      <trkpt lat="51.865591993555427" lon="-4.524374976754189">
        <ele>58.299999999999997</ele>
        <time>2026-06-25T10:26:46Z</time>
      </trkpt>
      <trkpt lat="51.865603979676962" lon="-4.524511015042663">
        <ele>58.780000000000001</ele>
        <time>2026-06-25T10:26:47Z</time>
      </trkpt>
      <trkpt lat="51.865603979676962" lon="-4.524511015042663">
        <ele>59.259999999999998</ele>
        <time>2026-06-25T10:26:48Z</time>
      </trkpt>
      <trkpt lat="51.865647984668612" lon="-4.524818966165185">
        <ele>59.259999999999998</ele>
        <time>2026-06-25T10:26:49Z</time>
      </trkpt>
      <trkpt lat="51.865719985216856" lon="-4.525134041905403">
        <ele>59.259999999999998</ele>
        <time>2026-06-25T10:26:51Z</time>
      </trkpt>
      <trkpt lat="51.865788968279958" lon="-4.525436963886023">
        <ele>59.740000000000002</ele>
        <time>2026-06-25T10:26:53Z</time>
      </trkpt>
      <trkpt lat="51.866048974916339" lon="-4.526572041213512">
        <ele>65.510000000000005</ele>
        <time>2026-06-25T10:27:01Z</time>
      </trkpt>
      <trkpt lat="51.866078982129693" lon="-4.526702966541052">
        <ele>66.950000000000003</ele>
        <time>2026-06-25T10:27:02Z</time>
      </trkpt>
      <trkpt lat="51.866138996556401" lon="-4.526962973177433">
        <ele>70.310000000000002</ele>
        <time>2026-06-25T10:27:04Z</time>
      </trkpt>
      <trkpt lat="51.866169003769755" lon="-4.527094988152385">
        <ele>71.760000000000005</ele>
        <time>2026-06-25T10:27:05Z</time>
      </trkpt>
      <trkpt lat="51.866169003769755" lon="-4.527094988152385">
        <ele>73.200000000000003</ele>
        <time>2026-06-25T10:27:06Z</time>
      </trkpt>
      <trkpt lat="51.866231029853225" lon="-4.527365975081921">
        <ele>74.640000000000001</ele>
        <time>2026-06-25T10:27:07Z</time>
      </trkpt>
      <trkpt lat="51.866262964904308" lon="-4.527504025027156">
        <ele>76.560000000000002</ele>
        <time>2026-06-25T10:27:08Z</time>
      </trkpt>
      <trkpt lat="51.866282997652888" lon="-4.527640985324979">
        <ele>78.969999999999999</ele>
        <time>2026-06-25T10:27:09Z</time>
      </trkpt>
      <trkpt lat="51.866282997652888" lon="-4.527640985324979">
        <ele>80.409999999999997</ele>
        <time>2026-06-25T10:27:10Z</time>
      </trkpt>
      <trkpt lat="51.866327002644539" lon="-4.527934016659856">
        <ele>82.329999999999998</ele>
        <time>2026-06-25T10:27:11Z</time>
      </trkpt>
      <trkpt lat="51.866327002644539" lon="-4.528091009706259">
        <ele>84.25</ele>
        <time>2026-06-25T10:27:12Z</time>
      </trkpt>
      <trkpt lat="51.866327002644539" lon="-4.528091009706259">
        <ele>86.180000000000007</ele>
        <time>2026-06-25T10:27:13Z</time>
      </trkpt>
      <trkpt lat="51.866327002644539" lon="-4.528277004137635">
        <ele>87.620000000000005</ele>
        <time>2026-06-25T10:27:14Z</time>
      </trkpt>
      <trkpt lat="51.866268999874592" lon="-4.528521001338959">
        <ele>88.579999999999998</ele>
        <time>2026-06-25T10:27:15Z</time>
      </trkpt>
      <trkpt lat="51.866235975176096" lon="-4.528654022142291">
        <ele>89.540000000000006</ele>
        <time>2026-06-25T10:27:16Z</time>
      </trkpt>
      <trkpt lat="51.866184007376432" lon="-4.528772039338946">
        <ele>90.980000000000004</ele>
        <time>2026-06-25T10:27:17Z</time>
      </trkpt>
      <trkpt lat="51.866090968251228" lon="-4.528985023498535">
        <ele>91.939999999999998</ele>
        <time>2026-06-25T10:27:18Z</time>
      </trkpt>
      <trkpt lat="51.866087028756738" lon="-4.529011007398367">
        <ele>92.900000000000006</ele>
        <time>2026-06-25T10:27:19Z</time>
      </trkpt>
      <trkpt lat="51.866063978523016" lon="-4.529146961867809">
        <ele>93.870000000000005</ele>
        <time>2026-06-25T10:27:20Z</time>
      </trkpt>
      <trkpt lat="51.866123992949724" lon="-4.529389031231403">
        <ele>94.349999999999994</ele>
        <time>2026-06-25T10:27:21Z</time>
      </trkpt>
      <trkpt lat="51.866189036518335" lon="-4.529514005407691">
        <ele>95.310000000000002</ele>
        <time>2026-06-25T10:27:22Z</time>
      </trkpt>
      <trkpt lat="51.866257013753057" lon="-4.529644008725882">
        <ele>96.269999999999996</ele>
        <time>2026-06-25T10:27:23Z</time>
      </trkpt>
      <trkpt lat="51.866385005414486" lon="-4.529891023412347">
        <ele>100.11</ele>
        <time>2026-06-25T10:27:26Z</time>
      </trkpt>
      <trkpt lat="51.866504028439522" lon="-4.530120017006993">
        <ele>102.04000000000001</ele>
        <time>2026-06-25T10:27:27Z</time>
      </trkpt>
      <trkpt lat="51.866643000394106" lon="-4.530343981459737">
        <ele>105.40000000000001</ele>
        <time>2026-06-25T10:27:29Z</time>
      </trkpt>
      <trkpt lat="51.866727992892265" lon="-4.530409025028348">
        <ele>106.36</ele>
        <time>2026-06-25T10:27:30Z</time>
      </trkpt>
      <trkpt lat="51.866814997047186" lon="-4.530475996434689">
        <ele>107.31999999999999</ele>
        <time>2026-06-25T10:27:31Z</time>
      </trkpt>
      <trkpt lat="51.866907030344009" lon="-4.530545985326171">
        <ele>108.29000000000001</ele>
        <time>2026-06-25T10:27:32Z</time>
      </trkpt>
      <trkpt lat="51.866970984265208" lon="-4.530594013631344">
        <ele>109.25</ele>
        <time>2026-06-25T10:27:33Z</time>
      </trkpt>
      <trkpt lat="51.867113979533315" lon="-4.530623015016317">
        <ele>110.20999999999999</ele>
        <time>2026-06-25T10:27:34Z</time>
      </trkpt>
      <trkpt lat="51.86721196398139" lon="-4.530642963945866">
        <ele>111.17</ele>
        <time>2026-06-25T10:27:35Z</time>
      </trkpt>
      <trkpt lat="51.867307014763355" lon="-4.530657967552543">
        <ele>111.65000000000001</ele>
        <time>2026-06-25T10:27:36Z</time>
      </trkpt>
      <trkpt lat="51.867402987554669" lon="-4.530652016401291">
        <ele>112.13</ele>
        <time>2026-06-25T10:27:37Z</time>
      </trkpt>
      <trkpt lat="51.867494015023112" lon="-4.530645981431007">
        <ele>112.61</ele>
        <time>2026-06-25T10:27:38Z</time>
      </trkpt>
      <trkpt lat="51.86757599003613" lon="-4.530641036108136">
        <ele>113.56999999999999</ele>
        <time>2026-06-25T10:27:39Z</time>
      </trkpt>
      <trkpt lat="51.867653019726276" lon="-4.530644975602627">
        <ele>114.05</ele>
        <time>2026-06-25T10:27:40Z</time>
      </trkpt>
      <trkpt lat="51.867741029709578" lon="-4.530682023614645">
        <ele>115.01000000000001</ele>
        <time>2026-06-25T10:27:41Z</time>
      </trkpt>
      <trkpt lat="51.86783398501575" lon="-4.530720999464393">
        <ele>115.98</ele>
        <time>2026-06-25T10:27:42Z</time>
      </trkpt>
      <trkpt lat="51.868721963837743" lon="-4.531173035502434">
        <ele>123.19</ele>
        <time>2026-06-25T10:27:52Z</time>
      </trkpt>
      <trkpt lat="51.868796981871128" lon="-4.53122902661562">
        <ele>123.67</ele>
        <time>2026-06-25T10:27:53Z</time>
      </trkpt>
      <trkpt lat="51.86886303126812" lon="-4.531306978315115">
        <ele>124.15000000000001</ele>
        <time>2026-06-25T10:27:54Z</time>
      </trkpt>
      <trkpt lat="51.868913993239403" lon="-4.53140202909708">
        <ele>124.15000000000001</ele>
        <time>2026-06-25T10:27:55Z</time>
      </trkpt>
      <trkpt lat="51.868965961039066" lon="-4.531500013545156">
        <ele>124.15000000000001</ele>
        <time>2026-06-25T10:27:56Z</time>
      </trkpt>
      <trkpt lat="51.869008960202336" lon="-4.531580982729793">
        <ele>124.63</ele>
        <time>2026-06-25T10:27:57Z</time>
      </trkpt>
      <trkpt lat="51.869041984900832" lon="-4.531737975776196">
        <ele>125.11</ele>
        <time>2026-06-25T10:27:58Z</time>
      </trkpt>
      <trkpt lat="51.869069980457425" lon="-4.53187401406467">
        <ele>124.63</ele>
        <time>2026-06-25T10:27:59Z</time>
      </trkpt>
      <trkpt lat="51.869098981842399" lon="-4.532012986019254">
        <ele>124.63</ele>
        <time>2026-06-25T10:28:00Z</time>
      </trkpt>
      <trkpt lat="51.869126977398992" lon="-4.532150030136108">
        <ele>124.63</ele>
        <time>2026-06-25T10:28:01Z</time>
      </trkpt>
      <trkpt lat="51.869193026795983" lon="-4.532468039542437">
        <ele>124.15000000000001</ele>
        <time>2026-06-25T10:28:04Z</time>
      </trkpt>
      <trkpt lat="51.869203001260757" lon="-4.532516989856958">
        <ele>124.15000000000001</ele>
        <time>2026-06-25T10:28:05Z</time>
      </trkpt>
      <trkpt lat="51.869203001260757" lon="-4.532516989856958">
        <ele>123.67</ele>
        <time>2026-06-25T10:28:06Z</time>
      </trkpt>
      <trkpt lat="51.869216999039054" lon="-4.53258496709168">
        <ele>121.73999999999999</ele>
        <time>2026-06-25T10:28:10Z</time>
      </trkpt>
      <trkpt lat="51.869221022352576" lon="-4.532603994011879">
        <ele>121.73999999999999</ele>
        <time>2026-06-25T10:28:11Z</time>
      </trkpt>
      <trkpt lat="51.869281036779284" lon="-4.53266803175211">
        <ele>121.26000000000001</ele>
        <time>2026-06-25T10:28:12Z</time>
      </trkpt>
      <trkpt lat="51.869281036779284" lon="-4.53266803175211">
        <ele>121.26000000000001</ele>
        <time>2026-06-25T10:28:13Z</time>
      </trkpt>
      <trkpt lat="51.869310960173607" lon="-4.53262503258884">
        <ele>121.26000000000001</ele>
        <time>2026-06-25T10:28:14Z</time>
      </trkpt>
      <trkpt lat="51.869426965713501" lon="-4.532458987087011">
        <ele>121.26000000000001</ele>
        <time>2026-06-25T10:28:15Z</time>
      </trkpt>
      <trkpt lat="51.870104977861047" lon="-4.531576037406921">
        <ele>119.34</ele>
        <time>2026-06-25T10:28:22Z</time>
      </trkpt>
      <trkpt lat="51.870217965915799" lon="-4.531450979411602">
        <ele>119.34</ele>
        <time>2026-06-25T10:28:23Z</time>
      </trkpt>
      <trkpt lat="51.870331959798932" lon="-4.53135802410543">
        <ele>119.81999999999999</ele>
        <time>2026-06-25T10:28:24Z</time>
      </trkpt>
      <trkpt lat="51.870452994480729" lon="-4.531292980536819">
        <ele>119.81999999999999</ele>
        <time>2026-06-25T10:28:25Z</time>
      </trkpt>
      <trkpt lat="51.871212981641293" lon="-4.530892996117473">
        <ele>123.67</ele>
        <time>2026-06-25T10:28:31Z</time>
      </trkpt>
      <trkpt lat="51.871325969696045" lon="-4.530878998339176">
        <ele>124.15000000000001</ele>
        <time>2026-06-25T10:28:32Z</time>
      </trkpt>
      <trkpt lat="51.871448010206223" lon="-4.53093096613884">
        <ele>124.63</ele>
        <time>2026-06-25T10:28:33Z</time>
      </trkpt>
      <trkpt lat="51.871558986604214" lon="-4.53101503662765">
        <ele>125.11</ele>
        <time>2026-06-25T10:28:34Z</time>
      </trkpt>
      <trkpt lat="51.871692007407546" lon="-4.531113021075726">
        <ele>125.11</ele>
        <time>2026-06-25T10:28:35Z</time>
      </trkpt>
      <trkpt lat="51.871839025989175" lon="-4.531222991645336">
        <ele>125.11</ele>
        <time>2026-06-25T10:28:36Z</time>
      </trkpt>
      <trkpt lat="51.87199903652072" lon="-4.531342014670372">
        <ele>125.59</ele>
        <time>2026-06-25T10:28:37Z</time>
      </trkpt>
      <trkpt lat="51.87234696932137" lon="-4.531602021306753">
        <ele>125.59</ele>
        <time>2026-06-25T10:28:39Z</time>
      </trkpt>
      <trkpt lat="51.872535981237888" lon="-4.531647032126784">
        <ele>126.06999999999999</ele>
        <time>2026-06-25T10:28:40Z</time>
      </trkpt>
      <trkpt lat="51.873679021373391" lon="-4.531988007947803">
        <ele>127.51000000000001</ele>
        <time>2026-06-25T10:28:46Z</time>
      </trkpt>
      <trkpt lat="51.873850012198091" lon="-4.531981972977519">
        <ele>127.98999999999999</ele>
        <time>2026-06-25T10:28:47Z</time>
      </trkpt>
      <trkpt lat="51.874319985508919" lon="-4.531991025432944">
        <ele>128.47</ele>
        <time>2026-06-25T10:28:50Z</time>
      </trkpt>
      <trkpt lat="51.874487036839128" lon="-4.532030001282692">
        <ele>128.47</ele>
        <time>2026-06-25T10:28:51Z</time>
      </trkpt>
      <trkpt lat="51.875175023451447" lon="-4.532213984057307">
        <ele>127.98999999999999</ele>
        <time>2026-06-25T10:28:55Z</time>
      </trkpt>
      <trkpt lat="51.877103028818965" lon="-4.533423995599151">
        <ele>145.30000000000001</ele>
        <time>2026-06-25T10:29:07Z</time>
      </trkpt>
      <trkpt lat="51.878964984789491" lon="-4.534122040495277">
        <ele>167.88999999999999</ele>
        <time>2026-06-25T10:29:17Z</time>
      </trkpt>
      <trkpt lat="51.880519995465875" lon="-4.535029968246818">
        <ele>181.83000000000001</ele>
        <time>2026-06-25T10:29:26Z</time>
      </trkpt>
      <trkpt lat="51.881636967882514" lon="-4.535589963197708">
        <ele>186.63</ele>
        <time>2026-06-25T10:29:32Z</time>
      </trkpt>
      <trkpt lat="51.8817999958992" lon="-4.535593986511231">
        <ele>187.59</ele>
        <time>2026-06-25T10:29:33Z</time>
      </trkpt>
      <trkpt lat="51.881954977288842" lon="-4.53554998151958">
        <ele>188.08000000000001</ele>
        <time>2026-06-25T10:29:34Z</time>
      </trkpt>
      <trkpt lat="51.882111970335245" lon="-4.535474041476846">
        <ele>189.03999999999999</ele>
        <time>2026-06-25T10:29:35Z</time>
      </trkpt>
      <trkpt lat="51.882280027493834" lon="-4.535392988473177">
        <ele>190</ele>
        <time>2026-06-25T10:29:36Z</time>
      </trkpt>
      <trkpt lat="51.882450012490153" lon="-4.535311013460159">
        <ele>190.47999999999999</ele>
        <time>2026-06-25T10:29:37Z</time>
      </trkpt>
      <trkpt lat="51.882627960294485" lon="-4.535272959619761">
        <ele>191.44</ele>
        <time>2026-06-25T10:29:38Z</time>
      </trkpt>
      <trkpt lat="51.88278503715992" lon="-4.535250999033451">
        <ele>192.40000000000001</ele>
        <time>2026-06-25T10:29:39Z</time>
      </trkpt>
      <trkpt lat="51.882977988570929" lon="-4.535266002640128">
        <ele>193.36000000000001</ele>
        <time>2026-06-25T10:29:40Z</time>
      </trkpt>
      <trkpt lat="51.883158031851053" lon="-4.535280000418425">
        <ele>194.31999999999999</ele>
        <time>2026-06-25T10:29:41Z</time>
      </trkpt>
      <trkpt lat="51.885099029168487" lon="-4.535432970151305">
        <ele>200.56999999999999</ele>
        <time>2026-06-25T10:29:51Z</time>
      </trkpt>
      <trkpt lat="51.886668959632516" lon="-4.535574037581682">
        <ele>199.61000000000001</ele>
        <time>2026-06-25T10:30:00Z</time>
      </trkpt>
      <trkpt lat="51.888083992525935" lon="-4.53645103611052">
        <ele>202.97999999999999</ele>
        <time>2026-06-25T10:30:07Z</time>
      </trkpt>
      <trkpt lat="51.889849975705147" lon="-4.538286002352834">
        <ele>209.69999999999999</ele>
        <time>2026-06-25T10:30:17Z</time>
      </trkpt>
      <trkpt lat="51.89142401330173" lon="-4.540467979386449">
        <ele>208.25999999999999</ele>
        <time>2026-06-25T10:30:27Z</time>
      </trkpt>
      <trkpt lat="51.892636958509684" lon="-4.541978985071182">
        <ele>206.34</ele>
        <time>2026-06-25T10:30:35Z</time>
      </trkpt>
      <trkpt lat="51.894062971696258" lon="-4.543118001893163">
        <ele>204.90000000000001</ele>
        <time>2026-06-25T10:30:43Z</time>
      </trkpt>
      <trkpt lat="51.895122025161982" lon="-4.544331030920148">
        <ele>202.97999999999999</ele>
        <time>2026-06-25T10:30:50Z</time>
      </trkpt>
      <trkpt lat="51.896289037540555" lon="-4.544999990612268">
        <ele>199.61000000000001</ele>
        <time>2026-06-25T10:30:57Z</time>
      </trkpt>
      <trkpt lat="51.896443013101816" lon="-4.545076014474034">
        <ele>198.65000000000001</ele>
        <time>2026-06-25T10:30:58Z</time>
      </trkpt>
      <trkpt lat="51.896582990884781" lon="-4.545144997537136">
        <ele>198.16999999999999</ele>
        <time>2026-06-25T10:30:59Z</time>
      </trkpt>
      <trkpt lat="51.896714000031352" lon="-4.545209035277367">
        <ele>197.69</ele>
        <time>2026-06-25T10:31:00Z</time>
      </trkpt>
      <trkpt lat="51.896852971985936" lon="-4.545328980311751">
        <ele>197.69</ele>
        <time>2026-06-25T10:31:01Z</time>
      </trkpt>
      <trkpt lat="51.896974006667733" lon="-4.545500976964831">
        <ele>197.69</ele>
        <time>2026-06-25T10:31:02Z</time>
      </trkpt>
      <trkpt lat="51.897902972996235" lon="-4.547004019841552">
        <ele>197.69</ele>
        <time>2026-06-25T10:31:10Z</time>
      </trkpt>
      <trkpt lat="51.898942999541759" lon="-4.548402037471533">
        <ele>197.69</ele>
        <time>2026-06-25T10:31:18Z</time>
      </trkpt>
      <trkpt lat="51.900236997753382" lon="-4.549723025411367">
        <ele>196.72999999999999</ele>
        <time>2026-06-25T10:31:26Z</time>
      </trkpt>
      <trkpt lat="51.901561003178358" lon="-4.551495965570211">
        <ele>202.00999999999999</ele>
        <time>2026-06-25T10:31:35Z</time>
      </trkpt>
      <trkpt lat="51.90169301815331" lon="-4.551676008850336">
        <ele>202.49000000000001</ele>
        <time>2026-06-25T10:31:36Z</time>
      </trkpt>
      <trkpt lat="51.901800977066159" lon="-4.551896033808589">
        <ele>202.97999999999999</ele>
        <time>2026-06-25T10:31:37Z</time>
      </trkpt>
      <trkpt lat="51.902149999514222" lon="-4.552556024864316">
        <ele>202.00999999999999</ele>
        <time>2026-06-25T10:31:40Z</time>
      </trkpt>
      <trkpt lat="51.902281008660793" lon="-4.552727015689015">
        <ele>201.53</ele>
        <time>2026-06-25T10:31:41Z</time>
      </trkpt>
      <trkpt lat="51.902445964515209" lon="-4.552809996530414">
        <ele>201.53</ele>
        <time>2026-06-25T10:31:42Z</time>
      </trkpt>
      <trkpt lat="51.902623996138573" lon="-4.552891971543431">
        <ele>201.53</ele>
        <time>2026-06-25T10:31:43Z</time>
      </trkpt>
      <trkpt lat="51.902807978913188" lon="-4.55297595821321">
        <ele>202.00999999999999</ele>
        <time>2026-06-25T10:31:44Z</time>
      </trkpt>
      <trkpt lat="51.902990033850074" lon="-4.55305902287364">
        <ele>202.49000000000001</ele>
        <time>2026-06-25T10:31:45Z</time>
      </trkpt>
      <trkpt lat="51.903346013277769" lon="-4.553234959021211">
        <ele>203.94</ele>
        <time>2026-06-25T10:31:47Z</time>
      </trkpt>
      <trkpt lat="51.903502000495791" lon="-4.553387006744742">
        <ele>205.38</ele>
        <time>2026-06-25T10:31:48Z</time>
      </trkpt>
      <trkpt lat="51.905035972595215" lon="-4.555160030722618">
        <ele>211.63</ele>
        <time>2026-06-25T10:31:58Z</time>
      </trkpt>
      <trkpt lat="51.906146993860602" lon="-4.556774972006679">
        <ele>214.03</ele>
        <time>2026-06-25T10:32:07Z</time>
      </trkpt>
      <trkpt lat="51.90691402181983" lon="-4.557750960811973">
        <ele>212.59</ele>
        <time>2026-06-25T10:32:16Z</time>
      </trkpt>
      <trkpt lat="51.907369997352362" lon="-4.558329982683063">
        <ele>211.63</ele>
        <time>2026-06-25T10:32:22Z</time>
      </trkpt>
      <trkpt lat="51.907448032870889" lon="-4.558429978787899">
        <ele>211.63</ele>
        <time>2026-06-25T10:32:23Z</time>
      </trkpt>
      <trkpt lat="51.907555991783738" lon="-4.55843098461628">
        <ele>212.11000000000001</ele>
        <time>2026-06-25T10:32:24Z</time>
      </trkpt>
      <trkpt lat="51.907910965383053" lon="-4.558480018749833">
        <ele>212.59</ele>
        <time>2026-06-25T10:32:27Z</time>
      </trkpt>
      <trkpt lat="51.908744964748621" lon="-4.559191977605224">
        <ele>214.50999999999999</ele>
        <time>2026-06-25T10:32:36Z</time>
      </trkpt>
      <trkpt lat="51.909877024590969" lon="-4.560406012460589">
        <ele>219.80000000000001</ele>
        <time>2026-06-25T10:32:46Z</time>
      </trkpt>
      <trkpt lat="51.91058998927474" lon="-4.561521979048848">
        <ele>223.63999999999999</ele>
        <time>2026-06-25T10:32:53Z</time>
      </trkpt>
      <trkpt lat="51.911398004740477" lon="-4.562764009460807">
        <ele>227.97</ele>
        <time>2026-06-25T10:33:01Z</time>
      </trkpt>
      <trkpt lat="51.911398004740477" lon="-4.562764009460807">
        <ele>227.97</ele>
        <time>2026-06-25T10:33:02Z</time>
      </trkpt>
      <trkpt lat="51.91148903220892" lon="-4.562870040535927">
        <ele>228.44999999999999</ele>
        <time>2026-06-25T10:33:03Z</time>
      </trkpt>
      <trkpt lat="51.911693969741464" lon="-4.563024016097188">
        <ele>228.44999999999999</ele>
        <time>2026-06-25T10:33:04Z</time>
      </trkpt>
      <trkpt lat="51.911808969452977" lon="-4.563085036352277">
        <ele>228.93000000000001</ele>
        <time>2026-06-25T10:33:05Z</time>
      </trkpt>
      <trkpt lat="51.912784958258271" lon="-4.563626004382968">
        <ele>228.44999999999999</ele>
        <time>2026-06-25T10:33:13Z</time>
      </trkpt>
      <trkpt lat="51.913946019485593" lon="-4.564514989033341">
        <ele>229.41</ele>
        <time>2026-06-25T10:33:22Z</time>
      </trkpt>
      <trkpt lat="51.914795022457838" lon="-4.565163999795914">
        <ele>229.41</ele>
        <time>2026-06-25T10:33:33Z</time>
      </trkpt>
      <trkpt lat="51.915779979899526" lon="-4.565863972529769">
        <ele>227.49000000000001</ele>
        <time>2026-06-25T10:33:44Z</time>
      </trkpt>
      <trkpt lat="51.916851019486785" lon="-4.56676796078682">
        <ele>225.56999999999999</ele>
        <time>2026-06-25T10:33:54Z</time>
      </trkpt>
      <trkpt lat="51.917058974504471" lon="-4.566881032660604">
        <ele>225.09</ele>
        <time>2026-06-25T10:33:56Z</time>
      </trkpt>
      <trkpt lat="51.917167017236352" lon="-4.566916991025209">
        <ele>224.61000000000001</ele>
        <time>2026-06-25T10:33:57Z</time>
      </trkpt>
      <trkpt lat="51.91726902499795" lon="-4.56694096326828">
        <ele>224.61000000000001</ele>
        <time>2026-06-25T10:33:58Z</time>
      </trkpt>
      <trkpt lat="51.917396010830998" lon="-4.566922020167112">
        <ele>224.12</ele>
        <time>2026-06-25T10:33:59Z</time>
      </trkpt>
      <trkpt lat="51.917499024420977" lon="-4.566912967711687">
        <ele>224.12</ele>
        <time>2026-06-25T10:34:00Z</time>
      </trkpt>
      <trkpt lat="51.918567968532443" lon="-4.566546007990837">
        <ele>223.16</ele>
        <time>2026-06-25T10:34:09Z</time>
      </trkpt>
      <trkpt lat="51.919847968965769" lon="-4.566148035228252">
        <ele>227.97</ele>
        <time>2026-06-25T10:34:19Z</time>
      </trkpt>
      <trkpt lat="51.920855976641178" lon="-4.565934967249632">
        <ele>232.78</ele>
        <time>2026-06-25T10:34:26Z</time>
      </trkpt>
      <trkpt lat="51.922262040898204" lon="-4.56573598086834">
        <ele>236.62</ele>
        <time>2026-06-25T10:34:37Z</time>
      </trkpt>
      <trkpt lat="51.923594009131193" lon="-4.565461976453662">
        <ele>235.18000000000001</ele>
        <time>2026-06-25T10:34:47Z</time>
      </trkpt>
      <trkpt lat="51.925264019519091" lon="-4.565145978704095">
        <ele>227.97</ele>
        <time>2026-06-25T10:34:58Z</time>
      </trkpt>
      <trkpt lat="51.926533961668611" lon="-4.565300038084388">
        <ele>224.12</ele>
        <time>2026-06-25T10:35:04Z</time>
      </trkpt>
      <trkpt lat="51.927641965448856" lon="-4.56543498672545">
        <ele>226.53</ele>
        <time>2026-06-25T10:35:11Z</time>
      </trkpt>
      <trkpt lat="51.929234024137259" lon="-4.565518973395228">
        <ele>236.13999999999999</ele>
        <time>2026-06-25T10:35:22Z</time>
      </trkpt>
      <trkpt lat="51.930815018713474" lon="-4.565633973106742">
        <ele>232.78</ele>
        <time>2026-06-25T10:35:32Z</time>
      </trkpt>
      <trkpt lat="51.932237008586526" lon="-4.565516961738467">
        <ele>229.41</ele>
        <time>2026-06-25T10:35:38Z</time>
      </trkpt>
      <trkpt lat="51.933942977339029" lon="-4.565194007009268">
        <ele>227.97</ele>
        <time>2026-06-25T10:35:46Z</time>
      </trkpt>
      <trkpt lat="51.935558002442122" lon="-4.56455497071147">
        <ele>230.84999999999999</ele>
        <time>2026-06-25T10:35:55Z</time>
      </trkpt>
      <trkpt lat="51.935796970501542" lon="-4.564449023455381">
        <ele>231.81</ele>
        <time>2026-06-25T10:35:57Z</time>
      </trkpt>
      <trkpt lat="51.935884980484843" lon="-4.564409963786602">
        <ele>231.81</ele>
        <time>2026-06-25T10:35:58Z</time>
      </trkpt>
      <trkpt lat="51.936021018773317" lon="-4.564454974606633">
        <ele>231.81</ele>
        <time>2026-06-25T10:35:59Z</time>
      </trkpt>
      <trkpt lat="51.936021018773317" lon="-4.564454974606633">
        <ele>231.81</ele>
        <time>2026-06-25T10:36:00Z</time>
      </trkpt>
      <trkpt lat="51.936125038191676" lon="-4.564610961824656">
        <ele>231.33000000000001</ele>
        <time>2026-06-25T10:36:01Z</time>
      </trkpt>
      <trkpt lat="51.936734989285469" lon="-4.565538000315428">
        <ele>231.33000000000001</ele>
        <time>2026-06-25T10:36:07Z</time>
      </trkpt>
      <trkpt lat="51.937174033373594" lon="-4.566260017454624">
        <ele>230.37</ele>
        <time>2026-06-25T10:36:12Z</time>
      </trkpt>
      <trkpt lat="51.937174033373594" lon="-4.566261023283005">
        <ele>229.88999999999999</ele>
        <time>2026-06-25T10:36:13Z</time>
      </trkpt>
      <trkpt lat="51.937202028930187" lon="-4.566342998296022">
        <ele>229.41</ele>
        <time>2026-06-25T10:36:14Z</time>
      </trkpt>
      <trkpt lat="51.937190964818001" lon="-4.566374011337757">
        <ele>229.41</ele>
        <time>2026-06-25T10:36:15Z</time>
      </trkpt>
      <trkpt lat="51.937089962884784" lon="-4.566520024091005">
        <ele>228.93000000000001</ele>
        <time>2026-06-25T10:36:16Z</time>
      </trkpt>
      <trkpt lat="51.936983009800315" lon="-4.566594958305359">
        <ele>228.44999999999999</ele>
        <time>2026-06-25T10:36:17Z</time>
      </trkpt>
      <trkpt lat="51.936861975118518" lon="-4.56668003462255">
        <ele>228.44999999999999</ele>
        <time>2026-06-25T10:36:18Z</time>
      </trkpt>
      <trkpt lat="51.93632997572422" lon="-4.567068032920361">
        <ele>226.53</ele>
        <time>2026-06-25T10:36:22Z</time>
      </trkpt>
      <trkpt lat="51.93561902269721" lon="-4.567897003144026">
        <ele>220.75999999999999</ele>
        <time>2026-06-25T10:36:30Z</time>
      </trkpt>
      <trkpt lat="51.93482399918139" lon="-4.568967958912253">
        <ele>213.55000000000001</ele>
        <time>2026-06-25T10:36:38Z</time>
      </trkpt>
      <trkpt lat="51.934773037210107" lon="-4.569036019966006">
        <ele>213.06999999999999</ele>
        <time>2026-06-25T10:36:39Z</time>
      </trkpt>
      <trkpt lat="51.934733977541327" lon="-4.56908899359405">
        <ele>212.59</ele>
        <time>2026-06-25T10:36:40Z</time>
      </trkpt>
      <trkpt lat="51.934763984754682" lon="-4.569123024120927">
        <ele>211.63</ele>
        <time>2026-06-25T10:36:41Z</time>
      </trkpt>
      <trkpt lat="51.93480396643281" lon="-4.569169040769339">
        <ele>211.15000000000001</ele>
        <time>2026-06-25T10:36:42Z</time>
      </trkpt>
      <trkpt lat="51.934870015829802" lon="-4.569241963326931">
        <ele>210.19</ele>
        <time>2026-06-25T10:36:43Z</time>
      </trkpt>
      <trkpt lat="51.93495400249958" lon="-4.569337014108896">
        <ele>209.69999999999999</ele>
        <time>2026-06-25T10:36:44Z</time>
      </trkpt>
      <trkpt lat="51.935272011905909" lon="-4.569718977436423">
        <ele>208.25999999999999</ele>
        <time>2026-06-25T10:36:47Z</time>
      </trkpt>
      <trkpt lat="51.935371002182364" lon="-4.569870019331574">
        <ele>208.25999999999999</ele>
        <time>2026-06-25T10:36:48Z</time>
      </trkpt>
      <trkpt lat="51.935449037700891" lon="-4.570072023198009">
        <ele>208.25999999999999</ele>
        <time>2026-06-25T10:36:49Z</time>
      </trkpt>
      <trkpt lat="51.935893027111888" lon="-4.57166500389576">
        <ele>218.84</ele>
        <time>2026-06-25T10:36:57Z</time>
      </trkpt>
      <trkpt lat="51.936317989602685" lon="-4.572811983525753">
        <ele>226.53</ele>
        <time>2026-06-25T10:37:07Z</time>
      </trkpt>
      <trkpt lat="51.936696013435721" lon="-4.574214024469256">
        <ele>230.37</ele>
        <time>2026-06-25T10:37:15Z</time>
      </trkpt>
      <trkpt lat="51.937292972579598" lon="-4.576451992616057">
        <ele>228.93000000000001</ele>
        <time>2026-06-25T10:37:25Z</time>
      </trkpt>
      <trkpt lat="51.937426999211311" lon="-4.576957002282143">
        <ele>227.49000000000001</ele>
        <time>2026-06-25T10:37:27Z</time>
      </trkpt>
      <trkpt lat="51.93746798671782" lon="-4.577242992818356">
        <ele>227.00999999999999</ele>
        <time>2026-06-25T10:37:28Z</time>
      </trkpt>
      <trkpt lat="51.93800300359726" lon="-4.580550994724035">
        <ele>219.80000000000001</ele>
        <time>2026-06-25T10:37:39Z</time>
      </trkpt>
      <trkpt lat="51.938366023823619" lon="-4.583562025800347">
        <ele>216.43000000000001</ele>
        <time>2026-06-25T10:37:49Z</time>
      </trkpt>
      <trkpt lat="51.938440036028624" lon="-4.585831006988883">
        <ele>208.25999999999999</ele>
        <time>2026-06-25T10:37:57Z</time>
      </trkpt>
      <trkpt lat="51.938444981351495" lon="-4.586401982232928">
        <ele>204.90000000000001</ele>
        <time>2026-06-25T10:38:00Z</time>
      </trkpt>
      <trkpt lat="51.938494015485048" lon="-4.586613960564137">
        <ele>202.49000000000001</ele>
        <time>2026-06-25T10:38:05Z</time>
      </trkpt>
      <trkpt lat="51.938559981063008" lon="-4.586713034659624">
        <ele>200.56999999999999</ele>
        <time>2026-06-25T10:38:11Z</time>
      </trkpt>
      <trkpt lat="51.938617983832955" lon="-4.586771037429571">
        <ele>200.56999999999999</ele>
        <time>2026-06-25T10:38:12Z</time>
      </trkpt>
      <trkpt lat="51.938694007694721" lon="-4.586765002459288">
        <ele>200.09</ele>
        <time>2026-06-25T10:38:13Z</time>
      </trkpt>
      <trkpt lat="51.939520966261625" lon="-4.58670599386096">
        <ele>198.16999999999999</ele>
        <time>2026-06-25T10:38:19Z</time>
      </trkpt>
      <trkpt lat="51.941001964733005" lon="-4.586115991696715">
        <ele>192.88</ele>
        <time>2026-06-25T10:38:28Z</time>
      </trkpt>
      <trkpt lat="51.94236796349287" lon="-4.585390035063028">
        <ele>182.78999999999999</ele>
        <time>2026-06-25T10:38:37Z</time>
      </trkpt>
      <trkpt lat="51.943477978929877" lon="-4.584937999024987">
        <ele>176.06</ele>
        <time>2026-06-25T10:38:45Z</time>
      </trkpt>
      <trkpt lat="51.94361200556159" lon="-4.584821993485093">
        <ele>174.62</ele>
        <time>2026-06-25T10:38:46Z</time>
      </trkpt>
      <trkpt lat="51.943751983344555" lon="-4.584701964631677">
        <ele>174.13999999999999</ele>
        <time>2026-06-25T10:38:47Z</time>
      </trkpt>
      <trkpt lat="51.945471027866006" lon="-4.583262959495187">
        <ele>159.24000000000001</ele>
        <time>2026-06-25T10:38:59Z</time>
      </trkpt>
      <trkpt lat="51.945570018142462" lon="-4.583187019452453">
        <ele>157.78999999999999</ele>
        <time>2026-06-25T10:39:00Z</time>
      </trkpt>
      <trkpt lat="51.945697003975511" lon="-4.583187019452453">
        <ele>156.83000000000001</ele>
        <time>2026-06-25T10:39:01Z</time>
      </trkpt>
      <trkpt lat="51.945812003687024" lon="-4.583201017230749">
        <ele>155.38999999999999</ele>
        <time>2026-06-25T10:39:02Z</time>
      </trkpt>
      <trkpt lat="51.945927003398538" lon="-4.583258014172316">
        <ele>153.94999999999999</ele>
        <time>2026-06-25T10:39:03Z</time>
      </trkpt>
      <trkpt lat="51.945999003946781" lon="-4.583293972536922">
        <ele>152.99000000000001</ele>
        <time>2026-06-25T10:39:04Z</time>
      </trkpt>
      <trkpt lat="51.946088019758463" lon="-4.583436967805028">
        <ele>151.53999999999999</ele>
        <time>2026-06-25T10:39:05Z</time>
      </trkpt>
      <trkpt lat="51.946163037791848" lon="-4.583559008315206">
        <ele>150.58000000000001</ele>
        <time>2026-06-25T10:39:06Z</time>
      </trkpt>
      <trkpt lat="51.946238977834582" lon="-4.583680965006352">
        <ele>149.62</ele>
        <time>2026-06-25T10:39:07Z</time>
      </trkpt>
      <trkpt lat="51.946322964504361" lon="-4.583817003294826">
        <ele>148.66</ele>
        <time>2026-06-25T10:39:08Z</time>
      </trkpt>
      <trkpt lat="51.946416003629565" lon="-4.583967039361596">
        <ele>147.22</ele>
        <time>2026-06-25T10:39:09Z</time>
      </trkpt>
      <trkpt lat="51.947258971631527" lon="-4.585327003151178">
        <ele>141.44999999999999</ele>
        <time>2026-06-25T10:39:17Z</time>
      </trkpt>
      <trkpt lat="51.948208976536989" lon="-4.586969017982483">
        <ele>139.53</ele>
        <time>2026-06-25T10:39:26Z</time>
      </trkpt>
      <trkpt lat="51.949212960898876" lon="-4.588253041729331">
        <ele>137.13</ele>
        <time>2026-06-25T10:39:34Z</time>
      </trkpt>
      <trkpt lat="51.949362996965647" lon="-4.588342979550362">
        <ele>136.16</ele>
        <time>2026-06-25T10:39:35Z</time>
      </trkpt>
      <trkpt lat="51.949514960870147" lon="-4.588434007018805">
        <ele>135.19999999999999</ele>
        <time>2026-06-25T10:39:36Z</time>
      </trkpt>
      <trkpt lat="51.950581977143884" lon="-4.588911021128297">
        <ele>127.03</ele>
        <time>2026-06-25T10:39:44Z</time>
      </trkpt>
      <trkpt lat="51.950694965198636" lon="-4.588978998363018">
        <ele>126.06999999999999</ele>
        <time>2026-06-25T10:39:45Z</time>
      </trkpt>
      <trkpt lat="51.950806025415659" lon="-4.589044963940978">
        <ele>125.11</ele>
        <time>2026-06-25T10:39:46Z</time>
      </trkpt>
      <trkpt lat="51.950889006257057" lon="-4.589170021936297">
        <ele>124.15000000000001</ele>
        <time>2026-06-25T10:39:47Z</time>
      </trkpt>
      <trkpt lat="51.950972992926836" lon="-4.589296001940966">
        <ele>123.67</ele>
        <time>2026-06-25T10:39:48Z</time>
      </trkpt>
      <trkpt lat="51.951039964333177" lon="-4.589446038007736">
        <ele>123.19</ele>
        <time>2026-06-25T10:39:49Z</time>
      </trkpt>
      <trkpt lat="51.951091010123491" lon="-4.58964703604579">
        <ele>122.70999999999999</ele>
        <time>2026-06-25T10:39:50Z</time>
      </trkpt>
      <trkpt lat="51.951149012893438" lon="-4.589873012155294">
        <ele>122.70999999999999</ele>
        <time>2026-06-25T10:39:51Z</time>
      </trkpt>
      <trkpt lat="51.951541034504771" lon="-4.591315034776926">
        <ele>125.59</ele>
        <time>2026-06-25T10:39:57Z</time>
      </trkpt>
      <trkpt lat="51.951610017567873" lon="-4.59154000505805">
        <ele>126.55</ele>
        <time>2026-06-25T10:39:58Z</time>
      </trkpt>
      <trkpt lat="51.951758963987231" lon="-4.591945018619299">
        <ele>129.43000000000001</ele>
        <time>2026-06-25T10:40:00Z</time>
      </trkpt>
      <trkpt lat="51.952372016385198" lon="-4.592998959124088">
        <ele>138.56999999999999</ele>
        <time>2026-06-25T10:40:06Z</time>
      </trkpt>
      <trkpt lat="51.953124962747097" lon="-4.594148034229875">
        <ele>149.62</ele>
        <time>2026-06-25T10:40:13Z</time>
      </trkpt>
      <trkpt lat="51.953267036005855" lon="-4.594519017264247">
        <ele>152.03</ele>
        <time>2026-06-25T10:40:15Z</time>
      </trkpt>
      <trkpt lat="51.953339958563447" lon="-4.594711968675256">
        <ele>152.99000000000001</ele>
        <time>2026-06-25T10:40:16Z</time>
      </trkpt>
      <trkpt lat="51.953558977693319" lon="-4.595627021044493">
        <ele>157.31</ele>
        <time>2026-06-25T10:40:20Z</time>
      </trkpt>
      <trkpt lat="51.95360398851335" lon="-4.595877975225449">
        <ele>158.27000000000001</ele>
        <time>2026-06-25T10:40:21Z</time>
      </trkpt>
      <trkpt lat="51.954145040363073" lon="-4.598266985267401">
        <ele>173.16999999999999</ele>
        <time>2026-06-25T10:40:30Z</time>
      </trkpt>
      <trkpt lat="51.955037964507937" lon="-4.601396033540368">
        <ele>184.22999999999999</ele>
        <time>2026-06-25T10:40:41Z</time>
      </trkpt>
      <trkpt lat="51.956040021032095" lon="-4.603755958378315">
        <ele>188.08000000000001</ele>
        <time>2026-06-25T10:40:51Z</time>
      </trkpt>
      <trkpt lat="51.956532038748264" lon="-4.605060014873743">
        <ele>190.47999999999999</ele>
        <time>2026-06-25T10:40:59Z</time>
      </trkpt>
      <trkpt lat="51.956562967970967" lon="-4.605188006535173">
        <ele>190.47999999999999</ele>
        <time>2026-06-25T10:41:00Z</time>
      </trkpt>
      <trkpt lat="51.956573026254773" lon="-4.605309963226318">
        <ele>190.47999999999999</ele>
        <time>2026-06-25T10:41:01Z</time>
      </trkpt>
      <trkpt lat="51.956561962142587" lon="-4.605446001514792">
        <ele>190.47999999999999</ele>
        <time>2026-06-25T10:41:02Z</time>
      </trkpt>
      <trkpt lat="51.956549976021051" lon="-4.605594025924802">
        <ele>190.47999999999999</ele>
        <time>2026-06-25T10:41:03Z</time>
      </trkpt>
      <trkpt lat="51.956536984071136" lon="-4.605744984000921">
        <ele>190.47999999999999</ele>
        <time>2026-06-25T10:41:04Z</time>
      </trkpt>
      <trkpt lat="51.956463977694511" lon="-4.606497008353472">
        <ele>191.44</ele>
        <time>2026-06-25T10:41:09Z</time>
      </trkpt>
      <trkpt lat="51.956446962431073" lon="-4.606650983914733">
        <ele>191.44</ele>
        <time>2026-06-25T10:41:10Z</time>
      </trkpt>
      <trkpt lat="51.95633003488183" lon="-4.608693988993764">
        <ele>193.84</ele>
        <time>2026-06-25T10:41:23Z</time>
      </trkpt>
      <trkpt lat="51.956342021003366" lon="-4.610742023214698">
        <ele>199.61000000000001</ele>
        <time>2026-06-25T10:41:36Z</time>
      </trkpt>
      <trkpt lat="51.956301033496857" lon="-4.61104896850884">
        <ele>199.61000000000001</ele>
        <time>2026-06-25T10:41:38Z</time>
      </trkpt>
      <trkpt lat="51.956278989091516" lon="-4.611209984868765">
        <ele>200.09</ele>
        <time>2026-06-25T10:41:39Z</time>
      </trkpt>
      <trkpt lat="51.956104980781674" lon="-4.612310025840998">
        <ele>200.09</ele>
        <time>2026-06-25T10:41:47Z</time>
      </trkpt>
      <trkpt lat="51.956084026023746" lon="-4.612413039430976">
        <ele>200.09</ele>
        <time>2026-06-25T10:41:48Z</time>
      </trkpt>
      <trkpt lat="51.956062987446785" lon="-4.612519992515445">
        <ele>200.09</ele>
        <time>2026-06-25T10:41:49Z</time>
      </trkpt>
      <trkpt lat="51.956101963296533" lon="-4.612615965306759">
        <ele>200.09</ele>
        <time>2026-06-25T10:41:50Z</time>
      </trkpt>
      <trkpt lat="51.956139011308551" lon="-4.61270397529006">
        <ele>200.09</ele>
        <time>2026-06-25T10:41:51Z</time>
      </trkpt>
      <trkpt lat="51.95617999881506" lon="-4.612804977223277">
        <ele>200.09</ele>
        <time>2026-06-25T10:41:52Z</time>
      </trkpt>
      <trkpt lat="51.956612002104521" lon="-4.613852966576815">
        <ele>199.13</ele>
        <time>2026-06-25T10:42:00Z</time>
      </trkpt>
      <trkpt lat="51.957248020917177" lon="-4.615403031930327">
        <ele>198.65000000000001</ele>
        <time>2026-06-25T10:42:11Z</time>
      </trkpt>
      <trkpt lat="51.958268014714122" lon="-4.61790201254189">
        <ele>210.66999999999999</ele>
        <time>2026-06-25T10:42:26Z</time>
      </trkpt>
      <trkpt lat="51.959173008799553" lon="-4.620153978466988">
        <ele>221.24000000000001</ele>
        <time>2026-06-25T10:42:38Z</time>
      </trkpt>
      <trkpt lat="51.960061993449926" lon="-4.622338972985745">
        <ele>227.00999999999999</ele>
        <time>2026-06-25T10:42:47Z</time>
      </trkpt>
      <trkpt lat="51.961280973628163" lon="-4.625332988798618">
        <ele>227.49000000000001</ele>
        <time>2026-06-25T10:42:57Z</time>
      </trkpt>
      <trkpt lat="51.962610008195043" lon="-4.628591034561396">
        <ele>228.93000000000001</ele>
        <time>2026-06-25T10:43:08Z</time>
      </trkpt>
      <trkpt lat="51.963304029777646" lon="-4.630318963900209">
        <ele>231.33000000000001</ele>
        <time>2026-06-25T10:43:15Z</time>
      </trkpt>
      <trkpt lat="51.964427959173918" lon="-4.633122039958835">
        <ele>231.81</ele>
        <time>2026-06-25T10:43:26Z</time>
      </trkpt>
      <trkpt lat="51.965908035635948" lon="-4.636820973828435">
        <ele>232.78</ele>
        <time>2026-06-25T10:43:39Z</time>
      </trkpt>
      <trkpt lat="51.967450976371765" lon="-4.640678996220231">
        <ele>238.06</ele>
        <time>2026-06-25T10:43:52Z</time>
      </trkpt>
      <trkpt lat="51.968624023720622" lon="-4.643617020919919">
        <ele>242.87</ele>
        <time>2026-06-25T10:44:03Z</time>
      </trkpt>
      <trkpt lat="51.969005987048149" lon="-4.644619999453425">
        <ele>246.22999999999999</ele>
        <time>2026-06-25T10:44:09Z</time>
      </trkpt>
      <trkpt lat="51.969064995646477" lon="-4.644775986671448">
        <ele>246.72</ele>
        <time>2026-06-25T10:44:10Z</time>
      </trkpt>
      <trkpt lat="51.969124004244804" lon="-4.644929962232709">
        <ele>247.19999999999999</ele>
        <time>2026-06-25T10:44:11Z</time>
      </trkpt>
      <trkpt lat="51.969555001705885" lon="-4.646022962406278">
        <ele>248.16</ele>
        <time>2026-06-25T10:44:20Z</time>
      </trkpt>
      <trkpt lat="51.969905029982328" lon="-4.646947989240289">
        <ele>248.63999999999999</ele>
        <time>2026-06-25T10:44:29Z</time>
      </trkpt>
      <trkpt lat="51.970392018556595" lon="-4.648236036300659">
        <ele>251.03999999999999</ele>
        <time>2026-06-25T10:44:39Z</time>
      </trkpt>
      <trkpt lat="51.97051196359098" lon="-4.648555973544717">
        <ele>251.52000000000001</ele>
        <time>2026-06-25T10:44:42Z</time>
      </trkpt>
      <trkpt lat="51.970538031309843" lon="-4.648625962436199">
        <ele>251.52000000000001</ele>
        <time>2026-06-25T10:44:43Z</time>
      </trkpt>
      <trkpt lat="51.970589999109507" lon="-4.648762000724673">
        <ele>252</ele>
        <time>2026-06-25T10:44:49Z</time>
      </trkpt>
      <trkpt lat="51.970675997436047" lon="-4.648711960762739">
        <ele>252</ele>
        <time>2026-06-25T10:44:50Z</time>
      </trkpt>
      <trkpt lat="51.970742968842387" lon="-4.648672984912992">
        <ele>251.52000000000001</ele>
        <time>2026-06-25T10:44:51Z</time>
      </trkpt>
      <trkpt lat="51.97081002406776" lon="-4.648635014891625">
        <ele>251.03999999999999</ele>
        <time>2026-06-25T10:44:52Z</time>
      </trkpt>
      <trkpt lat="51.970878001302481" lon="-4.648596039041877">
        <ele>250.56</ele>
        <time>2026-06-25T10:44:53Z</time>
      </trkpt>
      <trkpt lat="51.971753994002938" lon="-4.648091029375792">
        <ele>245.75</ele>
        <time>2026-06-25T10:45:03Z</time>
      </trkpt>
      <trkpt lat="51.972998036071658" lon="-4.647341016680002">
        <ele>236.62</ele>
        <time>2026-06-25T10:45:17Z</time>
      </trkpt>
      <trkpt lat="51.974000008776784" lon="-4.646745985373855">
        <ele>230.84999999999999</ele>
        <time>2026-06-25T10:45:29Z</time>
      </trkpt>
      <trkpt lat="51.974151972681284" lon="-4.646615982055664">
        <ele>230.84999999999999</ele>
        <time>2026-06-25T10:45:32Z</time>
      </trkpt>
      <trkpt lat="51.974237971007824" lon="-4.646702986210585">
        <ele>230.84999999999999</ele>
        <time>2026-06-25T10:45:33Z</time>
      </trkpt>
      <trkpt lat="51.974322963505983" lon="-4.646787978708744">
        <ele>230.84999999999999</ele>
        <time>2026-06-25T10:45:34Z</time>
      </trkpt>
      <trkpt lat="51.974394964054227" lon="-4.646835001185536">
        <ele>231.33000000000001</ele>
        <time>2026-06-25T10:45:35Z</time>
      </trkpt>
      <trkpt lat="51.974488003179431" lon="-4.646896021440625">
        <ele>231.33000000000001</ele>
        <time>2026-06-25T10:45:36Z</time>
      </trkpt>
      <trkpt lat="51.975267017260194" lon="-4.647409999743104">
        <ele>235.66</ele>
        <time>2026-06-25T10:45:45Z</time>
      </trkpt>
      <trkpt lat="51.975877974182367" lon="-4.648195970803499">
        <ele>236.13999999999999</ele>
        <time>2026-06-25T10:45:55Z</time>
      </trkpt>
      <trkpt lat="51.976459007710218" lon="-4.649179000407457">
        <ele>234.69999999999999</ele>
        <time>2026-06-25T10:46:04Z</time>
      </trkpt>
      <trkpt lat="51.977142971009016" lon="-4.650277029722929">
        <ele>228.93000000000001</ele>
        <time>2026-06-25T10:46:12Z</time>
      </trkpt>
      <trkpt lat="51.978143015876412" lon="-4.652028009295464">
        <ele>216.43000000000001</ele>
        <time>2026-06-25T10:46:21Z</time>
      </trkpt>
      <trkpt lat="51.979115987196565" lon="-4.654090963304043">
        <ele>201.05000000000001</ele>
        <time>2026-06-25T10:46:30Z</time>
      </trkpt>
      <trkpt lat="51.980022992938757" lon="-4.655734989792109">
        <ele>191.44</ele>
        <time>2026-06-25T10:46:38Z</time>
      </trkpt>
      <trkpt lat="51.980130029842257" lon="-4.655960965901613">
        <ele>189.52000000000001</ele>
        <time>2026-06-25T10:46:40Z</time>
      </trkpt>
      <trkpt lat="51.98101700283587" lon="-4.658059040084481">
        <ele>182.78999999999999</ele>
        <time>2026-06-25T10:46:48Z</time>
      </trkpt>
      <trkpt lat="51.981822000816464" lon="-4.660256020724773">
        <ele>174.13999999999999</ele>
        <time>2026-06-25T10:46:57Z</time>
      </trkpt>
      <trkpt lat="51.982075972482562" lon="-4.660850968211889">
        <ele>170.77000000000001</ele>
        <time>2026-06-25T10:47:01Z</time>
      </trkpt>
      <trkpt lat="51.982163982465863" lon="-4.661005027592182">
        <ele>169.33000000000001</ele>
        <time>2026-06-25T10:47:02Z</time>
      </trkpt>
      <trkpt lat="51.982400016859174" lon="-4.661176018416882">
        <ele>168.37</ele>
        <time>2026-06-25T10:47:03Z</time>
      </trkpt>
      <trkpt lat="51.98265197686851" lon="-4.661264028400183">
        <ele>165.47999999999999</ele>
        <time>2026-06-25T10:47:06Z</time>
      </trkpt>
      <trkpt lat="51.982851969078183" lon="-4.661424960941076">
        <ele>164.52000000000001</ele>
        <time>2026-06-25T10:47:07Z</time>
      </trkpt>
      <trkpt lat="51.98293000459671" lon="-4.661539038643241">
        <ele>164.03999999999999</ele>
        <time>2026-06-25T10:47:08Z</time>
      </trkpt>
      <trkpt lat="51.983064031228423" lon="-4.661832991987467">
        <ele>163.56</ele>
        <time>2026-06-25T10:47:10Z</time>
      </trkpt>
      <trkpt lat="51.98312102816999" lon="-4.661957966163755">
        <ele>163.56</ele>
        <time>2026-06-25T10:47:11Z</time>
      </trkpt>
      <trkpt lat="51.98327299207449" lon="-4.662031978368759">
        <ele>163.56</ele>
        <time>2026-06-25T10:47:12Z</time>
      </trkpt>
      <trkpt lat="51.983395032584667" lon="-4.662090986967087">
        <ele>163.56</ele>
        <time>2026-06-25T10:47:13Z</time>
      </trkpt>
      <trkpt lat="51.983511038124561" lon="-4.662147983908653">
        <ele>164.03999999999999</ele>
        <time>2026-06-25T10:47:14Z</time>
      </trkpt>
      <trkpt lat="51.983897024765611" lon="-4.662353005260229">
        <ele>165</ele>
        <time>2026-06-25T10:47:18Z</time>
      </trkpt>
      <trkpt lat="51.983955027535558" lon="-4.662421988323331">
        <ele>165</ele>
        <time>2026-06-25T10:47:19Z</time>
      </trkpt>
      <trkpt lat="51.98400397785008" lon="-4.66254604049027">
        <ele>165.47999999999999</ele>
        <time>2026-06-25T10:47:20Z</time>
      </trkpt>
      <trkpt lat="51.984040020033717" lon="-4.662685012444854">
        <ele>165.47999999999999</ele>
        <time>2026-06-25T10:47:21Z</time>
      </trkpt>
      <trkpt lat="51.984082013368607" lon="-4.662844017148018">
        <ele>165.96000000000001</ele>
        <time>2026-06-25T10:47:22Z</time>
      </trkpt>
      <trkpt lat="51.984450984746218" lon="-4.664257960394025">
        <ele>170.77000000000001</ele>
        <time>2026-06-25T10:47:29Z</time>
      </trkpt>
      <trkpt lat="51.984473029151559" lon="-4.664465999230743">
        <ele>171.25</ele>
        <time>2026-06-25T10:47:30Z</time>
      </trkpt>
      <trkpt lat="51.984480991959572" lon="-4.664904037490487">
        <ele>172.21000000000001</ele>
        <time>2026-06-25T10:47:32Z</time>
      </trkpt>
      <trkpt lat="51.984538994729519" lon="-4.665106041356921">
        <ele>173.16999999999999</ele>
        <time>2026-06-25T10:47:33Z</time>
      </trkpt>
      <trkpt lat="51.984594985842705" lon="-4.665301004424691">
        <ele>173.66</ele>
        <time>2026-06-25T10:47:34Z</time>
      </trkpt>
      <trkpt lat="51.984759019687772" lon="-4.665868962183595">
        <ele>174.13999999999999</ele>
        <time>2026-06-25T10:47:37Z</time>
      </trkpt>
      <trkpt lat="51.984791960567236" lon="-4.666084963828325">
        <ele>174.13999999999999</ele>
        <time>2026-06-25T10:47:38Z</time>
      </trkpt>
      <trkpt lat="51.984786009415984" lon="-4.666317980736494">
        <ele>174.62</ele>
        <time>2026-06-25T10:47:39Z</time>
      </trkpt>
      <trkpt lat="51.98475600220263" lon="-4.667476024478674">
        <ele>173.66</ele>
        <time>2026-06-25T10:47:45Z</time>
      </trkpt>
      <trkpt lat="51.984783997759223" lon="-4.667667970061302">
        <ele>173.66</ele>
        <time>2026-06-25T10:47:46Z</time>
      </trkpt>
      <trkpt lat="51.984871001914144" lon="-4.667731001973152">
        <ele>173.16999999999999</ele>
        <time>2026-06-25T10:47:47Z</time>
      </trkpt>
      <trkpt lat="51.984975021332502" lon="-4.667807025834918">
        <ele>173.66</ele>
        <time>2026-06-25T10:47:48Z</time>
      </trkpt>
      <trkpt lat="51.984975021332502" lon="-4.667807025834918">
        <ele>173.66</ele>
        <time>2026-06-25T10:47:49Z</time>
      </trkpt>
      <trkpt lat="51.986173968762159" lon="-4.668569024652243">
        <ele>175.09999999999999</ele>
        <time>2026-06-25T10:47:57Z</time>
      </trkpt>
      <trkpt lat="51.98632400482893" lon="-4.6686299610883">
        <ele>175.58000000000001</ele>
        <time>2026-06-25T10:47:58Z</time>
      </trkpt>
      <trkpt lat="51.986478986218572" lon="-4.668658962473273">
        <ele>175.58000000000001</ele>
        <time>2026-06-25T10:47:59Z</time>
      </trkpt>
      <trkpt lat="51.987692015245557" lon="-4.6688889618963">
        <ele>177.5</ele>
        <time>2026-06-25T10:48:07Z</time>
      </trkpt>
      <trkpt lat="51.987822018563747" lon="-4.668836994096637">
        <ele>177.97999999999999</ele>
        <time>2026-06-25T10:48:08Z</time>
      </trkpt>
      <trkpt lat="51.98802100494504" lon="-4.668761976063252">
        <ele>177.97999999999999</ele>
        <time>2026-06-25T10:48:10Z</time>
      </trkpt>
      <trkpt lat="51.988116977736354" lon="-4.668781002983451">
        <ele>177.97999999999999</ele>
        <time>2026-06-25T10:48:11Z</time>
      </trkpt>
      <trkpt lat="51.988214962184429" lon="-4.66886498965323">
        <ele>177.97999999999999</ele>
        <time>2026-06-25T10:48:12Z</time>
      </trkpt>
      <trkpt lat="51.988318981602788" lon="-4.668957022950053">
        <ele>177.97999999999999</ele>
        <time>2026-06-25T10:48:13Z</time>
      </trkpt>
      <trkpt lat="51.988438004627824" lon="-4.66906095854938">
        <ele>177.5</ele>
        <time>2026-06-25T10:48:14Z</time>
      </trkpt>
      <trkpt lat="51.989514995366335" lon="-4.670009035617113">
        <ele>176.53999999999999</ele>
        <time>2026-06-25T10:48:21Z</time>
      </trkpt>
      <trkpt lat="51.991027006879449" lon="-4.671200020238757">
        <ele>174.62</ele>
        <time>2026-06-25T10:48:30Z</time>
      </trkpt>
      <trkpt lat="51.991192968562245" lon="-4.671252993866801">
        <ele>174.62</ele>
        <time>2026-06-25T10:48:31Z</time>
      </trkpt>
      <trkpt lat="51.991363959386945" lon="-4.67131401412189">
        <ele>174.13999999999999</ele>
        <time>2026-06-25T10:48:32Z</time>
      </trkpt>
      <trkpt lat="51.992621999233961" lon="-4.671896975487471">
        <ele>170.77000000000001</ele>
        <time>2026-06-25T10:48:40Z</time>
      </trkpt>
      <trkpt lat="51.992851998656988" lon="-4.671940980479121">
        <ele>169.33000000000001</ele>
        <time>2026-06-25T10:48:42Z</time>
      </trkpt>
      <trkpt lat="51.99294101446867" lon="-4.671879038214684">
        <ele>168.37</ele>
        <time>2026-06-25T10:48:43Z</time>
      </trkpt>
      <trkpt lat="51.993048973381519" lon="-4.671831009909511">
        <ele>167.88999999999999</ele>
        <time>2026-06-25T10:48:44Z</time>
      </trkpt>
      <trkpt lat="51.993169002234936" lon="-4.671839978545904">
        <ele>167.41</ele>
        <time>2026-06-25T10:48:45Z</time>
      </trkpt>
      <trkpt lat="51.993304034695029" lon="-4.67185003682971">
        <ele>166.44999999999999</ele>
        <time>2026-06-25T10:48:46Z</time>
      </trkpt>
      <trkpt lat="51.993449041619897" lon="-4.671860011294484">
        <ele>165.96000000000001</ele>
        <time>2026-06-25T10:48:47Z</time>
      </trkpt>
      <trkpt lat="51.994884023442864" lon="-4.671825980767608">
        <ele>155.87</ele>
        <time>2026-06-25T10:48:57Z</time>
      </trkpt>
      <trkpt lat="51.995966965332627" lon="-4.671719027683139">
        <ele>146.74000000000001</ele>
        <time>2026-06-25T10:49:06Z</time>
      </trkpt>
      <trkpt lat="51.997181000187993" lon="-4.672129992395639">
        <ele>140.49000000000001</ele>
        <time>2026-06-25T10:49:14Z</time>
      </trkpt>
      <trkpt lat="51.997749963775277" lon="-4.672373989596963">
        <ele>136.63999999999999</ele>
        <time>2026-06-25T10:49:18Z</time>
      </trkpt>
      <trkpt lat="51.997749963775277" lon="-4.672372983768582">
        <ele>135.68000000000001</ele>
        <time>2026-06-25T10:49:19Z</time>
      </trkpt>
      <trkpt lat="51.998016005381942" lon="-4.672546992078424">
        <ele>134.72</ele>
        <time>2026-06-25T10:49:20Z</time>
      </trkpt>
      <trkpt lat="51.998854028061032" lon="-4.673189967870712">
        <ele>129.43000000000001</ele>
        <time>2026-06-25T10:49:27Z</time>
      </trkpt>
      <trkpt lat="51.998854028061032" lon="-4.673189967870712">
        <ele>128.94999999999999</ele>
        <time>2026-06-25T10:49:28Z</time>
      </trkpt>
      <trkpt lat="51.998959975317121" lon="-4.673357019200921">
        <ele>127.98999999999999</ele>
        <time>2026-06-25T10:49:29Z</time>
      </trkpt>
      <trkpt lat="51.999416034668684" lon="-4.67421599663794">
        <ele>126.55</ele>
        <time>2026-06-25T10:49:33Z</time>
      </trkpt>
      <trkpt lat="51.999461967498064" lon="-4.674392016604543">
        <ele>126.55</ele>
        <time>2026-06-25T10:49:34Z</time>
      </trkpt>
      <trkpt lat="51.999492980539799" lon="-4.674511039629579">
        <ele>127.03</ele>
        <time>2026-06-25T10:49:35Z</time>
      </trkpt>
      <trkpt lat="51.99958199635148" lon="-4.674658980220556">
        <ele>127.51000000000001</ele>
        <time>2026-06-25T10:49:36Z</time>
      </trkpt>
      <trkpt lat="51.999665983021259" lon="-4.674755958840251">
        <ele>128.47</ele>
        <time>2026-06-25T10:49:37Z</time>
      </trkpt>
      <trkpt lat="51.999764973297715" lon="-4.674825025722385">
        <ele>128.94999999999999</ele>
        <time>2026-06-25T10:49:38Z</time>
      </trkpt>
      <trkpt lat="51.999868992716074" lon="-4.674885962158442">
        <ele>129.91999999999999</ele>
        <time>2026-06-25T10:49:39Z</time>
      </trkpt>
      <trkpt lat="51.999992039054632" lon="-4.67492401599884">
        <ele>130.40000000000001</ele>
        <time>2026-06-25T10:49:40Z</time>
      </trkpt>
      <trkpt lat="52.000123970210552" lon="-4.674963997676969">
        <ele>130.88</ele>
        <time>2026-06-25T10:49:41Z</time>
      </trkpt>
      <trkpt lat="52.000123970210552" lon="-4.674963997676969">
        <ele>131.36000000000001</ele>
        <time>2026-06-25T10:49:42Z</time>
      </trkpt>
      <trkpt lat="52.00054700486362" lon="-4.675144040957093">
        <ele>132.80000000000001</ele>
        <time>2026-06-25T10:49:44Z</time>
      </trkpt>
      <trkpt lat="52.001741006970406" lon="-4.675831021741033">
        <ele>139.05000000000001</ele>
        <time>2026-06-25T10:49:52Z</time>
      </trkpt>
      <trkpt lat="52.002914976328611" lon="-4.676096979528666">
        <ele>144.34</ele>
        <time>2026-06-25T10:50:00Z</time>
      </trkpt>
      <trkpt lat="52.003349997103214" lon="-4.67606496065855">
        <ele>143.84999999999999</ele>
        <time>2026-06-25T10:50:03Z</time>
      </trkpt>
      <trkpt lat="52.004649024456739" lon="-4.67653501778841">
        <ele>145.78</ele>
        <time>2026-06-25T10:50:11Z</time>
      </trkpt>
      <trkpt lat="52.005272973328829" lon="-4.676942965015769">
        <ele>147.22</ele>
        <time>2026-06-25T10:50:16Z</time>
      </trkpt>
      <trkpt lat="52.005609003826976" lon="-4.677321994677186">
        <ele>147.69999999999999</ele>
        <time>2026-06-25T10:50:19Z</time>
      </trkpt>
      <trkpt lat="52.006527995690703" lon="-4.67808198183775">
        <ele>149.62</ele>
        <time>2026-06-25T10:50:26Z</time>
      </trkpt>
      <trkpt lat="52.006660010665655" lon="-4.678140990436077">
        <ele>150.09999999999999</ele>
        <time>2026-06-25T10:50:27Z</time>
      </trkpt>
      <trkpt lat="52.006792025640607" lon="-4.678164040669799">
        <ele>150.58000000000001</ele>
        <time>2026-06-25T10:50:28Z</time>
      </trkpt>
      <trkpt lat="52.007691990584135" lon="-4.678457994014025">
        <ele>152.99000000000001</ele>
        <time>2026-06-25T10:50:35Z</time>
      </trkpt>
      <trkpt lat="52.00782903470099" lon="-4.678515996783972">
        <ele>153.47</ele>
        <time>2026-06-25T10:50:36Z</time>
      </trkpt>
      <trkpt lat="52.00796096585691" lon="-4.678570982068777">
        <ele>153.94999999999999</ele>
        <time>2026-06-25T10:50:37Z</time>
      </trkpt>
      <trkpt lat="52.008064985275269" lon="-4.678614987060428">
        <ele>153.94999999999999</ele>
        <time>2026-06-25T10:50:38Z</time>
      </trkpt>
      <trkpt lat="52.008158024400473" lon="-4.678653962910175">
        <ele>154.43000000000001</ele>
        <time>2026-06-25T10:50:39Z</time>
      </trkpt>
      <trkpt lat="52.008291967213154" lon="-4.678753037005663">
        <ele>155.38999999999999</ele>
        <time>2026-06-25T10:50:41Z</time>
      </trkpt>
      <trkpt lat="52.008338989689946" lon="-4.678796958178282">
        <ele>156.34999999999999</ele>
        <time>2026-06-25T10:50:43Z</time>
      </trkpt>
      <trkpt lat="52.008379977196455" lon="-4.6788340061903">
        <ele>156.34999999999999</ele>
        <time>2026-06-25T10:50:44Z</time>
      </trkpt>
      <trkpt lat="52.008480979129672" lon="-4.678988987579942">
        <ele>157.31</ele>
        <time>2026-06-25T10:50:45Z</time>
      </trkpt>
      <trkpt lat="52.008515009656549" lon="-4.679136006161571">
        <ele>157.78999999999999</ele>
        <time>2026-06-25T10:50:46Z</time>
      </trkpt>
      <trkpt lat="52.008553985506296" lon="-4.679304985329509">
        <ele>158.75</ele>
        <time>2026-06-25T10:50:47Z</time>
      </trkpt>
      <trkpt lat="52.008938966318965" lon="-4.680819008499384">
        <ele>164.03999999999999</ele>
        <time>2026-06-25T10:50:54Z</time>
      </trkpt>
      <trkpt lat="52.009713035076857" lon="-4.683440029621124">
        <ele>170.77000000000001</ele>
        <time>2026-06-25T10:51:05Z</time>
      </trkpt>
      <trkpt lat="52.010444020852447" lon="-4.685570960864425">
        <ele>177.02000000000001</ele>
        <time>2026-06-25T10:51:13Z</time>
      </trkpt>
      <trkpt lat="52.010507974773645" lon="-4.685892993584275">
        <ele>177.97999999999999</ele>
        <time>2026-06-25T10:51:14Z</time>
      </trkpt>
      <trkpt lat="52.010537981987" lon="-4.686226006597281">
        <ele>178.94</ele>
        <time>2026-06-25T10:51:15Z</time>
      </trkpt>
      <trkpt lat="52.010563965886831" lon="-4.686564970761538">
        <ele>179.90000000000001</ele>
        <time>2026-06-25T10:51:16Z</time>
      </trkpt>
      <trkpt lat="52.010548962280154" lon="-4.686904018744826">
        <ele>180.38</ele>
        <time>2026-06-25T10:51:17Z</time>
      </trkpt>
      <trkpt lat="52.010534964501858" lon="-4.687243988737464">
        <ele>180.38</ele>
        <time>2026-06-25T10:51:18Z</time>
      </trkpt>
      <trkpt lat="52.010519960895181" lon="-4.687588987872005">
        <ele>181.34999999999999</ele>
        <time>2026-06-25T10:51:19Z</time>
      </trkpt>
      <trkpt lat="52.010527001693845" lon="-4.689945979043841">
        <ele>180.87</ele>
        <time>2026-06-25T10:51:26Z</time>
      </trkpt>
      <trkpt lat="52.010530019178987" lon="-4.692689962685108">
        <ele>178.94</ele>
        <time>2026-06-25T10:51:34Z</time>
      </trkpt>
      <trkpt lat="52.010379983112216" lon="-4.694443959742785">
        <ele>176.53999999999999</ele>
        <time>2026-06-25T10:51:40Z</time>
      </trkpt>
      <trkpt lat="52.010363973677158" lon="-4.694706983864307">
        <ele>176.06</ele>
        <time>2026-06-25T10:51:41Z</time>
      </trkpt>
      <trkpt lat="52.010350981727242" lon="-4.69494896940887">
        <ele>175.09999999999999</ele>
        <time>2026-06-25T10:51:42Z</time>
      </trkpt>
      <trkpt lat="52.010293984785676" lon="-4.697455996647477">
        <ele>170.28999999999999</ele>
        <time>2026-06-25T10:51:52Z</time>
      </trkpt>
      <trkpt lat="52.010096004232764" lon="-4.70029997639358">
        <ele>166.44999999999999</ele>
        <time>2026-06-25T10:52:00Z</time>
      </trkpt>
      <trkpt lat="52.010087035596371" lon="-4.701906032860279">
        <ele>164.52000000000001</ele>
        <time>2026-06-25T10:52:05Z</time>
      </trkpt>
      <trkpt lat="52.010123999789357" lon="-4.70221096649766">
        <ele>164.52000000000001</ele>
        <time>2026-06-25T10:52:06Z</time>
      </trkpt>
      <trkpt lat="52.010487020015717" lon="-4.704467039555311">
        <ele>161.16</ele>
        <time>2026-06-25T10:52:14Z</time>
      </trkpt>
      <trkpt lat="52.010544016957283" lon="-4.70465898513794">
        <ele>160.68000000000001</ele>
        <time>2026-06-25T10:52:15Z</time>
      </trkpt>
      <trkpt lat="52.010652981698513" lon="-4.704876998439431">
        <ele>160.19999999999999</ele>
        <time>2026-06-25T10:52:16Z</time>
      </trkpt>
      <trkpt lat="52.010749960318208" lon="-4.705071039497852">
        <ele>159.72</ele>
        <time>2026-06-25T10:52:17Z</time>
      </trkpt>
      <trkpt lat="52.01143903657794" lon="-4.706137971952558">
        <ele>157.78999999999999</ele>
        <time>2026-06-25T10:52:23Z</time>
      </trkpt>
      <trkpt lat="52.01253698207438" lon="-4.707364998757839">
        <ele>152.50999999999999</ele>
        <time>2026-06-25T10:52:32Z</time>
      </trkpt>
      <trkpt lat="52.013256987556815" lon="-4.708255995064974">
        <ele>147.22</ele>
        <time>2026-06-25T10:52:40Z</time>
      </trkpt>
      <trkpt lat="52.013352960348129" lon="-4.70844098366797">
        <ele>145.30000000000001</ele>
        <time>2026-06-25T10:52:42Z</time>
      </trkpt>
      <trkpt lat="52.013384979218245" lon="-4.708583978936076">
        <ele>144.81999999999999</ele>
        <time>2026-06-25T10:52:43Z</time>
      </trkpt>
      <trkpt lat="52.013419009745121" lon="-4.708738960325718">
        <ele>144.34</ele>
        <time>2026-06-25T10:52:44Z</time>
      </trkpt>
      <trkpt lat="52.0134839694947" lon="-4.709036014974117">
        <ele>143.84999999999999</ele>
        <time>2026-06-25T10:52:46Z</time>
      </trkpt>
      <trkpt lat="52.013565022498369" lon="-4.709198959171772">
        <ele>143.84999999999999</ele>
        <time>2026-06-25T10:52:47Z</time>
      </trkpt>
      <trkpt lat="52.013621013611555" lon="-4.709311025217176">
        <ele>143.37</ele>
        <time>2026-06-25T10:52:48Z</time>
      </trkpt>
      <trkpt lat="52.013679016381502" lon="-4.70940699800849">
        <ele>142.88999999999999</ele>
        <time>2026-06-25T10:52:49Z</time>
      </trkpt>
      <trkpt lat="52.013731990009546" lon="-4.709467012435198">
        <ele>142.41</ele>
        <time>2026-06-25T10:52:50Z</time>
      </trkpt>
      <trkpt lat="52.013768032193184" lon="-4.709509005770087">
        <ele>141.93000000000001</ele>
        <time>2026-06-25T10:52:51Z</time>
      </trkpt>
      <trkpt lat="52.013790998607874" lon="-4.709533983841538">
        <ele>141.44999999999999</ele>
        <time>2026-06-25T10:52:52Z</time>
      </trkpt>
      <trkpt lat="52.013806002214551" lon="-4.709550999104977">
        <ele>140.97</ele>
        <time>2026-06-25T10:52:55Z</time>
      </trkpt>
      <trkpt lat="52.013769038021564" lon="-4.709634985774756">
        <ele>140.49000000000001</ele>
        <time>2026-06-25T10:52:57Z</time>
      </trkpt>
      <trkpt lat="52.013737019151449" lon="-4.70970899797976">
        <ele>139.53</ele>
        <time>2026-06-25T10:52:58Z</time>
      </trkpt>
      <trkpt lat="52.013694019988179" lon="-4.709808994084597">
        <ele>139.53</ele>
        <time>2026-06-25T10:52:59Z</time>
      </trkpt>
      <trkpt lat="52.013643980026245" lon="-4.709924999624491">
        <ele>139.05000000000001</ele>
        <time>2026-06-25T10:53:00Z</time>
      </trkpt>
      <trkpt lat="52.013591006398201" lon="-4.710047040134668">
        <ele>138.56999999999999</ele>
        <time>2026-06-25T10:53:01Z</time>
      </trkpt>
      <trkpt lat="52.013112986460328" lon="-4.711010036990047">
        <ele>134.72</ele>
        <time>2026-06-25T10:53:08Z</time>
      </trkpt>
      <trkpt lat="52.012936966493726" lon="-4.711423013359308">
        <ele>132.80000000000001</ele>
        <time>2026-06-25T10:53:12Z</time>
      </trkpt>
      <trkpt lat="52.0129020139575" lon="-4.711516974493861">
        <ele>132.31999999999999</ele>
        <time>2026-06-25T10:53:13Z</time>
      </trkpt>
      <trkpt lat="52.012651981785893" lon="-4.712105970829725">
        <ele>128.94999999999999</ele>
        <time>2026-06-25T10:53:19Z</time>
      </trkpt>
      <trkpt lat="52.012590961530805" lon="-4.712195992469788">
        <ele>128.47</ele>
        <time>2026-06-25T10:53:20Z</time>
      </trkpt>
      <trkpt lat="52.012524995952845" lon="-4.712291965261102">
        <ele>127.51000000000001</ele>
        <time>2026-06-25T10:53:21Z</time>
      </trkpt>
      <trkpt lat="52.012269012629986" lon="-4.712653979659081">
        <ele>124.63</ele>
        <time>2026-06-25T10:53:25Z</time>
      </trkpt>
      <trkpt lat="52.012201035395265" lon="-4.712746012955904">
        <ele>124.15000000000001</ele>
        <time>2026-06-25T10:53:26Z</time>
      </trkpt>
      <trkpt lat="52.012131968513131" lon="-4.712840979918838">
        <ele>124.15000000000001</ele>
        <time>2026-06-25T10:53:27Z</time>
      </trkpt>
      <trkpt lat="52.011957038193941" lon="-4.713266026228666">
        <ele>123.67</ele>
        <time>2026-06-25T10:53:31Z</time>
      </trkpt>
      <trkpt lat="52.01191496104002" lon="-4.713383037596941">
        <ele>124.63</ele>
        <time>2026-06-25T10:53:32Z</time>
      </trkpt>
      <trkpt lat="52.011871039867401" lon="-4.713517986238003">
        <ele>125.11</ele>
        <time>2026-06-25T10:53:33Z</time>
      </trkpt>
      <trkpt lat="52.011823011562228" lon="-4.713681014254689">
        <ele>126.06999999999999</ele>
        <time>2026-06-25T10:53:34Z</time>
      </trkpt>
      <trkpt lat="52.011769032105803" lon="-4.713867008686066">
        <ele>126.55</ele>
        <time>2026-06-25T10:53:35Z</time>
      </trkpt>
      <trkpt lat="52.011273996904492" lon="-4.715286986902356">
        <ele>129.91999999999999</ele>
        <time>2026-06-25T10:53:43Z</time>
      </trkpt>
      <trkpt lat="52.010410996153951" lon="-4.717394029721618">
        <ele>131.84</ele>
        <time>2026-06-25T10:53:51Z</time>
      </trkpt>
      <trkpt lat="52.009647991508245" lon="-4.719121959060431">
        <ele>128.94999999999999</ele>
        <time>2026-06-25T10:53:57Z</time>
      </trkpt>
      <trkpt lat="52.009296035394073" lon="-4.719976997002959">
        <ele>130.40000000000001</ele>
        <time>2026-06-25T10:54:01Z</time>
      </trkpt>
      <trkpt lat="52.00922797434032" lon="-4.720188975334168">
        <ele>131.36000000000001</ele>
        <time>2026-06-25T10:54:02Z</time>
      </trkpt>
      <trkpt lat="52.009173994883895" lon="-4.720411011949182">
        <ele>131.84</ele>
        <time>2026-06-25T10:54:03Z</time>
      </trkpt>
      <trkpt lat="52.008837964385748" lon="-4.722930025309324">
        <ele>137.13</ele>
        <time>2026-06-25T10:54:13Z</time>
      </trkpt>
      <trkpt lat="52.008951958268881" lon="-4.725310988724232">
        <ele>145.78</ele>
        <time>2026-06-25T10:54:22Z</time>
      </trkpt>
      <trkpt lat="52.009260999038815" lon="-4.727428006008267">
        <ele>149.13999999999999</ele>
        <time>2026-06-25T10:54:30Z</time>
      </trkpt>
      <trkpt lat="52.009566016495228" lon="-4.729982977733016">
        <ele>146.74000000000001</ele>
        <time>2026-06-25T10:54:38Z</time>
      </trkpt>
      <trkpt lat="52.009773971512914" lon="-4.73183898255229">
        <ele>138.56999999999999</ele>
        <time>2026-06-25T10:54:45Z</time>
      </trkpt>
      <trkpt lat="52.009682022035122" lon="-4.734207959845662">
        <ele>122.70999999999999</ele>
        <time>2026-06-25T10:54:53Z</time>
      </trkpt>
      <trkpt lat="52.009642962366343" lon="-4.73478396423161">
        <ele>119.34</ele>
        <time>2026-06-25T10:54:55Z</time>
      </trkpt>
      <trkpt lat="52.009568028151989" lon="-4.736481970176101">
        <ele>114.05</ele>
        <time>2026-06-25T10:55:02Z</time>
      </trkpt>
      <trkpt lat="52.009574985131621" lon="-4.73675899207592">
        <ele>114.05</ele>
        <time>2026-06-25T10:55:03Z</time>
      </trkpt>
      <trkpt lat="52.00970096513629" lon="-4.737544041126967">
        <ele>114.53</ele>
        <time>2026-06-25T10:55:06Z</time>
      </trkpt>
      <trkpt lat="52.010056022554636" lon="-4.738990003243089">
        <ele>115.5</ele>
        <time>2026-06-25T10:55:11Z</time>
      </trkpt>
      <trkpt lat="52.01012902893126" lon="-4.739361992105842">
        <ele>116.45999999999999</ele>
        <time>2026-06-25T10:55:12Z</time>
      </trkpt>
      <trkpt lat="52.010173033922911" lon="-4.739782009273768">
        <ele>116.94</ele>
        <time>2026-06-25T10:55:13Z</time>
      </trkpt>
      <trkpt lat="52.010592967271805" lon="-4.743155976757407">
        <ele>122.70999999999999</ele>
        <time>2026-06-25T10:55:21Z</time>
      </trkpt>
      <trkpt lat="52.011394025757909" lon="-4.745735004544258">
        <ele>120.78</ele>
        <time>2026-06-25T10:55:28Z</time>
      </trkpt>
      <trkpt lat="52.012064997106791" lon="-4.748328030109406">
        <ele>110.69</ele>
        <time>2026-06-25T10:55:35Z</time>
      </trkpt>
      <trkpt lat="52.012700010091066" lon="-4.751955969259143">
        <ele>95.790000000000006</ele>
        <time>2026-06-25T10:55:45Z</time>
      </trkpt>
      <trkpt lat="52.013317001983523" lon="-4.755703015252948">
        <ele>85.209999999999994</ele>
        <time>2026-06-25T10:55:56Z</time>
      </trkpt>
      <trkpt lat="52.013939023017883" lon="-4.758192021399736">
        <ele>72.239999999999995</ele>
        <time>2026-06-25T10:56:04Z</time>
      </trkpt>
      <trkpt lat="52.014915011823177" lon="-4.761170027777553">
        <ele>48.68</ele>
        <time>2026-06-25T10:56:14Z</time>
      </trkpt>
      <trkpt lat="52.01513696461916" lon="-4.761635977774859">
        <ele>46.759999999999998</ele>
        <time>2026-06-25T10:56:16Z</time>
      </trkpt>
      <trkpt lat="52.015601992607117" lon="-4.762534014880657">
        <ele>43.399999999999999</ele>
        <time>2026-06-25T10:56:20Z</time>
      </trkpt>
      <trkpt lat="52.016058973968029" lon="-4.763130974024534">
        <ele>40.990000000000002</ele>
        <time>2026-06-25T10:56:24Z</time>
      </trkpt>
      <trkpt lat="52.016238011419773" lon="-4.763230970129371">
        <ele>40.509999999999998</ele>
        <time>2026-06-25T10:56:25Z</time>
      </trkpt>
      <trkpt lat="52.016397016122937" lon="-4.763318980112672">
        <ele>40.030000000000001</ele>
        <time>2026-06-25T10:56:26Z</time>
      </trkpt>
      <trkpt lat="52.016560966148973" lon="-4.763410007581115">
        <ele>39.07</ele>
        <time>2026-06-25T10:56:27Z</time>
      </trkpt>
      <trkpt lat="52.016728017479181" lon="-4.763502962887287">
        <ele>38.109999999999999</ele>
        <time>2026-06-25T10:56:28Z</time>
      </trkpt>
      <trkpt lat="52.01687403023243" lon="-4.763633972033858">
        <ele>37.630000000000003</ele>
        <time>2026-06-25T10:56:29Z</time>
      </trkpt>
      <trkpt lat="52.016980983316898" lon="-4.763818038627505">
        <ele>37.149999999999999</ele>
        <time>2026-06-25T10:56:30Z</time>
      </trkpt>
      <trkpt lat="52.017064969986677" lon="-4.764026999473572">
        <ele>36.670000000000002</ele>
        <time>2026-06-25T10:56:31Z</time>
      </trkpt>
      <trkpt lat="52.01713596470654" lon="-4.764234032481909">
        <ele>36.189999999999998</ele>
        <time>2026-06-25T10:56:32Z</time>
      </trkpt>
      <trkpt lat="52.017197990790009" lon="-4.764451961964369">
        <ele>36.189999999999998</ele>
        <time>2026-06-25T10:56:33Z</time>
      </trkpt>
      <trkpt lat="52.017260016873479" lon="-4.764669975265861">
        <ele>36.189999999999998</ele>
        <time>2026-06-25T10:56:34Z</time>
      </trkpt>
      <trkpt lat="52.017346015200019" lon="-4.764977004379034">
        <ele>35.710000000000001</ele>
        <time>2026-06-25T10:56:35Z</time>
      </trkpt>
      <trkpt lat="52.017584983259439" lon="-4.767088992521167">
        <ele>33.780000000000001</ele>
        <time>2026-06-25T10:56:43Z</time>
      </trkpt>
      <trkpt lat="52.017677016556263" lon="-4.768521040678024">
        <ele>30.899999999999999</ele>
        <time>2026-06-25T10:56:50Z</time>
      </trkpt>
      <trkpt lat="52.017655977979302" lon="-4.76870896294713">
        <ele>30.420000000000002</ele>
        <time>2026-06-25T10:56:51Z</time>
      </trkpt>
      <trkpt lat="52.017579032108188" lon="-4.768901998177171">
        <ele>29.940000000000001</ele>
        <time>2026-06-25T10:56:52Z</time>
      </trkpt>
      <trkpt lat="52.017490016296506" lon="-4.769041975960136">
        <ele>29.460000000000001</ele>
        <time>2026-06-25T10:56:53Z</time>
      </trkpt>
      <trkpt lat="52.017397982999682" lon="-4.769185977056623">
        <ele>29.460000000000001</ele>
        <time>2026-06-25T10:56:54Z</time>
      </trkpt>
      <trkpt lat="52.017309973016381" lon="-4.769336013123393">
        <ele>29.460000000000001</ele>
        <time>2026-06-25T10:56:55Z</time>
      </trkpt>
      <trkpt lat="52.017061030492187" lon="-4.76978100836277">
        <ele>28.98</ele>
        <time>2026-06-25T10:56:58Z</time>
      </trkpt>
      <trkpt lat="52.01696103438735" lon="-4.7699090000242">
        <ele>28.5</ele>
        <time>2026-06-25T10:56:59Z</time>
      </trkpt>
      <trkpt lat="52.016860032454133" lon="-4.77003799751401">
        <ele>28.02</ele>
        <time>2026-06-25T10:57:00Z</time>
      </trkpt>
      <trkpt lat="52.01588898897171" lon="-4.771277010440826">
        <ele>28.98</ele>
        <time>2026-06-25T10:57:08Z</time>
      </trkpt>
      <trkpt lat="52.014820966869593" lon="-4.772860016673803">
        <ele>37.149999999999999</ele>
        <time>2026-06-25T10:57:15Z</time>
      </trkpt>
      <trkpt lat="52.014397010207176" lon="-4.773889984935522">
        <ele>45.799999999999997</ele>
        <time>2026-06-25T10:57:19Z</time>
      </trkpt>
      <trkpt lat="52.014310006052256" lon="-4.774166001006961">
        <ele>48.200000000000003</ele>
        <time>2026-06-25T10:57:20Z</time>
      </trkpt>
      <trkpt lat="52.014256026595831" lon="-4.774449979886413">
        <ele>50.609999999999999</ele>
        <time>2026-06-25T10:57:21Z</time>
      </trkpt>
      <trkpt lat="52.014217972755432" lon="-4.774772012606263">
        <ele>52.530000000000001</ele>
        <time>2026-06-25T10:57:22Z</time>
      </trkpt>
      <trkpt lat="52.014178996905684" lon="-4.775095973163843">
        <ele>53.969999999999999</ele>
        <time>2026-06-25T10:57:23Z</time>
      </trkpt>
      <trkpt lat="52.014170028269291" lon="-4.775417000055313">
        <ele>55.890000000000001</ele>
        <time>2026-06-25T10:57:24Z</time>
      </trkpt>
      <trkpt lat="52.014170028269291" lon="-4.775749007239938">
        <ele>57.340000000000003</ele>
        <time>2026-06-25T10:57:25Z</time>
      </trkpt>
      <trkpt lat="52.014170028269291" lon="-4.776084031909704">
        <ele>58.299999999999997</ele>
        <time>2026-06-25T10:57:26Z</time>
      </trkpt>
      <trkpt lat="52.014203974977136" lon="-4.776416961103678">
        <ele>59.740000000000002</ele>
        <time>2026-06-25T10:57:27Z</time>
      </trkpt>
      <trkpt lat="52.014260971918702" lon="-4.776752991601825">
        <ele>60.700000000000003</ele>
        <time>2026-06-25T10:57:28Z</time>
      </trkpt>
      <trkpt lat="52.0144700165838" lon="-4.777722023427486">
        <ele>61.659999999999997</ele>
        <time>2026-06-25T10:57:31Z</time>
      </trkpt>
      <trkpt lat="52.01455601491034" lon="-4.778051013126969">
        <ele>61.18</ele>
        <time>2026-06-25T10:57:32Z</time>
      </trkpt>
      <trkpt lat="52.015384985134006" lon="-4.780040038749576">
        <ele>54.93</ele>
        <time>2026-06-25T10:57:39Z</time>
      </trkpt>
      <trkpt lat="52.015723027288914" lon="-4.781022984534502">
        <ele>47.719999999999999</ele>
        <time>2026-06-25T10:57:46Z</time>
      </trkpt>
      <trkpt lat="52.015734007582068" lon="-4.781057015061379">
        <ele>47.240000000000002</ele>
        <time>2026-06-25T10:57:47Z</time>
      </trkpt>
      <trkpt lat="52.015734007582068" lon="-4.781057015061379">
        <ele>45.32</ele>
        <time>2026-06-25T10:57:59Z</time>
      </trkpt>
      <trkpt lat="52.015777006745338" lon="-4.781222976744175">
        <ele>43.880000000000003</ele>
        <time>2026-06-25T10:58:38Z</time>
      </trkpt>
      <trkpt lat="52.015933999791741" lon="-4.782074997201562">
        <ele>41.950000000000003</ele>
        <time>2026-06-25T10:58:46Z</time>
      </trkpt>
      <trkpt lat="52.01612301170826" lon="-4.783810973167419">
        <ele>44.840000000000003</ele>
        <time>2026-06-25T10:58:56Z</time>
      </trkpt>
      <trkpt lat="52.016310011968017" lon="-4.785795975476503">
        <ele>43.399999999999999</ele>
        <time>2026-06-25T10:59:06Z</time>
      </trkpt>
      <trkpt lat="52.016526013612747" lon="-4.787783995270729">
        <ele>46.280000000000001</ele>
        <time>2026-06-25T10:59:15Z</time>
      </trkpt>
      <trkpt lat="52.016650987789035" lon="-4.788533002138138">
        <ele>49.159999999999997</ele>
        <time>2026-06-25T10:59:18Z</time>
      </trkpt>
      <trkpt lat="52.017115009948611" lon="-4.790476011112332">
        <ele>55.409999999999997</ele>
        <time>2026-06-25T10:59:23Z</time>
      </trkpt>
      <trkpt lat="52.017450034618378" lon="-4.792163958773017">
        <ele>64.069999999999993</ele>
        <time>2026-06-25T10:59:29Z</time>
      </trkpt>
      <trkpt lat="52.017650026828051" lon="-4.793472960591316">
        <ele>69.349999999999994</ele>
        <time>2026-06-25T10:59:34Z</time>
      </trkpt>
      <trkpt lat="52.017667964100838" lon="-4.793730033561587">
        <ele>68.870000000000005</ele>
        <time>2026-06-25T10:59:35Z</time>
      </trkpt>
      <trkpt lat="52.017627982422709" lon="-4.794042007997632">
        <ele>68.390000000000001</ele>
        <time>2026-06-25T10:59:36Z</time>
      </trkpt>
      <trkpt lat="52.017586994916201" lon="-4.79436001740396">
        <ele>67.430000000000007</ele>
        <time>2026-06-25T10:59:37Z</time>
      </trkpt>
      <trkpt lat="52.017527986317873" lon="-4.794690012931824">
        <ele>66.469999999999999</ele>
        <time>2026-06-25T10:59:38Z</time>
      </trkpt>
      <trkpt lat="52.016960028558969" lon="-4.797542961314321">
        <ele>57.340000000000003</ele>
        <time>2026-06-25T10:59:46Z</time>
      </trkpt>
      <trkpt lat="52.016524001955986" lon="-4.799760980531573">
        <ele>49.159999999999997</ele>
        <time>2026-06-25T10:59:53Z</time>
      </trkpt>
      <trkpt lat="52.01627497561276" lon="-4.803633000701666">
        <ele>40.509999999999998</ele>
        <time>2026-06-25T11:00:02Z</time>
      </trkpt>
      <trkpt lat="52.016280004754663" lon="-4.807407958433032">
        <ele>31.859999999999999</ele>
        <time>2026-06-25T11:00:12Z</time>
      </trkpt>
      <trkpt lat="52.016531964763999" lon="-4.809225993230939">
        <ele>25.129999999999999</ele>
        <time>2026-06-25T11:00:17Z</time>
      </trkpt>
      <trkpt lat="52.016557026654482" lon="-4.809577027335763">
        <ele>23.690000000000001</ele>
        <time>2026-06-25T11:00:18Z</time>
      </trkpt>
      <trkpt lat="52.016582004725933" lon="-4.809924038127065">
        <ele>22.25</ele>
        <time>2026-06-25T11:00:19Z</time>
      </trkpt>
      <trkpt lat="52.016571024432778" lon="-4.810266019776464">
        <ele>20.809999999999999</ele>
        <time>2026-06-25T11:00:20Z</time>
      </trkpt>
      <trkpt lat="52.016524001955986" lon="-4.810586962848902">
        <ele>19.359999999999999</ele>
        <time>2026-06-25T11:00:21Z</time>
      </trkpt>
      <trkpt lat="52.01646700501442" lon="-4.810900026932359">
        <ele>18.399999999999999</ele>
        <time>2026-06-25T11:00:22Z</time>
      </trkpt>
      <trkpt lat="52.016376983374357" lon="-4.81120303273201">
        <ele>16.960000000000001</ele>
        <time>2026-06-25T11:00:23Z</time>
      </trkpt>
      <trkpt lat="52.015785975381732" lon="-4.81378298252821">
        <ele>17.920000000000002</ele>
        <time>2026-06-25T11:00:31Z</time>
      </trkpt>
      <trkpt lat="52.015735013410449" lon="-4.814122030511499">
        <ele>18.399999999999999</ele>
        <time>2026-06-25T11:00:32Z</time>
      </trkpt>
      <trkpt lat="52.015717998147011" lon="-4.815977029502392">
        <ele>20.809999999999999</ele>
        <time>2026-06-25T11:00:37Z</time>
      </trkpt>
      <trkpt lat="52.015907010063529" lon="-4.819072969257832">
        <ele>22.25</ele>
        <time>2026-06-25T11:00:46Z</time>
      </trkpt>
      <trkpt lat="52.016204986721277" lon="-4.823938999325037">
        <ele>23.690000000000001</ele>
        <time>2026-06-25T11:00:58Z</time>
      </trkpt>
      <trkpt lat="52.016312023624778" lon="-4.825688973069191">
        <ele>25.129999999999999</ele>
        <time>2026-06-25T11:01:04Z</time>
      </trkpt>
      <trkpt lat="52.016393998637795" lon="-4.82686897739768">
        <ele>26.57</ele>
        <time>2026-06-25T11:01:11Z</time>
      </trkpt>
      <trkpt lat="52.016567001119256" lon="-4.828204968944192">
        <ele>28.02</ele>
        <time>2026-06-25T11:01:21Z</time>
      </trkpt>
      <trkpt lat="52.01666196808219" lon="-4.828732023015618">
        <ele>27.050000000000001</ele>
        <time>2026-06-25T11:01:25Z</time>
      </trkpt>
      <trkpt lat="52.016686024144292" lon="-4.8288659658283">
        <ele>27.050000000000001</ele>
        <time>2026-06-25T11:01:26Z</time>
      </trkpt>
      <trkpt lat="52.016809992492199" lon="-4.829542972147465">
        <ele>26.57</ele>
        <time>2026-06-25T11:01:31Z</time>
      </trkpt>
      <trkpt lat="52.016809992492199" lon="-4.829800967127085">
        <ele>25.609999999999999</ele>
        <time>2026-06-25T11:01:33Z</time>
      </trkpt>
      <trkpt lat="52.016754001379013" lon="-4.830356016755104">
        <ele>26.57</ele>
        <time>2026-06-25T11:01:37Z</time>
      </trkpt>
      <trkpt lat="52.016585022211075" lon="-4.831321025267243">
        <ele>33.299999999999997</ele>
        <time>2026-06-25T11:01:45Z</time>
      </trkpt>
      <trkpt lat="52.016454013064504" lon="-4.831932988017798">
        <ele>39.549999999999997</ele>
        <time>2026-06-25T11:01:53Z</time>
      </trkpt>
      <trkpt lat="52.016337001696229" lon="-4.832472028210759">
        <ele>42.920000000000002</ele>
        <time>2026-06-25T11:02:03Z</time>
      </trkpt>
      <trkpt lat="52.016288973391056" lon="-4.83268903568387">
        <ele>42.920000000000002</ele>
        <time>2026-06-25T11:02:08Z</time>
      </trkpt>
      <trkpt lat="52.01610297895968" lon="-4.833596963435412">
        <ele>40.030000000000001</ele>
        <time>2026-06-25T11:02:17Z</time>
      </trkpt>
      <trkpt lat="52.015885971486568" lon="-4.834727011620998">
        <ele>37.149999999999999</ele>
        <time>2026-06-25T11:02:26Z</time>
      </trkpt>
      <trkpt lat="52.015717998147011" lon="-4.835561010986567">
        <ele>37.149999999999999</ele>
        <time>2026-06-25T11:02:33Z</time>
      </trkpt>
      <trkpt lat="52.01569302007556" lon="-4.835689002647996">
        <ele>37.630000000000003</ele>
        <time>2026-06-25T11:02:34Z</time>
      </trkpt>
      <trkpt lat="52.015681033954024" lon="-4.835825962945819">
        <ele>37.630000000000003</ele>
        <time>2026-06-25T11:02:35Z</time>
      </trkpt>
      <trkpt lat="52.01556502841413" lon="-4.837138988077641">
        <ele>39.07</ele>
        <time>2026-06-25T11:02:45Z</time>
      </trkpt>
      <trkpt lat="52.015529992058873" lon="-4.837300004437566">
        <ele>39.07</ele>
        <time>2026-06-25T11:02:46Z</time>
      </trkpt>
      <trkpt lat="52.015499984845519" lon="-4.837435958907008">
        <ele>39.07</ele>
        <time>2026-06-25T11:02:47Z</time>
      </trkpt>
      <trkpt lat="52.01543896459043" lon="-4.837715998291969">
        <ele>38.590000000000003</ele>
        <time>2026-06-25T11:02:49Z</time>
      </trkpt>
      <trkpt lat="52.015356989577413" lon="-4.837990002706647">
        <ele>39.07</ele>
        <time>2026-06-25T11:02:51Z</time>
      </trkpt>
      <trkpt lat="52.01530996710062" lon="-4.838123023509979">
        <ele>39.07</ele>
        <time>2026-06-25T11:02:52Z</time>
      </trkpt>
      <trkpt lat="52.015278032049537" lon="-4.838268030434847">
        <ele>39.07</ele>
        <time>2026-06-25T11:02:53Z</time>
      </trkpt>
      <trkpt lat="52.015261016786098" lon="-4.838417982682586">
        <ele>39.07</ele>
        <time>2026-06-25T11:02:54Z</time>
      </trkpt>
      <trkpt lat="52.01524299569428" lon="-4.838581010699272">
        <ele>39.07</ele>
        <time>2026-06-25T11:02:56Z</time>
      </trkpt>
      <trkpt lat="52.015233021229506" lon="-4.838907988741994">
        <ele>40.030000000000001</ele>
        <time>2026-06-25T11:02:57Z</time>
      </trkpt>
      <trkpt lat="52.015247019007802" lon="-4.83907101675868">
        <ele>40.990000000000002</ele>
        <time>2026-06-25T11:02:58Z</time>
      </trkpt>
      <trkpt lat="52.015281971544027" lon="-4.839496985077858">
        <ele>42.439999999999998</ele>
        <time>2026-06-25T11:03:01Z</time>
      </trkpt>
      <trkpt lat="52.015294963493943" lon="-4.839639980345964">
        <ele>42.920000000000002</ele>
        <time>2026-06-25T11:03:02Z</time>
      </trkpt>
      <trkpt lat="52.015322037041187" lon="-4.839942986145616">
        <ele>44.359999999999999</ele>
        <time>2026-06-25T11:03:04Z</time>
      </trkpt>
      <trkpt lat="52.015397977083921" lon="-4.841433959081769">
        <ele>48.68</ele>
        <time>2026-06-25T11:03:13Z</time>
      </trkpt>
      <trkpt lat="52.015295969322324" lon="-4.843275966122747">
        <ele>55.890000000000001</ele>
        <time>2026-06-25T11:03:25Z</time>
      </trkpt>
      <trkpt lat="52.015179041773081" lon="-4.845752986148">
        <ele>59.740000000000002</ele>
        <time>2026-06-25T11:03:37Z</time>
      </trkpt>
      <trkpt lat="52.014890033751726" lon="-4.848139984533191">
        <ele>68.390000000000001</ele>
        <time>2026-06-25T11:03:45Z</time>
      </trkpt>
      <trkpt lat="52.014503041282296" lon="-4.851864986121655">
        <ele>83.290000000000006</ele>
        <time>2026-06-25T11:03:57Z</time>
      </trkpt>
      <trkpt lat="52.014330038800836" lon="-4.856102038174868">
        <ele>79.930000000000007</ele>
        <time>2026-06-25T11:04:08Z</time>
      </trkpt>
      <trkpt lat="52.01425502076745" lon="-4.858690034598112">
        <ele>79.450000000000003</ele>
        <time>2026-06-25T11:04:15Z</time>
      </trkpt>
      <trkpt lat="52.014197017997503" lon="-4.859035033732653">
        <ele>78.969999999999999</ele>
        <time>2026-06-25T11:04:16Z</time>
      </trkpt>
      <trkpt lat="52.014121999964118" lon="-4.859361005946994">
        <ele>78</ele>
        <time>2026-06-25T11:04:17Z</time>
      </trkpt>
      <trkpt lat="52.013615984469652" lon="-4.861597968265414">
        <ele>69.829999999999998</ele>
        <time>2026-06-25T11:04:24Z</time>
      </trkpt>
      <trkpt lat="52.013027993962169" lon="-4.864582009613514">
        <ele>62.619999999999997</ele>
        <time>2026-06-25T11:04:33Z</time>
      </trkpt>
      <trkpt lat="52.012832025066018" lon="-4.865531008690596">
        <ele>65.030000000000001</ele>
        <time>2026-06-25T11:04:36Z</time>
      </trkpt>
      <trkpt lat="52.012802017852664" lon="-4.865843988955021">
        <ele>66.950000000000003</ele>
        <time>2026-06-25T11:04:37Z</time>
      </trkpt>
      <trkpt lat="52.012758012861013" lon="-4.866462992504239">
        <ele>70.310000000000002</ele>
        <time>2026-06-25T11:04:39Z</time>
      </trkpt>
      <trkpt lat="52.012733034789562" lon="-4.866815032437444">
        <ele>72.239999999999995</ele>
        <time>2026-06-25T11:04:40Z</time>
      </trkpt>
      <trkpt lat="52.012673020362854" lon="-4.867110997438431">
        <ele>74.159999999999997</ele>
        <time>2026-06-25T11:04:41Z</time>
      </trkpt>
      <trkpt lat="52.012288961559534" lon="-4.869616013020277">
        <ele>82.810000000000002</ele>
        <time>2026-06-25T11:04:49Z</time>
      </trkpt>
      <trkpt lat="52.012088969349861" lon="-4.873333973810077">
        <ele>89.540000000000006</ele>
        <time>2026-06-25T11:05:00Z</time>
      </trkpt>
      <trkpt lat="52.011674987152219" lon="-4.876156998798251">
        <ele>84.730000000000004</ele>
        <time>2026-06-25T11:05:07Z</time>
      </trkpt>
      <trkpt lat="52.011433001607656" lon="-4.878048961982131">
        <ele>75.599999999999994</ele>
        <time>2026-06-25T11:05:12Z</time>
      </trkpt>
      <trkpt lat="52.011445993557572" lon="-4.878409970551729">
        <ele>74.640000000000001</ele>
        <time>2026-06-25T11:05:13Z</time>
      </trkpt>
      <trkpt lat="52.011469965800643" lon="-4.878758992999792">
        <ele>74.159999999999997</ele>
        <time>2026-06-25T11:05:14Z</time>
      </trkpt>
      <trkpt lat="52.011494021862745" lon="-4.879103992134333">
        <ele>74.159999999999997</ele>
        <time>2026-06-25T11:05:15Z</time>
      </trkpt>
      <trkpt lat="52.011517994105816" lon="-4.879445973783732">
        <ele>74.159999999999997</ele>
        <time>2026-06-25T11:05:16Z</time>
      </trkpt>
      <trkpt lat="52.011529980227351" lon="-4.879794996231794">
        <ele>74.159999999999997</ele>
        <time>2026-06-25T11:05:17Z</time>
      </trkpt>
      <trkpt lat="52.011510031297803" lon="-4.882243014872074">
        <ele>74.640000000000001</ele>
        <time>2026-06-25T11:05:25Z</time>
      </trkpt>
      <trkpt lat="52.011913033202291" lon="-4.885437022894621">
        <ele>81.849999999999994</ele>
        <time>2026-06-25T11:05:33Z</time>
      </trkpt>
      <trkpt lat="52.012254009023309" lon="-4.888575961813331">
        <ele>92.420000000000002</ele>
        <time>2026-06-25T11:05:42Z</time>
      </trkpt>
      <trkpt lat="52.012963034212589" lon="-4.892340023070574">
        <ele>96.75</ele>
        <time>2026-06-25T11:05:53Z</time>
      </trkpt>
      <trkpt lat="52.013112986460328" lon="-4.894024031236768">
        <ele>96.269999999999996</ele>
        <time>2026-06-25T11:06:00Z</time>
      </trkpt>
      <trkpt lat="52.0130730047822" lon="-4.896160997450352">
        <ele>93.390000000000001</ele>
        <time>2026-06-25T11:06:10Z</time>
      </trkpt>
      <trkpt lat="52.012685006484389" lon="-4.898340962827206">
        <ele>93.390000000000001</ele>
        <time>2026-06-25T11:06:21Z</time>
      </trkpt>
      <trkpt lat="52.012197012081742" lon="-4.899446032941341">
        <ele>92.900000000000006</ele>
        <time>2026-06-25T11:06:29Z</time>
      </trkpt>
      <trkpt lat="52.012138003483415" lon="-4.899561032652855">
        <ele>93.390000000000001</ele>
        <time>2026-06-25T11:06:32Z</time>
      </trkpt>
      <trkpt lat="52.012136997655034" lon="-4.899563966318965">
        <ele>92.900000000000006</ele>
        <time>2026-06-25T11:06:34Z</time>
      </trkpt>
      <trkpt lat="52.012113025411963" lon="-4.899609982967377">
        <ele>90.980000000000004</ele>
        <time>2026-06-25T11:06:40Z</time>
      </trkpt>
      <trkpt lat="52.012113025411963" lon="-4.899609982967377">
        <ele>90.5</ele>
        <time>2026-06-25T11:07:14Z</time>
      </trkpt>
      <trkpt lat="52.012113025411963" lon="-4.899609982967377">
        <ele>90.5</ele>
        <time>2026-06-25T11:07:54Z</time>
      </trkpt>
      <trkpt lat="52.012113025411963" lon="-4.899609982967377">
        <ele>89.540000000000006</ele>
        <time>2026-06-25T11:08:22Z</time>
      </trkpt>
      <trkpt lat="52.012113025411963" lon="-4.899609982967377">
        <ele>89.540000000000006</ele>
        <time>2026-06-25T11:09:05Z</time>
      </trkpt>
      <trkpt lat="52.011945974081755" lon="-4.89959598518908">
        <ele>83.769999999999996</ele>
        <time>2026-06-25T11:12:18Z</time>
      </trkpt>
      <trkpt lat="52.011943040415645" lon="-4.899649964645505">
        <ele>84.25</ele>
        <time>2026-06-25T11:12:38Z</time>
      </trkpt>
      <trkpt lat="52.011914039030671" lon="-4.899717019870877">
        <ele>84.25</ele>
        <time>2026-06-25T11:12:41Z</time>
      </trkpt>
      <trkpt lat="52.011986039578915" lon="-4.899783991277218">
        <ele>90.5</ele>
        <time>2026-06-25T11:12:51Z</time>
      </trkpt>
      <trkpt lat="52.012003976851702" lon="-4.899824978783727">
        <ele>91.459999999999994</ele>
        <time>2026-06-25T11:12:55Z</time>
      </trkpt>
      <trkpt lat="52.011985033750534" lon="-4.899862026795745">
        <ele>91.939999999999998</ele>
        <time>2026-06-25T11:12:56Z</time>
      </trkpt>
      <trkpt lat="52.011949997395277" lon="-4.899931009858847">
        <ele>91.459999999999994</ele>
        <time>2026-06-25T11:12:57Z</time>
      </trkpt>
      <trkpt lat="52.011903980746865" lon="-4.90002203732729">
        <ele>91.939999999999998</ele>
        <time>2026-06-25T11:12:58Z</time>
      </trkpt>
      <trkpt lat="52.011850001290441" lon="-4.900126978754997">
        <ele>91.939999999999998</ele>
        <time>2026-06-25T11:12:59Z</time>
      </trkpt>
      <trkpt lat="52.011632993817329" lon="-4.900554958730936">
        <ele>90.980000000000004</ele>
        <time>2026-06-25T11:13:03Z</time>
      </trkpt>
      <trkpt lat="52.011577002704144" lon="-4.900665013119578">
        <ele>90.5</ele>
        <time>2026-06-25T11:13:04Z</time>
      </trkpt>
      <trkpt lat="52.011514976620674" lon="-4.900785963982344">
        <ele>89.540000000000006</ele>
        <time>2026-06-25T11:13:05Z</time>
      </trkpt>
      <trkpt lat="52.011281037703156" lon="-4.901245962828398">
        <ele>87.620000000000005</ele>
        <time>2026-06-25T11:13:08Z</time>
      </trkpt>
      <trkpt lat="52.010634960606694" lon="-4.902505008503795">
        <ele>87.620000000000005</ele>
        <time>2026-06-25T11:13:15Z</time>
      </trkpt>
      <trkpt lat="52.00955000706017" lon="-4.904604004696012">
        <ele>84.25</ele>
        <time>2026-06-25T11:13:26Z</time>
      </trkpt>
      <trkpt lat="52.008662028238177" lon="-4.906334029510617">
        <ele>83.769999999999996</ele>
        <time>2026-06-25T11:13:35Z</time>
      </trkpt>
      <trkpt lat="52.007791986688972" lon="-4.908300004899502">
        <ele>81.849999999999994</ele>
        <time>2026-06-25T11:13:46Z</time>
      </trkpt>
      <trkpt lat="52.007593000307679" lon="-4.908688003197312">
        <ele>81.370000000000005</ele>
        <time>2026-06-25T11:13:49Z</time>
      </trkpt>
      <trkpt lat="52.007537009194493" lon="-4.908796967938542">
        <ele>81.370000000000005</ele>
        <time>2026-06-25T11:13:50Z</time>
      </trkpt>
      <trkpt lat="52.007485963404179" lon="-4.908896964043379">
        <ele>81.849999999999994</ele>
        <time>2026-06-25T11:13:51Z</time>
      </trkpt>
      <trkpt lat="52.007441036403179" lon="-4.90898497402668">
        <ele>81.849999999999994</ele>
        <time>2026-06-25T11:13:52Z</time>
      </trkpt>
      <trkpt lat="52.007398037239909" lon="-4.909056974574924">
        <ele>81.849999999999994</ele>
        <time>2026-06-25T11:13:53Z</time>
      </trkpt>
      <trkpt lat="52.007345985621214" lon="-4.909111959859729">
        <ele>82.329999999999998</ele>
        <time>2026-06-25T11:13:54Z</time>
      </trkpt>
      <trkpt lat="52.006746008992195" lon="-4.909744961187244">
        <ele>84.730000000000004</ele>
        <time>2026-06-25T11:14:05Z</time>
      </trkpt>
      <trkpt lat="52.005826011300087" lon="-4.910794040188193">
        <ele>83.769999999999996</ele>
        <time>2026-06-25T11:14:16Z</time>
      </trkpt>
      <trkpt lat="52.005064012482762" lon="-4.911875976249576">
        <ele>86.180000000000007</ele>
        <time>2026-06-25T11:14:24Z</time>
      </trkpt>
      <trkpt lat="52.004064973443747" lon="-4.91366702131927">
        <ele>89.540000000000006</ele>
        <time>2026-06-25T11:14:34Z</time>
      </trkpt>
      <trkpt lat="52.003032993525267" lon="-4.915761994197965">
        <ele>87.140000000000001</ele>
        <time>2026-06-25T11:14:45Z</time>
      </trkpt>
      <trkpt lat="52.002061028033495" lon="-4.91772604174912">
        <ele>79.930000000000007</ele>
        <time>2026-06-25T11:14:56Z</time>
      </trkpt>
      <trkpt lat="52.00142802670598" lon="-4.918762966990471">
        <ele>80.409999999999997</ele>
        <time>2026-06-25T11:15:04Z</time>
      </trkpt>
      <trkpt lat="52.001237003132701" lon="-4.919077036902309">
        <ele>80.890000000000001</ele>
        <time>2026-06-25T11:15:07Z</time>
      </trkpt>
      <trkpt lat="52.001184029504657" lon="-4.919240986928344">
        <ele>80.890000000000001</ele>
        <time>2026-06-25T11:15:08Z</time>
      </trkpt>
      <trkpt lat="52.000768035650253" lon="-4.920948967337608">
        <ele>83.769999999999996</ele>
        <time>2026-06-25T11:15:16Z</time>
      </trkpt>
      <trkpt lat="52.000695029273629" lon="-4.922835985198617">
        <ele>86.180000000000007</ele>
        <time>2026-06-25T11:15:22Z</time>
      </trkpt>
      <trkpt lat="52.000658987089992" lon="-4.924885025247932">
        <ele>89.060000000000002</ele>
        <time>2026-06-25T11:15:28Z</time>
      </trkpt>
      <trkpt lat="52.000621017068624" lon="-4.925170009955764">
        <ele>90.019999999999996</ele>
        <time>2026-06-25T11:15:29Z</time>
      </trkpt>
      <trkpt lat="52.000551028177142" lon="-4.925408978015184">
        <ele>90.5</ele>
        <time>2026-06-25T11:15:30Z</time>
      </trkpt>
      <trkpt lat="52.000184990465641" lon="-4.926754022017121">
        <ele>97.230000000000004</ele>
        <time>2026-06-25T11:15:37Z</time>
      </trkpt>
      <trkpt lat="52.000128999352455" lon="-4.927177978679538">
        <ele>98.670000000000002</ele>
        <time>2026-06-25T11:15:39Z</time>
      </trkpt>
      <trkpt lat="52.0001180190593" lon="-4.927408983930945">
        <ele>100.11</ele>
        <time>2026-06-25T11:15:40Z</time>
      </trkpt>
      <trkpt lat="52.000175016000867" lon="-4.929245039820671">
        <ele>106.84</ele>
        <time>2026-06-25T11:15:49Z</time>
      </trkpt>
      <trkpt lat="51.99996898882091" lon="-4.930822011083365">
        <ele>108.77</ele>
        <time>2026-06-25T11:15:55Z</time>
      </trkpt>
      <trkpt lat="51.999711999669671" lon="-4.932907009497285">
        <ele>112.61</ele>
        <time>2026-06-25T11:16:01Z</time>
      </trkpt>
      <trkpt lat="51.999246971681714" lon="-4.93710801936686">
        <ele>120.78</ele>
        <time>2026-06-25T11:16:14Z</time>
      </trkpt>
      <trkpt lat="51.998579017817974" lon="-4.940909966826439">
        <ele>118.86</ele>
        <time>2026-06-25T11:16:27Z</time>
      </trkpt>
      <trkpt lat="51.998165035620332" lon="-4.943827036768198">
        <ele>103.48</ele>
        <time>2026-06-25T11:16:38Z</time>
      </trkpt>
      <trkpt lat="51.998067973181605" lon="-4.946013959124684">
        <ele>93.390000000000001</ele>
        <time>2026-06-25T11:16:47Z</time>
      </trkpt>
      <trkpt lat="51.99803302064538" lon="-4.948804965242744">
        <ele>79.930000000000007</ele>
        <time>2026-06-25T11:16:57Z</time>
      </trkpt>
      <trkpt lat="51.997995972633362" lon="-4.952547987923026">
        <ele>66.469999999999999</ele>
        <time>2026-06-25T11:17:09Z</time>
      </trkpt>
      <trkpt lat="51.997960014268756" lon="-4.95504898019135">
        <ele>63.579999999999998</ele>
        <time>2026-06-25T11:17:16Z</time>
      </trkpt>
      <trkpt lat="51.997878961265087" lon="-4.957715012133122">
        <ele>62.140000000000001</ele>
        <time>2026-06-25T11:17:23Z</time>
      </trkpt>
      <trkpt lat="51.997537985444069" lon="-4.961934965103865">
        <ele>58.299999999999997</ele>
        <time>2026-06-25T11:17:35Z</time>
      </trkpt>
      <trkpt lat="51.997181000187993" lon="-4.964483985677362">
        <ele>53.969999999999999</ele>
        <time>2026-06-25T11:17:43Z</time>
      </trkpt>
      <trkpt lat="51.996858967468143" lon="-4.965757029131055">
        <ele>54.450000000000003</ele>
        <time>2026-06-25T11:17:48Z</time>
      </trkpt>
      <trkpt lat="51.996832983568311" lon="-4.965928019955754">
        <ele>54.450000000000003</ele>
        <time>2026-06-25T11:17:49Z</time>
      </trkpt>
      <trkpt lat="51.996900038793683" lon="-4.966139998286963">
        <ele>54.450000000000003</ele>
        <time>2026-06-25T11:17:50Z</time>
      </trkpt>
      <trkpt lat="51.99695703573525" lon="-4.966319035738707">
        <ele>54.93</ele>
        <time>2026-06-25T11:17:51Z</time>
      </trkpt>
      <trkpt lat="51.997055020183325" lon="-4.966488014906645">
        <ele>54.93</ele>
        <time>2026-06-25T11:17:52Z</time>
      </trkpt>
      <trkpt lat="51.997177982702851" lon="-4.966637967154384">
        <ele>54.93</ele>
        <time>2026-06-25T11:17:53Z</time>
      </trkpt>
      <trkpt lat="51.997312009334564" lon="-4.966802000999451">
        <ele>54.450000000000003</ele>
        <time>2026-06-25T11:17:54Z</time>
      </trkpt>
      <trkpt lat="51.998598966747522" lon="-4.968343013897538">
        <ele>50.130000000000003</ele>
        <time>2026-06-25T11:18:03Z</time>
      </trkpt>
      <trkpt lat="51.999154016375542" lon="-4.969068970531225">
        <ele>48.68</ele>
        <time>2026-06-25T11:18:09Z</time>
      </trkpt>
      <trkpt lat="51.999207995831966" lon="-4.969177013263106">
        <ele>48.68</ele>
        <time>2026-06-25T11:18:10Z</time>
      </trkpt>
      <trkpt lat="51.999202966690063" lon="-4.969313973560929">
        <ele>48.200000000000003</ele>
        <time>2026-06-25T11:18:11Z</time>
      </trkpt>
      <trkpt lat="51.999192992225289" lon="-4.969425033777952">
        <ele>48.200000000000003</ele>
        <time>2026-06-25T11:18:12Z</time>
      </trkpt>
      <trkpt lat="51.999129960313439" lon="-4.96955101378262">
        <ele>47.240000000000002</ele>
        <time>2026-06-25T11:18:13Z</time>
      </trkpt>
      <trkpt lat="51.999129960313439" lon="-4.96955101378262">
        <ele>46.759999999999998</ele>
        <time>2026-06-25T11:18:14Z</time>
      </trkpt>
      <trkpt lat="51.999063994735479" lon="-4.969683028757572">
        <ele>46.280000000000001</ele>
        <time>2026-06-25T11:18:15Z</time>
      </trkpt>
      <trkpt lat="51.998980008065701" lon="-4.969742959365249">
        <ele>45.32</ele>
        <time>2026-06-25T11:18:16Z</time>
      </trkpt>
      <trkpt lat="51.998410960659385" lon="-4.970165994018316">
        <ele>40.030000000000001</ele>
        <time>2026-06-25T11:18:21Z</time>
      </trkpt>
      <trkpt lat="51.998292021453381" lon="-4.97026196680963">
        <ele>39.07</ele>
        <time>2026-06-25T11:18:22Z</time>
      </trkpt>
      <trkpt lat="51.998097980394959" lon="-4.970546029508114">
        <ele>36.189999999999998</ele>
        <time>2026-06-25T11:18:25Z</time>
      </trkpt>
      <trkpt lat="51.998006030917168" lon="-4.970565978437662">
        <ele>35.710000000000001</ele>
        <time>2026-06-25T11:18:26Z</time>
      </trkpt>
      <trkpt lat="51.997907962650061" lon="-4.970570001751185">
        <ele>34.740000000000002</ele>
        <time>2026-06-25T11:18:27Z</time>
      </trkpt>
      <trkpt lat="51.997822970151901" lon="-4.970470005646348">
        <ele>33.780000000000001</ele>
        <time>2026-06-25T11:18:28Z</time>
      </trkpt>
      <trkpt lat="51.997772008180618" lon="-4.97032499872148">
        <ele>32.82</ele>
        <time>2026-06-25T11:18:29Z</time>
      </trkpt>
      <trkpt lat="51.997718028724194" lon="-4.97017303481698">
        <ele>31.859999999999999</ele>
        <time>2026-06-25T11:18:30Z</time>
      </trkpt>
      <trkpt lat="51.997228022664785" lon="-4.968813993036747">
        <ele>25.129999999999999</ele>
        <time>2026-06-25T11:18:39Z</time>
      </trkpt>
      <trkpt lat="51.997168008238077" lon="-4.968678038567305">
        <ele>24.649999999999999</ele>
        <time>2026-06-25T11:18:40Z</time>
      </trkpt>
      <trkpt lat="51.99710899963975" lon="-4.968545017763972">
        <ele>23.690000000000001</ele>
        <time>2026-06-25T11:18:41Z</time>
      </trkpt>
      <trkpt lat="51.997015038505197" lon="-4.96845499612391">
        <ele>22.73</ele>
        <time>2026-06-25T11:18:42Z</time>
      </trkpt>
      <trkpt lat="51.996924011036754" lon="-4.968396993353963">
        <ele>21.77</ele>
        <time>2026-06-25T11:18:43Z</time>
      </trkpt>
      <trkpt lat="51.996854022145271" lon="-4.968351982533932">
        <ele>20.809999999999999</ele>
        <time>2026-06-25T11:18:44Z</time>
      </trkpt>
      <trkpt lat="51.996762994676828" lon="-4.968351982533932">
        <ele>20.32</ele>
        <time>2026-06-25T11:18:45Z</time>
      </trkpt>
      <trkpt lat="51.996762994676828" lon="-4.968351982533932">
        <ele>19.359999999999999</ele>
        <time>2026-06-25T11:18:46Z</time>
      </trkpt>
      <trkpt lat="51.996599966660142" lon="-4.968351982533932">
        <ele>18.879999999999999</ele>
        <time>2026-06-25T11:18:47Z</time>
      </trkpt>
      <trkpt lat="51.996522014960647" lon="-4.968351982533932">
        <ele>18.399999999999999</ele>
        <time>2026-06-25T11:18:48Z</time>
      </trkpt>
      <trkpt lat="51.996448002755642" lon="-4.968335973098874">
        <ele>17.920000000000002</ele>
        <time>2026-06-25T11:18:49Z</time>
      </trkpt>
      <trkpt lat="51.996389999985695" lon="-4.968320969492197">
        <ele>16.960000000000001</ele>
        <time>2026-06-25T11:18:50Z</time>
      </trkpt>
      <trkpt lat="51.996354963630438" lon="-4.968310995027423">
        <ele>16.48</ele>
        <time>2026-06-25T11:18:51Z</time>
      </trkpt>
      <trkpt lat="51.996331997215748" lon="-4.968304960057139">
        <ele>15.52</ele>
        <time>2026-06-25T11:18:52Z</time>
      </trkpt>
      <trkpt lat="51.996317999437451" lon="-4.968302026391029">
        <ele>15.039999999999999</ele>
        <time>2026-06-25T11:18:53Z</time>
      </trkpt>
      <trkpt lat="51.996215991675854" lon="-4.968275036662817">
        <ele>11.19</ele>
        <time>2026-06-25T11:19:02Z</time>
      </trkpt>
      <trkpt lat="51.99590502306819" lon="-4.968199012801051">
        <ele>8.310000000000001</ele>
        <time>2026-06-25T11:19:07Z</time>
      </trkpt>
      <trkpt lat="51.995823970064521" lon="-4.968180991709232">
        <ele>7.83</ele>
        <time>2026-06-25T11:19:08Z</time>
      </trkpt>
      <trkpt lat="51.995793962851167" lon="-4.968183003365994">
        <ele>6.87</ele>
        <time>2026-06-25T11:19:09Z</time>
      </trkpt>
      <trkpt lat="51.995746018365026" lon="-4.968186020851135">
        <ele>5.91</ele>
        <time>2026-06-25T11:19:10Z</time>
      </trkpt>
      <trkpt lat="51.995706036686897" lon="-4.968189038336277">
        <ele>3.98</ele>
        <time>2026-06-25T11:19:12Z</time>
      </trkpt>
      <trkpt lat="51.995663959532976" lon="-4.968191972002387">
        <ele>3.02</ele>
        <time>2026-06-25T11:19:13Z</time>
      </trkpt>
      <trkpt lat="51.995652979239821" lon="-4.968192977830768">
        <ele>2.06</ele>
        <time>2026-06-25T11:19:14Z</time>
      </trkpt>
      <trkpt lat="51.995646022260189" lon="-4.968192977830768">
        <ele>1.58</ele>
        <time>2026-06-25T11:19:15Z</time>
      </trkpt>
      <trkpt lat="51.995636969804764" lon="-4.968193983659148">
        <ele>0.62</ele>
        <time>2026-06-25T11:19:16Z</time>
      </trkpt>
      <trkpt lat="51.995624983683228" lon="-4.968194989487529">
        <ele>0.14</ele>
        <time>2026-06-25T11:19:17Z</time>
      </trkpt>
      <trkpt lat="51.995591036975384" lon="-4.96819700114429">
        <ele>-0.82</ele>
        <time>2026-06-25T11:19:18Z</time>
      </trkpt>
      <trkpt lat="51.995539991185069" lon="-4.968201024457812">
        <ele>-1.3</ele>
        <time>2026-06-25T11:19:19Z</time>
      </trkpt>
      <trkpt lat="51.995416022837162" lon="-4.96817696839571">
        <ele>-1.79</ele>
        <time>2026-06-25T11:19:21Z</time>
      </trkpt>
      <trkpt lat="51.995372017845511" lon="-4.968165988102555">
        <ele>-2.27</ele>
        <time>2026-06-25T11:19:22Z</time>
      </trkpt>
      <trkpt lat="51.995334969833493" lon="-4.968157019466162">
        <ele>-2.75</ele>
        <time>2026-06-25T11:19:23Z</time>
      </trkpt>
      <trkpt lat="51.995264980942011" lon="-4.968141010031104">
        <ele>-3.71</ele>
        <time>2026-06-25T11:19:25Z</time>
      </trkpt>
      <trkpt lat="51.995186023414135" lon="-4.968121983110905">
        <ele>-4.19</ele>
        <time>2026-06-25T11:19:27Z</time>
      </trkpt>
      <trkpt lat="51.995147969573736" lon="-4.968113014474511">
        <ele>-4.67</ele>
        <time>2026-06-25T11:19:28Z</time>
      </trkpt>
      <trkpt lat="51.995073035359383" lon="-4.968094993382692">
        <ele>-4.67</ele>
        <time>2026-06-25T11:19:29Z</time>
      </trkpt>
      <trkpt lat="51.995065994560719" lon="-4.968129023909569">
        <ele>-4.67</ele>
        <time>2026-06-25T11:19:30Z</time>
      </trkpt>
      <trkpt lat="51.995053002610803" lon="-4.968187026679516">
        <ele>-4.67</ele>
        <time>2026-06-25T11:19:31Z</time>
      </trkpt>
      <trkpt lat="51.995043028146029" lon="-4.968232959508896">
        <ele>-4.67</ele>
        <time>2026-06-25T11:19:32Z</time>
      </trkpt>
      <trkpt lat="51.995033975690603" lon="-4.968275958672166">
        <ele>-4.67</ele>
        <time>2026-06-25T11:19:33Z</time>
      </trkpt>
      <trkpt lat="51.99502601288259" lon="-4.968313006684184">
        <ele>-4.67</ele>
        <time>2026-06-25T11:19:34Z</time>
      </trkpt>
      <trkpt lat="51.994990976527333" lon="-4.968474023044109">
        <ele>-3.71</ele>
        <time>2026-06-25T11:19:42Z</time>
      </trkpt>
      <trkpt lat="51.994934985414147" lon="-4.968923041597009">
        <ele>-0.82</ele>
        <time>2026-06-25T11:19:46Z</time>
      </trkpt>
      <trkpt lat="51.994924005120993" lon="-4.969048015773296">
        <ele>-0.34</ele>
        <time>2026-06-25T11:19:47Z</time>
      </trkpt>
      <trkpt lat="51.994932973757386" lon="-4.96916301548481">
        <ele>0.14</ele>
        <time>2026-06-25T11:19:48Z</time>
      </trkpt>
      <trkpt lat="51.994965998455882" lon="-4.969489993527532">
        <ele>1.1</ele>
        <time>2026-06-25T11:19:49Z</time>
      </trkpt>
      <trkpt lat="51.994965998455882" lon="-4.969489993527532">
        <ele>1.58</ele>
        <time>2026-06-25T11:19:50Z</time>
      </trkpt>
      <trkpt lat="51.995058031752706" lon="-4.969687974080443">
        <ele>2.06</ele>
        <time>2026-06-25T11:19:51Z</time>
      </trkpt>
      <trkpt lat="51.995168002322316" lon="-4.969956027343869">
        <ele>4.46</ele>
        <time>2026-06-25T11:19:53Z</time>
      </trkpt>
      <trkpt lat="51.995209995657206" lon="-4.970101034268737">
        <ele>6.39</ele>
        <time>2026-06-25T11:19:54Z</time>
      </trkpt>
      <trkpt lat="51.995233967900276" lon="-4.970255009829998">
        <ele>8.310000000000001</ele>
        <time>2026-06-25T11:19:55Z</time>
      </trkpt>
      <trkpt lat="51.99524000287056" lon="-4.970399010926485">
        <ele>10.23</ele>
        <time>2026-06-25T11:19:56Z</time>
      </trkpt>
      <trkpt lat="51.995230028405786" lon="-4.970554998144507">
        <ele>11.67</ele>
        <time>2026-06-25T11:19:57Z</time>
      </trkpt>
      <trkpt lat="51.99521997012198" lon="-4.97071098536253">
        <ele>13.6</ele>
        <time>2026-06-25T11:19:58Z</time>
      </trkpt>
      <trkpt lat="51.995202032849193" lon="-4.971028994768858">
        <ele>16.960000000000001</ele>
        <time>2026-06-25T11:20:00Z</time>
      </trkpt>
      <trkpt lat="51.995202032849193" lon="-4.971181964501739">
        <ele>19.359999999999999</ele>
        <time>2026-06-25T11:20:01Z</time>
      </trkpt>
      <trkpt lat="51.995203960686922" lon="-4.971497040241957">
        <ele>23.210000000000001</ele>
        <time>2026-06-25T11:20:03Z</time>
      </trkpt>
      <trkpt lat="51.9953260011971" lon="-4.972415026277304">
        <ele>33.780000000000001</ele>
        <time>2026-06-25T11:20:09Z</time>
      </trkpt>
      <trkpt lat="51.995290964841843" lon="-4.972541006281972">
        <ele>35.229999999999997</ele>
        <time>2026-06-25T11:20:10Z</time>
      </trkpt>
      <trkpt lat="51.995245032012463" lon="-4.972707973793149">
        <ele>37.149999999999999</ele>
        <time>2026-06-25T11:20:11Z</time>
      </trkpt>
      <trkpt lat="51.994824009016156" lon="-4.973530992865562">
        <ele>51.090000000000003</ele>
        <time>2026-06-25T11:20:20Z</time>
      </trkpt>
      <trkpt lat="51.994751002639532" lon="-4.973544990643859">
        <ele>53.009999999999998</ele>
        <time>2026-06-25T11:20:21Z</time>
      </trkpt>
      <trkpt lat="51.994714038446546" lon="-4.973525041714311">
        <ele>54.450000000000003</ele>
        <time>2026-06-25T11:20:22Z</time>
      </trkpt>
      <trkpt lat="51.994650000706315" lon="-4.973490005359054">
        <ele>55.409999999999997</ele>
        <time>2026-06-25T11:20:23Z</time>
      </trkpt>
      <trkpt lat="51.994590992107987" lon="-4.973457986488938">
        <ele>57.340000000000003</ele>
        <time>2026-06-25T11:20:24Z</time>
      </trkpt>
      <trkpt lat="51.994536006823182" lon="-4.973427979275584">
        <ele>58.299999999999997</ele>
        <time>2026-06-25T11:20:25Z</time>
      </trkpt>
      <trkpt lat="51.994485966861248" lon="-4.973446000367403">
        <ele>59.740000000000002</ele>
        <time>2026-06-25T11:20:26Z</time>
      </trkpt>
      <trkpt lat="51.994430981576443" lon="-4.973499979823828">
        <ele>60.700000000000003</ele>
        <time>2026-06-25T11:20:27Z</time>
      </trkpt>
      <trkpt lat="51.994377002120018" lon="-4.973554965108633">
        <ele>62.140000000000001</ele>
        <time>2026-06-25T11:20:28Z</time>
      </trkpt>
      <trkpt lat="51.99431799352169" lon="-4.973617997020483">
        <ele>63.100000000000001</ele>
        <time>2026-06-25T11:20:29Z</time>
      </trkpt>
      <trkpt lat="51.994271976873279" lon="-4.97374196536839">
        <ele>64.549999999999997</ele>
        <time>2026-06-25T11:20:30Z</time>
      </trkpt>
      <trkpt lat="51.994255967438221" lon="-4.973859982565045">
        <ele>65.510000000000005</ele>
        <time>2026-06-25T11:20:31Z</time>
      </trkpt>
      <trkpt lat="51.994239035993814" lon="-4.973977999761701">
        <ele>66.469999999999999</ele>
        <time>2026-06-25T11:20:32Z</time>
      </trkpt>
      <trkpt lat="51.994205005466938" lon="-4.974319981411099">
        <ele>68.390000000000001</ele>
        <time>2026-06-25T11:20:35Z</time>
      </trkpt>
      <trkpt lat="51.99408003129065" lon="-4.975429996848106">
        <ele>73.200000000000003</ele>
        <time>2026-06-25T11:20:45Z</time>
      </trkpt>
      <trkpt lat="51.994012976065278" lon="-4.975756974890828">
        <ele>74.159999999999997</ele>
        <time>2026-06-25T11:20:48Z</time>
      </trkpt>
      <trkpt lat="51.993918009102345" lon="-4.976118989288807">
        <ele>75.120000000000005</ele>
        <time>2026-06-25T11:20:52Z</time>
      </trkpt>
      <trkpt lat="51.993889007717371" lon="-4.97621001675725">
        <ele>75.599999999999994</ele>
        <time>2026-06-25T11:20:53Z</time>
      </trkpt>
      <trkpt lat="51.993860006332397" lon="-4.976303977891803">
        <ele>75.599999999999994</ele>
        <time>2026-06-25T11:20:54Z</time>
      </trkpt>
      <trkpt lat="51.993850031867623" lon="-4.976334990933538">
        <ele>76.079999999999998</ele>
        <time>2026-06-25T11:20:55Z</time>
      </trkpt>
      <trkpt lat="51.993721034377813" lon="-4.976442027837038">
        <ele>76.560000000000002</ele>
        <time>2026-06-25T11:20:56Z</time>
      </trkpt>
      <trkpt lat="51.993685998022556" lon="-4.976501036435366">
        <ele>76.560000000000002</ele>
        <time>2026-06-25T11:20:57Z</time>
      </trkpt>
      <trkpt lat="51.993638975545764" lon="-4.976582005620003">
        <ele>76.560000000000002</ele>
        <time>2026-06-25T11:20:58Z</time>
      </trkpt>
      <trkpt lat="51.993592036888003" lon="-4.976660963147879">
        <ele>76.560000000000002</ele>
        <time>2026-06-25T11:20:59Z</time>
      </trkpt>
      <trkpt lat="51.993545014411211" lon="-4.976741010323167">
        <ele>76.560000000000002</ele>
        <time>2026-06-25T11:21:00Z</time>
      </trkpt>
      <trkpt lat="51.99350000359118" lon="-4.976817034184933">
        <ele>77.040000000000006</ele>
        <time>2026-06-25T11:21:01Z</time>
      </trkpt>
      <trkpt lat="51.99345801025629" lon="-4.976889034733176">
        <ele>77.519999999999996</ele>
        <time>2026-06-25T11:21:02Z</time>
      </trkpt>
      <trkpt lat="51.993417022749782" lon="-4.976959023624659">
        <ele>78</ele>
        <time>2026-06-25T11:21:03Z</time>
      </trkpt>
      <trkpt lat="51.993374023586512" lon="-4.977033035829663">
        <ele>78</ele>
        <time>2026-06-25T11:21:04Z</time>
      </trkpt>
      <trkpt lat="51.993327001109719" lon="-4.97711299918592">
        <ele>78.480000000000004</ele>
        <time>2026-06-25T11:21:05Z</time>
      </trkpt>
      <trkpt lat="51.993278972804546" lon="-4.977203020825982">
        <ele>78.969999999999999</ele>
        <time>2026-06-25T11:21:06Z</time>
      </trkpt>
      <trkpt lat="51.993236979469657" lon="-4.977303016930819">
        <ele>78.969999999999999</ele>
        <time>2026-06-25T11:21:07Z</time>
      </trkpt>
      <trkpt lat="51.992901032790542" lon="-4.978112960234284">
        <ele>79.930000000000007</ele>
        <time>2026-06-25T11:21:16Z</time>
      </trkpt>
      <trkpt lat="51.992873959243298" lon="-4.978179009631276">
        <ele>79.930000000000007</ele>
        <time>2026-06-25T11:21:17Z</time>
      </trkpt>
      <trkpt lat="51.992826014757156" lon="-4.97829501517117">
        <ele>80.409999999999997</ele>
        <time>2026-06-25T11:21:19Z</time>
      </trkpt>
      <trkpt lat="51.99279198423028" lon="-4.978361986577511">
        <ele>80.409999999999997</ele>
        <time>2026-06-25T11:21:20Z</time>
      </trkpt>
      <trkpt lat="51.99274898506701" lon="-4.97844303958118">
        <ele>80.409999999999997</ele>
        <time>2026-06-25T11:21:21Z</time>
      </trkpt>
      <trkpt lat="51.992701040580869" lon="-4.97853297740221">
        <ele>80.890000000000001</ele>
        <time>2026-06-25T11:21:22Z</time>
      </trkpt>
      <trkpt lat="51.992646977305412" lon="-4.978636996820569">
        <ele>80.890000000000001</ele>
        <time>2026-06-25T11:21:23Z</time>
      </trkpt>
      <trkpt lat="51.992586962878704" lon="-4.978749984875321">
        <ele>81.370000000000005</ele>
        <time>2026-06-25T11:21:24Z</time>
      </trkpt>
      <trkpt lat="51.992005007341504" lon="-4.979853965342045">
        <ele>84.25</ele>
        <time>2026-06-25T11:21:34Z</time>
      </trkpt>
      <trkpt lat="51.991607034578919" lon="-4.981034975498915">
        <ele>84.25</ele>
        <time>2026-06-25T11:21:43Z</time>
      </trkpt>
      <trkpt lat="51.990821985527873" lon="-4.982658969238401">
        <ele>89.540000000000006</ele>
        <time>2026-06-25T11:21:56Z</time>
      </trkpt>
      <trkpt lat="51.989883966743946" lon="-4.984167041257024">
        <ele>91.939999999999998</ele>
        <time>2026-06-25T11:22:06Z</time>
      </trkpt>
      <trkpt lat="51.988931028172374" lon="-4.986132010817528">
        <ele>92.420000000000002</ele>
        <time>2026-06-25T11:22:14Z</time>
      </trkpt>
      <trkpt lat="51.988155031576753" lon="-4.987830016762018">
        <ele>89.060000000000002</ele>
        <time>2026-06-25T11:22:22Z</time>
      </trkpt>
      <trkpt lat="51.987497974187136" lon="-4.989353008568287">
        <ele>88.099999999999994</ele>
        <time>2026-06-25T11:22:31Z</time>
      </trkpt>
      <trkpt lat="51.987449023872614" lon="-4.9894680082798">
        <ele>88.099999999999994</ele>
        <time>2026-06-25T11:22:32Z</time>
      </trkpt>
      <trkpt lat="51.987348021939397" lon="-4.98951000161469">
        <ele>88.099999999999994</ele>
        <time>2026-06-25T11:22:33Z</time>
      </trkpt>
      <trkpt lat="51.987279038876295" lon="-4.98953003436327">
        <ele>88.099999999999994</ele>
        <time>2026-06-25T11:22:34Z</time>
      </trkpt>
      <trkpt lat="51.987181976437569" lon="-4.989604968577623">
        <ele>88.099999999999994</ele>
        <time>2026-06-25T11:22:35Z</time>
      </trkpt>
      <trkpt lat="51.987151969224215" lon="-4.98970597051084">
        <ele>88.099999999999994</ele>
        <time>2026-06-25T11:22:36Z</time>
      </trkpt>
      <trkpt lat="51.987145012244582" lon="-4.989848965778947">
        <ele>88.099999999999994</ele>
        <time>2026-06-25T11:22:37Z</time>
      </trkpt>
      <trkpt lat="51.987192034721375" lon="-4.98996103182435">
        <ele>87.620000000000005</ele>
        <time>2026-06-25T11:22:38Z</time>
      </trkpt>
      <trkpt lat="51.987255988642573" lon="-4.990034960210323">
        <ele>87.620000000000005</ele>
        <time>2026-06-25T11:22:39Z</time>
      </trkpt>
      <trkpt lat="51.987332012504339" lon="-4.990055998787284">
        <ele>87.620000000000005</ele>
        <time>2026-06-25T11:22:40Z</time>
      </trkpt>
      <trkpt lat="51.987369982525706" lon="-4.99004602432251">
        <ele>87.620000000000005</ele>
        <time>2026-06-25T11:22:41Z</time>
      </trkpt>
      <trkpt lat="51.987535022199154" lon="-4.98991803266108">
        <ele>87.140000000000001</ele>
        <time>2026-06-25T11:22:42Z</time>
      </trkpt>
      <trkpt lat="51.987630994990468" lon="-4.989943010732532">
        <ele>87.140000000000001</ele>
        <time>2026-06-25T11:22:43Z</time>
      </trkpt>
      <trkpt lat="51.987731996923685" lon="-4.989971006289125">
        <ele>87.140000000000001</ele>
        <time>2026-06-25T11:22:44Z</time>
      </trkpt>
      <trkpt lat="51.988680996000767" lon="-4.990233024582267">
        <ele>84.25</ele>
        <time>2026-06-25T11:22:51Z</time>
      </trkpt>
      <trkpt lat="51.990478998050094" lon="-4.990689000114799">
        <ele>69.349999999999994</ele>
        <time>2026-06-25T11:23:01Z</time>
      </trkpt>
      <trkpt lat="51.992469029501081" lon="-4.99120800755918">
        <ele>51.57</ele>
        <time>2026-06-25T11:23:13Z</time>
      </trkpt>
      <trkpt lat="51.994171980768442" lon="-4.991535991430283">
        <ele>40.509999999999998</ele>
        <time>2026-06-25T11:23:24Z</time>
      </trkpt>
      <trkpt lat="51.995559018105268" lon="-4.991145981475711">
        <ele>32.340000000000003</ele>
        <time>2026-06-25T11:23:33Z</time>
      </trkpt>
      <trkpt lat="51.99655101634562" lon="-4.990637032315135">
        <ele>29.940000000000001</ele>
        <time>2026-06-25T11:23:41Z</time>
      </trkpt>
      <trkpt lat="51.996632991358638" lon="-4.990608030930162">
        <ele>29.940000000000001</ele>
        <time>2026-06-25T11:23:42Z</time>
      </trkpt>
      <trkpt lat="51.996768023818731" lon="-4.990690005943179">
        <ele>29.940000000000001</ele>
        <time>2026-06-25T11:23:43Z</time>
      </trkpt>
      <trkpt lat="51.996855027973652" lon="-4.990748008713126">
        <ele>29.460000000000001</ele>
        <time>2026-06-25T11:23:45Z</time>
      </trkpt>
      <trkpt lat="51.997010009363294" lon="-4.990612976253033">
        <ele>28.5</ele>
        <time>2026-06-25T11:23:47Z</time>
      </trkpt>
      <trkpt lat="51.997412005439401" lon="-4.990389011800289">
        <ele>27.530000000000001</ele>
        <time>2026-06-25T11:23:51Z</time>
      </trkpt>
      <trkpt lat="51.997504038736224" lon="-4.990263031795621">
        <ele>27.050000000000001</ele>
        <time>2026-06-25T11:23:52Z</time>
      </trkpt>
      <trkpt lat="51.997592970728874" lon="-4.990139985457063">
        <ele>26.57</ele>
        <time>2026-06-25T11:23:53Z</time>
      </trkpt>
      <trkpt lat="51.997681986540556" lon="-4.990018028765917">
        <ele>26.57</ele>
        <time>2026-06-25T11:23:54Z</time>
      </trkpt>
      <trkpt lat="51.997764967381954" lon="-4.9898979999125">
        <ele>26.57</ele>
        <time>2026-06-25T11:23:55Z</time>
      </trkpt>
      <trkpt lat="51.997835040092468" lon="-4.989758022129536">
        <ele>26.09</ele>
        <time>2026-06-25T11:23:56Z</time>
      </trkpt>
      <trkpt lat="51.997989015653729" lon="-4.989493992179632">
        <ele>24.649999999999999</ele>
        <time>2026-06-25T11:23:58Z</time>
      </trkpt>
      <trkpt lat="51.998641965910792" lon="-4.988701986148953">
        <ele>16.960000000000001</ele>
        <time>2026-06-25T11:24:06Z</time>
      </trkpt>
      <trkpt lat="51.998725030571222" lon="-4.988640965893865">
        <ele>16</ele>
        <time>2026-06-25T11:24:07Z</time>
      </trkpt>
      <trkpt lat="51.998803988099098" lon="-4.988582963123918">
        <ele>15.039999999999999</ele>
        <time>2026-06-25T11:24:08Z</time>
      </trkpt>
      <trkpt lat="51.998982019722462" lon="-4.988541975617409">
        <ele>13.6</ele>
        <time>2026-06-25T11:24:10Z</time>
      </trkpt>
      <trkpt lat="51.999076986685395" lon="-4.988526972010732">
        <ele>12.630000000000001</ele>
        <time>2026-06-25T11:24:11Z</time>
      </trkpt>
      <trkpt lat="51.999175976961851" lon="-4.988538036122918">
        <ele>11.19</ele>
        <time>2026-06-25T11:24:12Z</time>
      </trkpt>
      <trkpt lat="51.999283013865352" lon="-4.988562008365989">
        <ele>10.23</ele>
        <time>2026-06-25T11:24:13Z</time>
      </trkpt>
      <trkpt lat="51.99938602745533" lon="-4.988616993650794">
        <ele>9.75</ele>
        <time>2026-06-25T11:24:14Z</time>
      </trkpt>
      <trkpt lat="51.999483006075025" lon="-4.988688994199038">
        <ele>8.789999999999999</ele>
        <time>2026-06-25T11:24:15Z</time>
      </trkpt>
      <trkpt lat="51.999575039371848" lon="-4.988759988918901">
        <ele>8.310000000000001</ele>
        <time>2026-06-25T11:24:16Z</time>
      </trkpt>
      <trkpt lat="51.999651985242963" lon="-4.988846993073821">
        <ele>7.83</ele>
        <time>2026-06-25T11:24:17Z</time>
      </trkpt>
      <trkpt lat="51.999728009104729" lon="-4.988946989178658">
        <ele>7.83</ele>
        <time>2026-06-25T11:24:18Z</time>
      </trkpt>
      <trkpt lat="52.000606013461947" lon="-4.990138979628682">
        <ele>8.789999999999999</ele>
        <time>2026-06-25T11:24:29Z</time>
      </trkpt>
      <trkpt lat="52.001501033082604" lon="-4.991390984505415">
        <ele>10.710000000000001</ele>
        <time>2026-06-25T11:24:40Z</time>
      </trkpt>
      <trkpt lat="52.002250961959362" lon="-4.992318022996187">
        <ele>13.119999999999999</ele>
        <time>2026-06-25T11:24:51Z</time>
      </trkpt>
      <trkpt lat="52.002448020502925" lon="-4.992532012984157">
        <ele>12.630000000000001</ele>
        <time>2026-06-25T11:24:54Z</time>
      </trkpt>
      <trkpt lat="52.002509962767363" lon="-4.992596972733736">
        <ele>12.630000000000001</ele>
        <time>2026-06-25T11:24:55Z</time>
      </trkpt>
      <trkpt lat="52.003166014328599" lon="-4.993285965174437">
        <ele>12.630000000000001</ele>
        <time>2026-06-25T11:25:07Z</time>
      </trkpt>
      <trkpt lat="52.003227034583688" lon="-4.993351008743048">
        <ele>12.630000000000001</ele>
        <time>2026-06-25T11:25:08Z</time>
      </trkpt>
      <trkpt lat="52.003227034583688" lon="-4.993388978764415">
        <ele>12.15</ele>
        <time>2026-06-25T11:25:09Z</time>
      </trkpt>
      <trkpt lat="52.003218987956643" lon="-4.993497021496296">
        <ele>12.15</ele>
        <time>2026-06-25T11:25:10Z</time>
      </trkpt>
      <trkpt lat="52.003200966864824" lon="-4.993537003174424">
        <ele>11.67</ele>
        <time>2026-06-25T11:25:11Z</time>
      </trkpt>
      <trkpt lat="52.003185963258147" lon="-4.99357296153903">
        <ele>11.67</ele>
        <time>2026-06-25T11:25:12Z</time>
      </trkpt>
      <trkpt lat="52.003227034583688" lon="-4.993351008743048">
        <ele>11.19</ele>
        <time>2026-06-25T11:25:13Z</time>
      </trkpt>
      <trkpt lat="52.003175988793373" lon="-4.993296023458242">
        <ele>11.19</ele>
        <time>2026-06-25T11:25:14Z</time>
      </trkpt>
      <trkpt lat="52.00314799323678" lon="-4.993267022073269">
        <ele>10.710000000000001</ele>
        <time>2026-06-25T11:25:15Z</time>
      </trkpt>
      <trkpt lat="52.003079010173678" lon="-4.993193009868264">
        <ele>10.710000000000001</ele>
        <time>2026-06-25T11:25:16Z</time>
      </trkpt>
      <trkpt lat="52.003046991303563" lon="-4.993158979341388">
        <ele>10.710000000000001</ele>
        <time>2026-06-25T11:25:17Z</time>
      </trkpt>
      <trkpt lat="52.00301798991859" lon="-4.993127966299653">
        <ele>10.23</ele>
        <time>2026-06-25T11:25:18Z</time>
      </trkpt>
      <trkpt lat="52.254583965986967" lon="-6.334603037685156">
        <ele>9.75</ele>
        <time>2026-06-25T16:48:37Z</time>
      </trkpt>
      <trkpt lat="52.254535015672445" lon="-6.334558026865125">
        <ele>9.75</ele>
        <time>2026-06-25T16:48:38Z</time>
      </trkpt>
      <trkpt lat="52.254471983760595" lon="-6.334531959146261">
        <ele>12.15</ele>
        <time>2026-06-25T16:48:42Z</time>
      </trkpt>
      <trkpt lat="52.254433007910848" lon="-6.334523996338248">
        <ele>13.119999999999999</ele>
        <time>2026-06-25T16:48:43Z</time>
      </trkpt>
      <trkpt lat="52.254303004592657" lon="-6.334498012438417">
        <ele>15.52</ele>
        <time>2026-06-25T16:48:46Z</time>
      </trkpt>
      <trkpt lat="52.254217006266117" lon="-6.334536988288164">
        <ele>16.48</ele>
        <time>2026-06-25T16:48:47Z</time>
      </trkpt>
      <trkpt lat="52.254164032638073" lon="-6.334560960531235">
        <ele>16.48</ele>
        <time>2026-06-25T16:48:48Z</time>
      </trkpt>
      <trkpt lat="52.254066970199347" lon="-6.334604965522885">
        <ele>16.48</ele>
        <time>2026-06-25T16:48:49Z</time>
      </trkpt>
      <trkpt lat="52.254066970199347" lon="-6.334604965522885">
        <ele>16.960000000000001</ele>
        <time>2026-06-25T16:48:50Z</time>
      </trkpt>
      <trkpt lat="52.254007961601019" lon="-6.334663974121213">
        <ele>17.920000000000002</ele>
        <time>2026-06-25T16:48:51Z</time>
      </trkpt>
      <trkpt lat="52.253962028771639" lon="-6.334709990769625">
        <ele>18.399999999999999</ele>
        <time>2026-06-25T16:48:52Z</time>
      </trkpt>
      <trkpt lat="52.253921963274479" lon="-6.334749972447753">
        <ele>18.879999999999999</ele>
        <time>2026-06-25T16:48:53Z</time>
      </trkpt>
      <trkpt lat="52.253883993253112" lon="-6.334789032116532">
        <ele>19.359999999999999</ele>
        <time>2026-06-25T16:48:54Z</time>
      </trkpt>
      <trkpt lat="52.253758013248444" lon="-6.334924986585975">
        <ele>20.32</ele>
        <time>2026-06-25T16:48:57Z</time>
      </trkpt>
      <trkpt lat="52.253527007997036" lon="-6.335241990163922">
        <ele>17.440000000000001</ele>
        <time>2026-06-25T16:49:06Z</time>
      </trkpt>
      <trkpt lat="52.253285022452474" lon="-6.335571985691786">
        <ele>17.920000000000002</ele>
        <time>2026-06-25T16:49:19Z</time>
      </trkpt>
      <trkpt lat="52.253144038841128" lon="-6.335764015093446">
        <ele>16</ele>
        <time>2026-06-25T16:49:30Z</time>
      </trkpt>
      <trkpt lat="52.252800967544317" lon="-6.335870968177915">
        <ele>15.52</ele>
        <time>2026-06-25T16:49:44Z</time>
      </trkpt>
      <trkpt lat="52.25261296145618" lon="-6.336438003927469">
        <ele>15.039999999999999</ele>
        <time>2026-06-25T16:49:49Z</time>
      </trkpt>
      <trkpt lat="52.252497961744666" lon="-6.336647970601916">
        <ele>13.6</ele>
        <time>2026-06-25T16:49:53Z</time>
      </trkpt>
      <trkpt lat="52.252300987020135" lon="-6.33729899302125">
        <ele>13.6</ele>
        <time>2026-06-25T16:50:06Z</time>
      </trkpt>
      <trkpt lat="52.252291012555361" lon="-6.337315002456307">
        <ele>13.6</ele>
        <time>2026-06-25T16:50:07Z</time>
      </trkpt>
      <trkpt lat="52.252280032262206" lon="-6.337332017719746">
        <ele>13.6</ele>
        <time>2026-06-25T16:50:08Z</time>
      </trkpt>
      <trkpt lat="52.252236027270555" lon="-6.337403012439609">
        <ele>16</ele>
        <time>2026-06-25T16:50:22Z</time>
      </trkpt>
      <trkpt lat="52.252200990915298" lon="-6.337459003552795">
        <ele>15.52</ele>
        <time>2026-06-25T16:50:47Z</time>
      </trkpt>
      <trkpt lat="52.252164026722312" lon="-6.337520023807883">
        <ele>15.52</ele>
        <time>2026-06-25T16:51:00Z</time>
      </trkpt>
      <trkpt lat="52.252150028944016" lon="-6.337541984394193">
        <ele>15.039999999999999</ele>
        <time>2026-06-25T16:51:10Z</time>
      </trkpt>
      <trkpt lat="52.252150028944016" lon="-6.337541984394193">
        <ele>15.52</ele>
        <time>2026-06-25T16:52:12Z</time>
      </trkpt>
      <trkpt lat="52.252120021730661" lon="-6.337590012699366">
        <ele>15.52</ele>
        <time>2026-06-25T16:52:28Z</time>
      </trkpt>
      <trkpt lat="52.252230998128653" lon="-6.337942974641919">
        <ele>15.52</ele>
        <time>2026-06-25T16:52:42Z</time>
      </trkpt>
      <trkpt lat="52.252240972593427" lon="-6.338149001821876">
        <ele>14.56</ele>
        <time>2026-06-25T16:53:00Z</time>
      </trkpt>
      <trkpt lat="52.252239966765046" lon="-6.338138021528721">
        <ele>14.56</ele>
        <time>2026-06-25T16:53:54Z</time>
      </trkpt>
      <trkpt lat="52.252250025048852" lon="-6.3382029812783">
        <ele>15.039999999999999</ele>
        <time>2026-06-25T16:54:05Z</time>
      </trkpt>
      <trkpt lat="52.252328982576728" lon="-6.338339019566774">
        <ele>17.920000000000002</ele>
        <time>2026-06-25T16:54:14Z</time>
      </trkpt>
      <trkpt lat="52.252457980066538" lon="-6.339110992848873">
        <ele>21.77</ele>
        <time>2026-06-25T16:54:25Z</time>
      </trkpt>
      <trkpt lat="52.252465020865202" lon="-6.339179975911975">
        <ele>21.289999999999999</ele>
        <time>2026-06-25T16:54:45Z</time>
      </trkpt>
      <trkpt lat="52.252511959522963" lon="-6.339602004736662">
        <ele>21.77</ele>
        <time>2026-06-25T16:54:50Z</time>
      </trkpt>
      <trkpt lat="52.252536015585065" lon="-6.339814988896251">
        <ele>21.289999999999999</ele>
        <time>2026-06-25T16:54:58Z</time>
      </trkpt>
      <trkpt lat="52.252536015585065" lon="-6.339814988896251">
        <ele>21.289999999999999</ele>
        <time>2026-06-25T16:55:55Z</time>
      </trkpt>
      <trkpt lat="52.252536015585065" lon="-6.339814988896251">
        <ele>21.289999999999999</ele>
        <time>2026-06-25T16:56:52Z</time>
      </trkpt>
      <trkpt lat="52.2525480017066" lon="-6.339924037456513">
        <ele>22.25</ele>
        <time>2026-06-25T16:57:48Z</time>
      </trkpt>
      <trkpt lat="52.252657972276211" lon="-6.340917041525245">
        <ele>22.73</ele>
        <time>2026-06-25T16:57:55Z</time>
      </trkpt>
      <trkpt lat="52.252929965034127" lon="-6.341965030878782">
        <ele>20.32</ele>
        <time>2026-06-25T16:58:00Z</time>
      </trkpt>
      <trkpt lat="52.252795016393065" lon="-6.343640992417932">
        <ele>18.879999999999999</ele>
        <time>2026-06-25T16:58:10Z</time>
      </trkpt>
      <trkpt lat="52.252737013623118" lon="-6.344626033678651">
        <ele>17.920000000000002</ele>
        <time>2026-06-25T16:58:17Z</time>
      </trkpt>
      <trkpt lat="52.252737013623118" lon="-6.344626033678651">
        <ele>17.920000000000002</ele>
        <time>2026-06-25T16:58:18Z</time>
      </trkpt>
      <trkpt lat="52.252278020605445" lon="-6.345165995880961">
        <ele>16.960000000000001</ele>
        <time>2026-06-25T16:58:23Z</time>
      </trkpt>
      <trkpt lat="52.252280032262206" lon="-6.345220981165767">
        <ele>16.960000000000001</ele>
        <time>2026-06-25T16:58:24Z</time>
      </trkpt>
      <trkpt lat="52.252281038090587" lon="-6.345257023349404">
        <ele>16.48</ele>
        <time>2026-06-25T16:58:25Z</time>
      </trkpt>
      <trkpt lat="52.252281038090587" lon="-6.345288036391139">
        <ele>16</ele>
        <time>2026-06-25T16:58:26Z</time>
      </trkpt>
      <trkpt lat="52.252281960099936" lon="-6.345325000584126">
        <ele>16</ele>
        <time>2026-06-25T16:58:27Z</time>
      </trkpt>
      <trkpt lat="52.252284977585077" lon="-6.345449974760413">
        <ele>15.52</ele>
        <time>2026-06-25T16:58:29Z</time>
      </trkpt>
      <trkpt lat="52.252308027818799" lon="-6.346427975222468">
        <ele>14.08</ele>
        <time>2026-06-25T16:58:37Z</time>
      </trkpt>
      <trkpt lat="52.252299981191754" lon="-6.346694016829133">
        <ele>14.08</ele>
        <time>2026-06-25T16:58:40Z</time>
      </trkpt>
      <trkpt lat="52.25209697149694" lon="-6.346490001305938">
        <ele>14.08</ele>
        <time>2026-06-25T16:58:41Z</time>
      </trkpt>
      <trkpt lat="52.252065036445856" lon="-6.346499975770712">
        <ele>14.08</ele>
        <time>2026-06-25T16:58:42Z</time>
      </trkpt>
      <trkpt lat="52.252022037282586" lon="-6.346511961892247">
        <ele>13.6</ele>
        <time>2026-06-25T16:58:43Z</time>
      </trkpt>
      <trkpt lat="52.251965962350368" lon="-6.346528977155685">
        <ele>13.6</ele>
        <time>2026-06-25T16:58:44Z</time>
      </trkpt>
      <trkpt lat="52.251942995935678" lon="-6.34653601795435">
        <ele>13.119999999999999</ele>
        <time>2026-06-25T16:58:45Z</time>
      </trkpt>
      <trkpt lat="52.251822967082262" lon="-6.347158960998058">
        <ele>13.119999999999999</ele>
        <time>2026-06-25T16:58:50Z</time>
      </trkpt>
      <trkpt lat="52.251963028684258" lon="-6.347370017319918">
        <ele>13.6</ele>
        <time>2026-06-25T16:59:00Z</time>
      </trkpt>
      <trkpt lat="52.252262011170387" lon="-6.347337998449802">
        <ele>12.630000000000001</ele>
        <time>2026-06-25T16:59:04Z</time>
      </trkpt>
      <trkpt lat="52.252286989241838" lon="-6.347191985696554">
        <ele>12.630000000000001</ele>
        <time>2026-06-25T16:59:05Z</time>
      </trkpt>
      <trkpt lat="52.2522890008986" lon="-6.347102969884872">
        <ele>12.15</ele>
        <time>2026-06-25T16:59:06Z</time>
      </trkpt>
      <trkpt lat="52.251806035637856" lon="-6.34662302210927">
        <ele>10.710000000000001</ele>
        <time>2026-06-25T16:59:11Z</time>
      </trkpt>
      <trkpt lat="52.251764964312315" lon="-6.346167968586087">
        <ele>10.710000000000001</ele>
        <time>2026-06-25T16:59:14Z</time>
      </trkpt>
      <trkpt lat="52.251942995935678" lon="-6.343797985464335">
        <ele>10.710000000000001</ele>
        <time>2026-06-25T16:59:27Z</time>
      </trkpt>
      <trkpt lat="52.251954982057214" lon="-6.341771995648742">
        <ele>10.23</ele>
        <time>2026-06-25T16:59:38Z</time>
      </trkpt>
      <trkpt lat="52.251889016479254" lon="-6.339657995849848">
        <ele>10.23</ele>
        <time>2026-06-25T16:59:49Z</time>
      </trkpt>
      <trkpt lat="52.251244029030204" lon="-6.337054995819926">
        <ele>11.67</ele>
        <time>2026-06-25T17:00:04Z</time>
      </trkpt>
      <trkpt lat="52.251082006841898" lon="-6.335435025393963">
        <ele>12.15</ele>
        <time>2026-06-25T17:00:15Z</time>
      </trkpt>
      <trkpt lat="52.250891989096999" lon="-6.334860026836395">
        <ele>13.119999999999999</ele>
        <time>2026-06-25T17:00:24Z</time>
      </trkpt>
      <trkpt lat="52.250841027125716" lon="-6.334749972447753">
        <ele>13.119999999999999</ele>
        <time>2026-06-25T17:00:26Z</time>
      </trkpt>
      <trkpt lat="52.25082702934742" lon="-6.334518967196345">
        <ele>13.119999999999999</ele>
        <time>2026-06-25T17:00:27Z</time>
      </trkpt>
      <trkpt lat="52.25082702934742" lon="-6.334518967196345">
        <ele>13.119999999999999</ele>
        <time>2026-06-25T17:00:28Z</time>
      </trkpt>
      <trkpt lat="52.25082702934742" lon="-6.334518967196345">
        <ele>12.630000000000001</ele>
        <time>2026-06-25T17:00:29Z</time>
      </trkpt>
      <trkpt lat="52.25082702934742" lon="-6.334518967196345">
        <ele>12.630000000000001</ele>
        <time>2026-06-25T17:00:30Z</time>
      </trkpt>
      <trkpt lat="52.250822000205517" lon="-6.334476973861456">
        <ele>12.15</ele>
        <time>2026-06-25T17:00:31Z</time>
      </trkpt>
      <trkpt lat="52.250814037397504" lon="-6.334405979141593">
        <ele>12.15</ele>
        <time>2026-06-25T17:00:32Z</time>
      </trkpt>
      <trkpt lat="52.250805990770459" lon="-6.334328027442098">
        <ele>12.15</ele>
        <time>2026-06-25T17:00:33Z</time>
      </trkpt>
      <trkpt lat="52.250781012699008" lon="-6.334301959723234">
        <ele>12.15</ele>
        <time>2026-06-25T17:00:34Z</time>
      </trkpt>
      <trkpt lat="52.250737007707357" lon="-6.334258038550615">
        <ele>12.15</ele>
        <time>2026-06-25T17:00:35Z</time>
      </trkpt>
      <trkpt lat="52.25069803185761" lon="-6.334218978881836">
        <ele>12.15</ele>
        <time>2026-06-25T17:00:36Z</time>
      </trkpt>
      <trkpt lat="52.250637011602521" lon="-6.334218978881836">
        <ele>11.67</ele>
        <time>2026-06-25T17:00:37Z</time>
      </trkpt>
      <trkpt lat="52.250583032146096" lon="-6.334234988316894">
        <ele>11.67</ele>
        <time>2026-06-25T17:00:38Z</time>
      </trkpt>
      <trkpt lat="52.250536009669304" lon="-6.334330039098859">
        <ele>11.19</ele>
        <time>2026-06-25T17:00:39Z</time>
      </trkpt>
      <trkpt lat="52.250501979142427" lon="-6.334433974698186">
        <ele>11.19</ele>
        <time>2026-06-25T17:00:40Z</time>
      </trkpt>
      <trkpt lat="52.250493010506034" lon="-6.334554003551602">
        <ele>11.67</ele>
        <time>2026-06-25T17:00:41Z</time>
      </trkpt>
      <trkpt lat="52.250484963878989" lon="-6.334670009091497">
        <ele>12.15</ele>
        <time>2026-06-25T17:00:42Z</time>
      </trkpt>
      <trkpt lat="52.250477001070976" lon="-6.334787020459771">
        <ele>12.15</ele>
        <time>2026-06-25T17:00:43Z</time>
      </trkpt>
      <trkpt lat="52.250468032434583" lon="-6.334910988807678">
        <ele>12.15</ele>
        <time>2026-06-25T17:00:44Z</time>
      </trkpt>
      <trkpt lat="52.250461997464299" lon="-6.335049038752914">
        <ele>12.630000000000001</ele>
        <time>2026-06-25T17:00:45Z</time>
      </trkpt>
      <trkpt lat="52.250461997464299" lon="-6.335337962955236">
        <ele>13.119999999999999</ele>
        <time>2026-06-25T17:00:47Z</time>
      </trkpt>
      <trkpt lat="52.250461997464299" lon="-6.335489004850388">
        <ele>13.6</ele>
        <time>2026-06-25T17:00:48Z</time>
      </trkpt>
      <trkpt lat="52.250532992184162" lon="-6.336023015901446">
        <ele>14.56</ele>
        <time>2026-06-25T17:00:52Z</time>
      </trkpt>
      <trkpt lat="52.250553024932742" lon="-6.33611798286438">
        <ele>14.56</ele>
        <time>2026-06-25T17:00:53Z</time>
      </trkpt>
      <trkpt lat="52.250597029924393" lon="-6.336294002830982">
        <ele>14.56</ele>
        <time>2026-06-25T17:00:55Z</time>
      </trkpt>
      <trkpt lat="52.250616978853941" lon="-6.336368015035987">
        <ele>15.039999999999999</ele>
        <time>2026-06-25T17:00:56Z</time>
      </trkpt>
      <trkpt lat="52.250633994117379" lon="-6.336429035291076">
        <ele>15.039999999999999</ele>
        <time>2026-06-25T17:00:57Z</time>
      </trkpt>
      <trkpt lat="52.250798027962446" lon="-6.336989030241966">
        <ele>15.039999999999999</ele>
        <time>2026-06-25T17:01:06Z</time>
      </trkpt>
      <trkpt lat="52.251061974093318" lon="-6.337883966043592">
        <ele>16</ele>
        <time>2026-06-25T17:01:18Z</time>
      </trkpt>
      <trkpt lat="52.251232964918017" lon="-6.338755013421178">
        <ele>17.920000000000002</ele>
        <time>2026-06-25T17:01:28Z</time>
      </trkpt>
      <trkpt lat="52.25127998739481" lon="-6.339839966967702">
        <ele>20.32</ele>
        <time>2026-06-25T17:01:41Z</time>
      </trkpt>
      <trkpt lat="52.25130002014339" lon="-6.340312035754323">
        <ele>23.690000000000001</ele>
        <time>2026-06-25T17:01:49Z</time>
      </trkpt>
      <trkpt lat="52.25130395963788" lon="-6.340395016595721">
        <ele>23.690000000000001</ele>
        <time>2026-06-25T17:01:50Z</time>
      </trkpt>
      <trkpt lat="52.251338995993137" lon="-6.341057019308209">
        <ele>25.609999999999999</ele>
        <time>2026-06-25T17:01:57Z</time>
      </trkpt>
      <trkpt lat="52.251335978507996" lon="-6.341242007911205">
        <ele>26.57</ele>
        <time>2026-06-25T17:01:59Z</time>
      </trkpt>
      <trkpt lat="52.251324998214841" lon="-6.341519029811025">
        <ele>27.530000000000001</ele>
        <time>2026-06-25T17:02:02Z</time>
      </trkpt>
      <trkpt lat="52.251320974901319" lon="-6.341618020087481">
        <ele>27.530000000000001</ele>
        <time>2026-06-25T17:02:03Z</time>
      </trkpt>
      <trkpt lat="52.251274036243558" lon="-6.342214979231358">
        <ele>28.5</ele>
        <time>2026-06-25T17:02:09Z</time>
      </trkpt>
      <trkpt lat="52.251011012122035" lon="-6.342940013855696">
        <ele>29.460000000000001</ele>
        <time>2026-06-25T17:02:20Z</time>
      </trkpt>
      <trkpt lat="52.25074103102088" lon="-6.343349972739816">
        <ele>28.5</ele>
        <time>2026-06-25T17:02:26Z</time>
      </trkpt>
      <trkpt lat="52.250667018815875" lon="-6.343438988551498">
        <ele>28.02</ele>
        <time>2026-06-25T17:02:27Z</time>
      </trkpt>
      <trkpt lat="52.250379016622901" lon="-6.34363797493279">
        <ele>26.57</ele>
        <time>2026-06-25T17:02:30Z</time>
      </trkpt>
      <trkpt lat="52.249185014516115" lon="-6.344094034284353">
        <ele>25.129999999999999</ele>
        <time>2026-06-25T17:02:41Z</time>
      </trkpt>
      <trkpt lat="52.247708961367607" lon="-6.344771962612867">
        <ele>22.25</ele>
        <time>2026-06-25T17:02:52Z</time>
      </trkpt>
      <trkpt lat="52.246027970686555" lon="-6.345694977790117">
        <ele>17.440000000000001</ele>
        <time>2026-06-25T17:03:05Z</time>
      </trkpt>
      <trkpt lat="52.245440986007452" lon="-6.346254972741008">
        <ele>17.440000000000001</ele>
        <time>2026-06-25T17:03:12Z</time>
      </trkpt>
      <trkpt lat="52.245377032086253" lon="-6.346299983561039">
        <ele>17.440000000000001</ele>
        <time>2026-06-25T17:03:13Z</time>
      </trkpt>
      <trkpt lat="52.244450999423862" lon="-6.346743972972035">
        <ele>17.920000000000002</ele>
        <time>2026-06-25T17:03:22Z</time>
      </trkpt>
      <trkpt lat="52.243655975908041" lon="-6.347646033391357">
        <ele>18.879999999999999</ele>
        <time>2026-06-25T17:03:29Z</time>
      </trkpt>
      <trkpt lat="52.242802027612925" lon="-6.349282013252378">
        <ele>20.32</ele>
        <time>2026-06-25T17:03:39Z</time>
      </trkpt>
      <trkpt lat="52.242221999913454" lon="-6.351461978629232">
        <ele>21.77</ele>
        <time>2026-06-25T17:03:50Z</time>
      </trkpt>
      <trkpt lat="52.24193399772048" lon="-6.353230979293585">
        <ele>20.32</ele>
        <time>2026-06-25T17:03:59Z</time>
      </trkpt>
      <trkpt lat="52.241916982457042" lon="-6.353438012301922">
        <ele>20.809999999999999</ele>
        <time>2026-06-25T17:04:00Z</time>
      </trkpt>
      <trkpt lat="52.241907007992268" lon="-6.354029020294547">
        <ele>20.809999999999999</ele>
        <time>2026-06-25T17:04:03Z</time>
      </trkpt>
      <trkpt lat="52.242157962173223" lon="-6.356170009821653">
        <ele>20.809999999999999</ele>
        <time>2026-06-25T17:04:14Z</time>
      </trkpt>
      <trkpt lat="52.242585020139813" lon="-6.357647990807891">
        <ele>22.25</ele>
        <time>2026-06-25T17:04:23Z</time>
      </trkpt>
      <trkpt lat="52.243263032287359" lon="-6.359382960945368">
        <ele>21.77</ele>
        <time>2026-06-25T17:04:33Z</time>
      </trkpt>
      <trkpt lat="52.243772987276316" lon="-6.361253969371319">
        <ele>20.32</ele>
        <time>2026-06-25T17:04:42Z</time>
      </trkpt>
      <trkpt lat="52.244066018611193" lon="-6.363543989136815">
        <ele>20.32</ele>
        <time>2026-06-25T17:04:54Z</time>
      </trkpt>
      <trkpt lat="52.24433901719749" lon="-6.365932999178767">
        <ele>21.77</ele>
        <time>2026-06-25T17:05:08Z</time>
      </trkpt>
      <trkpt lat="52.244613021612167" lon="-6.368485959246755">
        <ele>23.210000000000001</ele>
        <time>2026-06-25T17:05:19Z</time>
      </trkpt>
      <trkpt lat="52.244785018265247" lon="-6.371579971164465">
        <ele>24.649999999999999</ele>
        <time>2026-06-25T17:05:34Z</time>
      </trkpt>
      <trkpt lat="52.244669012725353" lon="-6.37446996755898">
        <ele>26.09</ele>
        <time>2026-06-25T17:05:47Z</time>
      </trkpt>
      <trkpt lat="52.244415963068604" lon="-6.376980012282729">
        <ele>26.09</ele>
        <time>2026-06-25T17:05:58Z</time>
      </trkpt>
      <trkpt lat="52.24408496171236" lon="-6.378926960751414">
        <ele>27.050000000000001</ele>
        <time>2026-06-25T17:06:06Z</time>
      </trkpt>
      <trkpt lat="52.244040034711361" lon="-6.379179004579783">
        <ele>27.050000000000001</ele>
        <time>2026-06-25T17:06:07Z</time>
      </trkpt>
      <trkpt lat="52.243520021438599" lon="-6.382056009024382">
        <ele>24.649999999999999</ele>
        <time>2026-06-25T17:06:18Z</time>
      </trkpt>
      <trkpt lat="52.243025992065668" lon="-6.385476998984814">
        <ele>22.73</ele>
        <time>2026-06-25T17:06:30Z</time>
      </trkpt>
      <trkpt lat="52.243103021755815" lon="-6.387823009863496">
        <ele>21.289999999999999</ele>
        <time>2026-06-25T17:06:39Z</time>
      </trkpt>
      <trkpt lat="52.24350300617516" lon="-6.390055026859045">
        <ele>19.84</ele>
        <time>2026-06-25T17:06:49Z</time>
      </trkpt>
      <trkpt lat="52.24429601803422" lon="-6.392362983897328">
        <ele>23.690000000000001</ele>
        <time>2026-06-25T17:07:00Z</time>
      </trkpt>
      <trkpt lat="52.245464958250523" lon="-6.395612983033061">
        <ele>25.609999999999999</ele>
        <time>2026-06-25T17:07:14Z</time>
      </trkpt>
      <trkpt lat="52.246564999222755" lon="-6.398632982745767">
        <ele>20.809999999999999</ele>
        <time>2026-06-25T17:07:24Z</time>
      </trkpt>
      <trkpt lat="52.248306004330516" lon="-6.403467999771237">
        <ele>21.77</ele>
        <time>2026-06-25T17:07:39Z</time>
      </trkpt>
      <trkpt lat="52.249935027211905" lon="-6.408341992646456">
        <ele>22.25</ele>
        <time>2026-06-25T17:07:54Z</time>
      </trkpt>
      <trkpt lat="52.25179597735405" lon="-6.413436010479927">
        <ele>20.32</ele>
        <time>2026-06-25T17:08:10Z</time>
      </trkpt>
      <trkpt lat="52.253739992156625" lon="-6.418838985264301">
        <ele>20.32</ele>
        <time>2026-06-25T17:08:27Z</time>
      </trkpt>
      <trkpt lat="52.255111020058393" lon="-6.422711005434394">
        <ele>18.879999999999999</ele>
        <time>2026-06-25T17:08:39Z</time>
      </trkpt>
      <trkpt lat="52.257026033475995" lon="-6.428076010197401">
        <ele>17.920000000000002</ele>
        <time>2026-06-25T17:08:56Z</time>
      </trkpt>
      <trkpt lat="52.257528025656939" lon="-6.42951400950551">
        <ele>17.440000000000001</ele>
        <time>2026-06-25T17:09:03Z</time>
      </trkpt>
      <trkpt lat="52.257887022569776" lon="-6.430478012189269">
        <ele>18.399999999999999</ele>
        <time>2026-06-25T17:09:11Z</time>
      </trkpt>
      <trkpt lat="52.258019037544727" lon="-6.430727960541844">
        <ele>19.359999999999999</ele>
        <time>2026-06-25T17:09:20Z</time>
      </trkpt>
      <trkpt lat="52.25804896093905" lon="-6.430784035474062">
        <ele>19.359999999999999</ele>
        <time>2026-06-25T17:09:22Z</time>
      </trkpt>
      <trkpt lat="52.258040998131037" lon="-6.43106197938323">
        <ele>19.359999999999999</ele>
        <time>2026-06-25T17:09:24Z</time>
      </trkpt>
      <trkpt lat="52.258058013394475" lon="-6.431164992973208">
        <ele>19.359999999999999</ele>
        <time>2026-06-25T17:09:25Z</time>
      </trkpt>
      <trkpt lat="52.258235961198807" lon="-6.431314023211598">
        <ele>19.359999999999999</ele>
        <time>2026-06-25T17:09:26Z</time>
      </trkpt>
      <trkpt lat="52.25826202891767" lon="-6.431478979066014">
        <ele>19.359999999999999</ele>
        <time>2026-06-25T17:09:27Z</time>
      </trkpt>
      <trkpt lat="52.258290024474263" lon="-6.431658016517758">
        <ele>19.84</ele>
        <time>2026-06-25T17:09:28Z</time>
      </trkpt>
      <trkpt lat="52.258320031687617" lon="-6.431849040091038">
        <ele>19.84</ele>
        <time>2026-06-25T17:09:29Z</time>
      </trkpt>
      <trkpt lat="52.25835096091032" lon="-6.432041991502047">
        <ele>19.359999999999999</ele>
        <time>2026-06-25T17:09:30Z</time>
      </trkpt>
      <trkpt lat="52.258620020002127" lon="-6.433994974941015">
        <ele>18.399999999999999</ele>
        <time>2026-06-25T17:09:38Z</time>
      </trkpt>
      <trkpt lat="52.258924031630158" lon="-6.436922019347549">
        <ele>13.6</ele>
        <time>2026-06-25T17:09:48Z</time>
      </trkpt>
      <trkpt lat="52.258958984166384" lon="-6.438438976183534">
        <ele>15.039999999999999</ele>
        <time>2026-06-25T17:09:54Z</time>
      </trkpt>
      <trkpt lat="52.258940963074565" lon="-6.439609006047249">
        <ele>16.48</ele>
        <time>2026-06-25T17:10:02Z</time>
      </trkpt>
      <trkpt lat="52.258888995274901" lon="-6.440800996497273">
        <ele>17.440000000000001</ele>
        <time>2026-06-25T17:10:11Z</time>
      </trkpt>
      <trkpt lat="52.258680034428835" lon="-6.442359024658799">
        <ele>16.960000000000001</ele>
        <time>2026-06-25T17:10:22Z</time>
      </trkpt>
      <trkpt lat="52.258062036707997" lon="-6.444388031959534">
        <ele>17.440000000000001</ele>
        <time>2026-06-25T17:10:34Z</time>
      </trkpt>
      <trkpt lat="52.25770496763289" lon="-6.445410959422588">
        <ele>18.399999999999999</ele>
        <time>2026-06-25T17:10:40Z</time>
      </trkpt>
      <trkpt lat="52.257226025685668" lon="-6.447674995288253">
        <ele>20.809999999999999</ele>
        <time>2026-06-25T17:10:52Z</time>
      </trkpt>
      <trkpt lat="52.256942968815565" lon="-6.450168024748564">
        <ele>18.399999999999999</ele>
        <time>2026-06-25T17:11:04Z</time>
      </trkpt>
      <trkpt lat="52.256975993514061" lon="-6.452299039810896">
        <ele>15.52</ele>
        <time>2026-06-25T17:11:12Z</time>
      </trkpt>
      <trkpt lat="52.257427023723722" lon="-6.454720990732312">
        <ele>15.52</ele>
        <time>2026-06-25T17:11:21Z</time>
      </trkpt>
      <trkpt lat="52.258260017260909" lon="-6.456728959456086">
        <ele>15.039999999999999</ele>
        <time>2026-06-25T17:11:30Z</time>
      </trkpt>
      <trkpt lat="52.259496012702584" lon="-6.458429982885718">
        <ele>16</ele>
        <time>2026-06-25T17:11:39Z</time>
      </trkpt>
      <trkpt lat="52.260833010077477" lon="-6.459430027753115">
        <ele>16.960000000000001</ele>
        <time>2026-06-25T17:11:47Z</time>
      </trkpt>
      <trkpt lat="52.263110959902406" lon="-6.460969028994441">
        <ele>18.399999999999999</ele>
        <time>2026-06-25T17:12:01Z</time>
      </trkpt>
      <trkpt lat="52.265144996345043" lon="-6.461887015029788">
        <ele>21.77</ele>
        <time>2026-06-25T17:12:13Z</time>
      </trkpt>
      <trkpt lat="52.266582995653152" lon="-6.461791964247823">
        <ele>21.77</ele>
        <time>2026-06-25T17:12:21Z</time>
      </trkpt>
      <trkpt lat="52.268628012388945" lon="-6.461221994832158">
        <ele>20.32</ele>
        <time>2026-06-25T17:12:32Z</time>
      </trkpt>
      <trkpt lat="52.270152010023594" lon="-6.461344035342336">
        <ele>19.359999999999999</ele>
        <time>2026-06-25T17:12:39Z</time>
      </trkpt>
      <trkpt lat="52.272216975688934" lon="-6.462035961449146">
        <ele>21.77</ele>
        <time>2026-06-25T17:12:49Z</time>
      </trkpt>
      <trkpt lat="52.275082999840379" lon="-6.462943973019719">
        <ele>26.09</ele>
        <time>2026-06-25T17:13:04Z</time>
      </trkpt>
      <trkpt lat="52.277175961062312" lon="-6.462888987734914">
        <ele>27.050000000000001</ele>
        <time>2026-06-25T17:13:14Z</time>
      </trkpt>
      <trkpt lat="52.279645018279552" lon="-6.462584976106882">
        <ele>28.5</ele>
        <time>2026-06-25T17:13:27Z</time>
      </trkpt>
      <trkpt lat="52.281235987320542" lon="-6.462805001065135">
        <ele>28.98</ele>
        <time>2026-06-25T17:13:36Z</time>
      </trkpt>
      <trkpt lat="52.282659988850355" lon="-6.463487958535552">
        <ele>29.460000000000001</ele>
        <time>2026-06-25T17:13:45Z</time>
      </trkpt>
      <trkpt lat="52.284265039488673" lon="-6.464187009260058">
        <ele>29.460000000000001</ele>
        <time>2026-06-25T17:13:54Z</time>
      </trkpt>
      <trkpt lat="52.286044014617801" lon="-6.464259009808302">
        <ele>30.420000000000002</ele>
        <time>2026-06-25T17:14:04Z</time>
      </trkpt>
      <trkpt lat="52.288907021284103" lon="-6.463880985975266">
        <ele>31.379999999999999</ele>
        <time>2026-06-25T17:14:20Z</time>
      </trkpt>
      <trkpt lat="52.291379012167454" lon="-6.463338006287813">
        <ele>31.379999999999999</ele>
        <time>2026-06-25T17:14:34Z</time>
      </trkpt>
      <trkpt lat="52.293450012803078" lon="-6.462265038862824">
        <ele>35.229999999999997</ele>
        <time>2026-06-25T17:14:46Z</time>
      </trkpt>
      <trkpt lat="52.295597959309816" lon="-6.460678009316325">
        <ele>34.740000000000002</ele>
        <time>2026-06-25T17:14:59Z</time>
      </trkpt>
      <trkpt lat="52.296762960031629" lon="-6.460009971633554">
        <ele>32.340000000000003</ele>
        <time>2026-06-25T17:15:06Z</time>
      </trkpt>
      <trkpt lat="52.29850597679615" lon="-6.459532035514712">
        <ele>26.57</ele>
        <time>2026-06-25T17:15:17Z</time>
      </trkpt>
      <trkpt lat="52.299757981672883" lon="-6.459208996966481">
        <ele>25.129999999999999</ele>
        <time>2026-06-25T17:15:27Z</time>
      </trkpt>
      <trkpt lat="52.300958018749952" lon="-6.458824016153812">
        <ele>23.690000000000001</ele>
        <time>2026-06-25T17:15:37Z</time>
      </trkpt>
      <trkpt lat="52.302427031099796" lon="-6.458254968747497">
        <ele>21.77</ele>
        <time>2026-06-25T17:15:48Z</time>
      </trkpt>
      <trkpt lat="52.302509006112814" lon="-6.458269972354174">
        <ele>21.77</ele>
        <time>2026-06-25T17:15:49Z</time>
      </trkpt>
      <trkpt lat="52.302572960034013" lon="-6.458299979567528">
        <ele>21.77</ele>
        <time>2026-06-25T17:15:50Z</time>
      </trkpt>
      <trkpt lat="52.302632974460721" lon="-6.458327975124121">
        <ele>22.25</ele>
        <time>2026-06-25T17:15:51Z</time>
      </trkpt>
      <trkpt lat="52.302692988887429" lon="-6.458355970680714">
        <ele>23.210000000000001</ele>
        <time>2026-06-25T17:15:52Z</time>
      </trkpt>
      <trkpt lat="52.302775969728827" lon="-6.458395030349493">
        <ele>23.210000000000001</ele>
        <time>2026-06-25T17:15:53Z</time>
      </trkpt>
      <trkpt lat="52.302818968892097" lon="-6.458458984270692">
        <ele>23.690000000000001</ele>
        <time>2026-06-25T17:15:54Z</time>
      </trkpt>
      <trkpt lat="52.302856016904116" lon="-6.458595022559166">
        <ele>24.170000000000002</ele>
        <time>2026-06-25T17:15:55Z</time>
      </trkpt>
      <trkpt lat="52.302892981097102" lon="-6.458726031705737">
        <ele>24.649999999999999</ele>
        <time>2026-06-25T17:15:56Z</time>
      </trkpt>
      <trkpt lat="52.302932040765882" lon="-6.458871038630605">
        <ele>24.649999999999999</ele>
        <time>2026-06-25T17:15:57Z</time>
      </trkpt>
      <trkpt lat="52.302975039929152" lon="-6.459026020020247">
        <ele>25.129999999999999</ele>
        <time>2026-06-25T17:15:58Z</time>
      </trkpt>
      <trkpt lat="52.302999012172222" lon="-6.459214026108384">
        <ele>25.129999999999999</ele>
        <time>2026-06-25T17:15:59Z</time>
      </trkpt>
      <trkpt lat="52.303012004122138" lon="-6.459407983347774">
        <ele>25.609999999999999</ele>
        <time>2026-06-25T17:16:00Z</time>
      </trkpt>
      <trkpt lat="52.303148964419961" lon="-6.461572023108602">
        <ele>27.050000000000001</ele>
        <time>2026-06-25T17:16:09Z</time>
      </trkpt>
      <trkpt lat="52.303394973278046" lon="-6.46563095971942">
        <ele>27.530000000000001</ele>
        <time>2026-06-25T17:16:23Z</time>
      </trkpt>
      <trkpt lat="52.303761010989547" lon="-6.469547990709543">
        <ele>29.460000000000001</ele>
        <time>2026-06-25T17:16:36Z</time>
      </trkpt>
      <trkpt lat="52.304561985656619" lon="-6.473453035578132">
        <ele>31.379999999999999</ele>
        <time>2026-06-25T17:16:49Z</time>
      </trkpt>
      <trkpt lat="52.305608969181776" lon="-6.47658702917397">
        <ele>35.229999999999997</ele>
        <time>2026-06-25T17:17:00Z</time>
      </trkpt>
      <trkpt lat="52.307198010385036" lon="-6.47985203191638">
        <ele>44.359999999999999</ele>
        <time>2026-06-25T17:17:12Z</time>
      </trkpt>
      <trkpt lat="52.308746986091137" lon="-6.482317987829447">
        <ele>53.009999999999998</ele>
        <time>2026-06-25T17:17:22Z</time>
      </trkpt>
      <trkpt lat="52.311012027785182" lon="-6.485980963334441">
        <ele>67.909999999999997</ele>
        <time>2026-06-25T17:17:37Z</time>
      </trkpt>
      <trkpt lat="52.313239015638828" lon="-6.489520976319909">
        <ele>78.969999999999999</ele>
        <time>2026-06-25T17:17:52Z</time>
      </trkpt>
      <trkpt lat="52.31502897106111" lon="-6.492209974676371">
        <ele>83.290000000000006</ele>
        <time>2026-06-25T17:18:03Z</time>
      </trkpt>
      <trkpt lat="52.316868966445327" lon="-6.494507035240531">
        <ele>85.689999999999998</ele>
        <time>2026-06-25T17:18:12Z</time>
      </trkpt>
      <trkpt lat="52.318219961598516" lon="-6.4960110001266">
        <ele>87.620000000000005</ele>
        <time>2026-06-25T17:18:19Z</time>
      </trkpt>
      <trkpt lat="52.320508975535631" lon="-6.498465975746512">
        <ele>85.209999999999994</ele>
        <time>2026-06-25T17:18:30Z</time>
      </trkpt>
      <trkpt lat="52.322056023404002" lon="-6.500124000012875">
        <ele>81.849999999999994</ele>
        <time>2026-06-25T17:18:39Z</time>
      </trkpt>
      <trkpt lat="52.322725988924503" lon="-6.50084400549531">
        <ele>79.450000000000003</ele>
        <time>2026-06-25T17:18:45Z</time>
      </trkpt>
      <trkpt lat="52.322903014719486" lon="-6.50112203322351">
        <ele>76.079999999999998</ele>
        <time>2026-06-25T17:18:52Z</time>
      </trkpt>
      <trkpt lat="52.322970991954207" lon="-6.501247007399797">
        <ele>76.079999999999998</ele>
        <time>2026-06-25T17:18:57Z</time>
      </trkpt>
      <trkpt lat="52.323018014431" lon="-6.501333005726337">
        <ele>76.560000000000002</ele>
        <time>2026-06-25T17:18:58Z</time>
      </trkpt>
      <trkpt lat="52.323080040514469" lon="-6.501458985731006">
        <ele>76.560000000000002</ele>
        <time>2026-06-25T17:18:59Z</time>
      </trkpt>
      <trkpt lat="52.323089009150863" lon="-6.501657972112298">
        <ele>76.560000000000002</ele>
        <time>2026-06-25T17:19:00Z</time>
      </trkpt>
      <trkpt lat="52.323080962523818" lon="-6.501812031492591">
        <ele>77.040000000000006</ele>
        <time>2026-06-25T17:19:01Z</time>
      </trkpt>
      <trkpt lat="52.323072999715805" lon="-6.501972964033485">
        <ele>77.040000000000006</ele>
        <time>2026-06-25T17:19:02Z</time>
      </trkpt>
      <trkpt lat="52.322940984740853" lon="-6.503458991646767">
        <ele>78.969999999999999</ele>
        <time>2026-06-25T17:19:09Z</time>
      </trkpt>
      <trkpt lat="52.322778962552547" lon="-6.504223002120853">
        <ele>79.930000000000007</ele>
        <time>2026-06-25T17:19:12Z</time>
      </trkpt>
      <trkpt lat="52.322343019768596" lon="-6.506417971104384">
        <ele>81.370000000000005</ele>
        <time>2026-06-25T17:19:21Z</time>
      </trkpt>
      <trkpt lat="52.321766009554267" lon="-6.508885016664863">
        <ele>83.290000000000006</ele>
        <time>2026-06-25T17:19:31Z</time>
      </trkpt>
      <trkpt lat="52.321078022941947" lon="-6.511086020618677">
        <ele>83.290000000000006</ele>
        <time>2026-06-25T17:19:40Z</time>
      </trkpt>
      <trkpt lat="52.320150984451175" lon="-6.513665970414877">
        <ele>84.730000000000004</ele>
        <time>2026-06-25T17:19:51Z</time>
      </trkpt>
      <trkpt lat="52.31902495957911" lon="-6.516466028988361">
        <ele>90.5</ele>
        <time>2026-06-25T17:20:03Z</time>
      </trkpt>
      <trkpt lat="52.317803967744112" lon="-6.519341021776199">
        <ele>90.980000000000004</ele>
        <time>2026-06-25T17:20:15Z</time>
      </trkpt>
      <trkpt lat="52.31672203168273" lon="-6.521883001551032">
        <ele>96.269999999999996</ele>
        <time>2026-06-25T17:20:26Z</time>
      </trkpt>
      <trkpt lat="52.315362989902496" lon="-6.524880034849048">
        <ele>103.95999999999999</ele>
        <time>2026-06-25T17:20:39Z</time>
      </trkpt>
      <trkpt lat="52.313612010329962" lon="-6.528247967362404">
        <ele>111.17</ele>
        <time>2026-06-25T17:20:54Z</time>
      </trkpt>
      <trkpt lat="52.312567960470915" lon="-6.530155017971993">
        <ele>116.45999999999999</ele>
        <time>2026-06-25T17:21:03Z</time>
      </trkpt>
      <trkpt lat="52.311704959720373" lon="-6.531934998929501">
        <ele>120.3</ele>
        <time>2026-06-25T17:21:12Z</time>
      </trkpt>
      <trkpt lat="52.311507984995842" lon="-6.532590966671705">
        <ele>122.22</ele>
        <time>2026-06-25T17:21:15Z</time>
      </trkpt>
      <trkpt lat="52.311295000836253" lon="-6.533959982916713">
        <ele>125.11</ele>
        <time>2026-06-25T17:21:22Z</time>
      </trkpt>
      <trkpt lat="52.31124303303659" lon="-6.534467004239559">
        <ele>124.63</ele>
        <time>2026-06-25T17:21:26Z</time>
      </trkpt>
      <trkpt lat="52.311262981966138" lon="-6.534673031419516">
        <ele>124.63</ele>
        <time>2026-06-25T17:21:27Z</time>
      </trkpt>
      <trkpt lat="52.31133297085762" lon="-6.534805968403816">
        <ele>124.63</ele>
        <time>2026-06-25T17:21:28Z</time>
      </trkpt>
      <trkpt lat="52.312220027670264" lon="-6.536645041778684">
        <ele>131.84</ele>
        <time>2026-06-25T17:21:40Z</time>
      </trkpt>
      <trkpt lat="52.313404977321625" lon="-6.538846967741847">
        <ele>140.97</ele>
        <time>2026-06-25T17:21:53Z</time>
      </trkpt>
      <trkpt lat="52.314537037163973" lon="-6.540877986699343">
        <ele>148.18000000000001</ele>
        <time>2026-06-25T17:22:05Z</time>
      </trkpt>
      <trkpt lat="52.315354021266103" lon="-6.542344987392426">
        <ele>154.91</ele>
        <time>2026-06-25T17:22:14Z</time>
      </trkpt>
      <trkpt lat="52.316395975649357" lon="-6.54422203078866">
        <ele>166.44999999999999</ele>
        <time>2026-06-25T17:22:25Z</time>
      </trkpt>
      <trkpt lat="52.317588971927762" lon="-6.546399984508753">
        <ele>179.41999999999999</ele>
        <time>2026-06-25T17:22:37Z</time>
      </trkpt>
      <trkpt lat="52.318155001848936" lon="-6.548048034310341">
        <ele>181.34999999999999</ele>
        <time>2026-06-25T17:22:44Z</time>
      </trkpt>
      <trkpt lat="52.31887198984623" lon="-6.550512984395027">
        <ele>181.34999999999999</ele>
        <time>2026-06-25T17:22:54Z</time>
      </trkpt>
      <trkpt lat="52.319617979228497" lon="-6.554031036794186">
        <ele>187.11000000000001</ele>
        <time>2026-06-25T17:23:08Z</time>
      </trkpt>
      <trkpt lat="52.320333961397409" lon="-6.557872965931892">
        <ele>200.09</ele>
        <time>2026-06-25T17:23:23Z</time>
      </trkpt>
      <trkpt lat="52.320646019652486" lon="-6.560193998739123">
        <ele>196.72999999999999</ele>
        <time>2026-06-25T17:23:32Z</time>
      </trkpt>
      <trkpt lat="52.320704022422433" lon="-6.560760028660297">
        <ele>194.31999999999999</ele>
        <time>2026-06-25T17:23:34Z</time>
      </trkpt>
      <trkpt lat="52.320715002715588" lon="-6.562118986621499">
        <ele>187.59</ele>
        <time>2026-06-25T17:23:39Z</time>
      </trkpt>
      <trkpt lat="52.320746015757322" lon="-6.562386034056544">
        <ele>185.66999999999999</ele>
        <time>2026-06-25T17:23:40Z</time>
      </trkpt>
      <trkpt lat="52.320974003523588" lon="-6.564688039943576">
        <ele>173.16999999999999</ele>
        <time>2026-06-25T17:23:49Z</time>
      </trkpt>
      <trkpt lat="52.320893034338951" lon="-6.566570028662682">
        <ele>166.44999999999999</ele>
        <time>2026-06-25T17:23:57Z</time>
      </trkpt>
      <trkpt lat="52.320846011862159" lon="-6.566787036135793">
        <ele>165.47999999999999</ele>
        <time>2026-06-25T17:23:58Z</time>
      </trkpt>
      <trkpt lat="52.320717014372349" lon="-6.567393969744444">
        <ele>163.56</ele>
        <time>2026-06-25T17:24:01Z</time>
      </trkpt>
      <trkpt lat="52.320692958310246" lon="-6.567575018852949">
        <ele>163.08000000000001</ele>
        <time>2026-06-25T17:24:02Z</time>
      </trkpt>
      <trkpt lat="52.320708967745304" lon="-6.567774005234242">
        <ele>162.12</ele>
        <time>2026-06-25T17:24:03Z</time>
      </trkpt>
      <trkpt lat="52.320778034627438" lon="-6.567906020209193">
        <ele>161.16</ele>
        <time>2026-06-25T17:24:04Z</time>
      </trkpt>
      <trkpt lat="52.320851963013411" lon="-6.568045997992158">
        <ele>160.19999999999999</ele>
        <time>2026-06-25T17:24:05Z</time>
      </trkpt>
      <trkpt lat="52.320932010188699" lon="-6.5682009793818">
        <ele>159.72</ele>
        <time>2026-06-25T17:24:06Z</time>
      </trkpt>
      <trkpt lat="52.321019014343619" lon="-6.568367024883628">
        <ele>158.75</ele>
        <time>2026-06-25T17:24:07Z</time>
      </trkpt>
      <trkpt lat="52.321308022364974" lon="-6.569094993174076">
        <ele>153.94999999999999</ele>
        <time>2026-06-25T17:24:11Z</time>
      </trkpt>
      <trkpt lat="52.321882015094161" lon="-6.571063986048102">
        <ele>135.68000000000001</ele>
        <time>2026-06-25T17:24:21Z</time>
      </trkpt>
      <trkpt lat="52.322014030069113" lon="-6.571468999609351">
        <ele>129.43000000000001</ele>
        <time>2026-06-25T17:24:26Z</time>
      </trkpt>
      <trkpt lat="52.321972958743572" lon="-6.571636972948909">
        <ele>125.59</ele>
        <time>2026-06-25T17:24:33Z</time>
      </trkpt>
      <trkpt lat="52.321937000378966" lon="-6.571735963225365">
        <ele>125.11</ele>
        <time>2026-06-25T17:24:34Z</time>
      </trkpt>
      <trkpt lat="52.321895007044077" lon="-6.571850962936878">
        <ele>124.63</ele>
        <time>2026-06-25T17:24:35Z</time>
      </trkpt>
      <trkpt lat="52.321800040081143" lon="-6.572118010371923">
        <ele>124.15000000000001</ele>
        <time>2026-06-25T17:24:37Z</time>
      </trkpt>
      <trkpt lat="52.321743965148926" lon="-6.572276009246707">
        <ele>123.67</ele>
        <time>2026-06-25T17:24:38Z</time>
      </trkpt>
      <trkpt lat="52.321334006264806" lon="-6.573458025231957">
        <ele>122.70999999999999</ele>
        <time>2026-06-25T17:24:45Z</time>
      </trkpt>
      <trkpt lat="52.321272986009717" lon="-6.573641002178192">
        <ele>122.22</ele>
        <time>2026-06-25T17:24:46Z</time>
      </trkpt>
      <trkpt lat="52.320744004100561" lon="-6.575521985068917">
        <ele>121.26000000000001</ele>
        <time>2026-06-25T17:24:56Z</time>
      </trkpt>
      <trkpt lat="52.320710979402065" lon="-6.575714014470577">
        <ele>121.26000000000001</ele>
        <time>2026-06-25T17:24:57Z</time>
      </trkpt>
      <trkpt lat="52.320680972188711" lon="-6.575891962274909">
        <ele>121.73999999999999</ele>
        <time>2026-06-25T17:24:58Z</time>
      </trkpt>
      <trkpt lat="52.320565972477198" lon="-6.576728979125619">
        <ele>123.19</ele>
        <time>2026-06-25T17:25:03Z</time>
      </trkpt>
      <trkpt lat="52.320552980527282" lon="-6.576912961900234">
        <ele>123.19</ele>
        <time>2026-06-25T17:25:04Z</time>
      </trkpt>
      <trkpt lat="52.320838971063495" lon="-6.578492028638721">
        <ele>123.67</ele>
        <time>2026-06-25T17:25:12Z</time>
      </trkpt>
      <trkpt lat="52.321243984624743" lon="-6.58027796074748">
        <ele>127.03</ele>
        <time>2026-06-25T17:25:21Z</time>
      </trkpt>
      <trkpt lat="52.321613961830735" lon="-6.582322977483273">
        <ele>124.15000000000001</ele>
        <time>2026-06-25T17:25:30Z</time>
      </trkpt>
      <trkpt lat="52.321685962378979" lon="-6.584224998950958">
        <ele>121.73999999999999</ele>
        <time>2026-06-25T17:25:38Z</time>
      </trkpt>
      <trkpt lat="52.321775984019041" lon="-6.586576960980892">
        <ele>113.09</ele>
        <time>2026-06-25T17:25:47Z</time>
      </trkpt>
      <trkpt lat="52.321741031482816" lon="-6.588952979072928">
        <ele>103.48</ele>
        <time>2026-06-25T17:25:56Z</time>
      </trkpt>
      <trkpt lat="52.321637012064457" lon="-6.591711966320872">
        <ele>90.019999999999996</ele>
        <time>2026-06-25T17:26:07Z</time>
      </trkpt>
      <trkpt lat="52.321637012064457" lon="-6.591958981007338">
        <ele>89.060000000000002</ele>
        <time>2026-06-25T17:26:08Z</time>
      </trkpt>
      <trkpt lat="52.321672970429063" lon="-6.592445969581604">
        <ele>86.180000000000007</ele>
        <time>2026-06-25T17:26:10Z</time>
      </trkpt>
      <trkpt lat="52.32175100594759" lon="-6.592928012832999">
        <ele>84.730000000000004</ele>
        <time>2026-06-25T17:26:12Z</time>
      </trkpt>
      <trkpt lat="52.321788975968957" lon="-6.593164969235659">
        <ele>84.25</ele>
        <time>2026-06-25T17:26:13Z</time>
      </trkpt>
      <trkpt lat="52.321872962638736" lon="-6.593669978901744">
        <ele>84.730000000000004</ele>
        <time>2026-06-25T17:26:15Z</time>
      </trkpt>
      <trkpt lat="52.321991985663772" lon="-6.595176961272955">
        <ele>86.180000000000007</ele>
        <time>2026-06-25T17:26:21Z</time>
      </trkpt>
      <trkpt lat="52.322280993685126" lon="-6.597183002158999">
        <ele>84.730000000000004</ele>
        <time>2026-06-25T17:26:30Z</time>
      </trkpt>
      <trkpt lat="52.322280993685126" lon="-6.59739900380373">
        <ele>84.25</ele>
        <time>2026-06-25T17:26:31Z</time>
      </trkpt>
      <trkpt lat="52.322255009785295" lon="-6.597635038197041">
        <ele>83.290000000000006</ele>
        <time>2026-06-25T17:26:32Z</time>
      </trkpt>
      <trkpt lat="52.322189966216683" lon="-6.597850034013391">
        <ele>82.810000000000002</ele>
        <time>2026-06-25T17:26:33Z</time>
      </trkpt>
      <trkpt lat="52.322121988981962" lon="-6.598078021779656">
        <ele>82.329999999999998</ele>
        <time>2026-06-25T17:26:34Z</time>
      </trkpt>
      <trkpt lat="52.321593007072806" lon="-6.600053971633315">
        <ele>85.209999999999994</ele>
        <time>2026-06-25T17:26:42Z</time>
      </trkpt>
      <trkpt lat="52.320791026577353" lon="-6.602738024666905">
        <ele>99.150000000000006</ele>
        <time>2026-06-25T17:26:54Z</time>
      </trkpt>
      <trkpt lat="52.32059296220541" lon="-6.60347999073565">
        <ele>101.08</ele>
        <time>2026-06-25T17:26:57Z</time>
      </trkpt>
      <trkpt lat="52.320464970543981" lon="-6.604428989812732">
        <ele>103</ele>
        <time>2026-06-25T17:27:01Z</time>
      </trkpt>
      <trkpt lat="52.320460025221109" lon="-6.604663012549281">
        <ele>103.95999999999999</ele>
        <time>2026-06-25T17:27:02Z</time>
      </trkpt>
      <trkpt lat="52.320462958887219" lon="-6.604888988658786">
        <ele>103.95999999999999</ele>
        <time>2026-06-25T17:27:03Z</time>
      </trkpt>
      <trkpt lat="52.320476034656167" lon="-6.60558401606977">
        <ele>103.95999999999999</ele>
        <time>2026-06-25T17:27:06Z</time>
      </trkpt>
      <trkpt lat="52.320480979979038" lon="-6.605835976079106">
        <ele>103.48</ele>
        <time>2026-06-25T17:27:07Z</time>
      </trkpt>
      <trkpt lat="52.320672003552318" lon="-6.608234960585833">
        <ele>108.29000000000001</ele>
        <time>2026-06-25T17:27:17Z</time>
      </trkpt>
      <trkpt lat="52.320713996887207" lon="-6.608466971665621">
        <ele>108.29000000000001</ele>
        <time>2026-06-25T17:27:18Z</time>
      </trkpt>
      <trkpt lat="52.320756996050477" lon="-6.608697976917028">
        <ele>108.77</ele>
        <time>2026-06-25T17:27:19Z</time>
      </trkpt>
      <trkpt lat="52.320801001042128" lon="-6.608937028795481">
        <ele>109.25</ele>
        <time>2026-06-25T17:27:20Z</time>
      </trkpt>
      <trkpt lat="52.320844000205398" lon="-6.609171973541379">
        <ele>109.73</ele>
        <time>2026-06-25T17:27:21Z</time>
      </trkpt>
      <trkpt lat="52.320885993540287" lon="-6.609399961307645">
        <ele>109.73</ele>
        <time>2026-06-25T17:27:22Z</time>
      </trkpt>
      <trkpt lat="52.321041980758309" lon="-6.610258016735315">
        <ele>110.69</ele>
        <time>2026-06-25T17:27:26Z</time>
      </trkpt>
      <trkpt lat="52.321081040427089" lon="-6.610476030036807">
        <ele>110.69</ele>
        <time>2026-06-25T17:27:27Z</time>
      </trkpt>
      <trkpt lat="52.321122027933598" lon="-6.610701000317931">
        <ele>111.17</ele>
        <time>2026-06-25T17:27:28Z</time>
      </trkpt>
      <trkpt lat="52.321554031223059" lon="-6.613718988373876">
        <ele>121.26000000000001</ele>
        <time>2026-06-25T17:27:41Z</time>
      </trkpt>
      <trkpt lat="52.321672970429063" lon="-6.616480993106961">
        <ele>125.11</ele>
        <time>2026-06-25T17:27:52Z</time>
      </trkpt>
      <trkpt lat="52.32203003950417" lon="-6.619531000033021">
        <ele>112.61</ele>
        <time>2026-06-25T17:28:04Z</time>
      </trkpt>
      <trkpt lat="52.322326004505157" lon="-6.621666960418224">
        <ele>104.92</ele>
        <time>2026-06-25T17:28:13Z</time>
      </trkpt>
      <trkpt lat="52.32241996563971" lon="-6.622497020289302">
        <ele>100.59999999999999</ele>
        <time>2026-06-25T17:28:17Z</time>
      </trkpt>
      <trkpt lat="52.322429018095136" lon="-6.622717967256904">
        <ele>99.629999999999995</ele>
        <time>2026-06-25T17:28:18Z</time>
      </trkpt>
      <trkpt lat="52.322410997003317" lon="-6.622936986386776">
        <ele>98.670000000000002</ele>
        <time>2026-06-25T17:28:19Z</time>
      </trkpt>
      <trkpt lat="52.322384007275105" lon="-6.623168997466564">
        <ele>97.230000000000004</ele>
        <time>2026-06-25T17:28:20Z</time>
      </trkpt>
      <trkpt lat="52.322357017546892" lon="-6.623406959697604">
        <ele>95.310000000000002</ele>
        <time>2026-06-25T17:28:21Z</time>
      </trkpt>
      <trkpt lat="52.322240006178617" lon="-6.624440029263496">
        <ele>88.579999999999998</ele>
        <time>2026-06-25T17:28:25Z</time>
      </trkpt>
      <trkpt lat="52.322211004793644" lon="-6.624702969565988">
        <ele>86.659999999999997</ele>
        <time>2026-06-25T17:28:26Z</time>
      </trkpt>
      <trkpt lat="52.322084018960595" lon="-6.625342005863786">
        <ele>81.849999999999994</ele>
        <time>2026-06-25T17:28:29Z</time>
      </trkpt>
      <trkpt lat="52.322019981220365" lon="-6.62550201639533">
        <ele>80.890000000000001</ele>
        <time>2026-06-25T17:28:30Z</time>
      </trkpt>
      <trkpt lat="52.32194404117763" lon="-6.625632019713521">
        <ele>79.930000000000007</ele>
        <time>2026-06-25T17:28:31Z</time>
      </trkpt>
      <trkpt lat="52.321784030646086" lon="-6.625943994149566">
        <ele>78.480000000000004</ele>
        <time>2026-06-25T17:28:33Z</time>
      </trkpt>
      <trkpt lat="52.321229986846447" lon="-6.627419041469693">
        <ele>75.120000000000005</ele>
        <time>2026-06-25T17:28:40Z</time>
      </trkpt>
      <trkpt lat="52.320917006582022" lon="-6.628338033333421">
        <ele>70.790000000000006</ele>
        <time>2026-06-25T17:28:45Z</time>
      </trkpt>
      <trkpt lat="52.320865960791707" lon="-6.628545988351107">
        <ele>70.310000000000002</ele>
        <time>2026-06-25T17:28:46Z</time>
      </trkpt>
      <trkpt lat="52.320869984105229" lon="-6.628760984167457">
        <ele>70.310000000000002</ele>
        <time>2026-06-25T17:28:47Z</time>
      </trkpt>
      <trkpt lat="52.320777028799057" lon="-6.630700975656509">
        <ele>77.040000000000006</ele>
        <time>2026-06-25T17:28:56Z</time>
      </trkpt>
      <trkpt lat="52.320680972188711" lon="-6.632433012127876">
        <ele>76.079999999999998</ele>
        <time>2026-06-25T17:29:03Z</time>
      </trkpt>
      <trkpt lat="52.320692036300898" lon="-6.63343196734786">
        <ele>72.719999999999999</ele>
        <time>2026-06-25T17:29:07Z</time>
      </trkpt>
      <trkpt lat="52.320736963301897" lon="-6.63364302366972">
        <ele>72.239999999999995</ele>
        <time>2026-06-25T17:29:08Z</time>
      </trkpt>
      <trkpt lat="52.320821033790708" lon="-6.6338150203228">
        <ele>71.760000000000005</ele>
        <time>2026-06-25T17:29:09Z</time>
      </trkpt>
      <trkpt lat="52.320906026288867" lon="-6.633990034461021">
        <ele>71.760000000000005</ele>
        <time>2026-06-25T17:29:10Z</time>
      </trkpt>
      <trkpt lat="52.320989007130265" lon="-6.634161025285721">
        <ele>71.269999999999996</ele>
        <time>2026-06-25T17:29:11Z</time>
      </trkpt>
      <trkpt lat="52.321066958829761" lon="-6.634320029988885">
        <ele>71.269999999999996</ele>
        <time>2026-06-25T17:29:12Z</time>
      </trkpt>
      <trkpt lat="52.32110601849854" lon="-6.634472999721766">
        <ele>70.790000000000006</ele>
        <time>2026-06-25T17:29:13Z</time>
      </trkpt>
      <trkpt lat="52.321114987134933" lon="-6.634637033566833">
        <ele>70.790000000000006</ele>
        <time>2026-06-25T17:29:14Z</time>
      </trkpt>
      <trkpt lat="52.321116998791695" lon="-6.634811041876674">
        <ele>70.790000000000006</ele>
        <time>2026-06-25T17:29:15Z</time>
      </trkpt>
      <trkpt lat="52.321097971871495" lon="-6.635008016601205">
        <ele>70.790000000000006</ele>
        <time>2026-06-25T17:29:16Z</time>
      </trkpt>
      <trkpt lat="52.320914994925261" lon="-6.636950019747019">
        <ele>70.310000000000002</ele>
        <time>2026-06-25T17:29:24Z</time>
      </trkpt>
      <trkpt lat="52.320736041292548" lon="-6.639687968418002">
        <ele>72.719999999999999</ele>
        <time>2026-06-25T17:29:36Z</time>
      </trkpt>
      <trkpt lat="52.320819022133946" lon="-6.641103001311421">
        <ele>69.829999999999998</ele>
        <time>2026-06-25T17:29:42Z</time>
      </trkpt>
      <trkpt lat="52.320768982172012" lon="-6.64159401319921">
        <ele>69.349999999999994</ele>
        <time>2026-06-25T17:29:44Z</time>
      </trkpt>
      <trkpt lat="52.320739980787039" lon="-6.641834992915392">
        <ele>68.870000000000005</ele>
        <time>2026-06-25T17:29:45Z</time>
      </trkpt>
      <trkpt lat="52.32056999579072" lon="-6.643715975806117">
        <ele>68.390000000000001</ele>
        <time>2026-06-25T17:29:54Z</time>
      </trkpt>
      <trkpt lat="52.320703016594052" lon="-6.645492017269135">
        <ele>69.829999999999998</ele>
        <time>2026-06-25T17:30:04Z</time>
      </trkpt>
      <trkpt lat="52.320897979661822" lon="-6.647076029330492">
        <ele>68.390000000000001</ele>
        <time>2026-06-25T17:30:14Z</time>
      </trkpt>
      <trkpt lat="52.320916000753641" lon="-6.647207038477063">
        <ele>66.950000000000003</ele>
        <time>2026-06-25T17:30:20Z</time>
      </trkpt>
      <trkpt lat="52.320926981046796" lon="-6.647289013490081">
        <ele>66.469999999999999</ele>
        <time>2026-06-25T17:30:23Z</time>
      </trkpt>
      <trkpt lat="52.320938967168331" lon="-6.647376017645001">
        <ele>66.469999999999999</ele>
        <time>2026-06-25T17:30:24Z</time>
      </trkpt>
      <trkpt lat="52.320966962724924" lon="-6.647493029013276">
        <ele>65.989999999999995</ele>
        <time>2026-06-25T17:30:25Z</time>
      </trkpt>
      <trkpt lat="52.321023037657142" lon="-6.64761196821928">
        <ele>65.989999999999995</ele>
        <time>2026-06-25T17:30:26Z</time>
      </trkpt>
      <trkpt lat="52.321086991578341" lon="-6.647751023992896">
        <ele>65.989999999999995</ele>
        <time>2026-06-25T17:30:27Z</time>
      </trkpt>
      <trkpt lat="52.321156980469823" lon="-6.647900976240635">
        <ele>65.510000000000005</ele>
        <time>2026-06-25T17:30:28Z</time>
      </trkpt>
      <trkpt lat="52.321251025423408" lon="-6.648101974278688">
        <ele>65.030000000000001</ele>
        <time>2026-06-25T17:30:29Z</time>
      </trkpt>
      <trkpt lat="52.321326965466142" lon="-6.648202976211906">
        <ele>64.549999999999997</ele>
        <time>2026-06-25T17:30:30Z</time>
      </trkpt>
      <trkpt lat="52.322187032550573" lon="-6.649217018857598">
        <ele>64.549999999999997</ele>
        <time>2026-06-25T17:30:39Z</time>
      </trkpt>
      <trkpt lat="52.322302032262087" lon="-6.649350039660931">
        <ele>65.030000000000001</ele>
        <time>2026-06-25T17:30:41Z</time>
      </trkpt>
      <trkpt lat="52.322405967861414" lon="-6.649517007172108">
        <ele>65.510000000000005</ele>
        <time>2026-06-25T17:30:43Z</time>
      </trkpt>
      <trkpt lat="52.322398005053401" lon="-6.649609040468931">
        <ele>65.510000000000005</ele>
        <time>2026-06-25T17:30:44Z</time>
      </trkpt>
      <trkpt lat="52.322389036417007" lon="-6.649718005210161">
        <ele>65.510000000000005</ele>
        <time>2026-06-25T17:30:45Z</time>
      </trkpt>
      <trkpt lat="52.32235400006175" lon="-6.650124024599791">
        <ele>65.510000000000005</ele>
        <time>2026-06-25T17:30:48Z</time>
      </trkpt>
      <trkpt lat="52.32228702865541" lon="-6.651334958150983">
        <ele>66.950000000000003</ele>
        <time>2026-06-25T17:30:54Z</time>
      </trkpt>
      <trkpt lat="52.322283005341887" lon="-6.651483988389373">
        <ele>67.430000000000007</ele>
        <time>2026-06-25T17:30:55Z</time>
      </trkpt>
      <trkpt lat="52.322301026433706" lon="-6.651642993092537">
        <ele>68.390000000000001</ele>
        <time>2026-06-25T17:30:56Z</time>
      </trkpt>
      <trkpt lat="52.322463970631361" lon="-6.652740016579628">
        <ele>72.719999999999999</ele>
        <time>2026-06-25T17:31:04Z</time>
      </trkpt>
      <trkpt lat="52.322485009208322" lon="-6.65289499796927">
        <ele>73.680000000000007</ele>
        <time>2026-06-25T17:31:05Z</time>
      </trkpt>
      <trkpt lat="52.32250596396625" lon="-6.653054002672434">
        <ele>74.159999999999997</ele>
        <time>2026-06-25T17:31:06Z</time>
      </trkpt>
      <trkpt lat="52.322527002543211" lon="-6.653215019032359">
        <ele>75.120000000000005</ele>
        <time>2026-06-25T17:31:07Z</time>
      </trkpt>
      <trkpt lat="52.322603026404977" lon="-6.65366898290813">
        <ele>78</ele>
        <time>2026-06-25T17:31:10Z</time>
      </trkpt>
      <trkpt lat="52.322634039446712" lon="-6.653817007318139">
        <ele>78.969999999999999</ele>
        <time>2026-06-25T17:31:11Z</time>
      </trkpt>
      <trkpt lat="52.322677038609982" lon="-6.653949022293091">
        <ele>79.930000000000007</ele>
        <time>2026-06-25T17:31:12Z</time>
      </trkpt>
      <trkpt lat="52.322967974469066" lon="-6.654603984206915">
        <ele>84.25</ele>
        <time>2026-06-25T17:31:19Z</time>
      </trkpt>
      <trkpt lat="52.322993958368897" lon="-6.654673973098397">
        <ele>84.730000000000004</ele>
        <time>2026-06-25T17:31:20Z</time>
      </trkpt>
      <trkpt lat="52.322964034974575" lon="-6.654882011935115">
        <ele>85.209999999999994</ele>
        <time>2026-06-25T17:31:21Z</time>
      </trkpt>
      <trkpt lat="52.322915000841022" lon="-6.654958035796881">
        <ele>85.689999999999998</ele>
        <time>2026-06-25T17:31:22Z</time>
      </trkpt>
      <trkpt lat="52.322858003899455" lon="-6.655047973617911">
        <ele>86.180000000000007</ele>
        <time>2026-06-25T17:31:23Z</time>
      </trkpt>
      <trkpt lat="52.322602020576596" lon="-6.655476037412882">
        <ele>88.099999999999994</ele>
        <time>2026-06-25T17:31:27Z</time>
      </trkpt>
      <trkpt lat="52.322176974266768" lon="-6.656924011185765">
        <ele>88.099999999999994</ele>
        <time>2026-06-25T17:31:36Z</time>
      </trkpt>
      <trkpt lat="52.321824012324214" lon="-6.65874196216464">
        <ele>85.209999999999994</ele>
        <time>2026-06-25T17:31:44Z</time>
      </trkpt>
      <trkpt lat="52.32127902098" lon="-6.66090901941061">
        <ele>84.25</ele>
        <time>2026-06-25T17:31:53Z</time>
      </trkpt>
      <trkpt lat="52.3207419924438" lon="-6.662866026163101">
        <ele>83.290000000000006</ele>
        <time>2026-06-25T17:32:02Z</time>
      </trkpt>
      <trkpt lat="52.320330021902919" lon="-6.664679031819105">
        <ele>78.480000000000004</ele>
        <time>2026-06-25T17:32:10Z</time>
      </trkpt>
      <trkpt lat="52.320256009697914" lon="-6.664887992665172">
        <ele>78.480000000000004</ele>
        <time>2026-06-25T17:32:11Z</time>
      </trkpt>
      <trkpt lat="52.319770026952028" lon="-6.66585098952055">
        <ele>77.040000000000006</ele>
        <time>2026-06-25T17:32:16Z</time>
      </trkpt>
      <trkpt lat="52.319668019190431" lon="-6.666031032800674">
        <ele>76.560000000000002</ele>
        <time>2026-06-25T17:32:17Z</time>
      </trkpt>
      <trkpt lat="52.31878599151969" lon="-6.667585959658027">
        <ele>75.120000000000005</ele>
        <time>2026-06-25T17:32:26Z</time>
      </trkpt>
      <trkpt lat="52.318385001271963" lon="-6.668292973190546">
        <ele>75.599999999999994</ele>
        <time>2026-06-25T17:32:30Z</time>
      </trkpt>
      <trkpt lat="52.318282993510365" lon="-6.668473016470671">
        <ele>75.120000000000005</ele>
        <time>2026-06-25T17:32:31Z</time>
      </trkpt>
      <trkpt lat="52.317888960242271" lon="-6.669167960062623">
        <ele>75.599999999999994</ele>
        <time>2026-06-25T17:32:35Z</time>
      </trkpt>
      <trkpt lat="52.317787958309054" lon="-6.669345991685987">
        <ele>75.599999999999994</ele>
        <time>2026-06-25T17:32:36Z</time>
      </trkpt>
      <trkpt lat="52.317686034366488" lon="-6.669526034966111">
        <ele>75.599999999999994</ele>
        <time>2026-06-25T17:32:37Z</time>
      </trkpt>
      <trkpt lat="52.316495971754193" lon="-6.671397965401411">
        <ele>71.269999999999996</ele>
        <time>2026-06-25T17:32:48Z</time>
      </trkpt>
      <trkpt lat="52.316108979284763" lon="-6.672149989753962">
        <ele>67.430000000000007</ele>
        <time>2026-06-25T17:32:52Z</time>
      </trkpt>
      <trkpt lat="52.31601501815021" lon="-6.672331960871816">
        <ele>66.469999999999999</ele>
        <time>2026-06-25T17:32:53Z</time>
      </trkpt>
      <trkpt lat="52.315687034279108" lon="-6.672797994688153">
        <ele>64.549999999999997</ele>
        <time>2026-06-25T17:32:56Z</time>
      </trkpt>
      <trkpt lat="52.314350036904216" lon="-6.674224007874727">
        <ele>67.430000000000007</ele>
        <time>2026-06-25T17:33:07Z</time>
      </trkpt>
      <trkpt lat="52.314205029979348" lon="-6.674306988716126">
        <ele>66.950000000000003</ele>
        <time>2026-06-25T17:33:08Z</time>
      </trkpt>
      <trkpt lat="52.313633970916271" lon="-6.674634972587228">
        <ele>65.030000000000001</ele>
        <time>2026-06-25T17:33:12Z</time>
      </trkpt>
      <trkpt lat="52.313489969819784" lon="-6.674722982570529">
        <ele>64.549999999999997</ele>
        <time>2026-06-25T17:33:13Z</time>
      </trkpt>
      <trkpt lat="52.313362983986735" lon="-6.674843011423945">
        <ele>64.069999999999993</ele>
        <time>2026-06-25T17:33:14Z</time>
      </trkpt>
      <trkpt lat="52.312335027381778" lon="-6.675754962489009">
        <ele>59.740000000000002</ele>
        <time>2026-06-25T17:33:22Z</time>
      </trkpt>
      <trkpt lat="52.311026025563478" lon="-6.676898002624512">
        <ele>54.93</ele>
        <time>2026-06-25T17:33:32Z</time>
      </trkpt>
      <trkpt lat="52.310270983725786" lon="-6.677617002278566">
        <ele>51.57</ele>
        <time>2026-06-25T17:33:38Z</time>
      </trkpt>
      <trkpt lat="52.310147015377879" lon="-6.677735019475222">
        <ele>51.57</ele>
        <time>2026-06-25T17:33:39Z</time>
      </trkpt>
      <trkpt lat="52.310027992352843" lon="-6.677849013358355">
        <ele>52.049999999999997</ele>
        <time>2026-06-25T17:33:40Z</time>
      </trkpt>
      <trkpt lat="52.309904024004936" lon="-6.678000977262855">
        <ele>52.049999999999997</ele>
        <time>2026-06-25T17:33:41Z</time>
      </trkpt>
      <trkpt lat="52.309835962951183" lon="-6.678207004442811">
        <ele>52.049999999999997</ele>
        <time>2026-06-25T17:33:42Z</time>
      </trkpt>
      <trkpt lat="52.309771003201604" lon="-6.678461981937289">
        <ele>52.049999999999997</ele>
        <time>2026-06-25T17:33:43Z</time>
      </trkpt>
      <trkpt lat="52.309771003201604" lon="-6.678692987188697">
        <ele>52.049999999999997</ele>
        <time>2026-06-25T17:33:44Z</time>
      </trkpt>
      <trkpt lat="52.309771003201604" lon="-6.678929021582007">
        <ele>52.049999999999997</ele>
        <time>2026-06-25T17:33:45Z</time>
      </trkpt>
      <trkpt lat="52.309771003201604" lon="-6.679163966327906">
        <ele>52.049999999999997</ele>
        <time>2026-06-25T17:33:46Z</time>
      </trkpt>
      <trkpt lat="52.309868987649679" lon="-6.682096961885691">
        <ele>53.969999999999999</ele>
        <time>2026-06-25T17:33:58Z</time>
      </trkpt>
      <trkpt lat="52.31014902703464" lon="-6.684222025796771">
        <ele>47.240000000000002</ele>
        <time>2026-06-25T17:34:07Z</time>
      </trkpt>
      <trkpt lat="52.310496959835291" lon="-6.686308030039072">
        <ele>42.439999999999998</ele>
        <time>2026-06-25T17:34:16Z</time>
      </trkpt>
      <trkpt lat="52.310738023370504" lon="-6.688916981220245">
        <ele>43.880000000000003</ele>
        <time>2026-06-25T17:34:27Z</time>
      </trkpt>
      <trkpt lat="52.310910020023584" lon="-6.69100902043283">
        <ele>49.649999999999999</ele>
        <time>2026-06-25T17:34:36Z</time>
      </trkpt>
      <trkpt lat="52.310982020571828" lon="-6.692263958975673">
        <ele>51.090000000000003</ele>
        <time>2026-06-25T17:34:41Z</time>
      </trkpt>
      <trkpt lat="52.310842964798212" lon="-6.693951990455389">
        <ele>47.240000000000002</ele>
        <time>2026-06-25T17:34:48Z</time>
      </trkpt>
      <trkpt lat="52.310857968404889" lon="-6.694195987656713">
        <ele>46.280000000000001</ele>
        <time>2026-06-25T17:34:49Z</time>
      </trkpt>
      <trkpt lat="52.310871966183186" lon="-6.694441996514797">
        <ele>44.840000000000003</ele>
        <time>2026-06-25T17:34:50Z</time>
      </trkpt>
      <trkpt lat="52.310886969789863" lon="-6.694685993716121">
        <ele>44.359999999999999</ele>
        <time>2026-06-25T17:34:51Z</time>
      </trkpt>
      <trkpt lat="52.310931980609894" lon="-6.694910963997245">
        <ele>43.399999999999999</ele>
        <time>2026-06-25T17:34:52Z</time>
      </trkpt>
      <trkpt lat="52.311597000807524" lon="-6.697302991524339">
        <ele>36.670000000000002</ele>
        <time>2026-06-25T17:35:03Z</time>
      </trkpt>
      <trkpt lat="52.312066974118352" lon="-6.698799999430776">
        <ele>35.229999999999997</ele>
        <time>2026-06-25T17:35:10Z</time>
      </trkpt>
      <trkpt lat="52.312105027958751" lon="-6.699021030217409">
        <ele>34.740000000000002</ele>
        <time>2026-06-25T17:35:11Z</time>
      </trkpt>
      <trkpt lat="52.312132017686963" lon="-6.699256980791688">
        <ele>34.259999999999998</ele>
        <time>2026-06-25T17:35:12Z</time>
      </trkpt>
      <trkpt lat="52.312116008251905" lon="-6.699425037950277">
        <ele>33.780000000000001</ele>
        <time>2026-06-25T17:35:13Z</time>
      </trkpt>
      <trkpt lat="52.312096981331706" lon="-6.699636010453105">
        <ele>33.299999999999997</ele>
        <time>2026-06-25T17:35:14Z</time>
      </trkpt>
      <trkpt lat="52.312045013532043" lon="-6.699880007654429">
        <ele>32.82</ele>
        <time>2026-06-25T17:35:15Z</time>
      </trkpt>
      <trkpt lat="52.311445036903024" lon="-6.701941033825278">
        <ele>36.670000000000002</ele>
        <time>2026-06-25T17:35:24Z</time>
      </trkpt>
      <trkpt lat="52.310738023370504" lon="-6.704278998076916">
        <ele>40.509999999999998</ele>
        <time>2026-06-25T17:35:35Z</time>
      </trkpt>
      <trkpt lat="52.310307025909424" lon="-6.705432012677193">
        <ele>40.990000000000002</ele>
        <time>2026-06-25T17:35:41Z</time>
      </trkpt>
      <trkpt lat="52.310240976512432" lon="-6.705621024593711">
        <ele>40.990000000000002</ele>
        <time>2026-06-25T17:35:42Z</time>
      </trkpt>
      <trkpt lat="52.310195965692401" lon="-6.705779023468494">
        <ele>40.990000000000002</ele>
        <time>2026-06-25T17:35:43Z</time>
      </trkpt>
      <trkpt lat="52.310174005106091" lon="-6.705989995971322">
        <ele>40.509999999999998</ele>
        <time>2026-06-25T17:35:44Z</time>
      </trkpt>
      <trkpt lat="52.310151038691401" lon="-6.70622100122273">
        <ele>40.030000000000001</ele>
        <time>2026-06-25T17:35:45Z</time>
      </trkpt>
      <trkpt lat="52.310124970972538" lon="-6.706473967060447">
        <ele>40.030000000000001</ele>
        <time>2026-06-25T17:35:46Z</time>
      </trkpt>
      <trkpt lat="52.310196971520782" lon="-6.707470994442701">
        <ele>40.509999999999998</ele>
        <time>2026-06-25T17:35:50Z</time>
      </trkpt>
      <trkpt lat="52.310222033411264" lon="-6.707733012735844">
        <ele>40.990000000000002</ele>
        <time>2026-06-25T17:35:51Z</time>
      </trkpt>
      <trkpt lat="52.310249023139477" lon="-6.707859998568893">
        <ele>41.469999999999999</ele>
        <time>2026-06-25T17:35:52Z</time>
      </trkpt>
      <trkpt lat="52.310287998989224" lon="-6.708043981343508">
        <ele>41.950000000000003</ele>
        <time>2026-06-25T17:35:53Z</time>
      </trkpt>
      <trkpt lat="52.310329992324114" lon="-6.70824196189642">
        <ele>42.920000000000002</ele>
        <time>2026-06-25T17:35:54Z</time>
      </trkpt>
      <trkpt lat="52.310371985659003" lon="-6.708439020439982">
        <ele>43.399999999999999</ele>
        <time>2026-06-25T17:35:55Z</time>
      </trkpt>
      <trkpt lat="52.310452032834291" lon="-6.708817966282368">
        <ele>43.880000000000003</ele>
        <time>2026-06-25T17:35:57Z</time>
      </trkpt>
      <trkpt lat="52.310491008684039" lon="-6.709003960713744">
        <ele>43.880000000000003</ele>
        <time>2026-06-25T17:35:58Z</time>
      </trkpt>
      <trkpt lat="52.310511041432619" lon="-6.709405034780502">
        <ele>44.359999999999999</ele>
        <time>2026-06-25T17:36:00Z</time>
      </trkpt>
      <trkpt lat="52.310494026169181" lon="-6.711289035156369">
        <ele>44.359999999999999</ele>
        <time>2026-06-25T17:36:09Z</time>
      </trkpt>
      <trkpt lat="52.310778005048633" lon="-6.713149985298514">
        <ele>40.030000000000001</ele>
        <time>2026-06-25T17:36:17Z</time>
      </trkpt>
      <trkpt lat="52.310866015031934" lon="-6.713554998859763">
        <ele>39.07</ele>
        <time>2026-06-25T17:36:19Z</time>
      </trkpt>
      <trkpt lat="52.310889987275004" lon="-6.713746022433043">
        <ele>38.109999999999999</ele>
        <time>2026-06-25T17:36:20Z</time>
      </trkpt>
      <trkpt lat="52.310913037508726" lon="-6.713931011036038">
        <ele>37.630000000000003</ele>
        <time>2026-06-25T17:36:21Z</time>
      </trkpt>
      <trkpt lat="52.310899961739779" lon="-6.715169018134475">
        <ele>32.82</ele>
        <time>2026-06-25T17:36:27Z</time>
      </trkpt>
      <trkpt lat="52.310861991718411" lon="-6.715347971767187">
        <ele>31.859999999999999</ele>
        <time>2026-06-25T17:36:28Z</time>
      </trkpt>
      <trkpt lat="52.310806000605226" lon="-6.715517034754157">
        <ele>30.899999999999999</ele>
        <time>2026-06-25T17:36:29Z</time>
      </trkpt>
      <trkpt lat="52.310241982340813" lon="-6.716800974681974">
        <ele>27.050000000000001</ele>
        <time>2026-06-25T17:36:37Z</time>
      </trkpt>
      <trkpt lat="52.310204012319446" lon="-6.716961991041899">
        <ele>27.050000000000001</ele>
        <time>2026-06-25T17:36:38Z</time>
      </trkpt>
      <trkpt lat="52.310155984014273" lon="-6.717334985733032">
        <ele>26.57</ele>
        <time>2026-06-25T17:36:40Z</time>
      </trkpt>
      <trkpt lat="52.310121031478047" lon="-6.717741005122662">
        <ele>26.09</ele>
        <time>2026-06-25T17:36:42Z</time>
      </trkpt>
      <trkpt lat="52.310103010386229" lon="-6.717951977625489">
        <ele>26.09</ele>
        <time>2026-06-25T17:36:43Z</time>
      </trkpt>
      <trkpt lat="52.310083983466029" lon="-6.71816797927022">
        <ele>25.609999999999999</ele>
        <time>2026-06-25T17:36:44Z</time>
      </trkpt>
      <trkpt lat="52.309988010674715" lon="-6.718782959505916">
        <ele>22.73</ele>
        <time>2026-06-25T17:36:47Z</time>
      </trkpt>
      <trkpt lat="52.30995699763298" lon="-6.718957973644137">
        <ele>21.289999999999999</ele>
        <time>2026-06-25T17:36:48Z</time>
      </trkpt>
      <trkpt lat="52.309927996248007" lon="-6.719116978347302">
        <ele>20.32</ele>
        <time>2026-06-25T17:36:49Z</time>
      </trkpt>
      <trkpt lat="52.309950040653348" lon="-6.719386037439108">
        <ele>19.359999999999999</ele>
        <time>2026-06-25T17:36:50Z</time>
      </trkpt>
      <trkpt lat="52.310021035373211" lon="-6.71954202465713">
        <ele>18.879999999999999</ele>
        <time>2026-06-25T17:36:51Z</time>
      </trkpt>
      <trkpt lat="52.310096975415945" lon="-6.719708992168307">
        <ele>18.399999999999999</ele>
        <time>2026-06-25T17:36:52Z</time>
      </trkpt>
      <trkpt lat="52.310180040076375" lon="-6.719890041276813">
        <ele>17.440000000000001</ele>
        <time>2026-06-25T17:36:53Z</time>
      </trkpt>
      <trkpt lat="52.310266960412264" lon="-6.720081986859441">
        <ele>16.48</ele>
        <time>2026-06-25T17:36:54Z</time>
      </trkpt>
      <trkpt lat="52.310357987880707" lon="-6.720280973240733">
        <ele>16</ele>
        <time>2026-06-25T17:36:55Z</time>
      </trkpt>
      <trkpt lat="52.311005992814898" lon="-6.721702963113785">
        <ele>9.75</ele>
        <time>2026-06-25T17:37:03Z</time>
      </trkpt>
      <trkpt lat="52.311383010819554" lon="-6.722735026851296">
        <ele>6.87</ele>
        <time>2026-06-25T17:37:09Z</time>
      </trkpt>
      <trkpt lat="52.311417041346431" lon="-6.722909035161138">
        <ele>6.87</ele>
        <time>2026-06-25T17:37:10Z</time>
      </trkpt>
      <trkpt lat="52.311540003865957" lon="-6.723589980974793">
        <ele>5.91</ele>
        <time>2026-06-25T17:37:16Z</time>
      </trkpt>
      <trkpt lat="52.311647040769458" lon="-6.723798019811511">
        <ele>3.98</ele>
        <time>2026-06-25T17:37:21Z</time>
      </trkpt>
      <trkpt lat="52.311691967770457" lon="-6.723805982619524">
        <ele>3.5</ele>
        <time>2026-06-25T17:37:22Z</time>
      </trkpt>
      <trkpt lat="52.311725998297334" lon="-6.723813023418188">
        <ele>3.02</ele>
        <time>2026-06-25T17:37:23Z</time>
      </trkpt>
      <trkpt lat="52.311754999682307" lon="-6.72381897456944">
        <ele>2.54</ele>
        <time>2026-06-25T17:37:24Z</time>
      </trkpt>
      <trkpt lat="52.311790036037564" lon="-6.723826015368104">
        <ele>2.06</ele>
        <time>2026-06-25T17:37:25Z</time>
      </trkpt>
      <trkpt lat="52.311842003837228" lon="-6.723835989832878">
        <ele>2.06</ele>
        <time>2026-06-25T17:37:26Z</time>
      </trkpt>
      <trkpt lat="52.311973012983799" lon="-6.72386197373271">
        <ele>1.58</ele>
        <time>2026-06-25T17:37:28Z</time>
      </trkpt>
      <trkpt lat="52.312043001875281" lon="-6.723875971511006">
        <ele>1.1</ele>
        <time>2026-06-25T17:37:29Z</time>
      </trkpt>
      <trkpt lat="52.312112990766764" lon="-6.723888963460922">
        <ele>1.1</ele>
        <time>2026-06-25T17:37:30Z</time>
      </trkpt>
      <trkpt lat="52.312198989093304" lon="-6.723905978724361">
        <ele>0.62</ele>
        <time>2026-06-25T17:37:31Z</time>
      </trkpt>
      <trkpt lat="52.312296973541379" lon="-6.72392601147294">
        <ele>0.62</ele>
        <time>2026-06-25T17:37:32Z</time>
      </trkpt>
      <trkpt lat="52.312406022101641" lon="-6.723946966230869">
        <ele>0.14</ele>
        <time>2026-06-25T17:37:33Z</time>
      </trkpt>
      <trkpt lat="52.312526972964406" lon="-6.723971022292972">
        <ele>-0.34</ele>
        <time>2026-06-25T17:37:34Z</time>
      </trkpt>
      <trkpt lat="52.313668001443148" lon="-6.724089039489627">
        <ele>-1.79</ele>
        <time>2026-06-25T17:37:42Z</time>
      </trkpt>
      <trkpt lat="52.313803033903241" lon="-6.724084010347724">
        <ele>-1.3</ele>
        <time>2026-06-25T17:37:43Z</time>
      </trkpt>
      <trkpt lat="52.314522033557296" lon="-6.723812017589808">
        <ele>3.98</ele>
        <time>2026-06-25T17:37:49Z</time>
      </trkpt>
      <trkpt lat="52.314975997433066" lon="-6.723634991794825">
        <ele>6.39</ele>
        <time>2026-06-25T17:37:53Z</time>
      </trkpt>
      <trkpt lat="52.315942011773586" lon="-6.723257973790169">
        <ele>14.08</ele>
        <time>2026-06-25T17:38:02Z</time>
      </trkpt>
      <trkpt lat="52.316029015928507" lon="-6.723224027082324">
        <ele>15.039999999999999</ele>
        <time>2026-06-25T17:38:03Z</time>
      </trkpt>
      <trkpt lat="52.316118031740189" lon="-6.723189996555448">
        <ele>15.52</ele>
        <time>2026-06-25T17:38:04Z</time>
      </trkpt>
      <trkpt lat="52.316347025334835" lon="-6.723099974915385">
        <ele>18.399999999999999</ele>
        <time>2026-06-25T17:38:07Z</time>
      </trkpt>
      <trkpt lat="52.31638097204268" lon="-6.723086982965469">
        <ele>18.879999999999999</ele>
        <time>2026-06-25T17:38:08Z</time>
      </trkpt>
      <trkpt lat="52.31640100479126" lon="-6.723079020157456">
        <ele>19.84</ele>
        <time>2026-06-25T17:38:09Z</time>
      </trkpt>
      <trkpt lat="52.316465964540839" lon="-6.722962008789182">
        <ele>25.609999999999999</ele>
        <time>2026-06-25T17:38:21Z</time>
      </trkpt>
      <trkpt lat="52.316465964540839" lon="-6.722934013232589">
        <ele>26.57</ele>
        <time>2026-06-25T17:38:22Z</time>
      </trkpt>
      <trkpt lat="52.316465964540839" lon="-6.72289595939219">
        <ele>27.050000000000001</ele>
        <time>2026-06-25T17:38:23Z</time>
      </trkpt>
      <trkpt lat="52.316465964540839" lon="-6.722853966057301">
        <ele>28.02</ele>
        <time>2026-06-25T17:38:24Z</time>
      </trkpt>
      <trkpt lat="52.316465964540839" lon="-6.722590019926429">
        <ele>30.899999999999999</ele>
        <time>2026-06-25T17:38:32Z</time>
      </trkpt>
      <trkpt lat="52.316465964540839" lon="-6.722568981349468">
        <ele>31.379999999999999</ele>
        <time>2026-06-25T17:38:33Z</time>
      </trkpt>
      <trkpt lat="52.316465964540839" lon="-6.722409976646304">
        <ele>31.379999999999999</ele>
        <time>2026-06-25T17:38:34Z</time>
      </trkpt>
      <trkpt lat="52.316465964540839" lon="-6.722409976646304">
        <ele>31.379999999999999</ele>
        <time>2026-06-25T17:38:35Z</time>
      </trkpt>
      <trkpt lat="52.316465964540839" lon="-6.722409976646304">
        <ele>31.859999999999999</ele>
        <time>2026-06-25T17:38:52Z</time>
      </trkpt>
    </trkseg>
  </trk>

</gpx>